﻿<?xml version="1.0" encoding="utf-8"?><gpx creator="Garmin Desktop App" version="1.1" xsi:schemaLocation="http://www.topografix.com/GPX/1/1 http://www.topografix.com/GPX/1/1/gpx.xsd http://www.garmin.com/xmlschemas/WaypointExtension/v1 http://www8.garmin.com/xmlschemas/WaypointExtensionv1.xsd http://www.garmin.com/xmlschemas/TrackPointExtension/v1 http://www.garmin.com/xmlschemas/TrackPointExtensionv1.xsd http://www.garmin.com/xmlschemas/GpxExtensions/v3 http://www8.garmin.com/xmlschemas/GpxExtensionsv3.xsd http://www.garmin.com/xmlschemas/ActivityExtension/v1 http://www8.garmin.com/xmlschemas/ActivityExtensionv1.xsd http://www.garmin.com/xmlschemas/AdventuresExtensions/v1 http://www8.garmin.com/xmlschemas/AdventuresExtensionv1.xsd http://www.garmin.com/xmlschemas/PressureExtension/v1 http://www.garmin.com/xmlschemas/PressureExtensionv1.xsd http://www.garmin.com/xmlschemas/TripExtensions/v1 http://www.garmin.com/xmlschemas/TripExtensionsv1.xsd http://www.garmin.com/xmlschemas/TripMetaDataExtensions/v1 http://www.garmin.com/xmlschemas/TripMetaDataExtensionsv1.xsd http://www.garmin.com/xmlschemas/ViaPointTransportationModeExtensions/v1 http://www.garmin.com/xmlschemas/ViaPointTransportationModeExtensionsv1.xsd http://www.garmin.com/xmlschemas/CreationTimeExtension/v1 http://www.garmin.com/xmlschemas/CreationTimeExtensionsv1.xsd http://www.garmin.com/xmlschemas/AccelerationExtension/v1 http://www.garmin.com/xmlschemas/AccelerationExtensionv1.xsd http://www.garmin.com/xmlschemas/PowerExtension/v1 http://www.garmin.com/xmlschemas/PowerExtensionv1.xsd http://www.garmin.com/xmlschemas/VideoExtension/v1 http://www.garmin.com/xmlschemas/VideoExtensionv1.xsd" xmlns="http://www.topografix.com/GPX/1/1" xmlns:xsi="http://www.w3.org/2001/XMLSchema-instance" xmlns:wptx1="http://www.garmin.com/xmlschemas/WaypointExtension/v1" xmlns:gpxtrx="http://www.garmin.com/xmlschemas/GpxExtensions/v3" xmlns:gpxtpx="http://www.garmin.com/xmlschemas/TrackPointExtension/v1" xmlns:gpxx="http://www.garmin.com/xmlschemas/GpxExtensions/v3" xmlns:trp="http://www.garmin.com/xmlschemas/TripExtensions/v1" xmlns:adv="http://www.garmin.com/xmlschemas/AdventuresExtensions/v1" xmlns:prs="http://www.garmin.com/xmlschemas/PressureExtension/v1" xmlns:tmd="http://www.garmin.com/xmlschemas/TripMetaDataExtensions/v1" xmlns:vptm="http://www.garmin.com/xmlschemas/ViaPointTransportationModeExtensions/v1" xmlns:ctx="http://www.garmin.com/xmlschemas/CreationTimeExtension/v1" xmlns:gpxacc="http://www.garmin.com/xmlschemas/AccelerationExtension/v1" xmlns:gpxpx="http://www.garmin.com/xmlschemas/PowerExtension/v1" xmlns:vidx1="http://www.garmin.com/xmlschemas/VideoExtension/v1">

  <metadata>
    <link href="http://www.garmin.com">
      <text>Garmin International</text>
    </link>
    <time>2024-09-15T17:43:20Z</time>
    <bounds maxlat="54.673153962939978" maxlon="13.651799988001585" minlat="54.294700976461172" minlon="13.094136966392398" />
  </metadata>

  <trk>
    <name>Track vom: 2024-09-15 08:18</name>
    <extensions>
      <gpxx:TrackExtension>
        <gpxx:DisplayColor>DarkGray</gpxx:DisplayColor>
      </gpxx:TrackExtension>
    </extensions>
    <trkseg>
      <trkpt lat="54.314954001456499" lon="13.097557034343481">
        <ele>6.39</ele>
        <time>2024-09-15T06:18:54Z</time>
      </trkpt>
      <trkpt lat="54.314950983971357" lon="13.097552005201578">
        <ele>6.39</ele>
        <time>2024-09-15T06:19:14Z</time>
      </trkpt>
      <trkpt lat="54.314950983971357" lon="13.097552005201578">
        <ele>6.39</ele>
        <time>2024-09-15T06:19:24Z</time>
      </trkpt>
      <trkpt lat="54.31491301394999" lon="13.097425019368529">
        <ele>6.39</ele>
        <time>2024-09-15T06:19:26Z</time>
      </trkpt>
      <trkpt lat="54.314926005899906" lon="13.097398029640317">
        <ele>5.91</ele>
        <time>2024-09-15T06:19:27Z</time>
      </trkpt>
      <trkpt lat="54.314931035041809" lon="13.097343966364861">
        <ele>5.42</ele>
        <time>2024-09-15T06:19:28Z</time>
      </trkpt>
      <trkpt lat="54.314937992021441" lon="13.097270037978888">
        <ele>4.94</ele>
        <time>2024-09-15T06:19:29Z</time>
      </trkpt>
      <trkpt lat="54.314944026991725" lon="13.097206000238657">
        <ele>4.46</ele>
        <time>2024-09-15T06:19:30Z</time>
      </trkpt>
      <trkpt lat="54.314947966486216" lon="13.097163001075387">
        <ele>3.98</ele>
        <time>2024-09-15T06:19:31Z</time>
      </trkpt>
      <trkpt lat="54.314950983971357" lon="13.09712796472013">
        <ele>3.02</ele>
        <time>2024-09-15T06:19:32Z</time>
      </trkpt>
      <trkpt lat="54.314969005063176" lon="13.096925960853696">
        <ele>-0.34</ele>
        <time>2024-09-15T06:19:37Z</time>
      </trkpt>
      <trkpt lat="54.314969005063176" lon="13.096925960853696">
        <ele>-0.82</ele>
        <time>2024-09-15T06:19:38Z</time>
      </trkpt>
      <trkpt lat="54.314969005063176" lon="13.096925960853696">
        <ele>-1.3</ele>
        <time>2024-09-15T06:19:39Z</time>
      </trkpt>
      <trkpt lat="54.315049974247813" lon="13.096850020810962">
        <ele>-2.27</ele>
        <time>2024-09-15T06:19:40Z</time>
      </trkpt>
      <trkpt lat="54.315089033916593" lon="13.096811966970563">
        <ele>-3.23</ele>
        <time>2024-09-15T06:19:41Z</time>
      </trkpt>
      <trkpt lat="54.315519025549293" lon="13.096402008086443">
        <ele>-10.92</ele>
        <time>2024-09-15T06:19:52Z</time>
      </trkpt>
      <trkpt lat="54.315768973901868" lon="13.096163962036371">
        <ele>-13.32</ele>
        <time>2024-09-15T06:19:57Z</time>
      </trkpt>
      <trkpt lat="54.315809961408377" lon="13.096124986186624">
        <ele>-13.800000000000001</ele>
        <time>2024-09-15T06:19:58Z</time>
      </trkpt>
      <trkpt lat="54.315841980278492" lon="13.096093973144889">
        <ele>-14.279999999999999</ele>
        <time>2024-09-15T06:19:59Z</time>
      </trkpt>
      <trkpt lat="54.315892020240426" lon="13.096047034487128">
        <ele>-14.76</ele>
        <time>2024-09-15T06:20:00Z</time>
      </trkpt>
      <trkpt lat="54.315881039947271" lon="13.096008980646729">
        <ele>-14.76</ele>
        <time>2024-09-15T06:20:01Z</time>
      </trkpt>
      <trkpt lat="54.315863018855453" lon="13.095946032553911">
        <ele>-15.24</ele>
        <time>2024-09-15T06:20:02Z</time>
      </trkpt>
      <trkpt lat="54.315844997763634" lon="13.095885012298822">
        <ele>-15.24</ele>
        <time>2024-09-15T06:20:03Z</time>
      </trkpt>
      <trkpt lat="54.315829994156957" lon="13.095832960680127">
        <ele>-14.76</ele>
        <time>2024-09-15T06:20:04Z</time>
      </trkpt>
      <trkpt lat="54.31581499055028" lon="13.095784010365605">
        <ele>-14.76</ele>
        <time>2024-09-15T06:20:05Z</time>
      </trkpt>
      <trkpt lat="54.315801998600364" lon="13.095737993717194">
        <ele>-14.76</ele>
        <time>2024-09-15T06:20:06Z</time>
      </trkpt>
      <trkpt lat="54.315791018307209" lon="13.095700023695827">
        <ele>-14.76</ele>
        <time>2024-09-15T06:20:07Z</time>
      </trkpt>
      <trkpt lat="54.315791018307209" lon="13.095700023695827">
        <ele>-14.76</ele>
        <time>2024-09-15T06:20:08Z</time>
      </trkpt>
      <trkpt lat="54.315770985558629" lon="13.095631962642074">
        <ele>-14.76</ele>
        <time>2024-09-15T06:20:10Z</time>
      </trkpt>
      <trkpt lat="54.315757993608713" lon="13.095588041469455">
        <ele>-14.76</ele>
        <time>2024-09-15T06:20:11Z</time>
      </trkpt>
      <trkpt lat="54.315741984173656" lon="13.095531966537237">
        <ele>-14.76</ele>
        <time>2024-09-15T06:20:12Z</time>
      </trkpt>
      <trkpt lat="54.315821025520563" lon="13.095467006787658">
        <ele>-15.24</ele>
        <time>2024-09-15T06:20:13Z</time>
      </trkpt>
      <trkpt lat="54.31585798971355" lon="13.095435993745923">
        <ele>-15.24</ele>
        <time>2024-09-15T06:20:14Z</time>
      </trkpt>
      <trkpt lat="54.3159019947052" lon="13.095400035381317">
        <ele>-15.24</ele>
        <time>2024-09-15T06:20:15Z</time>
      </trkpt>
      <trkpt lat="54.316038032993674" lon="13.095287969335914">
        <ele>-15.24</ele>
        <time>2024-09-15T06:20:18Z</time>
      </trkpt>
      <trkpt lat="54.316170969977975" lon="13.095180010423064">
        <ele>-15.720000000000001</ele>
        <time>2024-09-15T06:20:21Z</time>
      </trkpt>
      <trkpt lat="54.316213969141245" lon="13.095143968239427">
        <ele>-15.720000000000001</ele>
        <time>2024-09-15T06:20:22Z</time>
      </trkpt>
      <trkpt lat="54.316259985789657" lon="13.09510700404644">
        <ele>-15.720000000000001</ele>
        <time>2024-09-15T06:20:23Z</time>
      </trkpt>
      <trkpt lat="54.31630801409483" lon="13.095067022368312">
        <ele>-16.210000000000001</ele>
        <time>2024-09-15T06:20:24Z</time>
      </trkpt>
      <trkpt lat="54.316356964409351" lon="13.095027040690184">
        <ele>-16.210000000000001</ele>
        <time>2024-09-15T06:20:25Z</time>
      </trkpt>
      <trkpt lat="54.316402981057763" lon="13.094988986849785">
        <ele>-16.210000000000001</ele>
        <time>2024-09-15T06:20:26Z</time>
      </trkpt>
      <trkpt lat="54.316485961899161" lon="13.094920003786683">
        <ele>-16.690000000000001</ele>
        <time>2024-09-15T06:20:28Z</time>
      </trkpt>
      <trkpt lat="54.316522004082799" lon="13.09489100240171">
        <ele>-16.690000000000001</ele>
        <time>2024-09-15T06:20:29Z</time>
      </trkpt>
      <trkpt lat="54.316530972719193" lon="13.094696961343288">
        <ele>-16.690000000000001</ele>
        <time>2024-09-15T06:20:30Z</time>
      </trkpt>
      <trkpt lat="54.316510017961264" lon="13.09463401325047">
        <ele>-16.210000000000001</ele>
        <time>2024-09-15T06:20:31Z</time>
      </trkpt>
      <trkpt lat="54.316486967727542" lon="13.094562012702227">
        <ele>-15.720000000000001</ele>
        <time>2024-09-15T06:20:32Z</time>
      </trkpt>
      <trkpt lat="54.316461989656091" lon="13.0944839771837">
        <ele>-15.720000000000001</ele>
        <time>2024-09-15T06:20:33Z</time>
      </trkpt>
      <trkpt lat="54.316439023241401" lon="13.094412982463837">
        <ele>-15.24</ele>
        <time>2024-09-15T06:20:34Z</time>
      </trkpt>
      <trkpt lat="54.31635201908648" lon="13.094144007191062">
        <ele>-14.76</ele>
        <time>2024-09-15T06:20:39Z</time>
      </trkpt>
      <trkpt lat="54.316323017701507" lon="13.094136966392398">
        <ele>-13.800000000000001</ele>
        <time>2024-09-15T06:20:40Z</time>
      </trkpt>
      <trkpt lat="54.316296027973294" lon="13.094166973605752">
        <ele>-13.800000000000001</ele>
        <time>2024-09-15T06:20:41Z</time>
      </trkpt>
      <trkpt lat="54.316263003274798" lon="13.09420402161777">
        <ele>-13.32</ele>
        <time>2024-09-15T06:20:42Z</time>
      </trkpt>
      <trkpt lat="54.316226961091161" lon="13.094244003295898">
        <ele>-13.32</ele>
        <time>2024-09-15T06:20:43Z</time>
      </trkpt>
      <trkpt lat="54.316112967208028" lon="13.094370989128947">
        <ele>-12.84</ele>
        <time>2024-09-15T06:20:46Z</time>
      </trkpt>
      <trkpt lat="54.316071979701519" lon="13.094417005777359">
        <ele>-12.84</ele>
        <time>2024-09-15T06:20:47Z</time>
      </trkpt>
      <trkpt lat="54.316033003851771" lon="13.094460004940629">
        <ele>-12.84</ele>
        <time>2024-09-15T06:20:48Z</time>
      </trkpt>
      <trkpt lat="54.315994028002024" lon="13.09450400993228">
        <ele>-12.84</ele>
        <time>2024-09-15T06:20:49Z</time>
      </trkpt>
      <trkpt lat="54.315953962504864" lon="13.094549020752311">
        <ele>-12.84</ele>
        <time>2024-09-15T06:20:50Z</time>
      </trkpt>
      <trkpt lat="54.315910041332245" lon="13.094596965238452">
        <ele>-12.359999999999999</ele>
        <time>2024-09-15T06:20:51Z</time>
      </trkpt>
      <trkpt lat="54.315864024683833" lon="13.094648011028767">
        <ele>-12.359999999999999</ele>
        <time>2024-09-15T06:20:52Z</time>
      </trkpt>
      <trkpt lat="54.315638970583677" lon="13.094898965209723">
        <ele>-12.359999999999999</ele>
        <time>2024-09-15T06:20:57Z</time>
      </trkpt>
      <trkpt lat="54.315591026097536" lon="13.094952022656798">
        <ele>-12.84</ele>
        <time>2024-09-15T06:20:58Z</time>
      </trkpt>
      <trkpt lat="54.315560013055801" lon="13.094979012385011">
        <ele>-12.84</ele>
        <time>2024-09-15T06:20:59Z</time>
      </trkpt>
      <trkpt lat="54.315466973930597" lon="13.095055958256125">
        <ele>-13.32</ele>
        <time>2024-09-15T06:21:01Z</time>
      </trkpt>
      <trkpt lat="54.315419029444456" lon="13.095096023753285">
        <ele>-13.32</ele>
        <time>2024-09-15T06:21:02Z</time>
      </trkpt>
      <trkpt lat="54.315280979499221" lon="13.095211023464799">
        <ele>-13.800000000000001</ele>
        <time>2024-09-15T06:21:05Z</time>
      </trkpt>
      <trkpt lat="54.315240997821093" lon="13.095243964344263">
        <ele>-13.800000000000001</ele>
        <time>2024-09-15T06:21:06Z</time>
      </trkpt>
      <trkpt lat="54.315205039456487" lon="13.095273971557617">
        <ele>-13.800000000000001</ele>
        <time>2024-09-15T06:21:07Z</time>
      </trkpt>
      <trkpt lat="54.315166985616088" lon="13.095305990427732">
        <ele>-13.800000000000001</ele>
        <time>2024-09-15T06:21:08Z</time>
      </trkpt>
      <trkpt lat="54.31512700393796" lon="13.095339015126228">
        <ele>-13.800000000000001</ele>
        <time>2024-09-15T06:21:09Z</time>
      </trkpt>
      <trkpt lat="54.315087022259831" lon="13.095372039824724">
        <ele>-14.279999999999999</ele>
        <time>2024-09-15T06:21:10Z</time>
      </trkpt>
      <trkpt lat="54.314963975921273" lon="13.095474969595671">
        <ele>-14.76</ele>
        <time>2024-09-15T06:21:13Z</time>
      </trkpt>
      <trkpt lat="54.314918965101242" lon="13.095513023436069">
        <ele>-14.76</ele>
        <time>2024-09-15T06:21:14Z</time>
      </trkpt>
      <trkpt lat="54.314821986481547" lon="13.095592986792326">
        <ele>-14.76</ele>
        <time>2024-09-15T06:21:16Z</time>
      </trkpt>
      <trkpt lat="54.314777981489897" lon="13.095630034804344">
        <ele>-14.76</ele>
        <time>2024-09-15T06:21:17Z</time>
      </trkpt>
      <trkpt lat="54.314689971506596" lon="13.095703041180968">
        <ele>-14.76</ele>
        <time>2024-09-15T06:21:18Z</time>
      </trkpt>
      <trkpt lat="54.31465501897037" lon="13.095711003988981">
        <ele>-14.76</ele>
        <time>2024-09-15T06:21:19Z</time>
      </trkpt>
      <trkpt lat="54.314592992886901" lon="13.095725001767278">
        <ele>-14.76</ele>
        <time>2024-09-15T06:21:20Z</time>
      </trkpt>
      <trkpt lat="54.314467012882233" lon="13.095752997323871">
        <ele>-14.76</ele>
        <time>2024-09-15T06:21:22Z</time>
      </trkpt>
      <trkpt lat="54.314288981258869" lon="13.095791973173618">
        <ele>-14.279999999999999</ele>
        <time>2024-09-15T06:21:25Z</time>
      </trkpt>
      <trkpt lat="54.314083959907293" lon="13.09583798982203">
        <ele>-12.84</ele>
        <time>2024-09-15T06:21:29Z</time>
      </trkpt>
      <trkpt lat="54.314040038734674" lon="13.095847964286804">
        <ele>-11.880000000000001</ele>
        <time>2024-09-15T06:21:30Z</time>
      </trkpt>
      <trkpt lat="54.314007014036179" lon="13.095855005085468">
        <ele>-11.880000000000001</ele>
        <time>2024-09-15T06:21:31Z</time>
      </trkpt>
      <trkpt lat="54.313977006822824" lon="13.095861962065101">
        <ele>-11.4</ele>
        <time>2024-09-15T06:21:32Z</time>
      </trkpt>
      <trkpt lat="54.313952028751373" lon="13.095866991207004">
        <ele>-10.92</ele>
        <time>2024-09-15T06:21:33Z</time>
      </trkpt>
      <trkpt lat="54.313917998224497" lon="13.095875037834048">
        <ele>-10.92</ele>
        <time>2024-09-15T06:21:34Z</time>
      </trkpt>
      <trkpt lat="54.313512984663248" lon="13.095956007018685">
        <ele>-11.4</ele>
        <time>2024-09-15T06:21:44Z</time>
      </trkpt>
      <trkpt lat="54.31343100965023" lon="13.095972016453743">
        <ele>-8.51</ele>
        <time>2024-09-15T06:21:49Z</time>
      </trkpt>
      <trkpt lat="54.313380969688296" lon="13.095981990918517">
        <ele>-8.029999999999999</ele>
        <time>2024-09-15T06:21:50Z</time>
      </trkpt>
      <trkpt lat="54.313391027972102" lon="13.096033958718181">
        <ele>-7.55</ele>
        <time>2024-09-15T06:21:51Z</time>
      </trkpt>
      <trkpt lat="54.313401002436876" lon="13.096091039478779">
        <ele>-7.55</ele>
        <time>2024-09-15T06:21:52Z</time>
      </trkpt>
      <trkpt lat="54.313412988558412" lon="13.096153987571597">
        <ele>-7.07</ele>
        <time>2024-09-15T06:21:53Z</time>
      </trkpt>
      <trkpt lat="54.313424974679947" lon="13.096222970634699">
        <ele>-7.07</ele>
        <time>2024-09-15T06:21:54Z</time>
      </trkpt>
      <trkpt lat="54.313509967178106" lon="13.096690010279417">
        <ele>-6.59</ele>
        <time>2024-09-15T06:22:00Z</time>
      </trkpt>
      <trkpt lat="54.313680035993457" lon="13.097445974126458">
        <ele>-4.19</ele>
        <time>2024-09-15T06:22:12Z</time>
      </trkpt>
      <trkpt lat="54.313724962994456" lon="13.097676979377866">
        <ele>-4.19</ele>
        <time>2024-09-15T06:22:16Z</time>
      </trkpt>
      <trkpt lat="54.313676012679935" lon="13.097788039594889">
        <ele>-4.67</ele>
        <time>2024-09-15T06:22:17Z</time>
      </trkpt>
      <trkpt lat="54.313652040436864" lon="13.097840007394552">
        <ele>-4.19</ele>
        <time>2024-09-15T06:22:18Z</time>
      </trkpt>
      <trkpt lat="54.31362496688962" lon="13.097901027649641">
        <ele>-4.67</ele>
        <time>2024-09-15T06:22:19Z</time>
      </trkpt>
      <trkpt lat="54.313598982989788" lon="13.097960958257318">
        <ele>-4.67</ele>
        <time>2024-09-15T06:22:20Z</time>
      </trkpt>
      <trkpt lat="54.313552966341376" lon="13.098063971847296">
        <ele>-4.67</ele>
        <time>2024-09-15T06:22:22Z</time>
      </trkpt>
      <trkpt lat="54.313529999926686" lon="13.098165979608893">
        <ele>-4.67</ele>
        <time>2024-09-15T06:22:23Z</time>
      </trkpt>
      <trkpt lat="54.313498986884952" lon="13.098308974877">
        <ele>-4.67</ele>
        <time>2024-09-15T06:22:25Z</time>
      </trkpt>
      <trkpt lat="54.31345397606492" lon="13.098508967086673">
        <ele>-4.67</ele>
        <time>2024-09-15T06:22:28Z</time>
      </trkpt>
      <trkpt lat="54.313439978286624" lon="13.098574010655284">
        <ele>-4.67</ele>
        <time>2024-09-15T06:22:29Z</time>
      </trkpt>
      <trkpt lat="54.313419023528695" lon="13.09865104034543">
        <ele>-5.15</ele>
        <time>2024-09-15T06:22:30Z</time>
      </trkpt>
      <trkpt lat="54.313383987173438" lon="13.098699990659952">
        <ele>-5.63</ele>
        <time>2024-09-15T06:22:31Z</time>
      </trkpt>
      <trkpt lat="54.313347022980452" lon="13.098751958459616">
        <ele>-5.63</ele>
        <time>2024-09-15T06:22:32Z</time>
      </trkpt>
      <trkpt lat="54.31330201216042" lon="13.098805015906692">
        <ele>-6.11</ele>
        <time>2024-09-15T06:22:33Z</time>
      </trkpt>
      <trkpt lat="54.313254989683628" lon="13.098842985928059">
        <ele>-6.59</ele>
        <time>2024-09-15T06:22:34Z</time>
      </trkpt>
      <trkpt lat="54.312647972255945" lon="13.099336009472609">
        <ele>-9</ele>
        <time>2024-09-15T06:22:45Z</time>
      </trkpt>
      <trkpt lat="54.312600027769804" lon="13.099411027505994">
        <ele>-9.48</ele>
        <time>2024-09-15T06:22:46Z</time>
      </trkpt>
      <trkpt lat="54.311953028663993" lon="13.100474020466208">
        <ele>-6.11</ele>
        <time>2024-09-15T06:22:59Z</time>
      </trkpt>
      <trkpt lat="54.311799975112081" lon="13.100733021274209">
        <ele>-4.67</ele>
        <time>2024-09-15T06:23:02Z</time>
      </trkpt>
      <trkpt lat="54.311691010370851" lon="13.100899988785386">
        <ele>-4.19</ele>
        <time>2024-09-15T06:23:04Z</time>
      </trkpt>
      <trkpt lat="54.311642982065678" lon="13.100960003212094">
        <ele>-3.71</ele>
        <time>2024-09-15T06:23:05Z</time>
      </trkpt>
      <trkpt lat="54.311556983739138" lon="13.10101599432528">
        <ele>-3.71</ele>
        <time>2024-09-15T06:23:06Z</time>
      </trkpt>
      <trkpt lat="54.311480037868023" lon="13.101065028458834">
        <ele>-3.23</ele>
        <time>2024-09-15T06:23:07Z</time>
      </trkpt>
      <trkpt lat="54.311403008177876" lon="13.101113978773355">
        <ele>-3.23</ele>
        <time>2024-09-15T06:23:08Z</time>
      </trkpt>
      <trkpt lat="54.311322038993239" lon="13.101166030392051">
        <ele>-2.75</ele>
        <time>2024-09-15T06:23:09Z</time>
      </trkpt>
      <trkpt lat="54.310195008292794" lon="13.101935992017388">
        <ele>0.62</ele>
        <time>2024-09-15T06:23:23Z</time>
      </trkpt>
      <trkpt lat="54.310126025229692" lon="13.10202500782907">
        <ele>0.62</ele>
        <time>2024-09-15T06:23:24Z</time>
      </trkpt>
      <trkpt lat="54.310062993317842" lon="13.102117963135242">
        <ele>0.14</ele>
        <time>2024-09-15T06:23:25Z</time>
      </trkpt>
      <trkpt lat="54.310007002204657" lon="13.102225000038743">
        <ele>0.14</ele>
        <time>2024-09-15T06:23:26Z</time>
      </trkpt>
      <trkpt lat="54.30997003801167" lon="13.102312004193664">
        <ele>0.14</ele>
        <time>2024-09-15T06:23:27Z</time>
      </trkpt>
      <trkpt lat="54.309882028028369" lon="13.10243496671319">
        <ele>0.14</ele>
        <time>2024-09-15T06:23:28Z</time>
      </trkpt>
      <trkpt lat="54.309811033308506" lon="13.102534040808678">
        <ele>0.14</ele>
        <time>2024-09-15T06:23:29Z</time>
      </trkpt>
      <trkpt lat="54.309724029153585" lon="13.102630013599992">
        <ele>0.14</ele>
        <time>2024-09-15T06:23:30Z</time>
      </trkpt>
      <trkpt lat="54.308937974274158" lon="13.103090012446046">
        <ele>1.1</ele>
        <time>2024-09-15T06:23:38Z</time>
      </trkpt>
      <trkpt lat="54.308852981775999" lon="13.103186991065741">
        <ele>1.1</ele>
        <time>2024-09-15T06:23:39Z</time>
      </trkpt>
      <trkpt lat="54.308765977621078" lon="13.103280030190945">
        <ele>1.1</ele>
        <time>2024-09-15T06:23:40Z</time>
      </trkpt>
      <trkpt lat="54.308704035356641" lon="13.103341972455382">
        <ele>1.1</ele>
        <time>2024-09-15T06:23:41Z</time>
      </trkpt>
      <trkpt lat="54.30859599262476" lon="13.103513969108462">
        <ele>1.1</ele>
        <time>2024-09-15T06:23:42Z</time>
      </trkpt>
      <trkpt lat="54.308506976813078" lon="13.103580018505454">
        <ele>1.1</ele>
        <time>2024-09-15T06:23:43Z</time>
      </trkpt>
      <trkpt lat="54.307497041299939" lon="13.104330031201243">
        <ele>1.1</ele>
        <time>2024-09-15T06:23:53Z</time>
      </trkpt>
      <trkpt lat="54.307209961116314" lon="13.104543015360832">
        <ele>0.62</ele>
        <time>2024-09-15T06:23:56Z</time>
      </trkpt>
      <trkpt lat="54.306841995567083" lon="13.104738984256983">
        <ele>0.14</ele>
        <time>2024-09-15T06:24:00Z</time>
      </trkpt>
      <trkpt lat="54.306763960048556" lon="13.104828000068665">
        <ele>0.14</ele>
        <time>2024-09-15T06:24:01Z</time>
      </trkpt>
      <trkpt lat="54.306099023669958" lon="13.105541970580816">
        <ele>-0.82</ele>
        <time>2024-09-15T06:24:09Z</time>
      </trkpt>
      <trkpt lat="54.306016964837909" lon="13.10561397112906">
        <ele>-0.82</ele>
        <time>2024-09-15T06:24:10Z</time>
      </trkpt>
      <trkpt lat="54.305943958461285" lon="13.10567800886929">
        <ele>-0.82</ele>
        <time>2024-09-15T06:24:11Z</time>
      </trkpt>
      <trkpt lat="54.305886961519718" lon="13.105726959183812">
        <ele>-0.82</ele>
        <time>2024-09-15T06:24:12Z</time>
      </trkpt>
      <trkpt lat="54.305837005376816" lon="13.105754032731056">
        <ele>-0.82</ele>
        <time>2024-09-15T06:24:13Z</time>
      </trkpt>
      <trkpt lat="54.305797023698688" lon="13.105774987488985">
        <ele>-0.82</ele>
        <time>2024-09-15T06:24:14Z</time>
      </trkpt>
      <trkpt lat="54.305708007887006" lon="13.105822009965777">
        <ele>0.14</ele>
        <time>2024-09-15T06:24:23Z</time>
      </trkpt>
      <trkpt lat="54.305656962096691" lon="13.10584899969399">
        <ele>0.14</ele>
        <time>2024-09-15T06:24:40Z</time>
      </trkpt>
      <trkpt lat="54.305570963770151" lon="13.105896022170782">
        <ele>0.62</ele>
        <time>2024-09-15T06:24:41Z</time>
      </trkpt>
      <trkpt lat="54.305554032325745" lon="13.105909014120698">
        <ele>0.62</ele>
        <time>2024-09-15T06:24:42Z</time>
      </trkpt>
      <trkpt lat="54.30552301928401" lon="13.106160974130034">
        <ele>1.1</ele>
        <time>2024-09-15T06:24:43Z</time>
      </trkpt>
      <trkpt lat="54.305557971820235" lon="13.106265999376774">
        <ele>1.1</ele>
        <time>2024-09-15T06:24:44Z</time>
      </trkpt>
      <trkpt lat="54.305597031489015" lon="13.106382004916668">
        <ele>1.1</ele>
        <time>2024-09-15T06:24:45Z</time>
      </trkpt>
      <trkpt lat="54.305638018995523" lon="13.106503961607814">
        <ele>1.1</ele>
        <time>2024-09-15T06:24:46Z</time>
      </trkpt>
      <trkpt lat="54.305680012330413" lon="13.106631031259894">
        <ele>1.58</ele>
        <time>2024-09-15T06:24:47Z</time>
      </trkpt>
      <trkpt lat="54.306179992854595" lon="13.108122004196048">
        <ele>3.5</ele>
        <time>2024-09-15T06:24:57Z</time>
      </trkpt>
      <trkpt lat="54.306677961722016" lon="13.109581964090466">
        <ele>3.02</ele>
        <time>2024-09-15T06:25:07Z</time>
      </trkpt>
      <trkpt lat="54.307031007483602" lon="13.110418980941176">
        <ele>4.46</ele>
        <time>2024-09-15T06:25:19Z</time>
      </trkpt>
      <trkpt lat="54.307067971676588" lon="13.110505985096097">
        <ele>4.46</ele>
        <time>2024-09-15T06:25:30Z</time>
      </trkpt>
      <trkpt lat="54.307067971676588" lon="13.110505985096097">
        <ele>4.94</ele>
        <time>2024-09-15T06:26:17Z</time>
      </trkpt>
      <trkpt lat="54.307067971676588" lon="13.110505985096097">
        <ele>4.94</ele>
        <time>2024-09-15T06:27:15Z</time>
      </trkpt>
      <trkpt lat="54.307067971676588" lon="13.110505985096097">
        <ele>4.46</ele>
        <time>2024-09-15T06:28:05Z</time>
      </trkpt>
      <trkpt lat="54.307067971676588" lon="13.110505985096097">
        <ele>4.46</ele>
        <time>2024-09-15T06:28:54Z</time>
      </trkpt>
      <trkpt lat="54.307067971676588" lon="13.110505985096097">
        <ele>4.46</ele>
        <time>2024-09-15T06:29:50Z</time>
      </trkpt>
      <trkpt lat="54.307067971676588" lon="13.110505985096097">
        <ele>4.94</ele>
        <time>2024-09-15T06:30:37Z</time>
      </trkpt>
      <trkpt lat="54.307067971676588" lon="13.110505985096097">
        <ele>4.94</ele>
        <time>2024-09-15T06:31:32Z</time>
      </trkpt>
      <trkpt lat="54.307067971676588" lon="13.110505985096097">
        <ele>4.46</ele>
        <time>2024-09-15T06:32:25Z</time>
      </trkpt>
      <trkpt lat="54.307190012186766" lon="13.110794993117452">
        <ele>4.46</ele>
        <time>2024-09-15T06:33:04Z</time>
      </trkpt>
      <trkpt lat="54.307613968849182" lon="13.111794032156467">
        <ele>4.46</ele>
        <time>2024-09-15T06:33:14Z</time>
      </trkpt>
      <trkpt lat="54.308258034288883" lon="13.113250974565744">
        <ele>4.94</ele>
        <time>2024-09-15T06:33:28Z</time>
      </trkpt>
      <trkpt lat="54.309035958722234" lon="13.114904975518584">
        <ele>4.94</ele>
        <time>2024-09-15T06:33:40Z</time>
      </trkpt>
      <trkpt lat="54.31001597084105" lon="13.116791993379593">
        <ele>1.1</ele>
        <time>2024-09-15T06:33:53Z</time>
      </trkpt>
      <trkpt lat="54.311118023470044" lon="13.118818989023566">
        <ele>-0.34</ele>
        <time>2024-09-15T06:34:05Z</time>
      </trkpt>
      <trkpt lat="54.31248402222991" lon="13.121348982676864">
        <ele>0.14</ele>
        <time>2024-09-15T06:34:18Z</time>
      </trkpt>
      <trkpt lat="54.314486961811781" lon="13.12505898065865">
        <ele>2.06</ele>
        <time>2024-09-15T06:34:36Z</time>
      </trkpt>
      <trkpt lat="54.316259985789657" lon="13.128382991999388">
        <ele>3.5</ele>
        <time>2024-09-15T06:34:52Z</time>
      </trkpt>
      <trkpt lat="54.318255968391895" lon="13.132097013294697">
        <ele>5.42</ele>
        <time>2024-09-15T06:35:08Z</time>
      </trkpt>
      <trkpt lat="54.320278018712997" lon="13.135840035974979">
        <ele>2.06</ele>
        <time>2024-09-15T06:35:24Z</time>
      </trkpt>
      <trkpt lat="54.321934031322598" lon="13.138567004352808">
        <ele>-1.79</ele>
        <time>2024-09-15T06:35:37Z</time>
      </trkpt>
      <trkpt lat="54.323170026764274" lon="13.139939960092306">
        <ele>-3.23</ele>
        <time>2024-09-15T06:35:46Z</time>
      </trkpt>
      <trkpt lat="54.324335027486086" lon="13.142206007614732">
        <ele>-0.82</ele>
        <time>2024-09-15T06:35:56Z</time>
      </trkpt>
      <trkpt lat="54.32621500454843" lon="13.144797021523118">
        <ele>0.62</ele>
        <time>2024-09-15T06:36:09Z</time>
      </trkpt>
      <trkpt lat="54.326940961182117" lon="13.145456006750464">
        <ele>3.02</ele>
        <time>2024-09-15T06:36:15Z</time>
      </trkpt>
      <trkpt lat="54.327251007780433" lon="13.145780973136425">
        <ele>3.98</ele>
        <time>2024-09-15T06:36:19Z</time>
      </trkpt>
      <trkpt lat="54.327299036085606" lon="13.145892033353448">
        <ele>4.46</ele>
        <time>2024-09-15T06:36:20Z</time>
      </trkpt>
      <trkpt lat="54.327347986400127" lon="13.14600401557982">
        <ele>4.94</ele>
        <time>2024-09-15T06:36:21Z</time>
      </trkpt>
      <trkpt lat="54.327400960028172" lon="13.146127983927727">
        <ele>5.42</ele>
        <time>2024-09-15T06:36:22Z</time>
      </trkpt>
      <trkpt lat="54.327450999990106" lon="13.14626201055944">
        <ele>5.42</ele>
        <time>2024-09-15T06:36:23Z</time>
      </trkpt>
      <trkpt lat="54.32750397361815" lon="13.146401988342404">
        <ele>5.42</ele>
        <time>2024-09-15T06:36:24Z</time>
      </trkpt>
      <trkpt lat="54.327576979994774" lon="13.146511958912015">
        <ele>5.42</ele>
        <time>2024-09-15T06:36:25Z</time>
      </trkpt>
      <trkpt lat="54.327673958614469" lon="13.146618995815516">
        <ele>5.42</ele>
        <time>2024-09-15T06:36:26Z</time>
      </trkpt>
      <trkpt lat="54.327777978032827" lon="13.146708011627197">
        <ele>5.42</ele>
        <time>2024-09-15T06:36:27Z</time>
      </trkpt>
      <trkpt lat="54.327898006886244" lon="13.146789986640215">
        <ele>4.94</ele>
        <time>2024-09-15T06:36:28Z</time>
      </trkpt>
      <trkpt lat="54.329197034239769" lon="13.147191982716322">
        <ele>2.54</ele>
        <time>2024-09-15T06:36:37Z</time>
      </trkpt>
      <trkpt lat="54.329974036663771" lon="13.147048987448215">
        <ele>3.02</ele>
        <time>2024-09-15T06:36:42Z</time>
      </trkpt>
      <trkpt lat="54.330094987526536" lon="13.14692996442318">
        <ele>3.02</ele>
        <time>2024-09-15T06:36:43Z</time>
      </trkpt>
      <trkpt lat="54.330192971974611" lon="13.146772971376777">
        <ele>3.02</ele>
        <time>2024-09-15T06:36:44Z</time>
      </trkpt>
      <trkpt lat="54.330287016928196" lon="13.146600974723697">
        <ele>3.5</ele>
        <time>2024-09-15T06:36:45Z</time>
      </trkpt>
      <trkpt lat="54.330377038568258" lon="13.146409029141068">
        <ele>3.5</ele>
        <time>2024-09-15T06:36:46Z</time>
      </trkpt>
      <trkpt lat="54.330547023564577" lon="13.146042991429567">
        <ele>3.98</ele>
        <time>2024-09-15T06:36:48Z</time>
      </trkpt>
      <trkpt lat="54.330679960548878" lon="13.145954981446266">
        <ele>3.98</ele>
        <time>2024-09-15T06:36:49Z</time>
      </trkpt>
      <trkpt lat="54.330805018544197" lon="13.145870994776487">
        <ele>3.5</ele>
        <time>2024-09-15T06:36:50Z</time>
      </trkpt>
      <trkpt lat="54.330929992720485" lon="13.145849034190178">
        <ele>3.5</ele>
        <time>2024-09-15T06:36:51Z</time>
      </trkpt>
      <trkpt lat="54.331082962453365" lon="13.145836964249611">
        <ele>3.5</ele>
        <time>2024-09-15T06:36:52Z</time>
      </trkpt>
      <trkpt lat="54.332577036693692" lon="13.145922040566802">
        <ele>3.98</ele>
        <time>2024-09-15T06:37:00Z</time>
      </trkpt>
      <trkpt lat="54.335530987009406" lon="13.146168971434236">
        <ele>4.46</ele>
        <time>2024-09-15T06:37:14Z</time>
      </trkpt>
      <trkpt lat="54.337146012112498" lon="13.147041024640203">
        <ele>4.46</ele>
        <time>2024-09-15T06:37:22Z</time>
      </trkpt>
      <trkpt lat="54.338446967303753" lon="13.148600980639458">
        <ele>8.310000000000001</ele>
        <time>2024-09-15T06:37:30Z</time>
      </trkpt>
      <trkpt lat="54.339525969699025" lon="13.150961995124817">
        <ele>10.23</ele>
        <time>2024-09-15T06:37:39Z</time>
      </trkpt>
      <trkpt lat="54.341407958418131" lon="13.155508004128933">
        <ele>5.42</ele>
        <time>2024-09-15T06:37:55Z</time>
      </trkpt>
      <trkpt lat="54.342949977144599" lon="13.159408019855618">
        <ele>3.98</ele>
        <time>2024-09-15T06:38:09Z</time>
      </trkpt>
      <trkpt lat="54.344353023916483" lon="13.163788989186287">
        <ele>4.46</ele>
        <time>2024-09-15T06:38:24Z</time>
      </trkpt>
      <trkpt lat="54.345512995496392" lon="13.168463995680213">
        <ele>2.54</ele>
        <time>2024-09-15T06:38:40Z</time>
      </trkpt>
      <trkpt lat="54.34658202342689" lon="13.173022996634245">
        <ele>-4.19</ele>
        <time>2024-09-15T06:38:55Z</time>
      </trkpt>
      <trkpt lat="54.347353996708989" lon="13.176059005782008">
        <ele>-5.63</ele>
        <time>2024-09-15T06:39:05Z</time>
      </trkpt>
      <trkpt lat="54.348281035199761" lon="13.179713012650609">
        <ele>-1.3</ele>
        <time>2024-09-15T06:39:17Z</time>
      </trkpt>
      <trkpt lat="54.349787011742592" lon="13.185600964352489">
        <ele>5.91</ele>
        <time>2024-09-15T06:39:36Z</time>
      </trkpt>
      <trkpt lat="54.351043961942196" lon="13.190434975549579">
        <ele>5.91</ele>
        <time>2024-09-15T06:39:51Z</time>
      </trkpt>
      <trkpt lat="54.352062027901411" lon="13.194832038134336">
        <ele>4.94</ele>
        <time>2024-09-15T06:40:05Z</time>
      </trkpt>
      <trkpt lat="54.352374002337456" lon="13.198179015889764">
        <ele>3.02</ele>
        <time>2024-09-15T06:40:15Z</time>
      </trkpt>
      <trkpt lat="54.352563014253974" lon="13.202676996588707">
        <ele>1.58</ele>
        <time>2024-09-15T06:40:28Z</time>
      </trkpt>
      <trkpt lat="54.353055031970143" lon="13.20706500671804">
        <ele>1.58</ele>
        <time>2024-09-15T06:40:41Z</time>
      </trkpt>
      <trkpt lat="54.353805966675282" lon="13.212388018146157">
        <ele>2.54</ele>
        <time>2024-09-15T06:40:57Z</time>
      </trkpt>
      <trkpt lat="54.354223972186446" lon="13.216738980263472">
        <ele>3.02</ele>
        <time>2024-09-15T06:41:10Z</time>
      </trkpt>
      <trkpt lat="54.354301001876593" lon="13.221369981765747">
        <ele>2.06</ele>
        <time>2024-09-15T06:41:24Z</time>
      </trkpt>
      <trkpt lat="54.354298990219831" lon="13.227459015324712">
        <ele>2.06</ele>
        <time>2024-09-15T06:41:42Z</time>
      </trkpt>
      <trkpt lat="54.354292033240199" lon="13.233013032004237">
        <ele>4.94</ele>
        <time>2024-09-15T06:41:58Z</time>
      </trkpt>
      <trkpt lat="54.354283986613154" lon="13.239920977503061">
        <ele>8.310000000000001</ele>
        <time>2024-09-15T06:42:18Z</time>
      </trkpt>
      <trkpt lat="54.354279963299632" lon="13.246543016284704">
        <ele>11.67</ele>
        <time>2024-09-15T06:42:36Z</time>
      </trkpt>
      <trkpt lat="54.354279963299632" lon="13.25209803879261">
        <ele>10.710000000000001</ele>
        <time>2024-09-15T06:42:52Z</time>
      </trkpt>
      <trkpt lat="54.354269988834858" lon="13.257690025493503">
        <ele>6.39</ele>
        <time>2024-09-15T06:43:08Z</time>
      </trkpt>
      <trkpt lat="54.354030014947057" lon="13.260455969721079">
        <ele>3.98</ele>
        <time>2024-09-15T06:43:16Z</time>
      </trkpt>
      <trkpt lat="54.35334999114275" lon="13.263417966663837">
        <ele>3.02</ele>
        <time>2024-09-15T06:43:25Z</time>
      </trkpt>
      <trkpt lat="54.35328402556479" lon="13.2659359741956">
        <ele>5.91</ele>
        <time>2024-09-15T06:43:32Z</time>
      </trkpt>
      <trkpt lat="54.353810995817184" lon="13.268994027748704">
        <ele>9.27</ele>
        <time>2024-09-15T06:43:41Z</time>
      </trkpt>
      <trkpt lat="54.354143003001809" lon="13.272367995232344">
        <ele>7.83</ele>
        <time>2024-09-15T06:43:51Z</time>
      </trkpt>
      <trkpt lat="54.354134034365416" lon="13.273495025932789">
        <ele>6.39</ele>
        <time>2024-09-15T06:43:55Z</time>
      </trkpt>
      <trkpt lat="54.353977963328362" lon="13.2755839638412">
        <ele>4.46</ele>
        <time>2024-09-15T06:44:04Z</time>
      </trkpt>
      <trkpt lat="54.353949967771769" lon="13.275745986029506">
        <ele>3.98</ele>
        <time>2024-09-15T06:44:05Z</time>
      </trkpt>
      <trkpt lat="54.353921972215176" lon="13.275902979075909">
        <ele>3.5</ele>
        <time>2024-09-15T06:44:06Z</time>
      </trkpt>
      <trkpt lat="54.353776965290308" lon="13.276737984269857">
        <ele>4.94</ele>
        <time>2024-09-15T06:44:14Z</time>
      </trkpt>
      <trkpt lat="54.353776965290308" lon="13.276737984269857">
        <ele>5.42</ele>
        <time>2024-09-15T06:44:25Z</time>
      </trkpt>
      <trkpt lat="54.353776965290308" lon="13.276737984269857">
        <ele>6.39</ele>
        <time>2024-09-15T06:45:13Z</time>
      </trkpt>
      <trkpt lat="54.353776965290308" lon="13.276737984269857">
        <ele>6.39</ele>
        <time>2024-09-15T06:46:00Z</time>
      </trkpt>
      <trkpt lat="54.353776965290308" lon="13.276737984269857">
        <ele>6.87</ele>
        <time>2024-09-15T06:46:49Z</time>
      </trkpt>
      <trkpt lat="54.353776965290308" lon="13.276737984269857">
        <ele>7.35</ele>
        <time>2024-09-15T06:47:37Z</time>
      </trkpt>
      <trkpt lat="54.353776965290308" lon="13.276735972613096">
        <ele>7.35</ele>
        <time>2024-09-15T06:48:21Z</time>
      </trkpt>
      <trkpt lat="54.353630030527711" lon="13.277486991137266">
        <ele>6.39</ele>
        <time>2024-09-15T06:48:28Z</time>
      </trkpt>
      <trkpt lat="54.353278996422887" lon="13.278790963813663">
        <ele>3.98</ele>
        <time>2024-09-15T06:48:35Z</time>
      </trkpt>
      <trkpt lat="54.352493025362492" lon="13.280887026339769">
        <ele>2.54</ele>
        <time>2024-09-15T06:48:44Z</time>
      </trkpt>
      <trkpt lat="54.351215958595276" lon="13.283354993909597">
        <ele>3.5</ele>
        <time>2024-09-15T06:48:54Z</time>
      </trkpt>
      <trkpt lat="54.350136034190655" lon="13.285792032256722">
        <ele>6.39</ele>
        <time>2024-09-15T06:49:02Z</time>
      </trkpt>
      <trkpt lat="54.34948300011456" lon="13.288631988689303">
        <ele>7.35</ele>
        <time>2024-09-15T06:49:10Z</time>
      </trkpt>
      <trkpt lat="54.349221987649798" lon="13.292101006954908">
        <ele>8.789999999999999</ele>
        <time>2024-09-15T06:49:19Z</time>
      </trkpt>
      <trkpt lat="54.349360959604383" lon="13.294263035058975">
        <ele>11.19</ele>
        <time>2024-09-15T06:49:26Z</time>
      </trkpt>
      <trkpt lat="54.349621972069144" lon="13.296234961599112">
        <ele>11.67</ele>
        <time>2024-09-15T06:49:33Z</time>
      </trkpt>
      <trkpt lat="54.349651979282498" lon="13.296491028741002">
        <ele>11.67</ele>
        <time>2024-09-15T06:49:34Z</time>
      </trkpt>
      <trkpt lat="54.349659020081162" lon="13.296742988750339">
        <ele>11.19</ele>
        <time>2024-09-15T06:49:35Z</time>
      </trkpt>
      <trkpt lat="54.349642004817724" lon="13.296997966244817">
        <ele>11.19</ele>
        <time>2024-09-15T06:49:36Z</time>
      </trkpt>
      <trkpt lat="54.349605040624738" lon="13.297244980931282">
        <ele>11.19</ele>
        <time>2024-09-15T06:49:37Z</time>
      </trkpt>
      <trkpt lat="54.349551983177662" lon="13.297489983960986">
        <ele>10.710000000000001</ele>
        <time>2024-09-15T06:49:38Z</time>
      </trkpt>
      <trkpt lat="54.349478976801038" lon="13.297710008919239">
        <ele>10.710000000000001</ele>
        <time>2024-09-15T06:49:39Z</time>
      </trkpt>
      <trkpt lat="54.349408987909555" lon="13.297920981422067">
        <ele>10.710000000000001</ele>
        <time>2024-09-15T06:49:40Z</time>
      </trkpt>
      <trkpt lat="54.349343022331595" lon="13.298118961974978">
        <ele>11.19</ele>
        <time>2024-09-15T06:49:41Z</time>
      </trkpt>
      <trkpt lat="54.349317960441113" lon="13.298317026346922">
        <ele>11.67</ele>
        <time>2024-09-15T06:49:42Z</time>
      </trkpt>
      <trkpt lat="54.34931100346148" lon="13.298512995243073">
        <ele>12.15</ele>
        <time>2024-09-15T06:49:43Z</time>
      </trkpt>
      <trkpt lat="54.349301028996706" lon="13.298756992444396">
        <ele>12.630000000000001</ele>
        <time>2024-09-15T06:49:44Z</time>
      </trkpt>
      <trkpt lat="54.349349979311228" lon="13.298879032954574">
        <ele>13.119999999999999</ele>
        <time>2024-09-15T06:49:45Z</time>
      </trkpt>
      <trkpt lat="54.349407982081175" lon="13.299026973545551">
        <ele>13.6</ele>
        <time>2024-09-15T06:49:46Z</time>
      </trkpt>
      <trkpt lat="54.34946296736598" lon="13.299165023490787">
        <ele>14.08</ele>
        <time>2024-09-15T06:49:47Z</time>
      </trkpt>
      <trkpt lat="54.349624989554286" lon="13.299573976546526">
        <ele>15.52</ele>
        <time>2024-09-15T06:49:53Z</time>
      </trkpt>
      <trkpt lat="54.349734038114548" lon="13.299584034830332">
        <ele>16</ele>
        <time>2024-09-15T06:49:55Z</time>
      </trkpt>
      <trkpt lat="54.349780976772308" lon="13.299518991261721">
        <ele>16</ele>
        <time>2024-09-15T06:49:56Z</time>
      </trkpt>
      <trkpt lat="54.349838979542255" lon="13.299436010420322">
        <ele>16</ele>
        <time>2024-09-15T06:49:57Z</time>
      </trkpt>
      <trkpt lat="54.349906034767628" lon="13.299342971295118">
        <ele>16</ele>
        <time>2024-09-15T06:49:58Z</time>
      </trkpt>
      <trkpt lat="54.349979041144252" lon="13.299240041524172">
        <ele>16.48</ele>
        <time>2024-09-15T06:49:59Z</time>
      </trkpt>
      <trkpt lat="54.350844975560904" lon="13.298003962263465">
        <ele>16</ele>
        <time>2024-09-15T06:50:08Z</time>
      </trkpt>
      <trkpt lat="54.352270988747478" lon="13.295962968841195">
        <ele>10.710000000000001</ele>
        <time>2024-09-15T06:50:20Z</time>
      </trkpt>
      <trkpt lat="54.35326499864459" lon="13.294536033645272">
        <ele>10.710000000000001</ele>
        <time>2024-09-15T06:50:31Z</time>
      </trkpt>
      <trkpt lat="54.353641010820866" lon="13.294019959867001">
        <ele>11.67</ele>
        <time>2024-09-15T06:50:36Z</time>
      </trkpt>
      <trkpt lat="54.353702031075954" lon="13.293943013995886">
        <ele>12.15</ele>
        <time>2024-09-15T06:50:37Z</time>
      </trkpt>
      <trkpt lat="54.354290021583438" lon="13.293255027383566">
        <ele>16.48</ele>
        <time>2024-09-15T06:50:48Z</time>
      </trkpt>
      <trkpt lat="54.354451037943363" lon="13.293113959953189">
        <ele>16.48</ele>
        <time>2024-09-15T06:50:54Z</time>
      </trkpt>
      <trkpt lat="54.354474004358053" lon="13.293096022680402">
        <ele>14.56</ele>
        <time>2024-09-15T06:51:16Z</time>
      </trkpt>
      <trkpt lat="54.354503005743027" lon="13.293071966618299">
        <ele>13.6</ele>
        <time>2024-09-15T06:51:17Z</time>
      </trkpt>
      <trkpt lat="54.354547010734677" lon="13.293037014082074">
        <ele>12.630000000000001</ele>
        <time>2024-09-15T06:51:18Z</time>
      </trkpt>
      <trkpt lat="54.354598978534341" lon="13.293004995211959">
        <ele>12.15</ele>
        <time>2024-09-15T06:51:19Z</time>
      </trkpt>
      <trkpt lat="54.354646001011133" lon="13.292976999655366">
        <ele>11.19</ele>
        <time>2024-09-15T06:51:20Z</time>
      </trkpt>
      <trkpt lat="54.354743985459208" lon="13.292920002713799">
        <ele>10.710000000000001</ele>
        <time>2024-09-15T06:51:22Z</time>
      </trkpt>
      <trkpt lat="54.354815986007452" lon="13.29287800937891">
        <ele>10.23</ele>
        <time>2024-09-15T06:51:23Z</time>
      </trkpt>
      <trkpt lat="54.354848004877567" lon="13.292992003262043">
        <ele>9.75</ele>
        <time>2024-09-15T06:51:24Z</time>
      </trkpt>
      <trkpt lat="54.35487499460578" lon="13.293089987710118">
        <ele>9.75</ele>
        <time>2024-09-15T06:51:25Z</time>
      </trkpt>
      <trkpt lat="54.354903995990753" lon="13.293191995471716">
        <ele>9.27</ele>
        <time>2024-09-15T06:51:26Z</time>
      </trkpt>
      <trkpt lat="54.354932997375727" lon="13.293297020718455">
        <ele>9.27</ele>
        <time>2024-09-15T06:51:27Z</time>
      </trkpt>
      <trkpt lat="54.35511102899909" lon="13.293824996799231">
        <ele>8.310000000000001</ele>
        <time>2024-09-15T06:51:34Z</time>
      </trkpt>
      <trkpt lat="54.355122009292245" lon="13.293855004012585">
        <ele>8.310000000000001</ele>
        <time>2024-09-15T06:51:35Z</time>
      </trkpt>
      <trkpt lat="54.355141036212444" lon="13.29390998929739">
        <ele>8.310000000000001</ele>
        <time>2024-09-15T06:51:37Z</time>
      </trkpt>
      <trkpt lat="54.355122009292245" lon="13.293855004012585">
        <ele>8.310000000000001</ele>
        <time>2024-09-15T06:51:38Z</time>
      </trkpt>
      <trkpt lat="54.355099964886904" lon="13.293791972100735">
        <ele>7.83</ele>
        <time>2024-09-15T06:51:39Z</time>
      </trkpt>
      <trkpt lat="54.355074986815453" lon="13.293722989037633">
        <ele>7.83</ele>
        <time>2024-09-15T06:51:40Z</time>
      </trkpt>
      <trkpt lat="54.35491799376905" lon="13.293243041262031">
        <ele>6.87</ele>
        <time>2024-09-15T06:51:50Z</time>
      </trkpt>
      <trkpt lat="54.354885974898934" lon="13.293128041550517">
        <ele>6.39</ele>
        <time>2024-09-15T06:51:52Z</time>
      </trkpt>
      <trkpt lat="54.354951018467546" lon="13.292829981073737">
        <ele>6.39</ele>
        <time>2024-09-15T06:51:53Z</time>
      </trkpt>
      <trkpt lat="54.354995023459196" lon="13.29281397163868">
        <ele>5.91</ele>
        <time>2024-09-15T06:51:54Z</time>
      </trkpt>
      <trkpt lat="54.35504799708724" lon="13.292795028537512">
        <ele>5.91</ele>
        <time>2024-09-15T06:51:55Z</time>
      </trkpt>
      <trkpt lat="54.355116980150342" lon="13.29277097247541">
        <ele>5.42</ele>
        <time>2024-09-15T06:51:56Z</time>
      </trkpt>
      <trkpt lat="54.355172971263528" lon="13.292744988575578">
        <ele>5.42</ele>
        <time>2024-09-15T06:51:57Z</time>
      </trkpt>
      <trkpt lat="54.355491986498237" lon="13.292616996914148">
        <ele>4.94</ele>
        <time>2024-09-15T06:52:02Z</time>
      </trkpt>
      <trkpt lat="54.355543032288551" lon="13.29259998165071">
        <ele>4.46</ele>
        <time>2024-09-15T06:52:03Z</time>
      </trkpt>
      <trkpt lat="54.35558401979506" lon="13.292698971927166">
        <ele>4.46</ele>
        <time>2024-09-15T06:52:04Z</time>
      </trkpt>
      <trkpt lat="54.355607992038131" lon="13.292759992182255">
        <ele>3.98</ele>
        <time>2024-09-15T06:52:05Z</time>
      </trkpt>
      <trkpt lat="54.355631964281201" lon="13.292822018265724">
        <ele>3.98</ele>
        <time>2024-09-15T06:52:06Z</time>
      </trkpt>
      <trkpt lat="54.355656020343304" lon="13.292884966358542">
        <ele>3.5</ele>
        <time>2024-09-15T06:52:07Z</time>
      </trkpt>
      <trkpt lat="54.355679992586374" lon="13.292947998270392">
        <ele>3.02</ele>
        <time>2024-09-15T06:52:08Z</time>
      </trkpt>
      <trkpt lat="54.355694996193051" lon="13.29298697412014">
        <ele>2.54</ele>
        <time>2024-09-15T06:52:09Z</time>
      </trkpt>
      <trkpt lat="54.355746963992715" lon="13.293123012408614">
        <ele>0.62</ele>
        <time>2024-09-15T06:52:12Z</time>
      </trkpt>
      <trkpt lat="54.355760039761662" lon="13.293156959116459">
        <ele>0.14</ele>
        <time>2024-09-15T06:52:13Z</time>
      </trkpt>
      <trkpt lat="54.355573961511254" lon="13.293478991836309">
        <ele>0.14</ele>
        <time>2024-09-15T06:52:14Z</time>
      </trkpt>
      <trkpt lat="54.355543032288551" lon="13.293751990422606">
        <ele>-1.3</ele>
        <time>2024-09-15T06:52:18Z</time>
      </trkpt>
      <trkpt lat="54.355671023949981" lon="13.293728018179536">
        <ele>-0.34</ele>
        <time>2024-09-15T06:52:27Z</time>
      </trkpt>
      <trkpt lat="54.355660965666175" lon="13.29363196156919">
        <ele>0.14</ele>
        <time>2024-09-15T06:52:28Z</time>
      </trkpt>
      <trkpt lat="54.355760039761662" lon="13.293156959116459">
        <ele>0.14</ele>
        <time>2024-09-15T06:52:30Z</time>
      </trkpt>
      <trkpt lat="54.355760039761662" lon="13.293156959116459">
        <ele>0.14</ele>
        <time>2024-09-15T06:52:31Z</time>
      </trkpt>
      <trkpt lat="54.355709999799728" lon="13.293025027960539">
        <ele>0.14</ele>
        <time>2024-09-15T06:52:34Z</time>
      </trkpt>
      <trkpt lat="54.355690972879529" lon="13.292976999655366">
        <ele>0.62</ele>
        <time>2024-09-15T06:52:35Z</time>
      </trkpt>
      <trkpt lat="54.355672029778361" lon="13.292926959693432">
        <ele>0.62</ele>
        <time>2024-09-15T06:52:36Z</time>
      </trkpt>
      <trkpt lat="54.355653002858162" lon="13.292877003550529">
        <ele>0.62</ele>
        <time>2024-09-15T06:52:37Z</time>
      </trkpt>
      <trkpt lat="54.355633975937963" lon="13.292826963588595">
        <ele>0.14</ele>
        <time>2024-09-15T06:52:38Z</time>
      </trkpt>
      <trkpt lat="54.355616038665175" lon="13.292781030759215">
        <ele>0.14</ele>
        <time>2024-09-15T06:52:39Z</time>
      </trkpt>
      <trkpt lat="54.355687033385038" lon="13.292564023286104">
        <ele>0.14</ele>
        <time>2024-09-15T06:52:40Z</time>
      </trkpt>
      <trkpt lat="54.355721985921264" lon="13.292554970830679">
        <ele>-0.34</ele>
        <time>2024-09-15T06:52:41Z</time>
      </trkpt>
      <trkpt lat="54.355773031711578" lon="13.292541978880763">
        <ele>-0.82</ele>
        <time>2024-09-15T06:52:42Z</time>
      </trkpt>
      <trkpt lat="54.355836985632777" lon="13.292525969445705">
        <ele>-0.82</ele>
        <time>2024-09-15T06:52:43Z</time>
      </trkpt>
      <trkpt lat="54.355910997837782" lon="13.292508032172918">
        <ele>-1.3</ele>
        <time>2024-09-15T06:52:44Z</time>
      </trkpt>
      <trkpt lat="54.3559929728508" lon="13.292487999424338">
        <ele>-1.3</ele>
        <time>2024-09-15T06:52:45Z</time>
      </trkpt>
      <trkpt lat="54.357052026316524" lon="13.292236039415002">
        <ele>3.02</ele>
        <time>2024-09-15T06:52:57Z</time>
      </trkpt>
      <trkpt lat="54.357126038521528" lon="13.292219024151564">
        <ele>3.5</ele>
        <time>2024-09-15T06:52:58Z</time>
      </trkpt>
      <trkpt lat="54.357199966907501" lon="13.292202008888125">
        <ele>3.5</ele>
        <time>2024-09-15T06:52:59Z</time>
      </trkpt>
      <trkpt lat="54.358093980699778" lon="13.291964968666434">
        <ele>5.42</ele>
        <time>2024-09-15T06:53:09Z</time>
      </trkpt>
      <trkpt lat="54.359291000291705" lon="13.291666992008686">
        <ele>4.94</ele>
        <time>2024-09-15T06:53:19Z</time>
      </trkpt>
      <trkpt lat="54.35955997556448" lon="13.291599014773965">
        <ele>4.94</ele>
        <time>2024-09-15T06:53:21Z</time>
      </trkpt>
      <trkpt lat="54.360727993771434" lon="13.29130900092423">
        <ele>4.46</ele>
        <time>2024-09-15T06:53:30Z</time>
      </trkpt>
      <trkpt lat="54.362020986154675" lon="13.29100901260972">
        <ele>7.83</ele>
        <time>2024-09-15T06:53:40Z</time>
      </trkpt>
      <trkpt lat="54.36213799752295" lon="13.290982022881508">
        <ele>7.83</ele>
        <time>2024-09-15T06:53:41Z</time>
      </trkpt>
      <trkpt lat="54.363756040111184" lon="13.290599975734949">
        <ele>13.119999999999999</ele>
        <time>2024-09-15T06:53:54Z</time>
      </trkpt>
      <trkpt lat="54.365127990022302" lon="13.290267968550324">
        <ele>10.23</ele>
        <time>2024-09-15T06:54:04Z</time>
      </trkpt>
      <trkpt lat="54.366022003814578" lon="13.290139976888895">
        <ele>5.42</ele>
        <time>2024-09-15T06:54:10Z</time>
      </trkpt>
      <trkpt lat="54.36751096509397" lon="13.290501991286874">
        <ele>2.54</ele>
        <time>2024-09-15T06:54:19Z</time>
      </trkpt>
      <trkpt lat="54.369323970749974" lon="13.291312018409371">
        <ele>4.46</ele>
        <time>2024-09-15T06:54:29Z</time>
      </trkpt>
      <trkpt lat="54.371128007769585" lon="13.292111987248063">
        <ele>4.94</ele>
        <time>2024-09-15T06:54:39Z</time>
      </trkpt>
      <trkpt lat="54.372805980965495" lon="13.29283501021564">
        <ele>10.23</ele>
        <time>2024-09-15T06:54:49Z</time>
      </trkpt>
      <trkpt lat="54.37438496388495" lon="13.293530037626624">
        <ele>11.19</ele>
        <time>2024-09-15T06:54:59Z</time>
      </trkpt>
      <trkpt lat="54.376040976494551" lon="13.294272003695369">
        <ele>10.23</ele>
        <time>2024-09-15T06:55:10Z</time>
      </trkpt>
      <trkpt lat="54.377572014927864" lon="13.294658996164799">
        <ele>10.23</ele>
        <time>2024-09-15T06:55:19Z</time>
      </trkpt>
      <trkpt lat="54.379473030567169" lon="13.294529998674989">
        <ele>8.789999999999999</ele>
        <time>2024-09-15T06:55:30Z</time>
      </trkpt>
      <trkpt lat="54.381301961839199" lon="13.294330006465316">
        <ele>9.27</ele>
        <time>2024-09-15T06:55:41Z</time>
      </trkpt>
      <trkpt lat="54.383070962503552" lon="13.294159015640616">
        <ele>14.08</ele>
        <time>2024-09-15T06:55:52Z</time>
      </trkpt>
      <trkpt lat="54.384870976209641" lon="13.293990036472678">
        <ele>14.56</ele>
        <time>2024-09-15T06:56:02Z</time>
      </trkpt>
      <trkpt lat="54.386710971593857" lon="13.293818039819598">
        <ele>14.08</ele>
        <time>2024-09-15T06:56:12Z</time>
      </trkpt>
      <trkpt lat="54.388483995571733" lon="13.29365199431777">
        <ele>14.08</ele>
        <time>2024-09-15T06:56:22Z</time>
      </trkpt>
      <trkpt lat="54.390418035909534" lon="13.293471029028296">
        <ele>13.119999999999999</ele>
        <time>2024-09-15T06:56:33Z</time>
      </trkpt>
      <trkpt lat="54.392179995775223" lon="13.293305989354849">
        <ele>10.710000000000001</ele>
        <time>2024-09-15T06:56:43Z</time>
      </trkpt>
      <trkpt lat="54.393772976472974" lon="13.293156959116459">
        <ele>7.35</ele>
        <time>2024-09-15T06:56:52Z</time>
      </trkpt>
      <trkpt lat="54.395963000133634" lon="13.292953027412295">
        <ele>5.42</ele>
        <time>2024-09-15T06:57:04Z</time>
      </trkpt>
      <trkpt lat="54.397839959710836" lon="13.292777007445693">
        <ele>4.94</ele>
        <time>2024-09-15T06:57:14Z</time>
      </trkpt>
      <trkpt lat="54.399622036144137" lon="13.292610039934516">
        <ele>3.02</ele>
        <time>2024-09-15T06:57:24Z</time>
      </trkpt>
      <trkpt lat="54.400773039087653" lon="13.292496968060732">
        <ele>1.1</ele>
        <time>2024-09-15T06:57:32Z</time>
      </trkpt>
      <trkpt lat="54.4015839882195" lon="13.292407030239701">
        <ele>3.02</ele>
        <time>2024-09-15T06:57:39Z</time>
      </trkpt>
      <trkpt lat="54.401826979592443" lon="13.292380040511489">
        <ele>3.98</ele>
        <time>2024-09-15T06:57:41Z</time>
      </trkpt>
      <trkpt lat="54.402744965627789" lon="13.29229898750782">
        <ele>8.310000000000001</ele>
        <time>2024-09-15T06:57:49Z</time>
      </trkpt>
      <trkpt lat="54.403692036867142" lon="13.292209971696138">
        <ele>11.67</ele>
        <time>2024-09-15T06:57:57Z</time>
      </trkpt>
      <trkpt lat="54.404288996011019" lon="13.292127996683121">
        <ele>12.15</ele>
        <time>2024-09-15T06:58:02Z</time>
      </trkpt>
      <trkpt lat="54.404408019036055" lon="13.292096983641386">
        <ele>12.630000000000001</ele>
        <time>2024-09-15T06:58:03Z</time>
      </trkpt>
      <trkpt lat="54.40452603623271" lon="13.292065970599651">
        <ele>12.630000000000001</ele>
        <time>2024-09-15T06:58:04Z</time>
      </trkpt>
      <trkpt lat="54.405659018084407" lon="13.291474962607026">
        <ele>13.119999999999999</ele>
        <time>2024-09-15T06:58:14Z</time>
      </trkpt>
      <trkpt lat="54.406899958848953" lon="13.290610034018755">
        <ele>10.710000000000001</ele>
        <time>2024-09-15T06:58:22Z</time>
      </trkpt>
      <trkpt lat="54.409178998321295" lon="13.289019986987114">
        <ele>10.23</ele>
        <time>2024-09-15T06:58:34Z</time>
      </trkpt>
      <trkpt lat="54.41026302985847" lon="13.288264023140073">
        <ele>12.630000000000001</ele>
        <time>2024-09-15T06:58:41Z</time>
      </trkpt>
      <trkpt lat="54.410391021519899" lon="13.28817299567163">
        <ele>13.119999999999999</ele>
        <time>2024-09-15T06:58:43Z</time>
      </trkpt>
      <trkpt lat="54.410445000976324" lon="13.288135025650263">
        <ele>13.6</ele>
        <time>2024-09-15T06:58:44Z</time>
      </trkpt>
      <trkpt lat="54.410420022904873" lon="13.287996975705028">
        <ele>14.08</ele>
        <time>2024-09-15T06:58:45Z</time>
      </trkpt>
      <trkpt lat="54.410425974056125" lon="13.28784903511405">
        <ele>14.08</ele>
        <time>2024-09-15T06:58:46Z</time>
      </trkpt>
      <trkpt lat="54.410433014854789" lon="13.287665974348783">
        <ele>14.08</ele>
        <time>2024-09-15T06:58:47Z</time>
      </trkpt>
      <trkpt lat="54.410738032311201" lon="13.286129990592599">
        <ele>11.67</ele>
        <time>2024-09-15T06:58:53Z</time>
      </trkpt>
      <trkpt lat="54.411475975066423" lon="13.282452011480927">
        <ele>9.27</ele>
        <time>2024-09-15T06:59:07Z</time>
      </trkpt>
      <trkpt lat="54.411829020828009" lon="13.280969001352787">
        <ele>9.27</ele>
        <time>2024-09-15T06:59:13Z</time>
      </trkpt>
      <trkpt lat="54.41194100305438" lon="13.280783006921411">
        <ele>8.789999999999999</ele>
        <time>2024-09-15T06:59:14Z</time>
      </trkpt>
      <trkpt lat="54.412021972239017" lon="13.280646968632936">
        <ele>8.310000000000001</ele>
        <time>2024-09-15T06:59:15Z</time>
      </trkpt>
      <trkpt lat="54.41219799220562" lon="13.280507996678352">
        <ele>8.310000000000001</ele>
        <time>2024-09-15T06:59:16Z</time>
      </trkpt>
      <trkpt lat="54.412349034100771" lon="13.280388973653316">
        <ele>7.83</ele>
        <time>2024-09-15T06:59:17Z</time>
      </trkpt>
      <trkpt lat="54.412504015490413" lon="13.280291995033622">
        <ele>7.83</ele>
        <time>2024-09-15T06:59:18Z</time>
      </trkpt>
      <trkpt lat="54.41267198882997" lon="13.280215971171856">
        <ele>7.83</ele>
        <time>2024-09-15T06:59:19Z</time>
      </trkpt>
      <trkpt lat="54.413494002074003" lon="13.279844988137484">
        <ele>7.83</ele>
        <time>2024-09-15T06:59:24Z</time>
      </trkpt>
      <trkpt lat="54.413649989292026" lon="13.279706016182899">
        <ele>7.83</ele>
        <time>2024-09-15T06:59:25Z</time>
      </trkpt>
      <trkpt lat="54.413782004266977" lon="13.279574001207948">
        <ele>8.310000000000001</ele>
        <time>2024-09-15T06:59:26Z</time>
      </trkpt>
      <trkpt lat="54.4139189645648" lon="13.279350958764553">
        <ele>8.310000000000001</ele>
        <time>2024-09-15T06:59:27Z</time>
      </trkpt>
      <trkpt lat="54.414043016731739" lon="13.27914803288877">
        <ele>8.789999999999999</ele>
        <time>2024-09-15T06:59:28Z</time>
      </trkpt>
      <trkpt lat="54.414166985079646" lon="13.278945023193955">
        <ele>8.789999999999999</ele>
        <time>2024-09-15T06:59:29Z</time>
      </trkpt>
      <trkpt lat="54.414263963699341" lon="13.278692979365587">
        <ele>9.27</ele>
        <time>2024-09-15T06:59:30Z</time>
      </trkpt>
      <trkpt lat="54.414353985339403" lon="13.278436996042728">
        <ele>9.27</ele>
        <time>2024-09-15T06:59:31Z</time>
      </trkpt>
      <trkpt lat="54.414415005594492" lon="13.278156034648418">
        <ele>9.75</ele>
        <time>2024-09-15T06:59:32Z</time>
      </trkpt>
      <trkpt lat="54.4144750200212" lon="13.277865014970303">
        <ele>9.75</ele>
        <time>2024-09-15T06:59:33Z</time>
      </trkpt>
      <trkpt lat="54.415331985801458" lon="13.273772969841957">
        <ele>7.83</ele>
        <time>2024-09-15T06:59:47Z</time>
      </trkpt>
      <trkpt lat="54.415969010442495" lon="13.271426036953926">
        <ele>7.35</ele>
        <time>2024-09-15T06:59:56Z</time>
      </trkpt>
      <trkpt lat="54.416540991514921" lon="13.269510017707944">
        <ele>7.35</ele>
        <time>2024-09-15T07:00:06Z</time>
      </trkpt>
      <trkpt lat="54.417320005595684" lon="13.267340026795864">
        <ele>7.35</ele>
        <time>2024-09-15T07:00:18Z</time>
      </trkpt>
      <trkpt lat="54.418035987764597" lon="13.265102980658412">
        <ele>5.42</ele>
        <time>2024-09-15T07:00:28Z</time>
      </trkpt>
      <trkpt lat="54.419121025130153" lon="13.261723984032869">
        <ele>4.46</ele>
        <time>2024-09-15T07:00:42Z</time>
      </trkpt>
      <trkpt lat="54.4191790279001" lon="13.261446040123701">
        <ele>4.46</ele>
        <time>2024-09-15T07:00:43Z</time>
      </trkpt>
      <trkpt lat="54.419210962951183" lon="13.261149991303682">
        <ele>3.98</ele>
        <time>2024-09-15T07:00:44Z</time>
      </trkpt>
      <trkpt lat="54.419214986264706" lon="13.258593007922173">
        <ele>3.98</ele>
        <time>2024-09-15T07:00:52Z</time>
      </trkpt>
      <trkpt lat="54.419177016243339" lon="13.256627032533288">
        <ele>5.42</ele>
        <time>2024-09-15T07:01:00Z</time>
      </trkpt>
      <trkpt lat="54.419162012636662" lon="13.25553897768259">
        <ele>5.91</ele>
        <time>2024-09-15T07:01:08Z</time>
      </trkpt>
      <trkpt lat="54.41913996823132" lon="13.254712019115686">
        <ele>5.91</ele>
        <time>2024-09-15T07:01:15Z</time>
      </trkpt>
      <trkpt lat="54.41913703456521" lon="13.254586961120367">
        <ele>5.91</ele>
        <time>2024-09-15T07:01:16Z</time>
      </trkpt>
      <trkpt lat="54.419129993766546" lon="13.254326032474637">
        <ele>5.42</ele>
        <time>2024-09-15T07:01:18Z</time>
      </trkpt>
      <trkpt lat="54.419119013473392" lon="13.253928981721401">
        <ele>5.42</ele>
        <time>2024-09-15T07:01:21Z</time>
      </trkpt>
      <trkpt lat="54.419114990159869" lon="13.25379797257483">
        <ele>5.91</ele>
        <time>2024-09-15T07:01:22Z</time>
      </trkpt>
      <trkpt lat="54.419081965461373" lon="13.252187976613641">
        <ele>4.46</ele>
        <time>2024-09-15T07:01:35Z</time>
      </trkpt>
      <trkpt lat="54.419124964624643" lon="13.252081023529172">
        <ele>3.98</ele>
        <time>2024-09-15T07:01:36Z</time>
      </trkpt>
      <trkpt lat="54.419124964624643" lon="13.251983039081097">
        <ele>3.98</ele>
        <time>2024-09-15T07:01:37Z</time>
      </trkpt>
      <trkpt lat="54.419141979888082" lon="13.251897040754557">
        <ele>3.5</ele>
        <time>2024-09-15T07:01:38Z</time>
      </trkpt>
      <trkpt lat="54.419190008193254" lon="13.251844989135861">
        <ele>3.5</ele>
        <time>2024-09-15T07:01:39Z</time>
      </trkpt>
      <trkpt lat="54.419241975992918" lon="13.251788998022676">
        <ele>3.5</ele>
        <time>2024-09-15T07:01:40Z</time>
      </trkpt>
      <trkpt lat="54.419300984591246" lon="13.251724038273096">
        <ele>3.02</ele>
        <time>2024-09-15T07:01:41Z</time>
      </trkpt>
      <trkpt lat="54.419897021725774" lon="13.250952987000346">
        <ele>1.1</ele>
        <time>2024-09-15T07:01:51Z</time>
      </trkpt>
      <trkpt lat="54.419943960383534" lon="13.25083295814693">
        <ele>1.1</ele>
        <time>2024-09-15T07:01:52Z</time>
      </trkpt>
      <trkpt lat="54.419951001182199" lon="13.250713013112545">
        <ele>1.1</ele>
        <time>2024-09-15T07:01:53Z</time>
      </trkpt>
      <trkpt lat="54.419959969818592" lon="13.250584015622735">
        <ele>1.1</ele>
        <time>2024-09-15T07:01:54Z</time>
      </trkpt>
      <trkpt lat="54.419968016445637" lon="13.250457029789686">
        <ele>1.1</ele>
        <time>2024-09-15T07:01:55Z</time>
      </trkpt>
      <trkpt lat="54.419981008395553" lon="13.25005603954196">
        <ele>0.62</ele>
        <time>2024-09-15T07:01:58Z</time>
      </trkpt>
      <trkpt lat="54.419958963990211" lon="13.248537993058562">
        <ele>-2.27</ele>
        <time>2024-09-15T07:02:09Z</time>
      </trkpt>
      <trkpt lat="54.419940020889044" lon="13.246735967695713">
        <ele>-5.63</ele>
        <time>2024-09-15T07:02:18Z</time>
      </trkpt>
      <trkpt lat="54.41991001367569" lon="13.243940016254783">
        <ele>-4.19</ele>
        <time>2024-09-15T07:02:28Z</time>
      </trkpt>
      <trkpt lat="54.419894004240632" lon="13.242586003616452">
        <ele>-2.75</ele>
        <time>2024-09-15T07:02:34Z</time>
      </trkpt>
      <trkpt lat="54.419866008684039" lon="13.241530973464251">
        <ele>-0.82</ele>
        <time>2024-09-15T07:02:43Z</time>
      </trkpt>
      <trkpt lat="54.419838013127446" lon="13.240493964403868">
        <ele>-0.34</ele>
        <time>2024-09-15T07:02:48Z</time>
      </trkpt>
      <trkpt lat="54.420001041144133" lon="13.238169997930527">
        <ele>-0.34</ele>
        <time>2024-09-15T07:02:55Z</time>
      </trkpt>
      <trkpt lat="54.420798998326063" lon="13.235392989590764">
        <ele>-1.79</ele>
        <time>2024-09-15T07:03:03Z</time>
      </trkpt>
      <trkpt lat="54.421697035431862" lon="13.232189007103443">
        <ele>-1.79</ele>
        <time>2024-09-15T07:03:13Z</time>
      </trkpt>
      <trkpt lat="54.422362977638841" lon="13.22981801815331">
        <ele>-4.67</ele>
        <time>2024-09-15T07:03:23Z</time>
      </trkpt>
      <trkpt lat="54.423062028363347" lon="13.227421967312694">
        <ele>-6.11</ele>
        <time>2024-09-15T07:03:32Z</time>
      </trkpt>
      <trkpt lat="54.423483973369002" lon="13.225971981883049">
        <ele>-5.15</ele>
        <time>2024-09-15T07:03:39Z</time>
      </trkpt>
      <trkpt lat="54.423593021929264" lon="13.225600998848677">
        <ele>-4.19</ele>
        <time>2024-09-15T07:03:42Z</time>
      </trkpt>
      <trkpt lat="54.423664016649127" lon="13.225216018036008">
        <ele>-3.71</ele>
        <time>2024-09-15T07:03:45Z</time>
      </trkpt>
      <trkpt lat="54.423686983063817" lon="13.225076040253043">
        <ele>-3.23</ele>
        <time>2024-09-15T07:03:46Z</time>
      </trkpt>
      <trkpt lat="54.423711039125919" lon="13.224935978651047">
        <ele>-2.75</ele>
        <time>2024-09-15T07:03:47Z</time>
      </trkpt>
      <trkpt lat="54.423795025795698" lon="13.224429041147232">
        <ele>-1.79</ele>
        <time>2024-09-15T07:03:51Z</time>
      </trkpt>
      <trkpt lat="54.423815980553627" lon="13.224304988980293">
        <ele>-1.3</ele>
        <time>2024-09-15T07:03:52Z</time>
      </trkpt>
      <trkpt lat="54.423916982486844" lon="13.224127041175961">
        <ele>-1.3</ele>
        <time>2024-09-15T07:03:53Z</time>
      </trkpt>
      <trkpt lat="54.423990994691849" lon="13.224127041175961">
        <ele>-0.82</ele>
        <time>2024-09-15T07:03:54Z</time>
      </trkpt>
      <trkpt lat="54.42407900467515" lon="13.224127041175961">
        <ele>-0.34</ele>
        <time>2024-09-15T07:03:55Z</time>
      </trkpt>
      <trkpt lat="54.424171959981322" lon="13.224127041175961">
        <ele>0.14</ele>
        <time>2024-09-15T07:03:56Z</time>
      </trkpt>
      <trkpt lat="54.424266004934907" lon="13.224127041175961">
        <ele>0.62</ele>
        <time>2024-09-15T07:03:57Z</time>
      </trkpt>
      <trkpt lat="54.42436097189784" lon="13.224127041175961">
        <ele>1.58</ele>
        <time>2024-09-15T07:03:58Z</time>
      </trkpt>
      <trkpt lat="54.424749976024032" lon="13.224063003435731">
        <ele>3.5</ele>
        <time>2024-09-15T07:04:02Z</time>
      </trkpt>
      <trkpt lat="54.424849972128868" lon="13.22403903119266">
        <ele>3.98</ele>
        <time>2024-09-15T07:04:03Z</time>
      </trkpt>
      <trkpt lat="54.426390985026956" lon="13.223658995702863">
        <ele>6.39</ele>
        <time>2024-09-15T07:04:17Z</time>
      </trkpt>
      <trkpt lat="54.427790008485317" lon="13.22337401099503">
        <ele>7.35</ele>
        <time>2024-09-15T07:04:30Z</time>
      </trkpt>
      <trkpt lat="54.428943023085594" lon="13.223293041810393">
        <ele>7.35</ele>
        <time>2024-09-15T07:04:39Z</time>
      </trkpt>
      <trkpt lat="54.430836997926235" lon="13.22315901517868">
        <ele>6.87</ele>
        <time>2024-09-15T07:04:50Z</time>
      </trkpt>
      <trkpt lat="54.432312967255712" lon="13.223420027643442">
        <ele>7.83</ele>
        <time>2024-09-15T07:04:59Z</time>
      </trkpt>
      <trkpt lat="54.43400502204895" lon="13.223809031769633">
        <ele>7.83</ele>
        <time>2024-09-15T07:05:11Z</time>
      </trkpt>
      <trkpt lat="54.434235021471977" lon="13.223776007071137">
        <ele>7.35</ele>
        <time>2024-09-15T07:05:13Z</time>
      </trkpt>
      <trkpt lat="54.434338035061955" lon="13.22374097071588">
        <ele>7.35</ele>
        <time>2024-09-15T07:05:14Z</time>
      </trkpt>
      <trkpt lat="54.43443501368165" lon="13.223671987652779">
        <ele>7.35</ele>
        <time>2024-09-15T07:05:15Z</time>
      </trkpt>
      <trkpt lat="54.434487987309694" lon="13.223634017631412">
        <ele>7.35</ele>
        <time>2024-09-15T07:05:16Z</time>
      </trkpt>
      <trkpt lat="54.434567028656602" lon="13.223496973514557">
        <ele>7.35</ele>
        <time>2024-09-15T07:05:17Z</time>
      </trkpt>
      <trkpt lat="54.434638023376465" lon="13.22337300516665">
        <ele>6.87</ele>
        <time>2024-09-15T07:05:18Z</time>
      </trkpt>
      <trkpt lat="54.434688985347748" lon="13.22324400767684">
        <ele>6.87</ele>
        <time>2024-09-15T07:05:19Z</time>
      </trkpt>
      <trkpt lat="54.434748999774456" lon="13.223059019073844">
        <ele>6.87</ele>
        <time>2024-09-15T07:05:20Z</time>
      </trkpt>
      <trkpt lat="54.434813959524035" lon="13.222860032692552">
        <ele>6.39</ele>
        <time>2024-09-15T07:05:21Z</time>
      </trkpt>
      <trkpt lat="54.435411002486944" lon="13.221016013994813">
        <ele>6.39</ele>
        <time>2024-09-15T07:05:31Z</time>
      </trkpt>
      <trkpt lat="54.435614012181759" lon="13.22051796130836">
        <ele>6.39</ele>
        <time>2024-09-15T07:05:36Z</time>
      </trkpt>
      <trkpt lat="54.435636978596449" lon="13.220460964366794">
        <ele>6.39</ele>
        <time>2024-09-15T07:05:37Z</time>
      </trkpt>
      <trkpt lat="54.435654999688268" lon="13.220416037365794">
        <ele>6.39</ele>
        <time>2024-09-15T07:05:38Z</time>
      </trkpt>
      <trkpt lat="54.435679977759719" lon="13.220354011282325">
        <ele>6.39</ele>
        <time>2024-09-15T07:05:40Z</time>
      </trkpt>
      <trkpt lat="54.435727000236511" lon="13.220402039587498">
        <ele>6.39</ele>
        <time>2024-09-15T07:05:41Z</time>
      </trkpt>
      <trkpt lat="54.435751978307962" lon="13.220453001558781">
        <ele>6.39</ele>
        <time>2024-09-15T07:05:42Z</time>
      </trkpt>
      <trkpt lat="54.435786008834839" lon="13.220521984621882">
        <ele>6.39</ele>
        <time>2024-09-15T07:05:43Z</time>
      </trkpt>
      <trkpt lat="54.43583101965487" lon="13.220611000433564">
        <ele>6.39</ele>
        <time>2024-09-15T07:05:44Z</time>
      </trkpt>
      <trkpt lat="54.436148023232818" lon="13.221245007589459">
        <ele>9.27</ele>
        <time>2024-09-15T07:05:50Z</time>
      </trkpt>
      <trkpt lat="54.43692896515131" lon="13.22191396728158">
        <ele>8.789999999999999</ele>
        <time>2024-09-15T07:05:59Z</time>
      </trkpt>
      <trkpt lat="54.437698004767299" lon="13.222329961135983">
        <ele>7.83</ele>
        <time>2024-09-15T07:06:07Z</time>
      </trkpt>
      <trkpt lat="54.437782997265458" lon="13.222404979169369">
        <ele>7.35</ele>
        <time>2024-09-15T07:06:08Z</time>
      </trkpt>
      <trkpt lat="54.438751023262739" lon="13.223132025450468">
        <ele>5.91</ele>
        <time>2024-09-15T07:06:19Z</time>
      </trkpt>
      <trkpt lat="54.439124017953873" lon="13.223360013216734">
        <ele>6.87</ele>
        <time>2024-09-15T07:06:23Z</time>
      </trkpt>
      <trkpt lat="54.440250964835286" lon="13.223971975967288">
        <ele>8.789999999999999</ele>
        <time>2024-09-15T07:06:33Z</time>
      </trkpt>
      <trkpt lat="54.441339019685984" lon="13.224529959261417">
        <ele>9.75</ele>
        <time>2024-09-15T07:06:42Z</time>
      </trkpt>
      <trkpt lat="54.441573964431882" lon="13.224650993943214">
        <ele>10.23</ele>
        <time>2024-09-15T07:06:45Z</time>
      </trkpt>
      <trkpt lat="54.441815027967095" lon="13.224774962291121">
        <ele>9.27</ele>
        <time>2024-09-15T07:06:49Z</time>
      </trkpt>
      <trkpt lat="54.441909994930029" lon="13.224929021671414">
        <ele>9.27</ele>
        <time>2024-09-15T07:06:50Z</time>
      </trkpt>
      <trkpt lat="54.441929021850228" lon="13.225046033039689">
        <ele>8.789999999999999</ele>
        <time>2024-09-15T07:06:51Z</time>
      </trkpt>
      <trkpt lat="54.441951988264918" lon="13.225188022479415">
        <ele>8.789999999999999</ele>
        <time>2024-09-15T07:06:52Z</time>
      </trkpt>
      <trkpt lat="54.441978977993131" lon="13.225354989990592">
        <ele>8.310000000000001</ele>
        <time>2024-09-15T07:06:53Z</time>
      </trkpt>
      <trkpt lat="54.442007979378104" lon="13.225534027442336">
        <ele>8.310000000000001</ele>
        <time>2024-09-15T07:06:54Z</time>
      </trkpt>
      <trkpt lat="54.44229899905622" lon="13.227332029491663">
        <ele>7.35</ele>
        <time>2024-09-15T07:07:02Z</time>
      </trkpt>
      <trkpt lat="54.442693032324314" lon="13.229815000668168">
        <ele>9.27</ele>
        <time>2024-09-15T07:07:11Z</time>
      </trkpt>
      <trkpt lat="54.443135010078549" lon="13.232772974297404">
        <ele>12.15</ele>
        <time>2024-09-15T07:07:21Z</time>
      </trkpt>
      <trkpt lat="54.443623004481196" lon="13.236465035006404">
        <ele>16</ele>
        <time>2024-09-15T07:07:33Z</time>
      </trkpt>
      <trkpt lat="54.44373800419271" lon="13.237326024100184">
        <ele>16.960000000000001</ele>
        <time>2024-09-15T07:07:36Z</time>
      </trkpt>
      <trkpt lat="54.443829031661153" lon="13.237549988552928">
        <ele>16.960000000000001</ele>
        <time>2024-09-15T07:07:37Z</time>
      </trkpt>
      <trkpt lat="54.443921986967325" lon="13.237777976319194">
        <ele>16.48</ele>
        <time>2024-09-15T07:07:38Z</time>
      </trkpt>
      <trkpt lat="54.444044027477503" lon="13.237989032641053">
        <ele>16</ele>
        <time>2024-09-15T07:07:39Z</time>
      </trkpt>
      <trkpt lat="54.444170007482171" lon="13.238202016800642">
        <ele>15.039999999999999</ele>
        <time>2024-09-15T07:07:40Z</time>
      </trkpt>
      <trkpt lat="54.444548031315207" lon="13.238839963451028">
        <ele>14.08</ele>
        <time>2024-09-15T07:07:43Z</time>
      </trkpt>
      <trkpt lat="54.445642959326506" lon="13.240115018561482">
        <ele>12.15</ele>
        <time>2024-09-15T07:07:51Z</time>
      </trkpt>
      <trkpt lat="54.446158027276397" lon="13.24081901460886">
        <ele>11.19</ele>
        <time>2024-09-15T07:07:55Z</time>
      </trkpt>
      <trkpt lat="54.44627596065402" lon="13.241028981283307">
        <ele>11.19</ele>
        <time>2024-09-15T07:07:56Z</time>
      </trkpt>
      <trkpt lat="54.446389032527804" lon="13.241246994584799">
        <ele>11.19</ele>
        <time>2024-09-15T07:07:57Z</time>
      </trkpt>
      <trkpt lat="54.446826986968517" lon="13.242537975311279">
        <ele>11.67</ele>
        <time>2024-09-15T07:08:02Z</time>
      </trkpt>
      <trkpt lat="54.447643971070647" lon="13.245604997500777">
        <ele>12.630000000000001</ele>
        <time>2024-09-15T07:08:14Z</time>
      </trkpt>
      <trkpt lat="54.448408987373114" lon="13.247552029788494">
        <ele>11.67</ele>
        <time>2024-09-15T07:08:22Z</time>
      </trkpt>
      <trkpt lat="54.449473991990089" lon="13.249618001282215">
        <ele>9.75</ele>
        <time>2024-09-15T07:08:32Z</time>
      </trkpt>
      <trkpt lat="54.450487028807402" lon="13.251273008063436">
        <ele>9.75</ele>
        <time>2024-09-15T07:08:41Z</time>
      </trkpt>
      <trkpt lat="54.451858978718519" lon="13.252922985702753">
        <ele>9.27</ele>
        <time>2024-09-15T07:08:52Z</time>
      </trkpt>
      <trkpt lat="54.452571021392941" lon="13.253804007545114">
        <ele>5.91</ele>
        <time>2024-09-15T07:08:59Z</time>
      </trkpt>
      <trkpt lat="54.453004030510783" lon="13.254411024972796">
        <ele>4.46</ele>
        <time>2024-09-15T07:09:06Z</time>
      </trkpt>
      <trkpt lat="54.453667039051652" lon="13.255342002958059">
        <ele>3.98</ele>
        <time>2024-09-15T07:09:16Z</time>
      </trkpt>
      <trkpt lat="54.45405101403594" lon="13.25588196516037">
        <ele>3.02</ele>
        <time>2024-09-15T07:09:22Z</time>
      </trkpt>
      <trkpt lat="54.454113962128758" lon="13.255969975143671">
        <ele>3.02</ele>
        <time>2024-09-15T07:09:23Z</time>
      </trkpt>
      <trkpt lat="54.45476196706295" lon="13.256927020847797">
        <ele>-0.34</ele>
        <time>2024-09-15T07:09:33Z</time>
      </trkpt>
      <trkpt lat="54.45493103004992" lon="13.257204964756966">
        <ele>-0.82</ele>
        <time>2024-09-15T07:09:36Z</time>
      </trkpt>
      <trkpt lat="54.454987021163106" lon="13.25729800388217">
        <ele>-0.82</ele>
        <time>2024-09-15T07:09:37Z</time>
      </trkpt>
      <trkpt lat="54.455064972862601" lon="13.257478969171643">
        <ele>-1.3</ele>
        <time>2024-09-15T07:09:39Z</time>
      </trkpt>
      <trkpt lat="54.455087017267942" lon="13.257534960284829">
        <ele>-1.3</ele>
        <time>2024-09-15T07:09:40Z</time>
      </trkpt>
      <trkpt lat="54.455138985067606" lon="13.257842995226383">
        <ele>-1.79</ele>
        <time>2024-09-15T07:09:47Z</time>
      </trkpt>
      <trkpt lat="54.455190030857921" lon="13.25787803158164">
        <ele>-1.79</ele>
        <time>2024-09-15T07:09:48Z</time>
      </trkpt>
      <trkpt lat="54.455251973122358" lon="13.257919019088149">
        <ele>-2.27</ele>
        <time>2024-09-15T07:09:49Z</time>
      </trkpt>
      <trkpt lat="54.455531006678939" lon="13.258109036833048">
        <ele>-2.75</ele>
        <time>2024-09-15T07:09:53Z</time>
      </trkpt>
      <trkpt lat="54.455964015796781" lon="13.258410030975938">
        <ele>-1.3</ele>
        <time>2024-09-15T07:09:59Z</time>
      </trkpt>
      <trkpt lat="54.456445975229144" lon="13.258755030110478">
        <ele>1.1</ele>
        <time>2024-09-15T07:10:06Z</time>
      </trkpt>
      <trkpt lat="54.456500960513949" lon="13.258798029273748">
        <ele>1.58</ele>
        <time>2024-09-15T07:10:07Z</time>
      </trkpt>
      <trkpt lat="54.456552006304264" lon="13.258838010951877">
        <ele>1.58</ele>
        <time>2024-09-15T07:10:08Z</time>
      </trkpt>
      <trkpt lat="54.456601040437818" lon="13.258883021771908">
        <ele>2.06</ele>
        <time>2024-09-15T07:10:09Z</time>
      </trkpt>
      <trkpt lat="54.456645967438817" lon="13.258945969864726">
        <ele>2.06</ele>
        <time>2024-09-15T07:10:10Z</time>
      </trkpt>
      <trkpt lat="54.456751998513937" lon="13.259053006768227">
        <ele>3.02</ele>
        <time>2024-09-15T07:10:12Z</time>
      </trkpt>
      <trkpt lat="54.456805977970362" lon="13.259087959304452">
        <ele>3.02</ele>
        <time>2024-09-15T07:10:13Z</time>
      </trkpt>
      <trkpt lat="54.456866998225451" lon="13.259128024801612">
        <ele>3.02</ele>
        <time>2024-09-15T07:10:14Z</time>
      </trkpt>
      <trkpt lat="54.456935981288552" lon="13.259173035621643">
        <ele>3.5</ele>
        <time>2024-09-15T07:10:15Z</time>
      </trkpt>
      <trkpt lat="54.457007981836796" lon="13.259219974279404">
        <ele>3.5</ele>
        <time>2024-09-15T07:10:16Z</time>
      </trkpt>
      <trkpt lat="54.457740979269147" lon="13.259653989225626">
        <ele>4.94</ele>
        <time>2024-09-15T07:10:25Z</time>
      </trkpt>
      <trkpt lat="54.457986988127232" lon="13.259809976443648">
        <ele>4.94</ele>
        <time>2024-09-15T07:10:28Z</time>
      </trkpt>
      <trkpt lat="54.458092013373971" lon="13.25987602584064">
        <ele>5.42</ele>
        <time>2024-09-15T07:10:29Z</time>
      </trkpt>
      <trkpt lat="54.458931041881442" lon="13.26058697886765">
        <ele>5.91</ele>
        <time>2024-09-15T07:10:40Z</time>
      </trkpt>
      <trkpt lat="54.459055010229349" lon="13.260692004114389">
        <ele>5.91</ele>
        <time>2024-09-15T07:10:42Z</time>
      </trkpt>
      <trkpt lat="54.459120975807309" lon="13.260707007721066">
        <ele>5.42</ele>
        <time>2024-09-15T07:10:43Z</time>
      </trkpt>
      <trkpt lat="54.45918501354754" lon="13.260698039084673">
        <ele>5.42</ele>
        <time>2024-09-15T07:10:44Z</time>
      </trkpt>
      <trkpt lat="54.459256008267403" lon="13.260687980800867">
        <ele>5.42</ele>
        <time>2024-09-15T07:10:45Z</time>
      </trkpt>
      <trkpt lat="54.459332032129169" lon="13.260677000507712">
        <ele>5.42</ele>
        <time>2024-09-15T07:10:46Z</time>
      </trkpt>
      <trkpt lat="54.459417024627328" lon="13.260716982185841">
        <ele>5.42</ele>
        <time>2024-09-15T07:10:47Z</time>
      </trkpt>
      <trkpt lat="54.45948600769043" lon="13.260803986340761">
        <ele>5.42</ele>
        <time>2024-09-15T07:10:48Z</time>
      </trkpt>
      <trkpt lat="54.459558008238673" lon="13.260893002152443">
        <ele>5.91</ele>
        <time>2024-09-15T07:10:49Z</time>
      </trkpt>
      <trkpt lat="54.45963503792882" lon="13.260989980772138">
        <ele>5.91</ele>
        <time>2024-09-15T07:10:50Z</time>
      </trkpt>
      <trkpt lat="54.460557969287038" lon="13.261888017877936">
        <ele>9.27</ele>
        <time>2024-09-15T07:10:59Z</time>
      </trkpt>
      <trkpt lat="54.461864037439227" lon="13.263019993901253">
        <ele>14.56</ele>
        <time>2024-09-15T07:11:09Z</time>
      </trkpt>
      <trkpt lat="54.463756000623107" lon="13.264549020677805">
        <ele>20.32</ele>
        <time>2024-09-15T07:11:22Z</time>
      </trkpt>
      <trkpt lat="54.465081011876464" lon="13.264868035912514">
        <ele>16.960000000000001</ele>
        <time>2024-09-15T07:11:30Z</time>
      </trkpt>
      <trkpt lat="54.466408034786582" lon="13.265186967328191">
        <ele>13.119999999999999</ele>
        <time>2024-09-15T07:11:39Z</time>
      </trkpt>
      <trkpt lat="54.467917028814554" lon="13.266161028295755">
        <ele>11.19</ele>
        <time>2024-09-15T07:11:51Z</time>
      </trkpt>
      <trkpt lat="54.469513026997447" lon="13.267508000135422">
        <ele>8.789999999999999</ele>
        <time>2024-09-15T07:12:03Z</time>
      </trkpt>
      <trkpt lat="54.470786992460489" lon="13.268617009744048">
        <ele>14.56</ele>
        <time>2024-09-15T07:12:13Z</time>
      </trkpt>
      <trkpt lat="54.471974037587643" lon="13.269724007695913">
        <ele>14.56</ele>
        <time>2024-09-15T07:12:24Z</time>
      </trkpt>
      <trkpt lat="54.472998976707458" lon="13.271064022555947">
        <ele>5.42</ele>
        <time>2024-09-15T07:12:35Z</time>
      </trkpt>
      <trkpt lat="54.474344020709395" lon="13.273350019007921">
        <ele>0.62</ele>
        <time>2024-09-15T07:12:49Z</time>
      </trkpt>
      <trkpt lat="54.475488988682628" lon="13.275297973304987">
        <ele>2.54</ele>
        <time>2024-09-15T07:13:00Z</time>
      </trkpt>
      <trkpt lat="54.476903015747666" lon="13.277510963380337">
        <ele>3.98</ele>
        <time>2024-09-15T07:13:13Z</time>
      </trkpt>
      <trkpt lat="54.477050034329295" lon="13.277726965025067">
        <ele>3.5</ele>
        <time>2024-09-15T07:13:18Z</time>
      </trkpt>
      <trkpt lat="54.477524030953646" lon="13.278214037418365">
        <ele>2.54</ele>
        <time>2024-09-15T07:13:24Z</time>
      </trkpt>
      <trkpt lat="54.477811027318239" lon="13.278543027117848">
        <ele>1.1</ele>
        <time>2024-09-15T07:13:27Z</time>
      </trkpt>
      <trkpt lat="54.477885961532593" lon="13.278662972152233">
        <ele>0.14</ele>
        <time>2024-09-15T07:13:28Z</time>
      </trkpt>
      <trkpt lat="54.477994004264474" lon="13.278966983780265">
        <ele>-0.82</ele>
        <time>2024-09-15T07:13:30Z</time>
      </trkpt>
      <trkpt lat="54.478404968976974" lon="13.279979014769197">
        <ele>-1.79</ele>
        <time>2024-09-15T07:13:36Z</time>
      </trkpt>
      <trkpt lat="54.478472024202347" lon="13.280118992552161">
        <ele>-1.79</ele>
        <time>2024-09-15T07:13:37Z</time>
      </trkpt>
      <trkpt lat="54.478551987558603" lon="13.280221000313759">
        <ele>-1.3</ele>
        <time>2024-09-15T07:13:38Z</time>
      </trkpt>
      <trkpt lat="54.478646032512188" lon="13.280300041660666">
        <ele>-1.3</ele>
        <time>2024-09-15T07:13:39Z</time>
      </trkpt>
      <trkpt lat="54.478740999475121" lon="13.280380005016923">
        <ele>-0.82</ele>
        <time>2024-09-15T07:13:40Z</time>
      </trkpt>
      <trkpt lat="54.479766022413969" lon="13.280960032716393">
        <ele>1.1</ele>
        <time>2024-09-15T07:13:49Z</time>
      </trkpt>
      <trkpt lat="54.479878004640341" lon="13.281091041862965">
        <ele>1.1</ele>
        <time>2024-09-15T07:13:50Z</time>
      </trkpt>
      <trkpt lat="54.480418972671032" lon="13.281876007094979">
        <ele>1.58</ele>
        <time>2024-09-15T07:13:55Z</time>
      </trkpt>
      <trkpt lat="54.481151970103383" lon="13.283810969442129">
        <ele>4.94</ele>
        <time>2024-09-15T07:14:04Z</time>
      </trkpt>
      <trkpt lat="54.48163703083992" lon="13.28580996952951">
        <ele>9.75</ele>
        <time>2024-09-15T07:14:13Z</time>
      </trkpt>
      <trkpt lat="54.481884967535734" lon="13.287534965202212">
        <ele>10.710000000000001</ele>
        <time>2024-09-15T07:14:21Z</time>
      </trkpt>
      <trkpt lat="54.481986975297332" lon="13.287933021783829">
        <ele>10.23</ele>
        <time>2024-09-15T07:14:23Z</time>
      </trkpt>
      <trkpt lat="54.482036009430885" lon="13.288119016215205">
        <ele>10.23</ele>
        <time>2024-09-15T07:14:24Z</time>
      </trkpt>
      <trkpt lat="54.482313031330705" lon="13.289179997518659">
        <ele>7.83</ele>
        <time>2024-09-15T07:14:32Z</time>
      </trkpt>
      <trkpt lat="54.482401041314006" lon="13.289434975013137">
        <ele>6.39</ele>
        <time>2024-09-15T07:14:37Z</time>
      </trkpt>
      <trkpt lat="54.482445968315005" lon="13.289409996941686">
        <ele>5.91</ele>
        <time>2024-09-15T07:14:38Z</time>
      </trkpt>
      <trkpt lat="54.482505982741714" lon="13.28937697224319">
        <ele>5.42</ele>
        <time>2024-09-15T07:14:39Z</time>
      </trkpt>
      <trkpt lat="54.48316496796906" lon="13.289015963673592">
        <ele>5.42</ele>
        <time>2024-09-15T07:14:45Z</time>
      </trkpt>
      <trkpt lat="54.48490303941071" lon="13.288079034537077">
        <ele>8.789999999999999</ele>
        <time>2024-09-15T07:14:56Z</time>
      </trkpt>
      <trkpt lat="54.487366983667016" lon="13.286751005798578">
        <ele>9.75</ele>
        <time>2024-09-15T07:15:10Z</time>
      </trkpt>
      <trkpt lat="54.49040500447154" lon="13.285113014280796">
        <ele>11.19</ele>
        <time>2024-09-15T07:15:27Z</time>
      </trkpt>
      <trkpt lat="54.492888981476426" lon="13.283774005249143">
        <ele>12.15</ele>
        <time>2024-09-15T07:15:42Z</time>
      </trkpt>
      <trkpt lat="54.495161985978484" lon="13.282549995929003">
        <ele>12.630000000000001</ele>
        <time>2024-09-15T07:15:55Z</time>
      </trkpt>
      <trkpt lat="54.497271962463856" lon="13.281411984935403">
        <ele>11.19</ele>
        <time>2024-09-15T07:16:07Z</time>
      </trkpt>
      <trkpt lat="54.50011502020061" lon="13.279876001179218">
        <ele>8.310000000000001</ele>
        <time>2024-09-15T07:16:23Z</time>
      </trkpt>
      <trkpt lat="54.501441037282348" lon="13.27914702706039">
        <ele>6.39</ele>
        <time>2024-09-15T07:16:31Z</time>
      </trkpt>
      <trkpt lat="54.502895968034863" lon="13.278372036293149">
        <ele>5.42</ele>
        <time>2024-09-15T07:16:39Z</time>
      </trkpt>
      <trkpt lat="54.50432701036334" lon="13.277598973363638">
        <ele>5.91</ele>
        <time>2024-09-15T07:16:47Z</time>
      </trkpt>
      <trkpt lat="54.505096971988678" lon="13.277196977287531">
        <ele>4.94</ele>
        <time>2024-09-15T07:16:51Z</time>
      </trkpt>
      <trkpt lat="54.505482036620378" lon="13.276982987299562">
        <ele>4.46</ele>
        <time>2024-09-15T07:16:53Z</time>
      </trkpt>
      <trkpt lat="54.506935039535165" lon="13.275802982971072">
        <ele>2.06</ele>
        <time>2024-09-15T07:17:01Z</time>
      </trkpt>
      <trkpt lat="54.508094005286694" lon="13.274717023596168">
        <ele>-0.82</ele>
        <time>2024-09-15T07:17:08Z</time>
      </trkpt>
      <trkpt lat="54.509598976001143" lon="13.273337027058005">
        <ele>-1.3</ele>
        <time>2024-09-15T07:17:18Z</time>
      </trkpt>
      <trkpt lat="54.510984001681209" lon="13.272051997482777">
        <ele>2.54</ele>
        <time>2024-09-15T07:17:27Z</time>
      </trkpt>
      <trkpt lat="54.512771023437381" lon="13.270391039550304">
        <ele>4.94</ele>
        <time>2024-09-15T07:17:38Z</time>
      </trkpt>
      <trkpt lat="54.512936985120177" lon="13.27023396268487">
        <ele>4.94</ele>
        <time>2024-09-15T07:17:39Z</time>
      </trkpt>
      <trkpt lat="54.514586040750146" lon="13.26851500198245">
        <ele>5.42</ele>
        <time>2024-09-15T07:17:49Z</time>
      </trkpt>
      <trkpt lat="54.516171980649233" lon="13.266361020505428">
        <ele>5.91</ele>
        <time>2024-09-15T07:18:00Z</time>
      </trkpt>
      <trkpt lat="54.517680974677205" lon="13.264256995171309">
        <ele>4.46</ele>
        <time>2024-09-15T07:18:10Z</time>
      </trkpt>
      <trkpt lat="54.518737010657787" lon="13.262785971164703">
        <ele>3.98</ele>
        <time>2024-09-15T07:18:18Z</time>
      </trkpt>
      <trkpt lat="54.519547037780285" lon="13.261437993496656">
        <ele>3.5</ele>
        <time>2024-09-15T07:18:26Z</time>
      </trkpt>
      <trkpt lat="54.51986001804471" lon="13.260732991620898">
        <ele>3.98</ele>
        <time>2024-09-15T07:18:31Z</time>
      </trkpt>
      <trkpt lat="54.520344994962215" lon="13.259623982012272">
        <ele>5.42</ele>
        <time>2024-09-15T07:18:38Z</time>
      </trkpt>
      <trkpt lat="54.520962992683053" lon="13.258191011846066">
        <ele>4.46</ele>
        <time>2024-09-15T07:18:47Z</time>
      </trkpt>
      <trkpt lat="54.521462973207235" lon="13.257016958668828">
        <ele>3.5</ele>
        <time>2024-09-15T07:18:56Z</time>
      </trkpt>
      <trkpt lat="54.521918026730418" lon="13.256240040063858">
        <ele>1.58</ele>
        <time>2024-09-15T07:19:04Z</time>
      </trkpt>
      <trkpt lat="54.521955996751785" lon="13.256130991503596">
        <ele>1.58</ele>
        <time>2024-09-15T07:19:05Z</time>
      </trkpt>
      <trkpt lat="54.521994972601533" lon="13.256019009277225">
        <ele>1.58</ele>
        <time>2024-09-15T07:19:06Z</time>
      </trkpt>
      <trkpt lat="54.522033026441932" lon="13.255911972373724">
        <ele>1.1</ele>
        <time>2024-09-15T07:19:07Z</time>
      </trkpt>
      <trkpt lat="54.522056998685002" lon="13.255841983482242">
        <ele>1.1</ele>
        <time>2024-09-15T07:19:08Z</time>
      </trkpt>
      <trkpt lat="54.522080970928073" lon="13.25570804066956">
        <ele>0.62</ele>
        <time>2024-09-15T07:19:09Z</time>
      </trkpt>
      <trkpt lat="54.522097986191511" lon="13.255607960745692">
        <ele>0.14</ele>
        <time>2024-09-15T07:19:10Z</time>
      </trkpt>
      <trkpt lat="54.522151965647936" lon="13.255463959649205">
        <ele>0.14</ele>
        <time>2024-09-15T07:19:11Z</time>
      </trkpt>
      <trkpt lat="54.522209968417883" lon="13.255439987406135">
        <ele>-0.34</ele>
        <time>2024-09-15T07:19:12Z</time>
      </trkpt>
      <trkpt lat="54.522279035300016" lon="13.255411991849542">
        <ele>-0.82</ele>
        <time>2024-09-15T07:19:13Z</time>
      </trkpt>
      <trkpt lat="54.52235396951437" lon="13.255379972979426">
        <ele>-0.82</ele>
        <time>2024-09-15T07:19:14Z</time>
      </trkpt>
      <trkpt lat="54.523021001368761" lon="13.255102029070258">
        <ele>0.14</ele>
        <time>2024-09-15T07:19:22Z</time>
      </trkpt>
      <trkpt lat="54.524140991270542" lon="13.254632977768779">
        <ele>0.62</ele>
        <time>2024-09-15T07:19:32Z</time>
      </trkpt>
      <trkpt lat="54.525416968390346" lon="13.254092009738088">
        <ele>-0.34</ele>
        <time>2024-09-15T07:19:41Z</time>
      </trkpt>
      <trkpt lat="54.527152022346854" lon="13.253357000648975">
        <ele>0.14</ele>
        <time>2024-09-15T07:19:51Z</time>
      </trkpt>
      <trkpt lat="54.529251018539071" lon="13.252466004341841">
        <ele>1.58</ele>
        <time>2024-09-15T07:20:02Z</time>
      </trkpt>
      <trkpt lat="54.531465014442801" lon="13.251526979729533">
        <ele>4.94</ele>
        <time>2024-09-15T07:20:14Z</time>
      </trkpt>
      <trkpt lat="54.533262010663748" lon="13.250757018104196">
        <ele>7.83</ele>
        <time>2024-09-15T07:20:26Z</time>
      </trkpt>
      <trkpt lat="54.534799000248313" lon="13.250114964321256">
        <ele>9.75</ele>
        <time>2024-09-15T07:20:36Z</time>
      </trkpt>
      <trkpt lat="54.536649975925684" lon="13.249341985210776">
        <ele>9.27</ele>
        <time>2024-09-15T07:20:46Z</time>
      </trkpt>
      <trkpt lat="54.538801023736596" lon="13.248444031924009">
        <ele>8.310000000000001</ele>
        <time>2024-09-15T07:20:56Z</time>
      </trkpt>
      <trkpt lat="54.540761969983578" lon="13.247847994789481">
        <ele>9.75</ele>
        <time>2024-09-15T07:21:05Z</time>
      </trkpt>
      <trkpt lat="54.542604982852936" lon="13.24747902341187">
        <ele>9.75</ele>
        <time>2024-09-15T07:21:15Z</time>
      </trkpt>
      <trkpt lat="54.544128980487585" lon="13.247280037030578">
        <ele>10.23</ele>
        <time>2024-09-15T07:21:24Z</time>
      </trkpt>
      <trkpt lat="54.545810976997018" lon="13.247364023700356">
        <ele>9.27</ele>
        <time>2024-09-15T07:21:34Z</time>
      </trkpt>
      <trkpt lat="54.54723296687007" lon="13.247251035645604">
        <ele>8.310000000000001</ele>
        <time>2024-09-15T07:21:44Z</time>
      </trkpt>
      <trkpt lat="54.548376007005572" lon="13.246408989652991">
        <ele>6.87</ele>
        <time>2024-09-15T07:21:52Z</time>
      </trkpt>
      <trkpt lat="54.549641003832221" lon="13.245390001684427">
        <ele>4.94</ele>
        <time>2024-09-15T07:22:02Z</time>
      </trkpt>
      <trkpt lat="54.551181010901928" lon="13.244146965444088">
        <ele>3.5</ele>
        <time>2024-09-15T07:22:14Z</time>
      </trkpt>
      <trkpt lat="54.552331008017063" lon="13.243307014927268">
        <ele>2.54</ele>
        <time>2024-09-15T07:22:24Z</time>
      </trkpt>
      <trkpt lat="54.552449025213718" lon="13.243298968300223">
        <ele>2.54</ele>
        <time>2024-09-15T07:22:25Z</time>
      </trkpt>
      <trkpt lat="54.552567964419723" lon="13.24329100549221">
        <ele>2.54</ele>
        <time>2024-09-15T07:22:26Z</time>
      </trkpt>
      <trkpt lat="54.552680030465126" lon="13.243326041847467">
        <ele>2.54</ele>
        <time>2024-09-15T07:22:27Z</time>
      </trkpt>
      <trkpt lat="54.55279603600502" lon="13.243373986333609">
        <ele>2.54</ele>
        <time>2024-09-15T07:22:28Z</time>
      </trkpt>
      <trkpt lat="54.55290399491787" lon="13.243414973840117">
        <ele>2.54</ele>
        <time>2024-09-15T07:22:29Z</time>
      </trkpt>
      <trkpt lat="54.553731959313154" lon="13.243797020986676">
        <ele>3.02</ele>
        <time>2024-09-15T07:22:39Z</time>
      </trkpt>
      <trkpt lat="54.554181983694434" lon="13.244038000702858">
        <ele>3.98</ele>
        <time>2024-09-15T07:22:50Z</time>
      </trkpt>
      <trkpt lat="54.554232023656368" lon="13.244074964895844">
        <ele>3.5</ele>
        <time>2024-09-15T07:22:51Z</time>
      </trkpt>
      <trkpt lat="54.554278962314129" lon="13.244133973494172">
        <ele>3.5</ele>
        <time>2024-09-15T07:22:52Z</time>
      </trkpt>
      <trkpt lat="54.55432103946805" lon="13.244194993749261">
        <ele>3.5</ele>
        <time>2024-09-15T07:22:53Z</time>
      </trkpt>
      <trkpt lat="54.554358003661036" lon="13.244246961548924">
        <ele>3.5</ele>
        <time>2024-09-15T07:22:54Z</time>
      </trkpt>
      <trkpt lat="54.554385999217629" lon="13.244289038702846">
        <ele>3.5</ele>
        <time>2024-09-15T07:22:55Z</time>
      </trkpt>
      <trkpt lat="54.55440703779459" lon="13.244318040087819">
        <ele>3.5</ele>
        <time>2024-09-15T07:22:56Z</time>
      </trkpt>
      <trkpt lat="54.554420029744506" lon="13.244337989017367">
        <ele>3.5</ele>
        <time>2024-09-15T07:22:57Z</time>
      </trkpt>
      <trkpt lat="54.554420029744506" lon="13.244337989017367">
        <ele>3.5</ele>
        <time>2024-09-15T07:23:10Z</time>
      </trkpt>
      <trkpt lat="54.554420029744506" lon="13.244337989017367">
        <ele>3.5</ele>
        <time>2024-09-15T07:23:58Z</time>
      </trkpt>
      <trkpt lat="54.554420029744506" lon="13.244337989017367">
        <ele>3.5</ele>
        <time>2024-09-15T07:24:41Z</time>
      </trkpt>
      <trkpt lat="54.554419023916125" lon="13.244447959586978">
        <ele>2.54</ele>
        <time>2024-09-15T07:35:43Z</time>
      </trkpt>
      <trkpt lat="54.554377030581236" lon="13.244427004829049">
        <ele>-3.71</ele>
        <time>2024-09-15T07:36:34Z</time>
      </trkpt>
      <trkpt lat="54.554376024752855" lon="13.244447037577629">
        <ele>-4.19</ele>
        <time>2024-09-15T07:37:34Z</time>
      </trkpt>
      <trkpt lat="54.554377030581236" lon="13.244447959586978">
        <ele>-4.19</ele>
        <time>2024-09-15T07:38:33Z</time>
      </trkpt>
      <trkpt lat="54.554585991427302" lon="13.244649041444063">
        <ele>-3.23</ele>
        <time>2024-09-15T07:38:43Z</time>
      </trkpt>
      <trkpt lat="54.554778020828962" lon="13.245061011984944">
        <ele>0.14</ele>
        <time>2024-09-15T07:38:54Z</time>
      </trkpt>
      <trkpt lat="54.554919004440308" lon="13.2453309930861">
        <ele>2.54</ele>
        <time>2024-09-15T07:39:07Z</time>
      </trkpt>
      <trkpt lat="54.554972983896732" lon="13.245435012504458">
        <ele>2.54</ele>
        <time>2024-09-15T07:39:23Z</time>
      </trkpt>
      <trkpt lat="54.55765200778842" lon="13.247550018131733">
        <ele>-2.75</ele>
        <time>2024-09-15T07:44:23Z</time>
      </trkpt>
      <trkpt lat="54.557689977809787" lon="13.247510958462954">
        <ele>-9.48</ele>
        <time>2024-09-15T07:44:46Z</time>
      </trkpt>
      <trkpt lat="54.55771897919476" lon="13.247473994269967">
        <ele>-6.11</ele>
        <time>2024-09-15T07:45:09Z</time>
      </trkpt>
      <trkpt lat="54.558127010241151" lon="13.247419008985162">
        <ele>-5.63</ele>
        <time>2024-09-15T07:45:21Z</time>
      </trkpt>
      <trkpt lat="54.559214981272817" lon="13.247334016487002">
        <ele>-6.59</ele>
        <time>2024-09-15T07:45:31Z</time>
      </trkpt>
      <trkpt lat="54.560736967250705" lon="13.247404005378485">
        <ele>-6.59</ele>
        <time>2024-09-15T07:45:41Z</time>
      </trkpt>
      <trkpt lat="54.562693974003196" lon="13.247543983161449">
        <ele>-7.07</ele>
        <time>2024-09-15T07:45:52Z</time>
      </trkpt>
      <trkpt lat="54.564067013561726" lon="13.247669041156769">
        <ele>-6.59</ele>
        <time>2024-09-15T07:46:00Z</time>
      </trkpt>
      <trkpt lat="54.564185030758381" lon="13.247752021998167">
        <ele>-6.59</ele>
        <time>2024-09-15T07:46:01Z</time>
      </trkpt>
      <trkpt lat="54.564286032691598" lon="13.247908009216189">
        <ele>-6.59</ele>
        <time>2024-09-15T07:46:02Z</time>
      </trkpt>
      <trkpt lat="54.564394997432828" lon="13.248079000040889">
        <ele>-6.11</ele>
        <time>2024-09-15T07:46:03Z</time>
      </trkpt>
      <trkpt lat="54.564489964395761" lon="13.248313022777438">
        <ele>-5.63</ele>
        <time>2024-09-15T07:46:04Z</time>
      </trkpt>
      <trkpt lat="54.565306026488543" lon="13.250332977622747">
        <ele>-3.71</ele>
        <time>2024-09-15T07:46:11Z</time>
      </trkpt>
      <trkpt lat="54.566550990566611" lon="13.253430007025599">
        <ele>-1.3</ele>
        <time>2024-09-15T07:46:22Z</time>
      </trkpt>
      <trkpt lat="54.568026037886739" lon="13.257079990580678">
        <ele>-2.27</ele>
        <time>2024-09-15T07:46:35Z</time>
      </trkpt>
      <trkpt lat="54.569304026663303" lon="13.260229993611574">
        <ele>-1.3</ele>
        <time>2024-09-15T07:46:46Z</time>
      </trkpt>
      <trkpt lat="54.570407001301646" lon="13.262925026938319">
        <ele>-0.34</ele>
        <time>2024-09-15T07:46:56Z</time>
      </trkpt>
      <trkpt lat="54.570500962436199" lon="13.263137005269527">
        <ele>-0.34</ele>
        <time>2024-09-15T07:46:57Z</time>
      </trkpt>
      <trkpt lat="54.570615962147713" lon="13.26331595890224">
        <ele>-0.34</ele>
        <time>2024-09-15T07:46:58Z</time>
      </trkpt>
      <trkpt lat="54.570755017921329" lon="13.263473035767674">
        <ele>-0.34</ele>
        <time>2024-09-15T07:46:59Z</time>
      </trkpt>
      <trkpt lat="54.570917040109634" lon="13.26359398663044">
        <ele>-0.34</ele>
        <time>2024-09-15T07:47:00Z</time>
      </trkpt>
      <trkpt lat="54.571089958772063" lon="13.263724995777011">
        <ele>-0.34</ele>
        <time>2024-09-15T07:47:01Z</time>
      </trkpt>
      <trkpt lat="54.57314201630652" lon="13.265267014503479">
        <ele>-0.34</ele>
        <time>2024-09-15T07:47:12Z</time>
      </trkpt>
      <trkpt lat="54.575343020260334" lon="13.266921015456319">
        <ele>-0.34</ele>
        <time>2024-09-15T07:47:24Z</time>
      </trkpt>
      <trkpt lat="54.57782699726522" lon="13.268789006397128">
        <ele>2.54</ele>
        <time>2024-09-15T07:47:37Z</time>
      </trkpt>
      <trkpt lat="54.580306028947234" lon="13.270835028961301">
        <ele>1.58</ele>
        <time>2024-09-15T07:47:50Z</time>
      </trkpt>
      <trkpt lat="54.582179971039295" lon="13.273234013468027">
        <ele>0.62</ele>
        <time>2024-09-15T07:48:01Z</time>
      </trkpt>
      <trkpt lat="54.582305029034615" lon="13.273428976535797">
        <ele>0.62</ele>
        <time>2024-09-15T07:48:02Z</time>
      </trkpt>
      <trkpt lat="54.58238298073411" lon="13.273655958473682">
        <ele>0.14</ele>
        <time>2024-09-15T07:48:03Z</time>
      </trkpt>
      <trkpt lat="54.582451963797212" lon="13.273860979825258">
        <ele>0.14</ele>
        <time>2024-09-15T07:48:04Z</time>
      </trkpt>
      <trkpt lat="54.58266201429069" lon="13.274542009457946">
        <ele>0.14</ele>
        <time>2024-09-15T07:48:08Z</time>
      </trkpt>
      <trkpt lat="54.582708030939102" lon="13.274711994454265">
        <ele>0.14</ele>
        <time>2024-09-15T07:48:09Z</time>
      </trkpt>
      <trkpt lat="54.582836022600532" lon="13.275277018547058">
        <ele>0.14</ele>
        <time>2024-09-15T07:48:12Z</time>
      </trkpt>
      <trkpt lat="54.58287701010704" lon="13.275459995493293">
        <ele>-0.34</ele>
        <time>2024-09-15T07:48:13Z</time>
      </trkpt>
      <trkpt lat="54.582916991785169" lon="13.275638027116656">
        <ele>-0.34</ele>
        <time>2024-09-15T07:48:14Z</time>
      </trkpt>
      <trkpt lat="54.582956973463297" lon="13.275813041254878">
        <ele>-0.82</ele>
        <time>2024-09-15T07:48:15Z</time>
      </trkpt>
      <trkpt lat="54.582997960969806" lon="13.275996018201113">
        <ele>-0.82</ele>
        <time>2024-09-15T07:48:16Z</time>
      </trkpt>
      <trkpt lat="54.58332703448832" lon="13.27745002694428">
        <ele>-2.75</ele>
        <time>2024-09-15T07:48:24Z</time>
      </trkpt>
      <trkpt lat="54.58337003365159" lon="13.277642978355289">
        <ele>-3.23</ele>
        <time>2024-09-15T07:48:25Z</time>
      </trkpt>
      <trkpt lat="54.58341202698648" lon="13.277829978615046">
        <ele>-4.19</ele>
        <time>2024-09-15T07:48:26Z</time>
      </trkpt>
      <trkpt lat="54.583453014492989" lon="13.27800901606679">
        <ele>-4.67</ele>
        <time>2024-09-15T07:48:27Z</time>
      </trkpt>
      <trkpt lat="54.583491990342736" lon="13.27818101271987">
        <ele>-5.15</ele>
        <time>2024-09-15T07:48:28Z</time>
      </trkpt>
      <trkpt lat="54.583894992247224" lon="13.279968034476042">
        <ele>-8.029999999999999</ele>
        <time>2024-09-15T07:48:37Z</time>
      </trkpt>
      <trkpt lat="54.58438097499311" lon="13.282169038429856">
        <ele>-7.55</ele>
        <time>2024-09-15T07:48:44Z</time>
      </trkpt>
      <trkpt lat="54.58483099937439" lon="13.284209026023746">
        <ele>-6.59</ele>
        <time>2024-09-15T07:48:51Z</time>
      </trkpt>
      <trkpt lat="54.58493703044951" lon="13.28445402905345">
        <ele>-6.59</ele>
        <time>2024-09-15T07:48:52Z</time>
      </trkpt>
      <trkpt lat="54.585068039596081" lon="13.284625019878149">
        <ele>-6.11</ele>
        <time>2024-09-15T07:48:53Z</time>
      </trkpt>
      <trkpt lat="54.585234001278877" lon="13.284764997661114">
        <ele>-6.11</ele>
        <time>2024-09-15T07:48:54Z</time>
      </trkpt>
      <trkpt lat="54.585397029295564" lon="13.284898018464446">
        <ele>-6.11</ele>
        <time>2024-09-15T07:48:55Z</time>
      </trkpt>
      <trkpt lat="54.586385004222393" lon="13.285703016445041">
        <ele>-6.11</ele>
        <time>2024-09-15T07:49:01Z</time>
      </trkpt>
      <trkpt lat="54.586514001712203" lon="13.285867972299457">
        <ele>-6.11</ele>
        <time>2024-09-15T07:49:02Z</time>
      </trkpt>
      <trkpt lat="54.586606035009027" lon="13.286079028621316">
        <ele>-6.11</ele>
        <time>2024-09-15T07:49:03Z</time>
      </trkpt>
      <trkpt lat="54.586669988930225" lon="13.286336017772555">
        <ele>-6.59</ele>
        <time>2024-09-15T07:49:04Z</time>
      </trkpt>
      <trkpt lat="54.586724974215031" lon="13.286593006923795">
        <ele>-6.11</ele>
        <time>2024-09-15T07:49:05Z</time>
      </trkpt>
      <trkpt lat="54.586947010830045" lon="13.287625992670655">
        <ele>-5.15</ele>
        <time>2024-09-15T07:49:10Z</time>
      </trkpt>
      <trkpt lat="54.587000990286469" lon="13.287778040394187">
        <ele>-5.15</ele>
        <time>2024-09-15T07:49:11Z</time>
      </trkpt>
      <trkpt lat="54.587070979177952" lon="13.287934027612209">
        <ele>-5.15</ele>
        <time>2024-09-15T07:49:12Z</time>
      </trkpt>
      <trkpt lat="54.587187990546227" lon="13.288016002625227">
        <ele>-4.67</ele>
        <time>2024-09-15T07:49:13Z</time>
      </trkpt>
      <trkpt lat="54.587341966107488" lon="13.28808699734509">
        <ele>-4.67</ele>
        <time>2024-09-15T07:49:14Z</time>
      </trkpt>
      <trkpt lat="54.587515974417329" lon="13.288123039528728">
        <ele>-4.67</ele>
        <time>2024-09-15T07:49:15Z</time>
      </trkpt>
      <trkpt lat="54.589029997587204" lon="13.288436019793153">
        <ele>-4.19</ele>
        <time>2024-09-15T07:49:22Z</time>
      </trkpt>
      <trkpt lat="54.591684965416789" lon="13.288986040279269">
        <ele>-2.75</ele>
        <time>2024-09-15T07:49:34Z</time>
      </trkpt>
      <trkpt lat="54.594540009275079" lon="13.289577970281243">
        <ele>-0.34</ele>
        <time>2024-09-15T07:49:47Z</time>
      </trkpt>
      <trkpt lat="54.597582975402474" lon="13.290205020457506">
        <ele>2.06</ele>
        <time>2024-09-15T07:50:01Z</time>
      </trkpt>
      <trkpt lat="54.599549034610391" lon="13.290576003491879">
        <ele>3.98</ele>
        <time>2024-09-15T07:50:10Z</time>
      </trkpt>
      <trkpt lat="54.601117959246039" lon="13.290897030383348">
        <ele>5.42</ele>
        <time>2024-09-15T07:50:18Z</time>
      </trkpt>
      <trkpt lat="54.601562032476068" lon="13.290942963212729">
        <ele>5.42</ele>
        <time>2024-09-15T07:50:21Z</time>
      </trkpt>
      <trkpt lat="54.601688012480736" lon="13.290888983756304">
        <ele>5.91</ele>
        <time>2024-09-15T07:50:22Z</time>
      </trkpt>
      <trkpt lat="54.601810975000262" lon="13.290798040106893">
        <ele>5.42</ele>
        <time>2024-09-15T07:50:23Z</time>
      </trkpt>
      <trkpt lat="54.601929998025298" lon="13.290654039010406">
        <ele>5.42</ele>
        <time>2024-09-15T07:50:24Z</time>
      </trkpt>
      <trkpt lat="54.602057989686728" lon="13.290500985458493">
        <ele>5.42</ele>
        <time>2024-09-15T07:50:25Z</time>
      </trkpt>
      <trkpt lat="54.6032440289855" lon="13.288766015321016">
        <ele>3.98</ele>
        <time>2024-09-15T07:50:33Z</time>
      </trkpt>
      <trkpt lat="54.605023004114628" lon="13.286128984764218">
        <ele>3.5</ele>
        <time>2024-09-15T07:50:43Z</time>
      </trkpt>
      <trkpt lat="54.606754034757614" lon="13.283559009432793">
        <ele>-0.82</ele>
        <time>2024-09-15T07:50:53Z</time>
      </trkpt>
      <trkpt lat="54.60786203853786" lon="13.281990000978112">
        <ele>-3.71</ele>
        <time>2024-09-15T07:51:01Z</time>
      </trkpt>
      <trkpt lat="54.608023976907134" lon="13.281844994053245">
        <ele>-4.67</ele>
        <time>2024-09-15T07:51:02Z</time>
      </trkpt>
      <trkpt lat="54.608714981004596" lon="13.281226996332407">
        <ele>-7.07</ele>
        <time>2024-09-15T07:51:07Z</time>
      </trkpt>
      <trkpt lat="54.608836015686393" lon="13.281150972470641">
        <ele>-7.55</ele>
        <time>2024-09-15T07:51:08Z</time>
      </trkpt>
      <trkpt lat="54.608957972377539" lon="13.281204029917717">
        <ele>-7.55</ele>
        <time>2024-09-15T07:51:09Z</time>
      </trkpt>
      <trkpt lat="54.609091999009252" lon="13.281261026859283">
        <ele>-8.029999999999999</ele>
        <time>2024-09-15T07:51:10Z</time>
      </trkpt>
      <trkpt lat="54.609241029247642" lon="13.281324980780482">
        <ele>-8.029999999999999</ele>
        <time>2024-09-15T07:51:11Z</time>
      </trkpt>
      <trkpt lat="54.610940963029861" lon="13.282428961247206">
        <ele>-10.44</ele>
        <time>2024-09-15T07:51:21Z</time>
      </trkpt>
      <trkpt lat="54.612622959539294" lon="13.283521961420774">
        <ele>-9.48</ele>
        <time>2024-09-15T07:51:30Z</time>
      </trkpt>
      <trkpt lat="54.614747017621994" lon="13.28488796018064">
        <ele>-8.029999999999999</ele>
        <time>2024-09-15T07:51:41Z</time>
      </trkpt>
      <trkpt lat="54.615757036954165" lon="13.285536970943213">
        <ele>-6.59</ele>
        <time>2024-09-15T07:51:48Z</time>
      </trkpt>
      <trkpt lat="54.615871030837297" lon="13.285617018118501">
        <ele>-6.11</ele>
        <time>2024-09-15T07:51:49Z</time>
      </trkpt>
      <trkpt lat="54.615982007235289" lon="13.285692958161235">
        <ele>-5.63</ele>
        <time>2024-09-15T07:51:50Z</time>
      </trkpt>
      <trkpt lat="54.616088038310409" lon="13.285763030871749">
        <ele>-5.15</ele>
        <time>2024-09-15T07:51:51Z</time>
      </trkpt>
      <trkpt lat="54.616356007754803" lon="13.28593896701932">
        <ele>-4.67</ele>
        <time>2024-09-15T07:51:54Z</time>
      </trkpt>
      <trkpt lat="54.616441000252962" lon="13.285993030294776">
        <ele>-5.15</ele>
        <time>2024-09-15T07:51:55Z</time>
      </trkpt>
      <trkpt lat="54.617201993241906" lon="13.286469960585237">
        <ele>-6.11</ele>
        <time>2024-09-15T07:52:02Z</time>
      </trkpt>
      <trkpt lat="54.61826004087925" lon="13.287273030728102">
        <ele>-7.55</ele>
        <time>2024-09-15T07:52:12Z</time>
      </trkpt>
      <trkpt lat="54.618357019498944" lon="13.287377972155809">
        <ele>-7.55</ele>
        <time>2024-09-15T07:52:13Z</time>
      </trkpt>
      <trkpt lat="54.618836967274547" lon="13.287880970165133">
        <ele>-8.51</ele>
        <time>2024-09-15T07:52:18Z</time>
      </trkpt>
      <trkpt lat="54.61892900057137" lon="13.287926986813545">
        <ele>-9</ele>
        <time>2024-09-15T07:52:19Z</time>
      </trkpt>
      <trkpt lat="54.619012987241149" lon="13.287968980148435">
        <ele>-9</ele>
        <time>2024-09-15T07:52:20Z</time>
      </trkpt>
      <trkpt lat="54.619107032194734" lon="13.288004016503692">
        <ele>-9.48</ele>
        <time>2024-09-15T07:52:21Z</time>
      </trkpt>
      <trkpt lat="54.619194036349654" lon="13.287987001240253">
        <ele>-9.960000000000001</ele>
        <time>2024-09-15T07:52:22Z</time>
      </trkpt>
      <trkpt lat="54.619923010468483" lon="13.287848029285669">
        <ele>-11.880000000000001</ele>
        <time>2024-09-15T07:52:30Z</time>
      </trkpt>
      <trkpt lat="54.620017977431417" lon="13.287836965173483">
        <ele>-11.880000000000001</ele>
        <time>2024-09-15T07:52:31Z</time>
      </trkpt>
      <trkpt lat="54.620118979364634" lon="13.287845011800528">
        <ele>-11.4</ele>
        <time>2024-09-15T07:52:32Z</time>
      </trkpt>
      <trkpt lat="54.620315032079816" lon="13.287860015407205">
        <ele>-10.92</ele>
        <time>2024-09-15T07:52:34Z</time>
      </trkpt>
      <trkpt lat="54.620404969900846" lon="13.287866972386837">
        <ele>-10.44</ele>
        <time>2024-09-15T07:52:35Z</time>
      </trkpt>
      <trkpt lat="54.620664976537228" lon="13.287887005135417">
        <ele>-9.48</ele>
        <time>2024-09-15T07:52:39Z</time>
      </trkpt>
      <trkpt lat="54.620719039812684" lon="13.287891028448939">
        <ele>-9.48</ele>
        <time>2024-09-15T07:52:40Z</time>
      </trkpt>
      <trkpt lat="54.620866980403662" lon="13.287905026227236">
        <ele>-8.51</ele>
        <time>2024-09-15T07:52:43Z</time>
      </trkpt>
      <trkpt lat="54.620903022587299" lon="13.287909971550107">
        <ele>-8.51</ele>
        <time>2024-09-15T07:52:44Z</time>
      </trkpt>
      <trkpt lat="54.620924983173609" lon="13.287912989035249">
        <ele>-8.51</ele>
        <time>2024-09-15T07:52:45Z</time>
      </trkpt>
      <trkpt lat="54.620943004265428" lon="13.287916006520391">
        <ele>-8.029999999999999</ele>
        <time>2024-09-15T07:52:46Z</time>
      </trkpt>
      <trkpt lat="54.620963037014008" lon="13.287919024005532">
        <ele>-8.029999999999999</ele>
        <time>2024-09-15T07:52:47Z</time>
      </trkpt>
      <trkpt lat="54.620978040620685" lon="13.287921035662293">
        <ele>-7.55</ele>
        <time>2024-09-15T07:52:48Z</time>
      </trkpt>
      <trkpt lat="54.621016010642052" lon="13.287926986813545">
        <ele>-5.63</ele>
        <time>2024-09-15T07:53:00Z</time>
      </trkpt>
      <trkpt lat="54.621118018403649" lon="13.287737974897027">
        <ele>7.35</ele>
        <time>2024-09-15T08:11:55Z</time>
      </trkpt>
      <trkpt lat="54.621063033118844" lon="13.287717020139098">
        <ele>-6.11</ele>
        <time>2024-09-15T08:12:13Z</time>
      </trkpt>
      <trkpt lat="54.621068984270096" lon="13.287701010704041">
        <ele>-1.79</ele>
        <time>2024-09-15T08:12:47Z</time>
      </trkpt>
      <trkpt lat="54.621045012027025" lon="13.287774017080665">
        <ele>1.1</ele>
        <time>2024-09-15T08:13:04Z</time>
      </trkpt>
      <trkpt lat="54.621015004813671" lon="13.2877860032022">
        <ele>3.98</ele>
        <time>2024-09-15T08:13:25Z</time>
      </trkpt>
      <trkpt lat="54.621017016470432" lon="13.287860015407205">
        <ele>3.5</ele>
        <time>2024-09-15T08:14:01Z</time>
      </trkpt>
      <trkpt lat="54.621017016470432" lon="13.287860015407205">
        <ele>3.5</ele>
        <time>2024-09-15T08:14:13Z</time>
      </trkpt>
      <trkpt lat="54.621047023683786" lon="13.287931010127068">
        <ele>3.5</ele>
        <time>2024-09-15T08:14:15Z</time>
      </trkpt>
      <trkpt lat="54.621228994801641" lon="13.28806696459651">
        <ele>3.02</ele>
        <time>2024-09-15T08:14:19Z</time>
      </trkpt>
      <trkpt lat="54.621282974258065" lon="13.288133013993502">
        <ele>3.02</ele>
        <time>2024-09-15T08:14:20Z</time>
      </trkpt>
      <trkpt lat="54.62133502587676" lon="13.288208032026887">
        <ele>3.02</ele>
        <time>2024-09-15T08:14:21Z</time>
      </trkpt>
      <trkpt lat="54.62137701921165" lon="13.288291012868285">
        <ele>3.02</ele>
        <time>2024-09-15T08:14:22Z</time>
      </trkpt>
      <trkpt lat="54.621406020596623" lon="13.288350021466613">
        <ele>3.02</ele>
        <time>2024-09-15T08:14:23Z</time>
      </trkpt>
      <trkpt lat="54.621441978961229" lon="13.288477007299662">
        <ele>2.54</ele>
        <time>2024-09-15T08:14:24Z</time>
      </trkpt>
      <trkpt lat="54.621492018923163" lon="13.288651015609503">
        <ele>2.54</ele>
        <time>2024-09-15T08:14:25Z</time>
      </trkpt>
      <trkpt lat="54.62148698978126" lon="13.288713963702321">
        <ele>2.54</ele>
        <time>2024-09-15T08:14:26Z</time>
      </trkpt>
      <trkpt lat="54.621478021144867" lon="13.288843967020512">
        <ele>2.54</ele>
        <time>2024-09-15T08:14:27Z</time>
      </trkpt>
      <trkpt lat="54.621467962861061" lon="13.288972964510322">
        <ele>2.54</ele>
        <time>2024-09-15T08:14:28Z</time>
      </trkpt>
      <trkpt lat="54.621458994224668" lon="13.289101962000132">
        <ele>3.02</ele>
        <time>2024-09-15T08:14:29Z</time>
      </trkpt>
      <trkpt lat="54.621392022818327" lon="13.289908971637487">
        <ele>3.98</ele>
        <time>2024-09-15T08:14:35Z</time>
      </trkpt>
      <trkpt lat="54.621343994513154" lon="13.290052972733974">
        <ele>3.98</ele>
        <time>2024-09-15T08:14:36Z</time>
      </trkpt>
      <trkpt lat="54.621294960379601" lon="13.290165038779378">
        <ele>4.46</ele>
        <time>2024-09-15T08:14:37Z</time>
      </trkpt>
      <trkpt lat="54.621251039206982" lon="13.290266962721944">
        <ele>4.94</ele>
        <time>2024-09-15T08:14:38Z</time>
      </trkpt>
      <trkpt lat="54.621209967881441" lon="13.290361007675529">
        <ele>5.42</ele>
        <time>2024-09-15T08:14:39Z</time>
      </trkpt>
      <trkpt lat="54.621170992031693" lon="13.29045002348721">
        <ele>5.91</ele>
        <time>2024-09-15T08:14:40Z</time>
      </trkpt>
      <trkpt lat="54.621192030608654" lon="13.290539039298892">
        <ele>5.91</ele>
        <time>2024-09-15T08:14:41Z</time>
      </trkpt>
      <trkpt lat="54.621230000630021" lon="13.290628977119923">
        <ele>6.39</ele>
        <time>2024-09-15T08:14:42Z</time>
      </trkpt>
      <trkpt lat="54.621276017278433" lon="13.290734002366662">
        <ele>6.39</ele>
        <time>2024-09-15T08:14:43Z</time>
      </trkpt>
      <trkpt lat="54.621325973421335" lon="13.290850007906556">
        <ele>6.39</ele>
        <time>2024-09-15T08:14:44Z</time>
      </trkpt>
      <trkpt lat="54.621750013902783" lon="13.291698005050421">
        <ele>7.83</ele>
        <time>2024-09-15T08:14:53Z</time>
      </trkpt>
      <trkpt lat="54.621793013066053" lon="13.29180303029716">
        <ele>7.83</ele>
        <time>2024-09-15T08:14:54Z</time>
      </trkpt>
      <trkpt lat="54.621836012229323" lon="13.291908977553248">
        <ele>8.310000000000001</ele>
        <time>2024-09-15T08:14:55Z</time>
      </trkpt>
      <trkpt lat="54.621882028877735" lon="13.292019031941891">
        <ele>7.83</ele>
        <time>2024-09-15T08:14:56Z</time>
      </trkpt>
      <trkpt lat="54.621928967535496" lon="13.292135959491134">
        <ele>7.83</ele>
        <time>2024-09-15T08:14:57Z</time>
      </trkpt>
      <trkpt lat="54.622491979971528" lon="13.293260978534818">
        <ele>5.42</ele>
        <time>2024-09-15T08:15:08Z</time>
      </trkpt>
      <trkpt lat="54.62256096303463" lon="13.293334990739822">
        <ele>5.42</ele>
        <time>2024-09-15T08:15:09Z</time>
      </trkpt>
      <trkpt lat="54.622630029916763" lon="13.293409002944827">
        <ele>4.94</ele>
        <time>2024-09-15T08:15:10Z</time>
      </trkpt>
      <trkpt lat="54.622785011306405" lon="13.293525008484721">
        <ele>3.98</ele>
        <time>2024-09-15T08:15:12Z</time>
      </trkpt>
      <trkpt lat="54.623302007094026" lon="13.293740004301071">
        <ele>1.58</ele>
        <time>2024-09-15T08:15:18Z</time>
      </trkpt>
      <trkpt lat="54.623477021232247" lon="13.293905965983868">
        <ele>1.58</ele>
        <time>2024-09-15T08:15:20Z</time>
      </trkpt>
      <trkpt lat="54.623567964881659" lon="13.293990958482027">
        <ele>1.58</ele>
        <time>2024-09-15T08:15:21Z</time>
      </trkpt>
      <trkpt lat="54.623648012056947" lon="13.294092966243625">
        <ele>1.58</ele>
        <time>2024-09-15T08:15:22Z</time>
      </trkpt>
      <trkpt lat="54.623724035918713" lon="13.294230010360479">
        <ele>1.58</ele>
        <time>2024-09-15T08:15:23Z</time>
      </trkpt>
      <trkpt lat="54.62378597818315" lon="13.294341992586851">
        <ele>2.06</ele>
        <time>2024-09-15T08:15:24Z</time>
      </trkpt>
      <trkpt lat="54.623842975124717" lon="13.294488005340099">
        <ele>2.06</ele>
        <time>2024-09-15T08:15:25Z</time>
      </trkpt>
      <trkpt lat="54.62387197650969" lon="13.294652961194515">
        <ele>2.54</ele>
        <time>2024-09-15T08:15:26Z</time>
      </trkpt>
      <trkpt lat="54.623901983723044" lon="13.294820012524724">
        <ele>3.02</ele>
        <time>2024-09-15T08:15:27Z</time>
      </trkpt>
      <trkpt lat="54.624084960669279" lon="13.295836988836527">
        <ele>4.94</ele>
        <time>2024-09-15T08:15:35Z</time>
      </trkpt>
      <trkpt lat="54.624117985367775" lon="13.296018959954381">
        <ele>5.42</ele>
        <time>2024-09-15T08:15:37Z</time>
      </trkpt>
      <trkpt lat="54.624165007844567" lon="13.296113004907966">
        <ele>5.42</ele>
        <time>2024-09-15T08:15:38Z</time>
      </trkpt>
      <trkpt lat="54.624224016442895" lon="13.2961440179497">
        <ele>5.91</ele>
        <time>2024-09-15T08:15:39Z</time>
      </trkpt>
      <trkpt lat="54.624291993677616" lon="13.296177964657545">
        <ele>5.91</ele>
        <time>2024-09-15T08:15:40Z</time>
      </trkpt>
      <trkpt lat="54.62436399422586" lon="13.296215012669563">
        <ele>5.91</ele>
        <time>2024-09-15T08:15:41Z</time>
      </trkpt>
      <trkpt lat="54.624438006430864" lon="13.29625298269093">
        <ele>5.91</ele>
        <time>2024-09-15T08:15:42Z</time>
      </trkpt>
      <trkpt lat="54.625263037160039" lon="13.29668004065752">
        <ele>6.39</ele>
        <time>2024-09-15T08:15:51Z</time>
      </trkpt>
      <trkpt lat="54.625692022964358" lon="13.296970976516604">
        <ele>5.91</ele>
        <time>2024-09-15T08:15:55Z</time>
      </trkpt>
      <trkpt lat="54.625798976048827" lon="13.297084970399737">
        <ele>5.42</ele>
        <time>2024-09-15T08:15:56Z</time>
      </trkpt>
      <trkpt lat="54.625885980203748" lon="13.297240035608411">
        <ele>5.42</ele>
        <time>2024-09-15T08:15:57Z</time>
      </trkpt>
      <trkpt lat="54.625977007672191" lon="13.297400968149304">
        <ele>5.42</ele>
        <time>2024-09-15T08:15:58Z</time>
      </trkpt>
      <trkpt lat="54.626070968806744" lon="13.297566007822752">
        <ele>4.94</ele>
        <time>2024-09-15T08:15:59Z</time>
      </trkpt>
      <trkpt lat="54.626908991485834" lon="13.298973999917507">
        <ele>3.98</ele>
        <time>2024-09-15T08:16:07Z</time>
      </trkpt>
      <trkpt lat="54.627051986753941" lon="13.299080030992627">
        <ele>3.98</ele>
        <time>2024-09-15T08:16:08Z</time>
      </trkpt>
      <trkpt lat="54.627207973971963" lon="13.299182038754225">
        <ele>4.46</ele>
        <time>2024-09-15T08:16:09Z</time>
      </trkpt>
      <trkpt lat="54.628953002393246" lon="13.300179988145828">
        <ele>4.46</ele>
        <time>2024-09-15T08:16:20Z</time>
      </trkpt>
      <trkpt lat="54.631470004096627" lon="13.301160000264645">
        <ele>5.91</ele>
        <time>2024-09-15T08:16:35Z</time>
      </trkpt>
      <trkpt lat="54.633739991113544" lon="13.303074007853866">
        <ele>4.94</ele>
        <time>2024-09-15T08:16:49Z</time>
      </trkpt>
      <trkpt lat="54.634533002972603" lon="13.304322995245457">
        <ele>4.94</ele>
        <time>2024-09-15T08:16:55Z</time>
      </trkpt>
      <trkpt lat="54.635974019765854" lon="13.307242998853326">
        <ele>5.42</ele>
        <time>2024-09-15T08:17:09Z</time>
      </trkpt>
      <trkpt lat="54.636469976976514" lon="13.308596005663276">
        <ele>4.94</ele>
        <time>2024-09-15T08:17:17Z</time>
      </trkpt>
      <trkpt lat="54.63654600083828" lon="13.308869004249573">
        <ele>4.46</ele>
        <time>2024-09-15T08:17:19Z</time>
      </trkpt>
      <trkpt lat="54.636575002223253" lon="13.308972017839551">
        <ele>4.46</ele>
        <time>2024-09-15T08:17:20Z</time>
      </trkpt>
      <trkpt lat="54.636630993336439" lon="13.309033960103989">
        <ele>3.98</ele>
        <time>2024-09-15T08:17:21Z</time>
      </trkpt>
      <trkpt lat="54.636692013591528" lon="13.308991966769099">
        <ele>3.5</ele>
        <time>2024-09-15T08:17:22Z</time>
      </trkpt>
      <trkpt lat="54.636772982776165" lon="13.308934969827533">
        <ele>3.02</ele>
        <time>2024-09-15T08:17:23Z</time>
      </trkpt>
      <trkpt lat="54.636871973052621" lon="13.308865986764431">
        <ele>3.02</ele>
        <time>2024-09-15T08:17:24Z</time>
      </trkpt>
      <trkpt lat="54.637803034856915" lon="13.308215970173478">
        <ele>1.1</ele>
        <time>2024-09-15T08:17:31Z</time>
      </trkpt>
      <trkpt lat="54.639153024181724" lon="13.307227995246649">
        <ele>-0.34</ele>
        <time>2024-09-15T08:17:41Z</time>
      </trkpt>
      <trkpt lat="54.639267018064857" lon="13.307074019685388">
        <ele>-0.82</ele>
        <time>2024-09-15T08:17:42Z</time>
      </trkpt>
      <trkpt lat="54.639381011947989" lon="13.306917026638985">
        <ele>-0.82</ele>
        <time>2024-09-15T08:17:43Z</time>
      </trkpt>
      <trkpt lat="54.6394909825176" lon="13.306766990572214">
        <ele>-0.82</ele>
        <time>2024-09-15T08:17:44Z</time>
      </trkpt>
      <trkpt lat="54.639582009986043" lon="13.306592982262373">
        <ele>-0.82</ele>
        <time>2024-09-15T08:17:45Z</time>
      </trkpt>
      <trkpt lat="54.639684017747641" lon="13.306393995881081">
        <ele>-0.82</ele>
        <time>2024-09-15T08:17:46Z</time>
      </trkpt>
      <trkpt lat="54.639790970832109" lon="13.306186040863395">
        <ele>-0.82</ele>
        <time>2024-09-15T08:17:47Z</time>
      </trkpt>
      <trkpt lat="54.640399999916553" lon="13.304792968556285">
        <ele>-1.79</ele>
        <time>2024-09-15T08:17:53Z</time>
      </trkpt>
      <trkpt lat="54.641222013160586" lon="13.302035992965102">
        <ele>-2.27</ele>
        <time>2024-09-15T08:18:03Z</time>
      </trkpt>
      <trkpt lat="54.642266985028982" lon="13.298395983874798">
        <ele>-3.23</ele>
        <time>2024-09-15T08:18:16Z</time>
      </trkpt>
      <trkpt lat="54.643020015209913" lon="13.295888034626842">
        <ele>-3.71</ele>
        <time>2024-09-15T08:18:26Z</time>
      </trkpt>
      <trkpt lat="54.643110958859324" lon="13.295687036588788">
        <ele>-3.71</ele>
        <time>2024-09-15T08:18:27Z</time>
      </trkpt>
      <trkpt lat="54.643226964399219" lon="13.295523002743721">
        <ele>-3.71</ele>
        <time>2024-09-15T08:18:28Z</time>
      </trkpt>
      <trkpt lat="54.643346993252635" lon="13.295358968898654">
        <ele>-3.71</ele>
        <time>2024-09-15T08:18:29Z</time>
      </trkpt>
      <trkpt lat="54.643476996570826" lon="13.29522100277245">
        <ele>-3.71</ele>
        <time>2024-09-15T08:18:30Z</time>
      </trkpt>
      <trkpt lat="54.643625020980835" lon="13.295115977525711">
        <ele>-4.19</ele>
        <time>2024-09-15T08:18:31Z</time>
      </trkpt>
      <trkpt lat="54.643770027905703" lon="13.295013969764113">
        <ele>-4.67</ele>
        <time>2024-09-15T08:18:32Z</time>
      </trkpt>
      <trkpt lat="54.6439169626683" lon="13.294955966994166">
        <ele>-5.63</ele>
        <time>2024-09-15T08:18:33Z</time>
      </trkpt>
      <trkpt lat="54.644071022048593" lon="13.29489997588098">
        <ele>-6.11</ele>
        <time>2024-09-15T08:18:34Z</time>
      </trkpt>
      <trkpt lat="54.644220974296331" lon="13.294847002252936">
        <ele>-7.07</ele>
        <time>2024-09-15T08:18:35Z</time>
      </trkpt>
      <trkpt lat="54.64436698704958" lon="13.294795034453273">
        <ele>-7.55</ele>
        <time>2024-09-15T08:18:36Z</time>
      </trkpt>
      <trkpt lat="54.645207021385431" lon="13.294395972043276">
        <ele>-9.960000000000001</ele>
        <time>2024-09-15T08:18:42Z</time>
      </trkpt>
      <trkpt lat="54.645325038582087" lon="13.294249959290028">
        <ele>-10.44</ele>
        <time>2024-09-15T08:18:43Z</time>
      </trkpt>
      <trkpt lat="54.64544297195971" lon="13.294104030355811">
        <ele>-10.44</ele>
        <time>2024-09-15T08:18:44Z</time>
      </trkpt>
      <trkpt lat="54.645561994984746" lon="13.293957011774182">
        <ele>-10.92</ele>
        <time>2024-09-15T08:18:45Z</time>
      </trkpt>
      <trkpt lat="54.645651010796428" lon="13.293751990422606">
        <ele>-11.4</ele>
        <time>2024-09-15T08:18:46Z</time>
      </trkpt>
      <trkpt lat="54.645739020779729" lon="13.293545041233301">
        <ele>-11.4</ele>
        <time>2024-09-15T08:18:47Z</time>
      </trkpt>
      <trkpt lat="54.645818984135985" lon="13.293329039588571">
        <ele>-11.4</ele>
        <time>2024-09-15T08:18:48Z</time>
      </trkpt>
      <trkpt lat="54.645873969420791" lon="13.293091999366879">
        <ele>-11.880000000000001</ele>
        <time>2024-09-15T08:18:49Z</time>
      </trkpt>
      <trkpt lat="54.645929960533977" lon="13.292855964973569">
        <ele>-11.880000000000001</ele>
        <time>2024-09-15T08:18:50Z</time>
      </trkpt>
      <trkpt lat="54.646121989935637" lon="13.291905038058758">
        <ele>-11.880000000000001</ele>
        <time>2024-09-15T08:18:54Z</time>
      </trkpt>
      <trkpt lat="54.646165994927287" lon="13.291663974523544">
        <ele>-11.4</ele>
        <time>2024-09-15T08:18:55Z</time>
      </trkpt>
      <trkpt lat="54.646695982664824" lon="13.289006995037198">
        <ele>-10.92</ele>
        <time>2024-09-15T08:19:05Z</time>
      </trkpt>
      <trkpt lat="54.647152964025736" lon="13.286713035777211">
        <ele>-9.960000000000001</ele>
        <time>2024-09-15T08:19:14Z</time>
      </trkpt>
      <trkpt lat="54.647520007565618" lon="13.284896006807685">
        <ele>-10.92</ele>
        <time>2024-09-15T08:19:23Z</time>
      </trkpt>
      <trkpt lat="54.647655040025711" lon="13.284192010760307">
        <ele>-11.4</ele>
        <time>2024-09-15T08:19:28Z</time>
      </trkpt>
      <trkpt lat="54.647712958976626" lon="13.284058989956975">
        <ele>-11.4</ele>
        <time>2024-09-15T08:19:29Z</time>
      </trkpt>
      <trkpt lat="54.647774985060096" lon="13.284011967480183">
        <ele>-11.880000000000001</ele>
        <time>2024-09-15T08:19:30Z</time>
      </trkpt>
      <trkpt lat="54.647864000871778" lon="13.283942984417081">
        <ele>-11.880000000000001</ele>
        <time>2024-09-15T08:19:31Z</time>
      </trkpt>
      <trkpt lat="54.647960979491472" lon="13.283868972212076">
        <ele>-11.880000000000001</ele>
        <time>2024-09-15T08:19:32Z</time>
      </trkpt>
      <trkpt lat="54.648080002516508" lon="13.283843994140625">
        <ele>-11.880000000000001</ele>
        <time>2024-09-15T08:19:33Z</time>
      </trkpt>
      <trkpt lat="54.648200031369925" lon="13.283843994140625">
        <ele>-11.880000000000001</ele>
        <time>2024-09-15T08:19:34Z</time>
      </trkpt>
      <trkpt lat="54.648316958919168" lon="13.283851034939289">
        <ele>-11.880000000000001</ele>
        <time>2024-09-15T08:19:35Z</time>
      </trkpt>
      <trkpt lat="54.648435981944203" lon="13.283864026889205">
        <ele>-11.4</ele>
        <time>2024-09-15T08:19:36Z</time>
      </trkpt>
      <trkpt lat="54.648553999140859" lon="13.28387601301074">
        <ele>-11.4</ele>
        <time>2024-09-15T08:19:37Z</time>
      </trkpt>
      <trkpt lat="54.649152969941497" lon="13.283924041315913">
        <ele>-11.4</ele>
        <time>2024-09-15T08:19:42Z</time>
      </trkpt>
      <trkpt lat="54.649270987138152" lon="13.283915994688869">
        <ele>-11.4</ele>
        <time>2024-09-15T08:19:43Z</time>
      </trkpt>
      <trkpt lat="54.649386992678046" lon="13.283909037709236">
        <ele>-11.4</ele>
        <time>2024-09-15T08:19:44Z</time>
      </trkpt>
      <trkpt lat="54.649496963247657" lon="13.283942984417081">
        <ele>-11.4</ele>
        <time>2024-09-15T08:19:45Z</time>
      </trkpt>
      <trkpt lat="54.649607017636299" lon="13.283978020772338">
        <ele>-11.4</ele>
        <time>2024-09-15T08:19:46Z</time>
      </trkpt>
      <trkpt lat="54.64971698820591" lon="13.284012973308563">
        <ele>-11.4</ele>
        <time>2024-09-15T08:19:47Z</time>
      </trkpt>
      <trkpt lat="54.649826036766171" lon="13.28404800966382">
        <ele>-10.92</ele>
        <time>2024-09-15T08:19:48Z</time>
      </trkpt>
      <trkpt lat="54.650974022224545" lon="13.284945962950587">
        <ele>-8.51</ele>
        <time>2024-09-15T08:19:58Z</time>
      </trkpt>
      <trkpt lat="54.65218897908926" lon="13.285864032804966">
        <ele>-4.67</ele>
        <time>2024-09-15T08:20:07Z</time>
      </trkpt>
      <trkpt lat="54.652346977964044" lon="13.285894962027669">
        <ele>-4.19</ele>
        <time>2024-09-15T08:20:08Z</time>
      </trkpt>
      <trkpt lat="54.654523003846407" lon="13.286245996132493">
        <ele>-0.82</ele>
        <time>2024-09-15T08:20:21Z</time>
      </trkpt>
      <trkpt lat="54.654661975800991" lon="13.286214983090758">
        <ele>-0.82</ele>
        <time>2024-09-15T08:20:22Z</time>
      </trkpt>
      <trkpt lat="54.654792984947562" lon="13.286185981705785">
        <ele>-0.82</ele>
        <time>2024-09-15T08:20:23Z</time>
      </trkpt>
      <trkpt lat="54.654899016022682" lon="13.286162009462714">
        <ele>-0.82</ele>
        <time>2024-09-15T08:20:24Z</time>
      </trkpt>
      <trkpt lat="54.654987026005983" lon="13.286379016935825">
        <ele>-1.3</ele>
        <time>2024-09-15T08:20:25Z</time>
      </trkpt>
      <trkpt lat="54.655050979927182" lon="13.286542966961861">
        <ele>-1.3</ele>
        <time>2024-09-15T08:20:26Z</time>
      </trkpt>
      <trkpt lat="54.655129015445709" lon="13.286742037162185">
        <ele>-1.3</ele>
        <time>2024-09-15T08:20:27Z</time>
      </trkpt>
      <trkpt lat="54.655769979581237" lon="13.288384974002838">
        <ele>0.62</ele>
        <time>2024-09-15T08:20:35Z</time>
      </trkpt>
      <trkpt lat="54.655943987891078" lon="13.288828963413835">
        <ele>1.58</ele>
        <time>2024-09-15T08:20:38Z</time>
      </trkpt>
      <trkpt lat="54.655996039509773" lon="13.288962990045547">
        <ele>1.58</ele>
        <time>2024-09-15T08:20:39Z</time>
      </trkpt>
      <trkpt lat="54.656079020351171" lon="13.289174968376756">
        <ele>2.06</ele>
        <time>2024-09-15T08:20:41Z</time>
      </trkpt>
      <trkpt lat="54.656110033392906" lon="13.289253003895283">
        <ele>2.54</ele>
        <time>2024-09-15T08:20:42Z</time>
      </trkpt>
      <trkpt lat="54.656132999807596" lon="13.289313018321991">
        <ele>2.54</ele>
        <time>2024-09-15T08:20:43Z</time>
      </trkpt>
      <trkpt lat="54.656189996749163" lon="13.289305977523327">
        <ele>2.54</ele>
        <time>2024-09-15T08:20:44Z</time>
      </trkpt>
      <trkpt lat="54.656211035326123" lon="13.289217967540026">
        <ele>2.54</ele>
        <time>2024-09-15T08:20:45Z</time>
      </trkpt>
      <trkpt lat="54.656238025054336" lon="13.289102967828512">
        <ele>2.54</ele>
        <time>2024-09-15T08:20:46Z</time>
      </trkpt>
      <trkpt lat="54.6562709659338" lon="13.288965001702309">
        <ele>2.54</ele>
        <time>2024-09-15T08:20:47Z</time>
      </trkpt>
      <trkpt lat="54.656308013945818" lon="13.288808008655906">
        <ele>2.06</ele>
        <time>2024-09-15T08:20:48Z</time>
      </trkpt>
      <trkpt lat="54.656347995623946" lon="13.288638023659587">
        <ele>2.06</ele>
        <time>2024-09-15T08:20:49Z</time>
      </trkpt>
      <trkpt lat="54.656786033883691" lon="13.286781013011932">
        <ele>1.1</ele>
        <time>2024-09-15T08:20:58Z</time>
      </trkpt>
      <trkpt lat="54.657406965270638" lon="13.284123027697206">
        <ele>4.94</ele>
        <time>2024-09-15T08:21:10Z</time>
      </trkpt>
      <trkpt lat="54.657876016572118" lon="13.281928980723023">
        <ele>3.02</ele>
        <time>2024-09-15T08:21:20Z</time>
      </trkpt>
      <trkpt lat="54.657906023785472" lon="13.281790008768439">
        <ele>2.06</ele>
        <time>2024-09-15T08:21:21Z</time>
      </trkpt>
      <trkpt lat="54.657929996028543" lon="13.281678026542068">
        <ele>1.1</ele>
        <time>2024-09-15T08:21:22Z</time>
      </trkpt>
      <trkpt lat="54.658003002405167" lon="13.281595967710018">
        <ele>0.62</ele>
        <time>2024-09-15T08:21:23Z</time>
      </trkpt>
      <trkpt lat="54.658067962154746" lon="13.281603008508682">
        <ele>0.14</ele>
        <time>2024-09-15T08:21:24Z</time>
      </trkpt>
      <trkpt lat="54.65815999545157" lon="13.281611977145076">
        <ele>-0.34</ele>
        <time>2024-09-15T08:21:25Z</time>
      </trkpt>
      <trkpt lat="54.658281030133367" lon="13.281623963266611">
        <ele>-0.82</ele>
        <time>2024-09-15T08:21:26Z</time>
      </trkpt>
      <trkpt lat="54.659924972802401" lon="13.281789002940059">
        <ele>0.62</ele>
        <time>2024-09-15T08:21:38Z</time>
      </trkpt>
      <trkpt lat="54.661585008725524" lon="13.281954964622855">
        <ele>5.91</ele>
        <time>2024-09-15T08:21:49Z</time>
      </trkpt>
      <trkpt lat="54.663385022431612" lon="13.282132996246219">
        <ele>6.39</ele>
        <time>2024-09-15T08:22:02Z</time>
      </trkpt>
      <trkpt lat="54.665368013083935" lon="13.282333994284272">
        <ele>6.87</ele>
        <time>2024-09-15T08:22:17Z</time>
      </trkpt>
      <trkpt lat="54.66563799418509" lon="13.282362995669246">
        <ele>6.87</ele>
        <time>2024-09-15T08:22:23Z</time>
      </trkpt>
      <trkpt lat="54.665845027193427" lon="13.282385040074587">
        <ele>6.87</ele>
        <time>2024-09-15T08:22:32Z</time>
      </trkpt>
      <trkpt lat="54.665857013314962" lon="13.282383028417826">
        <ele>6.87</ele>
        <time>2024-09-15T08:22:33Z</time>
      </trkpt>
      <trkpt lat="54.666015012189746" lon="13.282361989840865">
        <ele>7.35</ele>
        <time>2024-09-15T08:22:38Z</time>
      </trkpt>
      <trkpt lat="54.666377026587725" lon="13.282312033697963">
        <ele>6.87</ele>
        <time>2024-09-15T08:22:46Z</time>
      </trkpt>
      <trkpt lat="54.666469981893897" lon="13.282299963757396">
        <ele>5.91</ele>
        <time>2024-09-15T08:22:50Z</time>
      </trkpt>
      <trkpt lat="54.666500994935632" lon="13.282295018434525">
        <ele>5.42</ele>
        <time>2024-09-15T08:22:51Z</time>
      </trkpt>
      <trkpt lat="54.666531002148986" lon="13.282290995121002">
        <ele>5.42</ele>
        <time>2024-09-15T08:22:52Z</time>
      </trkpt>
      <trkpt lat="54.666556986048818" lon="13.28228797763586">
        <ele>4.94</ele>
        <time>2024-09-15T08:22:53Z</time>
      </trkpt>
      <trkpt lat="54.666585987433791" lon="13.28228403814137">
        <ele>4.94</ele>
        <time>2024-09-15T08:22:54Z</time>
      </trkpt>
      <trkpt lat="54.666752032935619" lon="13.282260987907648">
        <ele>4.46</ele>
        <time>2024-09-15T08:23:01Z</time>
      </trkpt>
      <trkpt lat="54.666756978258491" lon="13.282299041748047">
        <ele>4.46</ele>
        <time>2024-09-15T08:23:03Z</time>
      </trkpt>
      <trkpt lat="54.666716996580362" lon="13.282266017049551">
        <ele>3.98</ele>
        <time>2024-09-15T08:23:05Z</time>
      </trkpt>
      <trkpt lat="54.666620017960668" lon="13.282279008999467">
        <ele>3.98</ele>
        <time>2024-09-15T08:23:07Z</time>
      </trkpt>
      <trkpt lat="54.666323969140649" lon="13.282318990677595">
        <ele>3.02</ele>
        <time>2024-09-15T08:23:11Z</time>
      </trkpt>
      <trkpt lat="54.666244005784392" lon="13.28232997097075">
        <ele>3.02</ele>
        <time>2024-09-15T08:23:12Z</time>
      </trkpt>
      <trkpt lat="54.665980981662869" lon="13.282366013154387">
        <ele>3.5</ele>
        <time>2024-09-15T08:23:17Z</time>
      </trkpt>
      <trkpt lat="54.665917027741671" lon="13.282374981790781">
        <ele>3.98</ele>
        <time>2024-09-15T08:23:26Z</time>
      </trkpt>
      <trkpt lat="54.665889032185078" lon="13.282379005104303">
        <ele>3.98</ele>
        <time>2024-09-15T08:23:27Z</time>
      </trkpt>
      <trkpt lat="54.665848966687918" lon="13.282428039237857">
        <ele>3.98</ele>
        <time>2024-09-15T08:23:28Z</time>
      </trkpt>
      <trkpt lat="54.665853995829821" lon="13.28247900120914">
        <ele>3.98</ele>
        <time>2024-09-15T08:23:29Z</time>
      </trkpt>
      <trkpt lat="54.665861036628485" lon="13.282559970393777">
        <ele>4.46</ele>
        <time>2024-09-15T08:23:30Z</time>
      </trkpt>
      <trkpt lat="54.665872016921639" lon="13.282681005075574">
        <ele>4.46</ele>
        <time>2024-09-15T08:23:31Z</time>
      </trkpt>
      <trkpt lat="54.665886014699936" lon="13.282835986465216">
        <ele>4.94</ele>
        <time>2024-09-15T08:23:32Z</time>
      </trkpt>
      <trkpt lat="54.666102016344666" lon="13.285199012607336">
        <ele>6.87</ele>
        <time>2024-09-15T08:23:44Z</time>
      </trkpt>
      <trkpt lat="54.666405022144318" lon="13.288515983149409">
        <ele>5.91</ele>
        <time>2024-09-15T08:23:58Z</time>
      </trkpt>
      <trkpt lat="54.666615994647145" lon="13.290812037885189">
        <ele>5.91</ele>
        <time>2024-09-15T08:24:09Z</time>
      </trkpt>
      <trkpt lat="54.666815986856818" lon="13.292902987450361">
        <ele>7.83</ele>
        <time>2024-09-15T08:24:20Z</time>
      </trkpt>
      <trkpt lat="54.666982032358646" lon="13.294638963416219">
        <ele>8.789999999999999</ele>
        <time>2024-09-15T08:24:30Z</time>
      </trkpt>
      <trkpt lat="54.66711999848485" lon="13.296090038493276">
        <ele>7.83</ele>
        <time>2024-09-15T08:24:40Z</time>
      </trkpt>
      <trkpt lat="54.667224017903209" lon="13.297178009524941">
        <ele>6.87</ele>
        <time>2024-09-15T08:24:49Z</time>
      </trkpt>
      <trkpt lat="54.667257964611053" lon="13.297542035579681">
        <ele>6.39</ele>
        <time>2024-09-15T08:24:52Z</time>
      </trkpt>
      <trkpt lat="54.667271040380001" lon="13.297677990049124">
        <ele>6.39</ele>
        <time>2024-09-15T08:24:53Z</time>
      </trkpt>
      <trkpt lat="54.667282020673156" lon="13.297801036387682">
        <ele>6.87</ele>
        <time>2024-09-15T08:24:54Z</time>
      </trkpt>
      <trkpt lat="54.667296018451452" lon="13.297943025827408">
        <ele>6.87</ele>
        <time>2024-09-15T08:24:55Z</time>
      </trkpt>
      <trkpt lat="54.667311022058129" lon="13.298110999166965">
        <ele>7.35</ele>
        <time>2024-09-15T08:24:56Z</time>
      </trkpt>
      <trkpt lat="54.667327031493187" lon="13.298276960849762">
        <ele>7.35</ele>
        <time>2024-09-15T08:24:57Z</time>
      </trkpt>
      <trkpt lat="54.667342035099864" lon="13.29844200052321">
        <ele>7.83</ele>
        <time>2024-09-15T08:24:58Z</time>
      </trkpt>
      <trkpt lat="54.667357038706541" lon="13.298607962206006">
        <ele>7.83</ele>
        <time>2024-09-15T08:24:59Z</time>
      </trkpt>
      <trkpt lat="54.667372964322567" lon="13.298774007707834">
        <ele>7.83</ele>
        <time>2024-09-15T08:25:00Z</time>
      </trkpt>
      <trkpt lat="54.667477989569306" lon="13.299710014835">
        <ele>9.27</ele>
        <time>2024-09-15T08:25:06Z</time>
      </trkpt>
      <trkpt lat="54.66752702370286" lon="13.300029030069709">
        <ele>9.75</ele>
        <time>2024-09-15T08:25:08Z</time>
      </trkpt>
      <trkpt lat="54.667581003159285" lon="13.300374029204249">
        <ele>10.710000000000001</ele>
        <time>2024-09-15T08:25:10Z</time>
      </trkpt>
      <trkpt lat="54.667948968708515" lon="13.302662959322333">
        <ele>12.15</ele>
        <time>2024-09-15T08:25:23Z</time>
      </trkpt>
      <trkpt lat="54.668051982298493" lon="13.30329897813499">
        <ele>12.15</ele>
        <time>2024-09-15T08:25:27Z</time>
      </trkpt>
      <trkpt lat="54.668096993118525" lon="13.303583040833473">
        <ele>12.15</ele>
        <time>2024-09-15T08:25:29Z</time>
      </trkpt>
      <trkpt lat="54.668134963139892" lon="13.30381597392261">
        <ele>12.15</ele>
        <time>2024-09-15T08:25:31Z</time>
      </trkpt>
      <trkpt lat="54.66815298423171" lon="13.303930973634124">
        <ele>12.15</ele>
        <time>2024-09-15T08:25:32Z</time>
      </trkpt>
      <trkpt lat="54.668171005323529" lon="13.304038010537624">
        <ele>12.630000000000001</ele>
        <time>2024-09-15T08:25:33Z</time>
      </trkpt>
      <trkpt lat="54.668191960081458" lon="13.304247977212071">
        <ele>12.15</ele>
        <time>2024-09-15T08:25:35Z</time>
      </trkpt>
      <trkpt lat="54.668212998658419" lon="13.304594988003373">
        <ele>12.15</ele>
        <time>2024-09-15T08:25:41Z</time>
      </trkpt>
      <trkpt lat="54.66821601614356" lon="13.304631030187011">
        <ele>12.15</ele>
        <time>2024-09-15T08:25:42Z</time>
      </trkpt>
      <trkpt lat="54.668217021971941" lon="13.304646033793688">
        <ele>12.15</ele>
        <time>2024-09-15T08:25:43Z</time>
      </trkpt>
      <trkpt lat="54.668217021971941" lon="13.304648967459798">
        <ele>12.15</ele>
        <time>2024-09-15T08:25:44Z</time>
      </trkpt>
      <trkpt lat="54.668176034465432" lon="13.304807972162962">
        <ele>12.630000000000001</ele>
        <time>2024-09-15T08:25:45Z</time>
      </trkpt>
      <trkpt lat="54.668131023645401" lon="13.304807972162962">
        <ele>13.119999999999999</ele>
        <time>2024-09-15T08:25:46Z</time>
      </trkpt>
      <trkpt lat="54.668076960369945" lon="13.304807972162962">
        <ele>13.6</ele>
        <time>2024-09-15T08:25:47Z</time>
      </trkpt>
      <trkpt lat="54.667932959273458" lon="13.304859017953277">
        <ele>14.56</ele>
        <time>2024-09-15T08:25:49Z</time>
      </trkpt>
      <trkpt lat="54.667702037841082" lon="13.304940992966294">
        <ele>16</ele>
        <time>2024-09-15T08:25:52Z</time>
      </trkpt>
      <trkpt lat="54.667617967352271" lon="13.304969994351268">
        <ele>16.48</ele>
        <time>2024-09-15T08:25:53Z</time>
      </trkpt>
      <trkpt lat="54.667376987636089" lon="13.305054986849427">
        <ele>18.399999999999999</ele>
        <time>2024-09-15T08:25:59Z</time>
      </trkpt>
      <trkpt lat="54.66735796071589" lon="13.305062027648091">
        <ele>18.879999999999999</ele>
        <time>2024-09-15T08:26:00Z</time>
      </trkpt>
      <trkpt lat="54.667343962937593" lon="13.305066972970963">
        <ele>18.879999999999999</ele>
        <time>2024-09-15T08:26:01Z</time>
      </trkpt>
      <trkpt lat="54.667343962937593" lon="13.305066972970963">
        <ele>19.359999999999999</ele>
        <time>2024-09-15T08:26:11Z</time>
      </trkpt>
      <trkpt lat="54.667329965159297" lon="13.305002013221383">
        <ele>9.75</ele>
        <time>2024-09-15T08:28:23Z</time>
      </trkpt>
      <trkpt lat="54.667297024279833" lon="13.30508298240602">
        <ele>19.359999999999999</ele>
        <time>2024-09-15T08:28:49Z</time>
      </trkpt>
      <trkpt lat="54.667268022894859" lon="13.305093962699175">
        <ele>18.879999999999999</ele>
        <time>2024-09-15T08:28:50Z</time>
      </trkpt>
      <trkpt lat="54.667222006246448" lon="13.305109972134233">
        <ele>18.879999999999999</ele>
        <time>2024-09-15T08:28:51Z</time>
      </trkpt>
      <trkpt lat="54.667159980162978" lon="13.305132016539574">
        <ele>18.399999999999999</ele>
        <time>2024-09-15T08:28:52Z</time>
      </trkpt>
      <trkpt lat="54.667089991271496" lon="13.305155988782644">
        <ele>17.920000000000002</ele>
        <time>2024-09-15T08:28:53Z</time>
      </trkpt>
      <trkpt lat="54.667025031521916" lon="13.305179039016366">
        <ele>17.440000000000001</ele>
        <time>2024-09-15T08:28:54Z</time>
      </trkpt>
      <trkpt lat="54.666834007948637" lon="13.305295966565609">
        <ele>15.039999999999999</ele>
        <time>2024-09-15T08:28:57Z</time>
      </trkpt>
      <trkpt lat="54.666765024885535" lon="13.305343994870782">
        <ele>14.56</ele>
        <time>2024-09-15T08:28:58Z</time>
      </trkpt>
      <trkpt lat="54.666696041822433" lon="13.305392023175955">
        <ele>14.56</ele>
        <time>2024-09-15T08:28:59Z</time>
      </trkpt>
      <trkpt lat="54.666562015190721" lon="13.305522026494145">
        <ele>14.56</ele>
        <time>2024-09-15T08:29:01Z</time>
      </trkpt>
      <trkpt lat="54.666490014642477" lon="13.305578017607331">
        <ele>14.56</ele>
        <time>2024-09-15T08:29:02Z</time>
      </trkpt>
      <trkpt lat="54.666410973295569" lon="13.305612970143557">
        <ele>14.56</ele>
        <time>2024-09-15T08:29:03Z</time>
      </trkpt>
      <trkpt lat="54.665363989770412" lon="13.305751020088792">
        <ele>11.67</ele>
        <time>2024-09-15T08:29:14Z</time>
      </trkpt>
      <trkpt lat="54.664374003186822" lon="13.306310009211302">
        <ele>7.35</ele>
        <time>2024-09-15T08:29:23Z</time>
      </trkpt>
      <trkpt lat="54.664171999320388" lon="13.306448981165886">
        <ele>6.87</ele>
        <time>2024-09-15T08:29:25Z</time>
      </trkpt>
      <trkpt lat="54.664094969630241" lon="13.306563980877399">
        <ele>6.87</ele>
        <time>2024-09-15T08:29:26Z</time>
      </trkpt>
      <trkpt lat="54.664020035415888" lon="13.306676968932152">
        <ele>6.87</ele>
        <time>2024-09-15T08:29:27Z</time>
      </trkpt>
      <trkpt lat="54.663952980190516" lon="13.306777970865369">
        <ele>6.87</ele>
        <time>2024-09-15T08:29:28Z</time>
      </trkpt>
      <trkpt lat="54.663889026269317" lon="13.306873021647334">
        <ele>6.87</ele>
        <time>2024-09-15T08:29:29Z</time>
      </trkpt>
      <trkpt lat="54.663836974650621" lon="13.307006964460015">
        <ele>6.87</ele>
        <time>2024-09-15T08:29:30Z</time>
      </trkpt>
      <trkpt lat="54.663808979094028" lon="13.307165969163179">
        <ele>6.39</ele>
        <time>2024-09-15T08:29:31Z</time>
      </trkpt>
      <trkpt lat="54.663779977709055" lon="13.307334026321769">
        <ele>6.39</ele>
        <time>2024-09-15T08:29:32Z</time>
      </trkpt>
      <trkpt lat="54.663750976324081" lon="13.307501999661326">
        <ele>6.39</ele>
        <time>2024-09-15T08:29:33Z</time>
      </trkpt>
      <trkpt lat="54.663693979382515" lon="13.307658992707729">
        <ele>6.39</ele>
        <time>2024-09-15T08:29:34Z</time>
      </trkpt>
      <trkpt lat="54.663630025461316" lon="13.307797964662313">
        <ele>5.91</ele>
        <time>2024-09-15T08:29:35Z</time>
      </trkpt>
      <trkpt lat="54.663544027134776" lon="13.307902989909053">
        <ele>5.42</ele>
        <time>2024-09-15T08:29:36Z</time>
      </trkpt>
      <trkpt lat="54.66344403102994" lon="13.307995023205876">
        <ele>5.42</ele>
        <time>2024-09-15T08:29:37Z</time>
      </trkpt>
      <trkpt lat="54.663330959156156" lon="13.308057971298695">
        <ele>4.94</ele>
        <time>2024-09-15T08:29:38Z</time>
      </trkpt>
      <trkpt lat="54.663215959444642" lon="13.308124020695686">
        <ele>4.94</ele>
        <time>2024-09-15T08:29:39Z</time>
      </trkpt>
      <trkpt lat="54.662334015592933" lon="13.308861963450909">
        <ele>5.91</ele>
        <time>2024-09-15T08:29:47Z</time>
      </trkpt>
      <trkpt lat="54.661346040666103" lon="13.309794031083584">
        <ele>7.35</ele>
        <time>2024-09-15T08:29:59Z</time>
      </trkpt>
      <trkpt lat="54.660366028547287" lon="13.310717968270183">
        <ele>8.789999999999999</ele>
        <time>2024-09-15T08:30:06Z</time>
      </trkpt>
      <trkpt lat="54.65925601311028" lon="13.311764029785991">
        <ele>9.75</ele>
        <time>2024-09-15T08:30:14Z</time>
      </trkpt>
      <trkpt lat="54.658923000097275" lon="13.312078015878797">
        <ele>10.710000000000001</ele>
        <time>2024-09-15T08:30:19Z</time>
      </trkpt>
      <trkpt lat="54.658849993720651" lon="13.312146998941898">
        <ele>10.710000000000001</ele>
        <time>2024-09-15T08:30:20Z</time>
      </trkpt>
      <trkpt lat="54.658854017034173" lon="13.312225034460425">
        <ele>11.19</ele>
        <time>2024-09-15T08:30:21Z</time>
      </trkpt>
      <trkpt lat="54.658861979842186" lon="13.312355037778616">
        <ele>11.19</ele>
        <time>2024-09-15T08:30:22Z</time>
      </trkpt>
      <trkpt lat="54.658872038125992" lon="13.312529968097806">
        <ele>11.67</ele>
        <time>2024-09-15T08:30:23Z</time>
      </trkpt>
      <trkpt lat="54.658884024247527" lon="13.312739012762904">
        <ele>11.67</ele>
        <time>2024-09-15T08:30:24Z</time>
      </trkpt>
      <trkpt lat="54.659013021737337" lon="13.31498603336513">
        <ele>12.630000000000001</ele>
        <time>2024-09-15T08:30:32Z</time>
      </trkpt>
      <trkpt lat="54.659258024767041" lon="13.319257032126188">
        <ele>13.6</ele>
        <time>2024-09-15T08:30:46Z</time>
      </trkpt>
      <trkpt lat="54.659434966742992" lon="13.323874035850167">
        <ele>15.52</ele>
        <time>2024-09-15T08:31:01Z</time>
      </trkpt>
      <trkpt lat="54.659432033076882" lon="13.328739982098341">
        <ele>16</ele>
        <time>2024-09-15T08:31:15Z</time>
      </trkpt>
      <trkpt lat="54.659462962299585" lon="13.331687981262803">
        <ele>15.039999999999999</ele>
        <time>2024-09-15T08:31:24Z</time>
      </trkpt>
      <trkpt lat="54.659750964492559" lon="13.335626972839236">
        <ele>7.83</ele>
        <time>2024-09-15T08:31:36Z</time>
      </trkpt>
      <trkpt lat="54.659890020266175" lon="13.339617010205984">
        <ele>5.91</ele>
        <time>2024-09-15T08:31:48Z</time>
      </trkpt>
      <trkpt lat="54.660340966656804" lon="13.342834990471601">
        <ele>7.83</ele>
        <time>2024-09-15T08:31:58Z</time>
      </trkpt>
      <trkpt lat="54.661164991557598" lon="13.346413979306817">
        <ele>9.75</ele>
        <time>2024-09-15T08:32:10Z</time>
      </trkpt>
      <trkpt lat="54.6620490308851" lon="13.348869038745761">
        <ele>13.119999999999999</ele>
        <time>2024-09-15T08:32:19Z</time>
      </trkpt>
      <trkpt lat="54.663129039108753" lon="13.352108979597688">
        <ele>17.440000000000001</ele>
        <time>2024-09-15T08:32:31Z</time>
      </trkpt>
      <trkpt lat="54.663955997675657" lon="13.355945963412523">
        <ele>19.84</ele>
        <time>2024-09-15T08:32:44Z</time>
      </trkpt>
      <trkpt lat="54.664482967928052" lon="13.360408991575241">
        <ele>23.210000000000001</ele>
        <time>2024-09-15T08:32:59Z</time>
      </trkpt>
      <trkpt lat="54.664642978459597" lon="13.361874986439943">
        <ele>24.170000000000002</ele>
        <time>2024-09-15T08:33:05Z</time>
      </trkpt>
      <trkpt lat="54.664685977622867" lon="13.362271031364799">
        <ele>25.129999999999999</ele>
        <time>2024-09-15T08:33:11Z</time>
      </trkpt>
      <trkpt lat="54.664697041735053" lon="13.362364992499352">
        <ele>25.609999999999999</ele>
        <time>2024-09-15T08:33:12Z</time>
      </trkpt>
      <trkpt lat="54.664739035069942" lon="13.362503964453936">
        <ele>25.609999999999999</ele>
        <time>2024-09-15T08:33:13Z</time>
      </trkpt>
      <trkpt lat="54.664805000647902" lon="13.362585017457604">
        <ele>25.609999999999999</ele>
        <time>2024-09-15T08:33:14Z</time>
      </trkpt>
      <trkpt lat="54.664882030338049" lon="13.362679984420538">
        <ele>26.09</ele>
        <time>2024-09-15T08:33:15Z</time>
      </trkpt>
      <trkpt lat="54.665662972256541" lon="13.363644992932677">
        <ele>27.530000000000001</ele>
        <time>2024-09-15T08:33:22Z</time>
      </trkpt>
      <trkpt lat="54.667275985702872" lon="13.365660002455115">
        <ele>28.02</ele>
        <time>2024-09-15T08:33:34Z</time>
      </trkpt>
      <trkpt lat="54.669058984145522" lon="13.368299966678023">
        <ele>31.379999999999999</ele>
        <time>2024-09-15T08:33:48Z</time>
      </trkpt>
      <trkpt lat="54.670167993754148" lon="13.371244026347995">
        <ele>31.379999999999999</ele>
        <time>2024-09-15T08:34:00Z</time>
      </trkpt>
      <trkpt lat="54.671155968680978" lon="13.374950001016259">
        <ele>31.379999999999999</ele>
        <time>2024-09-15T08:34:13Z</time>
      </trkpt>
      <trkpt lat="54.671484036371112" lon="13.377631958574057">
        <ele>32.82</ele>
        <time>2024-09-15T08:34:23Z</time>
      </trkpt>
      <trkpt lat="54.671864993870258" lon="13.381126038730145">
        <ele>33.299999999999997</ele>
        <time>2024-09-15T08:34:37Z</time>
      </trkpt>
      <trkpt lat="54.672185014933348" lon="13.38406297378242">
        <ele>33.780000000000001</ele>
        <time>2024-09-15T08:34:47Z</time>
      </trkpt>
      <trkpt lat="54.672368997707963" lon="13.385747987776995">
        <ele>34.740000000000002</ele>
        <time>2024-09-15T08:34:55Z</time>
      </trkpt>
      <trkpt lat="54.672588016837835" lon="13.387810019776225">
        <ele>35.229999999999997</ele>
        <time>2024-09-15T08:35:02Z</time>
      </trkpt>
      <trkpt lat="54.672952964901924" lon="13.391715986654162">
        <ele>34.259999999999998</ele>
        <time>2024-09-15T08:35:13Z</time>
      </trkpt>
      <trkpt lat="54.673153962939978" lon="13.394627021625638">
        <ele>33.299999999999997</ele>
        <time>2024-09-15T08:35:23Z</time>
      </trkpt>
      <trkpt lat="54.673077017068863" lon="13.395401006564498">
        <ele>32.340000000000003</ele>
        <time>2024-09-15T08:35:26Z</time>
      </trkpt>
      <trkpt lat="54.67302898876369" lon="13.395677022635937">
        <ele>32.340000000000003</ele>
        <time>2024-09-15T08:35:27Z</time>
      </trkpt>
      <trkpt lat="54.672953970730305" lon="13.395950021222234">
        <ele>32.340000000000003</ele>
        <time>2024-09-15T08:35:28Z</time>
      </trkpt>
      <trkpt lat="54.672590028494596" lon="13.397120973095298">
        <ele>29.940000000000001</ele>
        <time>2024-09-15T08:35:33Z</time>
      </trkpt>
      <trkpt lat="54.672547029331326" lon="13.397304033860564">
        <ele>29.940000000000001</ele>
        <time>2024-09-15T08:35:34Z</time>
      </trkpt>
      <trkpt lat="54.672518027946353" lon="13.397507965564728">
        <ele>29.460000000000001</ele>
        <time>2024-09-15T08:35:35Z</time>
      </trkpt>
      <trkpt lat="54.672520961612463" lon="13.397713992744684">
        <ele>29.460000000000001</ele>
        <time>2024-09-15T08:35:36Z</time>
      </trkpt>
      <trkpt lat="54.672523979097605" lon="13.397923037409782">
        <ele>29.460000000000001</ele>
        <time>2024-09-15T08:35:37Z</time>
      </trkpt>
      <trkpt lat="54.672544011846185" lon="13.399321977049112">
        <ele>29.460000000000001</ele>
        <time>2024-09-15T08:35:44Z</time>
      </trkpt>
      <trkpt lat="54.672560021281242" lon="13.400430986657739">
        <ele>29.940000000000001</ele>
        <time>2024-09-15T08:35:50Z</time>
      </trkpt>
      <trkpt lat="54.672464970499277" lon="13.402353962883353">
        <ele>29.940000000000001</ele>
        <time>2024-09-15T08:35:57Z</time>
      </trkpt>
      <trkpt lat="54.672132041305304" lon="13.405260974541306">
        <ele>28.5</ele>
        <time>2024-09-15T08:36:09Z</time>
      </trkpt>
      <trkpt lat="54.671992985531688" lon="13.406441984698176">
        <ele>27.530000000000001</ele>
        <time>2024-09-15T08:36:16Z</time>
      </trkpt>
      <trkpt lat="54.671984016895294" lon="13.406573999673128">
        <ele>27.530000000000001</ele>
        <time>2024-09-15T08:36:17Z</time>
      </trkpt>
      <trkpt lat="54.671991979703307" lon="13.40670601464808">
        <ele>27.530000000000001</ele>
        <time>2024-09-15T08:36:18Z</time>
      </trkpt>
      <trkpt lat="54.671999020501971" lon="13.406837023794651">
        <ele>27.050000000000001</ele>
        <time>2024-09-15T08:36:19Z</time>
      </trkpt>
      <trkpt lat="54.67201704159379" lon="13.406968032941222">
        <ele>27.050000000000001</ele>
        <time>2024-09-15T08:36:20Z</time>
      </trkpt>
      <trkpt lat="54.672042019665241" lon="13.407089989632368">
        <ele>27.050000000000001</ele>
        <time>2024-09-15T08:36:21Z</time>
      </trkpt>
      <trkpt lat="54.672184009104967" lon="13.407774958759546">
        <ele>25.129999999999999</ele>
        <time>2024-09-15T08:36:28Z</time>
      </trkpt>
      <trkpt lat="54.672200018540025" lon="13.407852994278073">
        <ele>25.129999999999999</ele>
        <time>2024-09-15T08:36:29Z</time>
      </trkpt>
      <trkpt lat="54.672192977741361" lon="13.408070001751184">
        <ele>25.129999999999999</ele>
        <time>2024-09-15T08:36:30Z</time>
      </trkpt>
      <trkpt lat="54.6721460390836" lon="13.408099003136158">
        <ele>24.649999999999999</ele>
        <time>2024-09-15T08:36:31Z</time>
      </trkpt>
      <trkpt lat="54.672090969979763" lon="13.408134039491415">
        <ele>24.649999999999999</ele>
        <time>2024-09-15T08:36:32Z</time>
      </trkpt>
      <trkpt lat="54.672029027715325" lon="13.408173015341163">
        <ele>24.170000000000002</ele>
        <time>2024-09-15T08:36:33Z</time>
      </trkpt>
      <trkpt lat="54.671962978318334" lon="13.408214002847672">
        <ele>23.690000000000001</ele>
        <time>2024-09-15T08:36:34Z</time>
      </trkpt>
      <trkpt lat="54.671163009479642" lon="13.408730998635292">
        <ele>18.879999999999999</ele>
        <time>2024-09-15T08:36:46Z</time>
      </trkpt>
      <trkpt lat="54.670866038650274" lon="13.40894197113812">
        <ele>18.399999999999999</ele>
        <time>2024-09-15T08:36:54Z</time>
      </trkpt>
      <trkpt lat="54.67083896510303" lon="13.408959992229939">
        <ele>18.879999999999999</ele>
        <time>2024-09-15T08:36:56Z</time>
      </trkpt>
      <trkpt lat="54.670855980366468" lon="13.408949011936784">
        <ele>18.879999999999999</ele>
        <time>2024-09-15T08:36:57Z</time>
      </trkpt>
      <trkpt lat="54.670866038650274" lon="13.40894197113812">
        <ele>19.359999999999999</ele>
        <time>2024-09-15T08:36:58Z</time>
      </trkpt>
      <trkpt lat="54.670903002843261" lon="13.408914981409907">
        <ele>19.359999999999999</ele>
        <time>2024-09-15T08:36:59Z</time>
      </trkpt>
      <trkpt lat="54.670927980914712" lon="13.408896960318089">
        <ele>19.359999999999999</ele>
        <time>2024-09-15T08:37:00Z</time>
      </trkpt>
      <trkpt lat="54.670948013663292" lon="13.408882962539792">
        <ele>19.359999999999999</ele>
        <time>2024-09-15T08:37:01Z</time>
      </trkpt>
      <trkpt lat="54.67096402309835" lon="13.408870976418257">
        <ele>19.84</ele>
        <time>2024-09-15T08:37:02Z</time>
      </trkpt>
      <trkpt lat="54.670997969806194" lon="13.408847004175186">
        <ele>20.809999999999999</ele>
        <time>2024-09-15T08:37:08Z</time>
      </trkpt>
      <trkpt lat="54.670998975634575" lon="13.408845998346806">
        <ele>22.25</ele>
        <time>2024-09-15T08:37:24Z</time>
      </trkpt>
      <trkpt lat="54.670952036976814" lon="13.409085972234607">
        <ele>8.310000000000001</ele>
        <time>2024-09-15T10:16:29Z</time>
      </trkpt>
      <trkpt lat="54.671041974797845" lon="13.409009026363492">
        <ele>21.289999999999999</ele>
        <time>2024-09-15T10:17:02Z</time>
      </trkpt>
      <trkpt lat="54.671001993119717" lon="13.408968038856983">
        <ele>20.809999999999999</ele>
        <time>2024-09-15T10:17:23Z</time>
      </trkpt>
      <trkpt lat="54.67096502892673" lon="13.408869970589876">
        <ele>18.879999999999999</ele>
        <time>2024-09-15T10:17:37Z</time>
      </trkpt>
      <trkpt lat="54.670951031148434" lon="13.408881034702063">
        <ele>18.399999999999999</ele>
        <time>2024-09-15T10:17:38Z</time>
      </trkpt>
      <trkpt lat="54.670866038650274" lon="13.40894197113812">
        <ele>18.399999999999999</ele>
        <time>2024-09-15T10:17:39Z</time>
      </trkpt>
      <trkpt lat="54.670866038650274" lon="13.40894197113812">
        <ele>18.879999999999999</ele>
        <time>2024-09-15T10:17:40Z</time>
      </trkpt>
      <trkpt lat="54.670721031725407" lon="13.409037021920085">
        <ele>19.359999999999999</ele>
        <time>2024-09-15T10:17:42Z</time>
      </trkpt>
      <trkpt lat="54.669902035966516" lon="13.40962702408433">
        <ele>19.84</ele>
        <time>2024-09-15T10:17:52Z</time>
      </trkpt>
      <trkpt lat="54.669686034321785" lon="13.409887030720711">
        <ele>18.879999999999999</ele>
        <time>2024-09-15T10:17:56Z</time>
      </trkpt>
      <trkpt lat="54.66959098353982" lon="13.409819975495338">
        <ele>17.920000000000002</ele>
        <time>2024-09-15T10:17:57Z</time>
      </trkpt>
      <trkpt lat="54.66950599104166" lon="13.40975996106863">
        <ele>17.440000000000001</ele>
        <time>2024-09-15T10:17:58Z</time>
      </trkpt>
      <trkpt lat="54.669405994936824" lon="13.409653007984161">
        <ele>16.960000000000001</ele>
        <time>2024-09-15T10:17:59Z</time>
      </trkpt>
      <trkpt lat="54.669300969690084" lon="13.409519987180829">
        <ele>16.48</ele>
        <time>2024-09-15T10:18:00Z</time>
      </trkpt>
      <trkpt lat="54.668076960369945" lon="13.407963970676064">
        <ele>16.48</ele>
        <time>2024-09-15T10:18:10Z</time>
      </trkpt>
      <trkpt lat="54.666752032935619" lon="13.406736021861434">
        <ele>17.920000000000002</ele>
        <time>2024-09-15T10:18:19Z</time>
      </trkpt>
      <trkpt lat="54.665419980883598" lon="13.405602034181356">
        <ele>18.399999999999999</ele>
        <time>2024-09-15T10:18:28Z</time>
      </trkpt>
      <trkpt lat="54.66406999155879" lon="13.403661036863923">
        <ele>21.77</ele>
        <time>2024-09-15T10:18:38Z</time>
      </trkpt>
      <trkpt lat="54.662727965041995" lon="13.401107992976904">
        <ele>23.690000000000001</ele>
        <time>2024-09-15T10:18:50Z</time>
      </trkpt>
      <trkpt lat="54.661481995135546" lon="13.398579005151987">
        <ele>23.690000000000001</ele>
        <time>2024-09-15T10:19:01Z</time>
      </trkpt>
      <trkpt lat="54.66121100820601" lon="13.397851958870888">
        <ele>24.170000000000002</ele>
        <time>2024-09-15T10:19:04Z</time>
      </trkpt>
      <trkpt lat="54.66112500987947" lon="13.397593963891268">
        <ele>24.170000000000002</ele>
        <time>2024-09-15T10:19:05Z</time>
      </trkpt>
      <trkpt lat="54.660423025488853" lon="13.395154997706413">
        <ele>24.649999999999999</ele>
        <time>2024-09-15T10:19:14Z</time>
      </trkpt>
      <trkpt lat="54.659344023093581" lon="13.392602959647775">
        <ele>24.649999999999999</ele>
        <time>2024-09-15T10:19:24Z</time>
      </trkpt>
      <trkpt lat="54.658219004049897" lon="13.390259966254234">
        <ele>27.050000000000001</ele>
        <time>2024-09-15T10:19:34Z</time>
      </trkpt>
      <trkpt lat="54.657223988324404" lon="13.388372026383877">
        <ele>28.02</ele>
        <time>2024-09-15T10:19:42Z</time>
      </trkpt>
      <trkpt lat="54.656070973724127" lon="13.386192983016372">
        <ele>26.57</ele>
        <time>2024-09-15T10:19:50Z</time>
      </trkpt>
      <trkpt lat="54.654770018532872" lon="13.383737001568079">
        <ele>23.690000000000001</ele>
        <time>2024-09-15T10:20:00Z</time>
      </trkpt>
      <trkpt lat="54.653189023956656" lon="13.380801994353533">
        <ele>22.25</ele>
        <time>2024-09-15T10:20:12Z</time>
      </trkpt>
      <trkpt lat="54.651597971096635" lon="13.378181979060173">
        <ele>23.210000000000001</ele>
        <time>2024-09-15T10:20:23Z</time>
      </trkpt>
      <trkpt lat="54.651059014722705" lon="13.377242032438517">
        <ele>23.690000000000001</ele>
        <time>2024-09-15T10:20:27Z</time>
      </trkpt>
      <trkpt lat="54.650953989475965" lon="13.377013960853219">
        <ele>24.170000000000002</ele>
        <time>2024-09-15T10:20:28Z</time>
      </trkpt>
      <trkpt lat="54.650890035554767" lon="13.376726964488626">
        <ele>24.170000000000002</ele>
        <time>2024-09-15T10:20:29Z</time>
      </trkpt>
      <trkpt lat="54.650825997814536" lon="13.376432005316019">
        <ele>24.649999999999999</ele>
        <time>2024-09-15T10:20:30Z</time>
      </trkpt>
      <trkpt lat="54.650763971731067" lon="13.376150960102677">
        <ele>25.129999999999999</ele>
        <time>2024-09-15T10:20:31Z</time>
      </trkpt>
      <trkpt lat="54.650372033938766" lon="13.374606007710099">
        <ele>22.25</ele>
        <time>2024-09-15T10:20:37Z</time>
      </trkpt>
      <trkpt lat="54.650261979550123" lon="13.374385982751846">
        <ele>21.77</ele>
        <time>2024-09-15T10:20:38Z</time>
      </trkpt>
      <trkpt lat="54.649118017405272" lon="13.37213602848351">
        <ele>19.359999999999999</ele>
        <time>2024-09-15T10:20:47Z</time>
      </trkpt>
      <trkpt lat="54.647528976202011" lon="13.368983007967472">
        <ele>16.48</ele>
        <time>2024-09-15T10:20:59Z</time>
      </trkpt>
      <trkpt lat="54.646182004362345" lon="13.365819007158279">
        <ele>15.52</ele>
        <time>2024-09-15T10:21:11Z</time>
      </trkpt>
      <trkpt lat="54.644957995042205" lon="13.363173007965088">
        <ele>13.6</ele>
        <time>2024-09-15T10:21:21Z</time>
      </trkpt>
      <trkpt lat="54.643513038754463" lon="13.360466994345188">
        <ele>14.08</ele>
        <time>2024-09-15T10:21:32Z</time>
      </trkpt>
      <trkpt lat="54.642516011372209" lon="13.358379984274507">
        <ele>11.67</ele>
        <time>2024-09-15T10:21:40Z</time>
      </trkpt>
      <trkpt lat="54.641192005947232" lon="13.354792026802897">
        <ele>9.75</ele>
        <time>2024-09-15T10:21:53Z</time>
      </trkpt>
      <trkpt lat="54.64056596159935" lon="13.352953037247062">
        <ele>10.710000000000001</ele>
        <time>2024-09-15T10:22:01Z</time>
      </trkpt>
      <trkpt lat="54.639775967225432" lon="13.350778017193079">
        <ele>11.19</ele>
        <time>2024-09-15T10:22:13Z</time>
      </trkpt>
      <trkpt lat="54.638992007821798" lon="13.348971968516707">
        <ele>11.19</ele>
        <time>2024-09-15T10:22:26Z</time>
      </trkpt>
      <trkpt lat="54.638304021209478" lon="13.347241021692753">
        <ele>11.19</ele>
        <time>2024-09-15T10:22:38Z</time>
      </trkpt>
      <trkpt lat="54.638236965984106" lon="13.347039017826319">
        <ele>11.19</ele>
        <time>2024-09-15T10:22:40Z</time>
      </trkpt>
      <trkpt lat="54.638160020112991" lon="13.346980009227991">
        <ele>10.710000000000001</ele>
        <time>2024-09-15T10:22:41Z</time>
      </trkpt>
      <trkpt lat="54.638106040656567" lon="13.347013033926487">
        <ele>10.710000000000001</ele>
        <time>2024-09-15T10:22:42Z</time>
      </trkpt>
      <trkpt lat="54.638043008744717" lon="13.347052009776235">
        <ele>10.710000000000001</ele>
        <time>2024-09-15T10:22:43Z</time>
      </trkpt>
      <trkpt lat="54.637976037338376" lon="13.347094003111124">
        <ele>10.710000000000001</ele>
        <time>2024-09-15T10:22:44Z</time>
      </trkpt>
      <trkpt lat="54.637837987393141" lon="13.347177989780903">
        <ele>10.23</ele>
        <time>2024-09-15T10:22:46Z</time>
      </trkpt>
      <trkpt lat="54.637766992673278" lon="13.347221994772553">
        <ele>9.75</ele>
        <time>2024-09-15T10:22:47Z</time>
      </trkpt>
      <trkpt lat="54.637693986296654" lon="13.347267005592585">
        <ele>9.75</ele>
        <time>2024-09-15T10:22:48Z</time>
      </trkpt>
      <trkpt lat="54.637617962434888" lon="13.347297012805939">
        <ele>9.27</ele>
        <time>2024-09-15T10:22:49Z</time>
      </trkpt>
      <trkpt lat="54.63753498159349" lon="13.347303969785571">
        <ele>8.310000000000001</ele>
        <time>2024-09-15T10:22:50Z</time>
      </trkpt>
      <trkpt lat="54.637370025739074" lon="13.347317967563868">
        <ele>7.83</ele>
        <time>2024-09-15T10:22:52Z</time>
      </trkpt>
      <trkpt lat="54.637282015755773" lon="13.347326014190912">
        <ele>7.35</ele>
        <time>2024-09-15T10:22:53Z</time>
      </trkpt>
      <trkpt lat="54.636148028075695" lon="13.347422992810607">
        <ele>6.87</ele>
        <time>2024-09-15T10:23:05Z</time>
      </trkpt>
      <trkpt lat="54.636049959808588" lon="13.34742902778089">
        <ele>7.35</ele>
        <time>2024-09-15T10:23:06Z</time>
      </trkpt>
      <trkpt lat="54.635946024209261" lon="13.347435984760523">
        <ele>7.35</ele>
        <time>2024-09-15T10:23:07Z</time>
      </trkpt>
      <trkpt lat="54.635762041434646" lon="13.347447970882058">
        <ele>7.35</ele>
        <time>2024-09-15T10:23:09Z</time>
      </trkpt>
      <trkpt lat="54.635674031451344" lon="13.347455011680722">
        <ele>7.35</ele>
        <time>2024-09-15T10:23:10Z</time>
      </trkpt>
      <trkpt lat="54.635575963184237" lon="13.347463980317116">
        <ele>6.87</ele>
        <time>2024-09-15T10:23:11Z</time>
      </trkpt>
      <trkpt lat="54.634464019909501" lon="13.347526006400585">
        <ele>8.789999999999999</ele>
        <time>2024-09-15T10:23:22Z</time>
      </trkpt>
      <trkpt lat="54.633680982515216" lon="13.347531035542488">
        <ele>8.310000000000001</ele>
        <time>2024-09-15T10:23:31Z</time>
      </trkpt>
      <trkpt lat="54.633471015840769" lon="13.347368007525802">
        <ele>7.83</ele>
        <time>2024-09-15T10:23:37Z</time>
      </trkpt>
      <trkpt lat="54.63340999558568" lon="13.34738602861762">
        <ele>7.83</ele>
        <time>2024-09-15T10:23:38Z</time>
      </trkpt>
      <trkpt lat="54.633336989209056" lon="13.347516031935811">
        <ele>7.83</ele>
        <time>2024-09-15T10:23:39Z</time>
      </trkpt>
      <trkpt lat="54.633306981995702" lon="13.347831023856997">
        <ele>7.35</ele>
        <time>2024-09-15T10:23:42Z</time>
      </trkpt>
      <trkpt lat="54.633253002539277" lon="13.347928002476692">
        <ele>7.35</ele>
        <time>2024-09-15T10:23:43Z</time>
      </trkpt>
      <trkpt lat="54.633191982284188" lon="13.348035961389542">
        <ele>7.35</ele>
        <time>2024-09-15T10:23:44Z</time>
      </trkpt>
      <trkpt lat="54.632635004818439" lon="13.349026031792164">
        <ele>6.87</ele>
        <time>2024-09-15T10:23:51Z</time>
      </trkpt>
      <trkpt lat="54.632005020976067" lon="13.35005197674036">
        <ele>5.91</ele>
        <time>2024-09-15T10:23:59Z</time>
      </trkpt>
      <trkpt lat="54.631928997114301" lon="13.35013696923852">
        <ele>5.91</ele>
        <time>2024-09-15T10:24:00Z</time>
      </trkpt>
      <trkpt lat="54.63184199295938" lon="13.350184997543693">
        <ele>5.91</ele>
        <time>2024-09-15T10:24:01Z</time>
      </trkpt>
      <trkpt lat="54.63175599463284" lon="13.350207963958383">
        <ele>5.91</ele>
        <time>2024-09-15T10:24:02Z</time>
      </trkpt>
      <trkpt lat="54.631674019619823" lon="13.350230008363724">
        <ele>5.91</ele>
        <time>2024-09-15T10:24:03Z</time>
      </trkpt>
      <trkpt lat="54.63160595856607" lon="13.350248029455543">
        <ele>5.91</ele>
        <time>2024-09-15T10:24:04Z</time>
      </trkpt>
      <trkpt lat="54.631546027958393" lon="13.350253980606794">
        <ele>5.91</ele>
        <time>2024-09-15T10:24:05Z</time>
      </trkpt>
      <trkpt lat="54.631499005481601" lon="13.350250041112304">
        <ele>5.91</ele>
        <time>2024-09-15T10:24:06Z</time>
      </trkpt>
      <trkpt lat="54.631464974954724" lon="13.350248029455543">
        <ele>5.42</ele>
        <time>2024-09-15T10:24:07Z</time>
      </trkpt>
      <trkpt lat="54.631394986063242" lon="13.35024300031364">
        <ele>5.91</ele>
        <time>2024-09-15T10:24:17Z</time>
      </trkpt>
      <trkpt lat="54.63134796358645" lon="13.350238977000117">
        <ele>5.91</ele>
        <time>2024-09-15T10:24:20Z</time>
      </trkpt>
      <trkpt lat="54.631275963038206" lon="13.350238977000117">
        <ele>5.91</ele>
        <time>2024-09-15T10:24:21Z</time>
      </trkpt>
      <trkpt lat="54.631254002451897" lon="13.350365040823817">
        <ele>5.91</ele>
        <time>2024-09-15T10:24:22Z</time>
      </trkpt>
      <trkpt lat="54.631228018552065" lon="13.350515998899937">
        <ele>5.42</ele>
        <time>2024-09-15T10:24:23Z</time>
      </trkpt>
      <trkpt lat="54.631198011338711" lon="13.350690007209778">
        <ele>5.42</ele>
        <time>2024-09-15T10:24:24Z</time>
      </trkpt>
      <trkpt lat="54.631165992468596" lon="13.350882036611438">
        <ele>5.42</ele>
        <time>2024-09-15T10:24:25Z</time>
      </trkpt>
      <trkpt lat="54.630718985572457" lon="13.353123022243381">
        <ele>3.98</ele>
        <time>2024-09-15T10:24:35Z</time>
      </trkpt>
      <trkpt lat="54.630003003403544" lon="13.355969013646245">
        <ele>3.02</ele>
        <time>2024-09-15T10:24:47Z</time>
      </trkpt>
      <trkpt lat="54.629233041778207" lon="13.358975015580654">
        <ele>3.02</ele>
        <time>2024-09-15T10:24:59Z</time>
      </trkpt>
      <trkpt lat="54.628516975790262" lon="13.361772978678346">
        <ele>1.1</ele>
        <time>2024-09-15T10:25:09Z</time>
      </trkpt>
      <trkpt lat="54.628435000777245" lon="13.362090988084674">
        <ele>0.14</ele>
        <time>2024-09-15T10:25:15Z</time>
      </trkpt>
      <trkpt lat="54.628370963037014" lon="13.3623400144279">
        <ele>-0.34</ele>
        <time>2024-09-15T10:25:28Z</time>
      </trkpt>
      <trkpt lat="54.628047002479434" lon="13.363604005426168">
        <ele>-1.79</ele>
        <time>2024-09-15T10:25:34Z</time>
      </trkpt>
      <trkpt lat="54.627205962315202" lon="13.366890968754888">
        <ele>-2.75</ele>
        <time>2024-09-15T10:25:45Z</time>
      </trkpt>
      <trkpt lat="54.626074992120266" lon="13.370473980903625">
        <ele>-4.19</ele>
        <time>2024-09-15T10:25:56Z</time>
      </trkpt>
      <trkpt lat="54.625164968892932" lon="13.372853016480803">
        <ele>-4.67</ele>
        <time>2024-09-15T10:26:04Z</time>
      </trkpt>
      <trkpt lat="54.625045023858547" lon="13.373086033388972">
        <ele>-4.67</ele>
        <time>2024-09-15T10:26:05Z</time>
      </trkpt>
      <trkpt lat="54.624904962256551" lon="13.373268004506826">
        <ele>-5.15</ele>
        <time>2024-09-15T10:26:06Z</time>
      </trkpt>
      <trkpt lat="54.624762972816825" lon="13.373423991724849">
        <ele>-5.15</ele>
        <time>2024-09-15T10:26:07Z</time>
      </trkpt>
      <trkpt lat="54.624627018347383" lon="13.373573021963239">
        <ele>-5.63</ele>
        <time>2024-09-15T10:26:08Z</time>
      </trkpt>
      <trkpt lat="54.624491985887289" lon="13.373690033331513">
        <ele>-5.63</ele>
        <time>2024-09-15T10:26:09Z</time>
      </trkpt>
      <trkpt lat="54.62436399422586" lon="13.373787011951208">
        <ele>-5.63</ele>
        <time>2024-09-15T10:26:10Z</time>
      </trkpt>
      <trkpt lat="54.624247988685966" lon="13.373853983357549">
        <ele>-5.63</ele>
        <time>2024-09-15T10:26:11Z</time>
      </trkpt>
      <trkpt lat="54.624136006459594" lon="13.373909974470735">
        <ele>-5.63</ele>
        <time>2024-09-15T10:26:12Z</time>
      </trkpt>
      <trkpt lat="54.623456988483667" lon="13.374212980270386">
        <ele>-6.11</ele>
        <time>2024-09-15T10:26:19Z</time>
      </trkpt>
      <trkpt lat="54.62326898239553" lon="13.374294033274055">
        <ele>-7.07</ele>
        <time>2024-09-15T10:26:21Z</time>
      </trkpt>
      <trkpt lat="54.623173009604216" lon="13.374336026608944">
        <ele>-7.07</ele>
        <time>2024-09-15T10:26:22Z</time>
      </trkpt>
      <trkpt lat="54.622568003833294" lon="13.374596033245325">
        <ele>-9</ele>
        <time>2024-09-15T10:26:28Z</time>
      </trkpt>
      <trkpt lat="54.622183023020625" lon="13.37475998327136">
        <ele>-10.44</ele>
        <time>2024-09-15T10:26:32Z</time>
      </trkpt>
      <trkpt lat="54.621324967592955" lon="13.3751240093261">
        <ele>-11.880000000000001</ele>
        <time>2024-09-15T10:26:41Z</time>
      </trkpt>
      <trkpt lat="54.620316037908196" lon="13.37553103454411">
        <ele>-13.32</ele>
        <time>2024-09-15T10:26:51Z</time>
      </trkpt>
      <trkpt lat="54.619697034358978" lon="13.375872010365129">
        <ele>-12.359999999999999</ele>
        <time>2024-09-15T10:26:57Z</time>
      </trkpt>
      <trkpt lat="54.619503999128938" lon="13.37596102617681">
        <ele>-12.359999999999999</ele>
        <time>2024-09-15T10:26:59Z</time>
      </trkpt>
      <trkpt lat="54.618503032252192" lon="13.376578018069267">
        <ele>-11.4</ele>
        <time>2024-09-15T10:27:08Z</time>
      </trkpt>
      <trkpt lat="54.617573982104659" lon="13.37718503549695">
        <ele>-11.4</ele>
        <time>2024-09-15T10:27:15Z</time>
      </trkpt>
      <trkpt lat="54.616441000252962" lon="13.377927001565695">
        <ele>-11.880000000000001</ele>
        <time>2024-09-15T10:27:24Z</time>
      </trkpt>
      <trkpt lat="54.615484038367867" lon="13.378481967374682">
        <ele>-11.880000000000001</ele>
        <time>2024-09-15T10:27:32Z</time>
      </trkpt>
      <trkpt lat="54.614374022930861" lon="13.378950012847781">
        <ele>-10.44</ele>
        <time>2024-09-15T10:27:41Z</time>
      </trkpt>
      <trkpt lat="54.613469028845429" lon="13.379277996718884">
        <ele>-9.960000000000001</ele>
        <time>2024-09-15T10:27:49Z</time>
      </trkpt>
      <trkpt lat="54.612620025873184" lon="13.379586031660438">
        <ele>-8.51</ele>
        <time>2024-09-15T10:27:56Z</time>
      </trkpt>
      <trkpt lat="54.611786026507616" lon="13.379874033853412">
        <ele>-7.07</ele>
        <time>2024-09-15T10:28:03Z</time>
      </trkpt>
      <trkpt lat="54.610750023275614" lon="13.380334032699466">
        <ele>-4.67</ele>
        <time>2024-09-15T10:28:12Z</time>
      </trkpt>
      <trkpt lat="54.610523963347077" lon="13.380436962470412">
        <ele>-4.19</ele>
        <time>2024-09-15T10:28:14Z</time>
      </trkpt>
      <trkpt lat="54.610436037182808" lon="13.380481973290443">
        <ele>-4.19</ele>
        <time>2024-09-15T10:28:15Z</time>
      </trkpt>
      <trkpt lat="54.610316008329391" lon="13.380545005202293">
        <ele>-4.67</ele>
        <time>2024-09-15T10:28:16Z</time>
      </trkpt>
      <trkpt lat="54.609399028122425" lon="13.381021013483405">
        <ele>-4.19</ele>
        <time>2024-09-15T10:28:22Z</time>
      </trkpt>
      <trkpt lat="54.608597969636321" lon="13.38143901899457">
        <ele>-2.75</ele>
        <time>2024-09-15T10:28:27Z</time>
      </trkpt>
      <trkpt lat="54.606991996988654" lon="13.382292967289686">
        <ele>1.1</ele>
        <time>2024-09-15T10:28:37Z</time>
      </trkpt>
      <trkpt lat="54.605440003797412" lon="13.383119003847241">
        <ele>2.54</ele>
        <time>2024-09-15T10:28:46Z</time>
      </trkpt>
      <trkpt lat="54.603985995054245" lon="13.38401997461915">
        <ele>3.5</ele>
        <time>2024-09-15T10:28:54Z</time>
      </trkpt>
      <trkpt lat="54.602588983252645" lon="13.384953970089555">
        <ele>2.54</ele>
        <time>2024-09-15T10:29:02Z</time>
      </trkpt>
      <trkpt lat="54.601057022809982" lon="13.386027021333575">
        <ele>0.14</ele>
        <time>2024-09-15T10:29:11Z</time>
      </trkpt>
      <trkpt lat="54.599213004112244" lon="13.387367036193609">
        <ele>2.06</ele>
        <time>2024-09-15T10:29:22Z</time>
      </trkpt>
      <trkpt lat="54.597769975662231" lon="13.388565983623266">
        <ele>3.02</ele>
        <time>2024-09-15T10:29:31Z</time>
      </trkpt>
      <trkpt lat="54.596500033512712" lon="13.389653032645583">
        <ele>4.94</ele>
        <time>2024-09-15T10:29:39Z</time>
      </trkpt>
      <trkpt lat="54.595063040032983" lon="13.391160015016794">
        <ele>6.39</ele>
        <time>2024-09-15T10:29:49Z</time>
      </trkpt>
      <trkpt lat="54.593925029039383" lon="13.39235401712358">
        <ele>3.98</ele>
        <time>2024-09-15T10:29:57Z</time>
      </trkpt>
      <trkpt lat="54.592764973640442" lon="13.393580038100481">
        <ele>-1.3</ele>
        <time>2024-09-15T10:30:05Z</time>
      </trkpt>
      <trkpt lat="54.591337032616138" lon="13.39506003074348">
        <ele>-5.63</ele>
        <time>2024-09-15T10:30:14Z</time>
      </trkpt>
      <trkpt lat="54.59020497277379" lon="13.396234000101686">
        <ele>-7.07</ele>
        <time>2024-09-15T10:30:21Z</time>
      </trkpt>
      <trkpt lat="54.588919021189213" lon="13.397631011903286">
        <ele>-10.44</ele>
        <time>2024-09-15T10:30:29Z</time>
      </trkpt>
      <trkpt lat="54.587459983304143" lon="13.399388026446104">
        <ele>-15.720000000000001</ele>
        <time>2024-09-15T10:30:39Z</time>
      </trkpt>
      <trkpt lat="54.586493968963623" lon="13.400587979704142">
        <ele>-18.129999999999999</ele>
        <time>2024-09-15T10:30:46Z</time>
      </trkpt>
      <trkpt lat="54.585250010713935" lon="13.40221599675715">
        <ele>-21.010000000000002</ele>
        <time>2024-09-15T10:30:55Z</time>
      </trkpt>
      <trkpt lat="54.584835022687912" lon="13.402784038335085">
        <ele>-22.449999999999999</ele>
        <time>2024-09-15T10:30:58Z</time>
      </trkpt>
      <trkpt lat="54.58470300771296" lon="13.402965003624558">
        <ele>-22.93</ele>
        <time>2024-09-15T10:30:59Z</time>
      </trkpt>
      <trkpt lat="54.583539012819529" lon="13.404565025120974">
        <ele>-27.260000000000002</ele>
        <time>2024-09-15T10:31:07Z</time>
      </trkpt>
      <trkpt lat="54.582499992102385" lon="13.405993971973658">
        <ele>-30.140000000000001</ele>
        <time>2024-09-15T10:31:14Z</time>
      </trkpt>
      <trkpt lat="54.58128796890378" lon="13.407854000106454">
        <ele>-32.549999999999997</ele>
        <time>2024-09-15T10:31:23Z</time>
      </trkpt>
      <trkpt lat="54.579938985407352" lon="13.410005969926715">
        <ele>-34.469999999999999</ele>
        <time>2024-09-15T10:31:33Z</time>
      </trkpt>
      <trkpt lat="54.578984035179019" lon="13.411556035280228">
        <ele>-37.350000000000001</ele>
        <time>2024-09-15T10:31:40Z</time>
      </trkpt>
      <trkpt lat="54.578178031370044" lon="13.41291599906981">
        <ele>-39.280000000000001</ele>
        <time>2024-09-15T10:31:46Z</time>
      </trkpt>
      <trkpt lat="54.578050961717963" lon="13.413141975179315">
        <ele>-39.759999999999998</ele>
        <time>2024-09-15T10:31:47Z</time>
      </trkpt>
      <trkpt lat="54.577919030562043" lon="13.413375997915864">
        <ele>-39.759999999999998</ele>
        <time>2024-09-15T10:31:48Z</time>
      </trkpt>
      <trkpt lat="54.577789027243853" lon="13.413607003167272">
        <ele>-40.240000000000002</ele>
        <time>2024-09-15T10:31:49Z</time>
      </trkpt>
      <trkpt lat="54.577661035582423" lon="13.413834990933537">
        <ele>-40.240000000000002</ele>
        <time>2024-09-15T10:31:50Z</time>
      </trkpt>
      <trkpt lat="54.576546996831894" lon="13.415815969929099">
        <ele>-46.969999999999999</ele>
        <time>2024-09-15T10:31:59Z</time>
      </trkpt>
      <trkpt lat="54.575557010248303" lon="13.41768697835505">
        <ele>-53.219999999999999</ele>
        <time>2024-09-15T10:32:07Z</time>
      </trkpt>
      <trkpt lat="54.575448967516422" lon="13.417924018576741">
        <ele>-54.18</ele>
        <time>2024-09-15T10:32:08Z</time>
      </trkpt>
      <trkpt lat="54.574567023664713" lon="13.419955959543586">
        <ele>-58.5</ele>
        <time>2024-09-15T10:32:16Z</time>
      </trkpt>
      <trkpt lat="54.573826985433698" lon="13.42187499627471">
        <ele>-62.829999999999998</ele>
        <time>2024-09-15T10:32:23Z</time>
      </trkpt>
      <trkpt lat="54.573736963793635" lon="13.422544039785862">
        <ele>-62.829999999999998</ele>
        <time>2024-09-15T10:32:25Z</time>
      </trkpt>
      <trkpt lat="54.573704022914171" lon="13.4228840097785">
        <ele>-62.829999999999998</ele>
        <time>2024-09-15T10:32:26Z</time>
      </trkpt>
      <trkpt lat="54.573652977123857" lon="13.423919007182121">
        <ele>-62.350000000000001</ele>
        <time>2024-09-15T10:32:29Z</time>
      </trkpt>
      <trkpt lat="54.573639985173941" lon="13.424273980781436">
        <ele>-61.869999999999997</ele>
        <time>2024-09-15T10:32:30Z</time>
      </trkpt>
      <trkpt lat="54.573587011545897" lon="13.424972025677562">
        <ele>-60.909999999999997</ele>
        <time>2024-09-15T10:32:32Z</time>
      </trkpt>
      <trkpt lat="54.573521967977285" lon="13.425308978185058">
        <ele>-60.43</ele>
        <time>2024-09-15T10:32:33Z</time>
      </trkpt>
      <trkpt lat="54.573457008227706" lon="13.425647020339966">
        <ele>-59.950000000000003</ele>
        <time>2024-09-15T10:32:34Z</time>
      </trkpt>
      <trkpt lat="54.57258596085012" lon="13.428575992584229">
        <ele>-54.18</ele>
        <time>2024-09-15T10:32:43Z</time>
      </trkpt>
      <trkpt lat="54.572491999715567" lon="13.428874975070357">
        <ele>-53.219999999999999</ele>
        <time>2024-09-15T10:32:44Z</time>
      </trkpt>
      <trkpt lat="54.572398038581014" lon="13.429174041375518">
        <ele>-52.25</ele>
        <time>2024-09-15T10:32:45Z</time>
      </trkpt>
      <trkpt lat="54.57155498676002" lon="13.431787015870214">
        <ele>-45.530000000000001</ele>
        <time>2024-09-15T10:32:54Z</time>
      </trkpt>
      <trkpt lat="54.57078100182116" lon="13.43414400704205">
        <ele>-41.200000000000003</ele>
        <time>2024-09-15T10:33:03Z</time>
      </trkpt>
      <trkpt lat="54.570020008832216" lon="13.436610968783498">
        <ele>-36.869999999999997</ele>
        <time>2024-09-15T10:33:12Z</time>
      </trkpt>
      <trkpt lat="54.569947002455592" lon="13.436907017603517">
        <ele>-36.869999999999997</ele>
        <time>2024-09-15T10:33:13Z</time>
      </trkpt>
      <trkpt lat="54.569825967773795" lon="13.43824602663517">
        <ele>-36.390000000000001</ele>
        <time>2024-09-15T10:33:17Z</time>
      </trkpt>
      <trkpt lat="54.569837031885982" lon="13.438584990799427">
        <ele>-36.390000000000001</ele>
        <time>2024-09-15T10:33:18Z</time>
      </trkpt>
      <trkpt lat="54.569937027990818" lon="13.439863985404372">
        <ele>-34.950000000000003</ele>
        <time>2024-09-15T10:33:22Z</time>
      </trkpt>
      <trkpt lat="54.569972986355424" lon="13.440178977325559">
        <ele>-34.469999999999999</ele>
        <time>2024-09-15T10:33:23Z</time>
      </trkpt>
      <trkpt lat="54.570218995213509" lon="13.443179028108716">
        <ele>-27.739999999999998</ele>
        <time>2024-09-15T10:33:32Z</time>
      </trkpt>
      <trkpt lat="54.570235004648566" lon="13.446877039968967">
        <ele>-21.969999999999999</ele>
        <time>2024-09-15T10:33:43Z</time>
      </trkpt>
      <trkpt lat="54.569945996627212" lon="13.449339978396893">
        <ele>-18.129999999999999</ele>
        <time>2024-09-15T10:33:51Z</time>
      </trkpt>
      <trkpt lat="54.5695770252496" lon="13.451727982610464">
        <ele>-14.279999999999999</ele>
        <time>2024-09-15T10:34:01Z</time>
      </trkpt>
      <trkpt lat="54.569291034713387" lon="13.453990006819367">
        <ele>-11.4</ele>
        <time>2024-09-15T10:34:12Z</time>
      </trkpt>
      <trkpt lat="54.569047959521413" lon="13.456958960741758">
        <ele>-10.92</ele>
        <time>2024-09-15T10:34:26Z</time>
      </trkpt>
      <trkpt lat="54.569012001156807" lon="13.458920996636152">
        <ele>-9.48</ele>
        <time>2024-09-15T10:34:36Z</time>
      </trkpt>
      <trkpt lat="54.56901803612709" lon="13.459119983017445">
        <ele>-9.48</ele>
        <time>2024-09-15T10:34:37Z</time>
      </trkpt>
      <trkpt lat="54.569052988663316" lon="13.4605279751122">
        <ele>-9</ele>
        <time>2024-09-15T10:34:44Z</time>
      </trkpt>
      <trkpt lat="54.56914602778852" lon="13.462294964119792">
        <ele>-8.51</ele>
        <time>2024-09-15T10:34:54Z</time>
      </trkpt>
      <trkpt lat="54.569350965321064" lon="13.463948965072632">
        <ele>-5.63</ele>
        <time>2024-09-15T10:35:07Z</time>
      </trkpt>
      <trkpt lat="54.569446016103029" lon="13.464594958350062">
        <ele>-3.71</ele>
        <time>2024-09-15T10:35:12Z</time>
      </trkpt>
      <trkpt lat="54.569465965032578" lon="13.464726973325014">
        <ele>-3.71</ele>
        <time>2024-09-15T10:35:13Z</time>
      </trkpt>
      <trkpt lat="54.569752039387822" lon="13.466626983135939">
        <ele>-1.3</ele>
        <time>2024-09-15T10:35:26Z</time>
      </trkpt>
      <trkpt lat="54.56994297914207" lon="13.46811200492084">
        <ele>-1.79</ele>
        <time>2024-09-15T10:35:35Z</time>
      </trkpt>
      <trkpt lat="54.569971980527043" lon="13.468616008758545">
        <ele>-2.27</ele>
        <time>2024-09-15T10:35:38Z</time>
      </trkpt>
      <trkpt lat="54.569971980527043" lon="13.468790017068386">
        <ele>-2.27</ele>
        <time>2024-09-15T10:35:39Z</time>
      </trkpt>
      <trkpt lat="54.569884976372123" lon="13.470231033861637">
        <ele>-1.79</ele>
        <time>2024-09-15T10:35:47Z</time>
      </trkpt>
      <trkpt lat="54.569595968350768" lon="13.472360037267208">
        <ele>-1.79</ele>
        <time>2024-09-15T10:35:58Z</time>
      </trkpt>
      <trkpt lat="54.569527991116047" lon="13.474344033747911">
        <ele>-1.79</ele>
        <time>2024-09-15T10:36:08Z</time>
      </trkpt>
      <trkpt lat="54.569767965003848" lon="13.476486029103398">
        <ele>-0.82</ele>
        <time>2024-09-15T10:36:19Z</time>
      </trkpt>
      <trkpt lat="54.570074994117022" lon="13.478384027257562">
        <ele>0.14</ele>
        <time>2024-09-15T10:36:29Z</time>
      </trkpt>
      <trkpt lat="54.570085974410176" lon="13.479366973042488">
        <ele>1.1</ele>
        <time>2024-09-15T10:36:34Z</time>
      </trkpt>
      <trkpt lat="54.570033000782132" lon="13.480139030143619">
        <ele>1.58</ele>
        <time>2024-09-15T10:36:38Z</time>
      </trkpt>
      <trkpt lat="54.570019003003836" lon="13.480333993211389">
        <ele>2.06</ele>
        <time>2024-09-15T10:36:39Z</time>
      </trkpt>
      <trkpt lat="54.569867961108685" lon="13.482500966638327">
        <ele>3.5</ele>
        <time>2024-09-15T10:36:50Z</time>
      </trkpt>
      <trkpt lat="54.569573001936078" lon="13.484383039176464">
        <ele>5.42</ele>
        <time>2024-09-15T10:37:00Z</time>
      </trkpt>
      <trkpt lat="54.568745037540793" lon="13.487288961187005">
        <ele>8.789999999999999</ele>
        <time>2024-09-15T10:37:16Z</time>
      </trkpt>
      <trkpt lat="54.568066019564867" lon="13.489580992609262">
        <ele>9.27</ele>
        <time>2024-09-15T10:37:27Z</time>
      </trkpt>
      <trkpt lat="54.567376021295786" lon="13.49224098958075">
        <ele>9.27</ele>
        <time>2024-09-15T10:37:35Z</time>
      </trkpt>
      <trkpt lat="54.567268984392285" lon="13.493448989465833">
        <ele>9.27</ele>
        <time>2024-09-15T10:37:38Z</time>
      </trkpt>
      <trkpt lat="54.567336039617658" lon="13.496927982196212">
        <ele>11.19</ele>
        <time>2024-09-15T10:37:46Z</time>
      </trkpt>
      <trkpt lat="54.567558998242021" lon="13.501182971522212">
        <ele>13.119999999999999</ele>
        <time>2024-09-15T10:37:56Z</time>
      </trkpt>
      <trkpt lat="54.567606020718813" lon="13.501957040280104">
        <ele>13.119999999999999</ele>
        <time>2024-09-15T10:37:58Z</time>
      </trkpt>
      <trkpt lat="54.567854041233659" lon="13.505691010504961">
        <ele>11.67</ele>
        <time>2024-09-15T10:38:08Z</time>
      </trkpt>
      <trkpt lat="54.568049004301429" lon="13.510074997320771">
        <ele>11.19</ele>
        <time>2024-09-15T10:38:20Z</time>
      </trkpt>
      <trkpt lat="54.567591017112136" lon="13.512096963822842">
        <ele>10.710000000000001</ele>
        <time>2024-09-15T10:38:26Z</time>
      </trkpt>
      <trkpt lat="54.567461013793945" lon="13.512379014864564">
        <ele>10.710000000000001</ele>
        <time>2024-09-15T10:38:27Z</time>
      </trkpt>
      <trkpt lat="54.567203018814325" lon="13.51288603618741">
        <ele>11.19</ele>
        <time>2024-09-15T10:38:29Z</time>
      </trkpt>
      <trkpt lat="54.56702196970582" lon="13.513130033388734">
        <ele>11.67</ele>
        <time>2024-09-15T10:38:30Z</time>
      </trkpt>
      <trkpt lat="54.566841004416347" lon="13.513374030590057">
        <ele>11.67</ele>
        <time>2024-09-15T10:38:31Z</time>
      </trkpt>
      <trkpt lat="54.566662972792983" lon="13.513540998101234">
        <ele>11.19</ele>
        <time>2024-09-15T10:38:32Z</time>
      </trkpt>
      <trkpt lat="54.566539004445076" lon="13.513655997812748">
        <ele>11.19</ele>
        <time>2024-09-15T10:38:33Z</time>
      </trkpt>
      <trkpt lat="54.566253013908863" lon="13.513888008892536">
        <ele>10.710000000000001</ele>
        <time>2024-09-15T10:38:34Z</time>
      </trkpt>
      <trkpt lat="54.564685011282563" lon="13.514825021848083">
        <ele>3.5</ele>
        <time>2024-09-15T10:38:41Z</time>
      </trkpt>
      <trkpt lat="54.562892960384488" lon="13.515533041208982">
        <ele>1.1</ele>
        <time>2024-09-15T10:38:50Z</time>
      </trkpt>
      <trkpt lat="54.561201995238662" lon="13.516554962843657">
        <ele>2.54</ele>
        <time>2024-09-15T10:38:59Z</time>
      </trkpt>
      <trkpt lat="54.561057994142175" lon="13.516764007508755">
        <ele>3.02</ele>
        <time>2024-09-15T10:39:00Z</time>
      </trkpt>
      <trkpt lat="54.560129027813673" lon="13.51832203567028">
        <ele>4.46</ele>
        <time>2024-09-15T10:39:07Z</time>
      </trkpt>
      <trkpt lat="54.558525988832116" lon="13.520468976348639">
        <ele>5.91</ele>
        <time>2024-09-15T10:39:18Z</time>
      </trkpt>
      <trkpt lat="54.557452015578747" lon="13.52171896956861">
        <ele>6.87</ele>
        <time>2024-09-15T10:39:26Z</time>
      </trkpt>
      <trkpt lat="54.555874960497022" lon="13.52341596968472">
        <ele>8.310000000000001</ele>
        <time>2024-09-15T10:39:37Z</time>
      </trkpt>
      <trkpt lat="54.554735021665692" lon="13.52442498318851">
        <ele>15.039999999999999</ele>
        <time>2024-09-15T10:39:46Z</time>
      </trkpt>
      <trkpt lat="54.554639970883727" lon="13.524482985958457">
        <ele>16</ele>
        <time>2024-09-15T10:39:47Z</time>
      </trkpt>
      <trkpt lat="54.553917031735182" lon="13.524644002318382">
        <ele>22.25</ele>
        <time>2024-09-15T10:39:56Z</time>
      </trkpt>
      <trkpt lat="54.553836984559894" lon="13.524651965126395">
        <ele>22.73</ele>
        <time>2024-09-15T10:39:57Z</time>
      </trkpt>
      <trkpt lat="54.553760038688779" lon="13.52466001175344">
        <ele>22.25</ele>
        <time>2024-09-15T10:39:58Z</time>
      </trkpt>
      <trkpt lat="54.553597010672092" lon="13.524676021188498">
        <ele>21.77</ele>
        <time>2024-09-15T10:40:00Z</time>
      </trkpt>
      <trkpt lat="54.552906006574631" lon="13.524633022025228">
        <ele>20.809999999999999</ele>
        <time>2024-09-15T10:40:07Z</time>
      </trkpt>
      <trkpt lat="54.552799975499511" lon="13.524644002318382">
        <ele>20.809999999999999</ele>
        <time>2024-09-15T10:40:08Z</time>
      </trkpt>
      <trkpt lat="54.552691010758281" lon="13.524654982611537">
        <ele>20.809999999999999</ele>
        <time>2024-09-15T10:40:09Z</time>
      </trkpt>
      <trkpt lat="54.55258003436029" lon="13.524683983996511">
        <ele>20.809999999999999</ele>
        <time>2024-09-15T10:40:10Z</time>
      </trkpt>
      <trkpt lat="54.552466962486506" lon="13.524755984544754">
        <ele>20.809999999999999</ele>
        <time>2024-09-15T10:40:11Z</time>
      </trkpt>
      <trkpt lat="54.552351040765643" lon="13.524828990921378">
        <ele>21.289999999999999</ele>
        <time>2024-09-15T10:40:12Z</time>
      </trkpt>
      <trkpt lat="54.551246976479888" lon="13.525657039135695">
        <ele>29.460000000000001</ele>
        <time>2024-09-15T10:40:20Z</time>
      </trkpt>
      <trkpt lat="54.550935002043843" lon="13.525899024680257">
        <ele>34.740000000000002</ele>
        <time>2024-09-15T10:40:24Z</time>
      </trkpt>
      <trkpt lat="54.550827965140343" lon="13.525988962501287">
        <ele>41.469999999999999</ele>
        <time>2024-09-15T10:40:31Z</time>
      </trkpt>
      <trkpt lat="54.550331002101302" lon="13.526413002982736">
        <ele>44.840000000000003</ele>
        <time>2024-09-15T10:40:38Z</time>
      </trkpt>
      <trkpt lat="54.54935803078115" lon="13.527418999001384">
        <ele>48.68</ele>
        <time>2024-09-15T10:40:48Z</time>
      </trkpt>
      <trkpt lat="54.549071034416556" lon="13.52781998924911">
        <ele>49.649999999999999</ele>
        <time>2024-09-15T10:40:51Z</time>
      </trkpt>
      <trkpt lat="54.548400985077024" lon="13.529204009100795">
        <ele>49.649999999999999</ele>
        <time>2024-09-15T10:40:59Z</time>
      </trkpt>
      <trkpt lat="54.547366993501782" lon="13.530842000618577">
        <ele>47.240000000000002</ele>
        <time>2024-09-15T10:41:08Z</time>
      </trkpt>
      <trkpt lat="54.545657001435757" lon="13.532561967149377">
        <ele>49.159999999999997</ele>
        <time>2024-09-15T10:41:19Z</time>
      </trkpt>
      <trkpt lat="54.5441800262779" lon="13.533226987347007">
        <ele>48.68</ele>
        <time>2024-09-15T10:41:27Z</time>
      </trkpt>
      <trkpt lat="54.542672960087657" lon="13.533840961754322">
        <ele>45.799999999999997</ele>
        <time>2024-09-15T10:41:34Z</time>
      </trkpt>
      <trkpt lat="54.541250970214605" lon="13.535074023529887">
        <ele>41.469999999999999</ele>
        <time>2024-09-15T10:41:40Z</time>
      </trkpt>
      <trkpt lat="54.539146022871137" lon="13.537225993350148">
        <ele>39.549999999999997</ele>
        <time>2024-09-15T10:41:49Z</time>
      </trkpt>
      <trkpt lat="54.537637028843164" lon="13.539463961496949">
        <ele>37.630000000000003</ele>
        <time>2024-09-15T10:41:57Z</time>
      </trkpt>
      <trkpt lat="54.535335022956133" lon="13.543164990842342">
        <ele>31.379999999999999</ele>
        <time>2024-09-15T10:42:10Z</time>
      </trkpt>
      <trkpt lat="54.534015040844679" lon="13.5451789945364">
        <ele>25.609999999999999</ele>
        <time>2024-09-15T10:42:18Z</time>
      </trkpt>
      <trkpt lat="54.533858969807625" lon="13.545365994796157">
        <ele>25.129999999999999</ele>
        <time>2024-09-15T10:42:19Z</time>
      </trkpt>
      <trkpt lat="54.533701976761222" lon="13.545505972579122">
        <ele>24.649999999999999</ele>
        <time>2024-09-15T10:42:20Z</time>
      </trkpt>
      <trkpt lat="54.533549007028341" lon="13.545634970068932">
        <ele>24.170000000000002</ele>
        <time>2024-09-15T10:42:21Z</time>
      </trkpt>
      <trkpt lat="54.53339503146708" lon="13.545749969780445">
        <ele>23.690000000000001</ele>
        <time>2024-09-15T10:42:22Z</time>
      </trkpt>
      <trkpt lat="54.533230997622013" lon="13.545822976157069">
        <ele>23.690000000000001</ele>
        <time>2024-09-15T10:42:23Z</time>
      </trkpt>
      <trkpt lat="54.533066963776946" lon="13.545895982533693">
        <ele>23.210000000000001</ele>
        <time>2024-09-15T10:42:24Z</time>
      </trkpt>
      <trkpt lat="54.531906992197037" lon="13.546015005558729">
        <ele>21.289999999999999</ele>
        <time>2024-09-15T10:42:31Z</time>
      </trkpt>
      <trkpt lat="54.530681977048516" lon="13.546058004721999">
        <ele>17.440000000000001</ele>
        <time>2024-09-15T10:42:40Z</time>
      </trkpt>
      <trkpt lat="54.529669024050236" lon="13.546079965308309">
        <ele>18.879999999999999</ele>
        <time>2024-09-15T10:42:50Z</time>
      </trkpt>
      <trkpt lat="54.529128978028893" lon="13.546092035248876">
        <ele>19.84</ele>
        <time>2024-09-15T10:42:56Z</time>
      </trkpt>
      <trkpt lat="54.52901397831738" lon="13.546094968914986">
        <ele>20.32</ele>
        <time>2024-09-15T10:42:58Z</time>
      </trkpt>
      <trkpt lat="54.528951030224562" lon="13.546095974743366">
        <ele>21.77</ele>
        <time>2024-09-15T10:43:03Z</time>
      </trkpt>
      <trkpt lat="54.528893027454615" lon="13.546096980571747">
        <ele>22.25</ele>
        <time>2024-09-15T10:43:20Z</time>
      </trkpt>
      <trkpt lat="54.528794959187508" lon="13.546213991940022">
        <ele>22.73</ele>
        <time>2024-09-15T10:43:21Z</time>
      </trkpt>
      <trkpt lat="54.528794959187508" lon="13.546309964731336">
        <ele>23.210000000000001</ele>
        <time>2024-09-15T10:43:22Z</time>
      </trkpt>
      <trkpt lat="54.528794959187508" lon="13.546399986371398">
        <ele>23.690000000000001</ele>
        <time>2024-09-15T10:43:23Z</time>
      </trkpt>
      <trkpt lat="54.528794959187508" lon="13.546481961384416">
        <ele>24.170000000000002</ele>
        <time>2024-09-15T10:43:24Z</time>
      </trkpt>
      <trkpt lat="54.528794959187508" lon="13.546567037701607">
        <ele>24.649999999999999</ele>
        <time>2024-09-15T10:43:25Z</time>
      </trkpt>
      <trkpt lat="54.528794959187508" lon="13.546738028526306">
        <ele>25.129999999999999</ele>
        <time>2024-09-15T10:43:27Z</time>
      </trkpt>
      <trkpt lat="54.528794959187508" lon="13.54681396856904">
        <ele>25.609999999999999</ele>
        <time>2024-09-15T10:43:28Z</time>
      </trkpt>
      <trkpt lat="54.528794959187508" lon="13.546860991045833">
        <ele>26.09</ele>
        <time>2024-09-15T10:43:29Z</time>
      </trkpt>
      <trkpt lat="54.528673002496362" lon="13.547065006569028">
        <ele>26.57</ele>
        <time>2024-09-15T10:43:30Z</time>
      </trkpt>
      <trkpt lat="54.528639977797866" lon="13.547065006569028">
        <ele>27.530000000000001</ele>
        <time>2024-09-15T10:43:31Z</time>
      </trkpt>
      <trkpt lat="54.528607958927751" lon="13.547065006569028">
        <ele>28.02</ele>
        <time>2024-09-15T10:43:32Z</time>
      </trkpt>
      <trkpt lat="54.528582980856299" lon="13.547065006569028">
        <ele>28.5</ele>
        <time>2024-09-15T10:43:33Z</time>
      </trkpt>
      <trkpt lat="54.528645006939769" lon="13.546885969117284">
        <ele>28.98</ele>
        <time>2024-09-15T10:43:34Z</time>
      </trkpt>
      <trkpt lat="54.528645006939769" lon="13.546829978004098">
        <ele>29.460000000000001</ele>
        <time>2024-09-15T10:43:35Z</time>
      </trkpt>
      <trkpt lat="54.528645006939769" lon="13.546785973012447">
        <ele>28.98</ele>
        <time>2024-09-15T10:43:36Z</time>
      </trkpt>
      <trkpt lat="54.528645006939769" lon="13.546716989949346">
        <ele>29.460000000000001</ele>
        <time>2024-09-15T10:43:37Z</time>
      </trkpt>
      <trkpt lat="54.528602007776499" lon="13.546508029103279">
        <ele>29.460000000000001</ele>
        <time>2024-09-15T10:43:38Z</time>
      </trkpt>
      <trkpt lat="54.528625980019569" lon="13.546508029103279">
        <ele>29.460000000000001</ele>
        <time>2024-09-15T10:43:39Z</time>
      </trkpt>
      <trkpt lat="54.528645006939769" lon="13.5467279702425">
        <ele>29.460000000000001</ele>
        <time>2024-09-15T10:43:40Z</time>
      </trkpt>
      <trkpt lat="54.528645006939769" lon="13.546754959970713">
        <ele>29.460000000000001</ele>
        <time>2024-09-15T10:43:41Z</time>
      </trkpt>
      <trkpt lat="54.528645006939769" lon="13.546844981610775">
        <ele>29.940000000000001</ele>
        <time>2024-09-15T10:43:47Z</time>
      </trkpt>
      <trkpt lat="54.528645006939769" lon="13.546882029622793">
        <ele>29.940000000000001</ele>
        <time>2024-09-15T10:43:48Z</time>
      </trkpt>
      <trkpt lat="54.528645006939769" lon="13.546908013522625">
        <ele>29.460000000000001</ele>
        <time>2024-09-15T10:43:49Z</time>
      </trkpt>
      <trkpt lat="54.528696974739432" lon="13.547065006569028">
        <ele>29.460000000000001</ele>
        <time>2024-09-15T10:43:50Z</time>
      </trkpt>
      <trkpt lat="54.52871298417449" lon="13.547065006569028">
        <ele>28.98</ele>
        <time>2024-09-15T10:43:51Z</time>
      </trkpt>
      <trkpt lat="54.528734022751451" lon="13.547065006569028">
        <ele>28.98</ele>
        <time>2024-09-15T10:43:52Z</time>
      </trkpt>
      <trkpt lat="54.528794959187508" lon="13.546937014907598">
        <ele>28.5</ele>
        <time>2024-09-15T10:43:53Z</time>
      </trkpt>
      <trkpt lat="54.528848016634583" lon="13.546932991594076">
        <ele>28.02</ele>
        <time>2024-09-15T10:43:55Z</time>
      </trkpt>
      <trkpt lat="54.528891015797853" lon="13.546929974108934">
        <ele>28.02</ele>
        <time>2024-09-15T10:43:56Z</time>
      </trkpt>
      <trkpt lat="54.529117997735739" lon="13.546914970502257">
        <ele>26.57</ele>
        <time>2024-09-15T10:44:02Z</time>
      </trkpt>
      <trkpt lat="54.529205001890659" lon="13.546909019351006">
        <ele>26.09</ele>
        <time>2024-09-15T10:44:04Z</time>
      </trkpt>
      <trkpt lat="54.529248001053929" lon="13.546906001865864">
        <ele>26.09</ele>
        <time>2024-09-15T10:44:05Z</time>
      </trkpt>
      <trkpt lat="54.529288988560438" lon="13.546902984380722">
        <ele>26.09</ele>
        <time>2024-09-15T10:44:06Z</time>
      </trkpt>
      <trkpt lat="54.529316984117031" lon="13.546900972723961">
        <ele>25.609999999999999</ele>
        <time>2024-09-15T10:44:07Z</time>
      </trkpt>
      <trkpt lat="54.529330981895328" lon="13.54689996689558">
        <ele>25.609999999999999</ele>
        <time>2024-09-15T10:44:08Z</time>
      </trkpt>
      <trkpt lat="54.529323019087315" lon="13.546883035451174">
        <ele>25.129999999999999</ele>
        <time>2024-09-15T10:44:09Z</time>
      </trkpt>
      <trkpt lat="54.529328970238566" lon="13.546788990497589">
        <ele>24.170000000000002</ele>
        <time>2024-09-15T10:44:11Z</time>
      </trkpt>
      <trkpt lat="54.529265016317368" lon="13.546706009656191">
        <ele>21.77</ele>
        <time>2024-09-15T10:44:15Z</time>
      </trkpt>
      <trkpt lat="54.52944396995008" lon="13.546716989949346">
        <ele>95.310000000000002</ele>
        <time>2024-09-15T10:47:11Z</time>
      </trkpt>
      <trkpt lat="54.529087990522385" lon="13.546749008819461">
        <ele>22.25</ele>
        <time>2024-09-15T10:47:41Z</time>
      </trkpt>
      <trkpt lat="54.529193015769124" lon="13.546607019379735">
        <ele>28.98</ele>
        <time>2024-09-15T10:48:27Z</time>
      </trkpt>
      <trkpt lat="54.529146999120712" lon="13.54664197191596">
        <ele>27.530000000000001</ele>
        <time>2024-09-15T10:48:34Z</time>
      </trkpt>
      <trkpt lat="54.528992017731071" lon="13.546923017129302">
        <ele>28.02</ele>
        <time>2024-09-15T10:48:45Z</time>
      </trkpt>
      <trkpt lat="54.528966033831239" lon="13.546925028786063">
        <ele>27.530000000000001</ele>
        <time>2024-09-15T10:48:46Z</time>
      </trkpt>
      <trkpt lat="54.528937032446265" lon="13.546927040442824">
        <ele>27.530000000000001</ele>
        <time>2024-09-15T10:48:47Z</time>
      </trkpt>
      <trkpt lat="54.528904007747769" lon="13.546928968280554">
        <ele>27.530000000000001</ele>
        <time>2024-09-15T10:48:48Z</time>
      </trkpt>
      <trkpt lat="54.528869977220893" lon="13.546930979937315">
        <ele>27.050000000000001</ele>
        <time>2024-09-15T10:48:49Z</time>
      </trkpt>
      <trkpt lat="54.528837036341429" lon="13.546933997422457">
        <ele>26.57</ele>
        <time>2024-09-15T10:48:50Z</time>
      </trkpt>
      <trkpt lat="54.528801999986172" lon="13.546936009079218">
        <ele>24.649999999999999</ele>
        <time>2024-09-15T10:48:59Z</time>
      </trkpt>
      <trkpt lat="54.528794959187508" lon="13.546937014907598">
        <ele>24.649999999999999</ele>
        <time>2024-09-15T10:49:25Z</time>
      </trkpt>
      <trkpt lat="54.528645006939769" lon="13.54685596190393">
        <ele>24.170000000000002</ele>
        <time>2024-09-15T10:49:30Z</time>
      </trkpt>
      <trkpt lat="54.528645006939769" lon="13.546826960518956">
        <ele>24.170000000000002</ele>
        <time>2024-09-15T10:49:31Z</time>
      </trkpt>
      <trkpt lat="54.528645006939769" lon="13.546807011589408">
        <ele>24.170000000000002</ele>
        <time>2024-09-15T10:49:32Z</time>
      </trkpt>
      <trkpt lat="54.528645006939769" lon="13.546785973012447">
        <ele>24.170000000000002</ele>
        <time>2024-09-15T10:49:33Z</time>
      </trkpt>
      <trkpt lat="54.528794959187508" lon="13.546736016869545">
        <ele>24.170000000000002</ele>
        <time>2024-09-15T10:49:34Z</time>
      </trkpt>
      <trkpt lat="54.528794959187508" lon="13.546659993007779">
        <ele>23.690000000000001</ele>
        <time>2024-09-15T10:49:35Z</time>
      </trkpt>
      <trkpt lat="54.528794959187508" lon="13.54657500050962">
        <ele>23.690000000000001</ele>
        <time>2024-09-15T10:49:36Z</time>
      </trkpt>
      <trkpt lat="54.528794959187508" lon="13.546494031324983">
        <ele>23.210000000000001</ele>
        <time>2024-09-15T10:49:37Z</time>
      </trkpt>
      <trkpt lat="54.528794959187508" lon="13.546415995806456">
        <ele>22.73</ele>
        <time>2024-09-15T10:49:38Z</time>
      </trkpt>
      <trkpt lat="54.528794959187508" lon="13.546294961124659">
        <ele>22.25</ele>
        <time>2024-09-15T10:49:45Z</time>
      </trkpt>
      <trkpt lat="54.528794959187508" lon="13.546267971396446">
        <ele>22.25</ele>
        <time>2024-09-15T10:49:48Z</time>
      </trkpt>
      <trkpt lat="54.528794959187508" lon="13.546224972233176">
        <ele>22.25</ele>
        <time>2024-09-15T10:49:49Z</time>
      </trkpt>
      <trkpt lat="54.528741985559464" lon="13.54610200971365">
        <ele>21.77</ele>
        <time>2024-09-15T10:49:50Z</time>
      </trkpt>
      <trkpt lat="54.528692029416561" lon="13.546104021370411">
        <ele>21.77</ele>
        <time>2024-09-15T10:49:51Z</time>
      </trkpt>
      <trkpt lat="54.52862698584795" lon="13.546107038855553">
        <ele>21.289999999999999</ele>
        <time>2024-09-15T10:49:52Z</time>
      </trkpt>
      <trkpt lat="54.528552973642945" lon="13.546109972521663">
        <ele>20.809999999999999</ele>
        <time>2024-09-15T10:49:53Z</time>
      </trkpt>
      <trkpt lat="54.528474016115069" lon="13.546113995835185">
        <ele>20.809999999999999</ele>
        <time>2024-09-15T10:49:54Z</time>
      </trkpt>
      <trkpt lat="54.528386006131768" lon="13.546117013320327">
        <ele>20.809999999999999</ele>
        <time>2024-09-15T10:49:55Z</time>
      </trkpt>
      <trkpt lat="54.527351008728147" lon="13.546155989170074">
        <ele>18.399999999999999</ele>
        <time>2024-09-15T10:50:04Z</time>
      </trkpt>
      <trkpt lat="54.525717040523887" lon="13.546291021630168">
        <ele>17.920000000000002</ele>
        <time>2024-09-15T10:50:17Z</time>
      </trkpt>
      <trkpt lat="54.52452396042645" lon="13.546441979706287">
        <ele>15.52</ele>
        <time>2024-09-15T10:50:27Z</time>
      </trkpt>
      <trkpt lat="54.523195009678602" lon="13.546604001894593">
        <ele>15.52</ele>
        <time>2024-09-15T10:50:38Z</time>
      </trkpt>
      <trkpt lat="54.522233018651605" lon="13.546656975522637">
        <ele>17.440000000000001</ele>
        <time>2024-09-15T10:50:47Z</time>
      </trkpt>
      <trkpt lat="54.521351996809244" lon="13.546290015801787">
        <ele>20.809999999999999</ele>
        <time>2024-09-15T10:50:56Z</time>
      </trkpt>
      <trkpt lat="54.521225010976195" lon="13.546191025525331">
        <ele>21.77</ele>
        <time>2024-09-15T10:50:57Z</time>
      </trkpt>
      <trkpt lat="54.520168974995613" lon="13.545229034498334">
        <ele>24.649999999999999</ele>
        <time>2024-09-15T10:51:06Z</time>
      </trkpt>
      <trkpt lat="54.520084988325834" lon="13.545169020071626">
        <ele>24.649999999999999</ele>
        <time>2024-09-15T10:51:07Z</time>
      </trkpt>
      <trkpt lat="54.520005024969578" lon="13.54511302895844">
        <ele>24.649999999999999</ele>
        <time>2024-09-15T10:51:08Z</time>
      </trkpt>
      <trkpt lat="54.519937969744205" lon="13.545090984553099">
        <ele>24.649999999999999</ele>
        <time>2024-09-15T10:51:09Z</time>
      </trkpt>
      <trkpt lat="54.519864041358232" lon="13.545090984553099">
        <ele>24.649999999999999</ele>
        <time>2024-09-15T10:51:10Z</time>
      </trkpt>
      <trkpt lat="54.519802015274763" lon="13.545090984553099">
        <ele>24.649999999999999</ele>
        <time>2024-09-15T10:51:11Z</time>
      </trkpt>
      <trkpt lat="54.519718028604984" lon="13.545104982331395">
        <ele>24.649999999999999</ele>
        <time>2024-09-15T10:51:17Z</time>
      </trkpt>
      <trkpt lat="54.519718028604984" lon="13.545104982331395">
        <ele>24.649999999999999</ele>
        <time>2024-09-15T10:51:51Z</time>
      </trkpt>
      <trkpt lat="54.519648961722851" lon="13.545148987323046">
        <ele>24.170000000000002</ele>
        <time>2024-09-15T10:52:12Z</time>
      </trkpt>
      <trkpt lat="54.51960202306509" lon="13.5451789945364">
        <ele>24.170000000000002</ele>
        <time>2024-09-15T10:52:13Z</time>
      </trkpt>
      <trkpt lat="54.519555000588298" lon="13.545209001749754">
        <ele>23.690000000000001</ele>
        <time>2024-09-15T10:52:14Z</time>
      </trkpt>
      <trkpt lat="54.519557012245059" lon="13.545356020331383">
        <ele>23.690000000000001</ele>
        <time>2024-09-15T10:52:15Z</time>
      </trkpt>
      <trkpt lat="54.519594982266426" lon="13.54543698951602">
        <ele>23.690000000000001</ele>
        <time>2024-09-15T10:52:16Z</time>
      </trkpt>
      <trkpt lat="54.519646028056741" lon="13.545548971742392">
        <ele>23.690000000000001</ele>
        <time>2024-09-15T10:52:17Z</time>
      </trkpt>
      <trkpt lat="54.519711993634701" lon="13.545689033344388">
        <ele>23.690000000000001</ele>
        <time>2024-09-15T10:52:18Z</time>
      </trkpt>
      <trkpt lat="54.519789023324847" lon="13.545858012512326">
        <ele>24.170000000000002</ele>
        <time>2024-09-15T10:52:19Z</time>
      </trkpt>
      <trkpt lat="54.520451026037335" lon="13.54767101816833">
        <ele>26.09</ele>
        <time>2024-09-15T10:52:27Z</time>
      </trkpt>
      <trkpt lat="54.521049996837974" lon="13.550439979881048">
        <ele>25.129999999999999</ele>
        <time>2024-09-15T10:52:36Z</time>
      </trkpt>
      <trkpt lat="54.521239008754492" lon="13.553273985162377">
        <ele>23.210000000000001</ele>
        <time>2024-09-15T10:52:45Z</time>
      </trkpt>
      <trkpt lat="54.521061982959509" lon="13.556908965110779">
        <ele>27.530000000000001</ele>
        <time>2024-09-15T10:52:56Z</time>
      </trkpt>
      <trkpt lat="54.521074974909425" lon="13.560185031965375">
        <ele>37.630000000000003</ele>
        <time>2024-09-15T10:53:06Z</time>
      </trkpt>
      <trkpt lat="54.521552994847298" lon="13.563193967565894">
        <ele>47.240000000000002</ele>
        <time>2024-09-15T10:53:15Z</time>
      </trkpt>
      <trkpt lat="54.522477015852928" lon="13.56625403277576">
        <ele>52.049999999999997</ele>
        <time>2024-09-15T10:53:24Z</time>
      </trkpt>
      <trkpt lat="54.523329958319664" lon="13.569507971405983">
        <ele>58.780000000000001</ele>
        <time>2024-09-15T10:53:33Z</time>
      </trkpt>
      <trkpt lat="54.523496003821492" lon="13.572629978880286">
        <ele>67.430000000000007</ele>
        <time>2024-09-15T10:53:41Z</time>
      </trkpt>
      <trkpt lat="54.523300034925342" lon="13.576983958482742">
        <ele>74.159999999999997</ele>
        <time>2024-09-15T10:53:52Z</time>
      </trkpt>
      <trkpt lat="54.52297599054873" lon="13.58054400421679">
        <ele>75.120000000000005</ele>
        <time>2024-09-15T10:54:02Z</time>
      </trkpt>
      <trkpt lat="54.522629985585809" lon="13.583399970084429">
        <ele>75.599999999999994</ele>
        <time>2024-09-15T10:54:12Z</time>
      </trkpt>
      <trkpt lat="54.522191025316715" lon="13.585555041208863">
        <ele>77.519999999999996</ele>
        <time>2024-09-15T10:54:21Z</time>
      </trkpt>
      <trkpt lat="54.521370017901063" lon="13.587456978857517">
        <ele>76.560000000000002</ele>
        <time>2024-09-15T10:54:28Z</time>
      </trkpt>
      <trkpt lat="54.520453959703445" lon="13.590237004682422">
        <ele>77.040000000000006</ele>
        <time>2024-09-15T10:54:37Z</time>
      </trkpt>
      <trkpt lat="54.519640998914838" lon="13.593165976926684">
        <ele>80.409999999999997</ele>
        <time>2024-09-15T10:54:47Z</time>
      </trkpt>
      <trkpt lat="54.518618993461132" lon="13.596761981025338">
        <ele>80.890000000000001</ele>
        <time>2024-09-15T10:55:00Z</time>
      </trkpt>
      <trkpt lat="54.517747024074197" lon="13.598989974707365">
        <ele>75.599999999999994</ele>
        <time>2024-09-15T10:55:10Z</time>
      </trkpt>
      <trkpt lat="54.51678997837007" lon="13.601569002494216">
        <ele>70.310000000000002</ele>
        <time>2024-09-15T10:55:22Z</time>
      </trkpt>
      <trkpt lat="54.516269965097308" lon="13.603023011237383">
        <ele>70.310000000000002</ele>
        <time>2024-09-15T10:55:30Z</time>
      </trkpt>
      <trkpt lat="54.515723967924714" lon="13.604458998888731">
        <ele>68.390000000000001</ele>
        <time>2024-09-15T10:55:40Z</time>
      </trkpt>
      <trkpt lat="54.515156010165811" lon="13.605827009305358">
        <ele>67.430000000000007</ele>
        <time>2024-09-15T10:55:51Z</time>
      </trkpt>
      <trkpt lat="54.515061965212226" lon="13.606094978749752">
        <ele>67.430000000000007</ele>
        <time>2024-09-15T10:55:53Z</time>
      </trkpt>
      <trkpt lat="54.515043022111058" lon="13.606219030916691">
        <ele>67.430000000000007</ele>
        <time>2024-09-15T10:55:54Z</time>
      </trkpt>
      <trkpt lat="54.514982001855969" lon="13.606950016692281">
        <ele>67.430000000000007</ele>
        <time>2024-09-15T10:55:59Z</time>
      </trkpt>
      <trkpt lat="54.514918969944119" lon="13.609196031466126">
        <ele>65.030000000000001</ele>
        <time>2024-09-15T10:56:11Z</time>
      </trkpt>
      <trkpt lat="54.514817968010902" lon="13.612230028957129">
        <ele>60.219999999999999</ele>
        <time>2024-09-15T10:56:27Z</time>
      </trkpt>
      <trkpt lat="54.514686958864331" lon="13.614601017907262">
        <ele>56.859999999999999</ele>
        <time>2024-09-15T10:56:39Z</time>
      </trkpt>
      <trkpt lat="54.514654017984867" lon="13.614807967096567">
        <ele>56.369999999999997</ele>
        <time>2024-09-15T10:56:40Z</time>
      </trkpt>
      <trkpt lat="54.514603978022933" lon="13.615002008154988">
        <ele>55.890000000000001</ele>
        <time>2024-09-15T10:56:41Z</time>
      </trkpt>
      <trkpt lat="54.514552010223269" lon="13.615197977051139">
        <ele>55.890000000000001</ele>
        <time>2024-09-15T10:56:42Z</time>
      </trkpt>
      <trkpt lat="54.514497024938464" lon="13.615394029766321">
        <ele>55.409999999999997</ele>
        <time>2024-09-15T10:56:43Z</time>
      </trkpt>
      <trkpt lat="54.514384036883712" lon="13.615769036114216">
        <ele>54.93</ele>
        <time>2024-09-15T10:56:45Z</time>
      </trkpt>
      <trkpt lat="54.514328967779875" lon="13.61595100723207">
        <ele>53.969999999999999</ele>
        <time>2024-09-15T10:56:46Z</time>
      </trkpt>
      <trkpt lat="54.51352396979928" lon="13.618548978120089">
        <ele>46.759999999999998</ele>
        <time>2024-09-15T10:57:00Z</time>
      </trkpt>
      <trkpt lat="54.51283497735858" lon="13.62080697901547">
        <ele>44.359999999999999</ele>
        <time>2024-09-15T10:57:13Z</time>
      </trkpt>
      <trkpt lat="54.51240498572588" lon="13.622145988047123">
        <ele>42.920000000000002</ele>
        <time>2024-09-15T10:57:22Z</time>
      </trkpt>
      <trkpt lat="54.512008018791676" lon="13.62342800013721">
        <ele>40.509999999999998</ele>
        <time>2024-09-15T10:57:32Z</time>
      </trkpt>
      <trkpt lat="54.511614991351962" lon="13.624676987528801">
        <ele>39.549999999999997</ele>
        <time>2024-09-15T10:57:41Z</time>
      </trkpt>
      <trkpt lat="54.511572998017073" lon="13.624811014160514">
        <ele>39.549999999999997</ele>
        <time>2024-09-15T10:57:42Z</time>
      </trkpt>
      <trkpt lat="54.511225987225771" lon="13.626047009602189">
        <ele>36.670000000000002</ele>
        <time>2024-09-15T10:57:51Z</time>
      </trkpt>
      <trkpt lat="54.511151975020766" lon="13.626568028703332">
        <ele>35.710000000000001</ele>
        <time>2024-09-15T10:57:54Z</time>
      </trkpt>
      <trkpt lat="54.511120961979032" lon="13.627340001985431">
        <ele>34.259999999999998</ele>
        <time>2024-09-15T10:58:00Z</time>
      </trkpt>
      <trkpt lat="54.511126996949315" lon="13.627427006140351">
        <ele>33.780000000000001</ele>
        <time>2024-09-15T10:58:01Z</time>
      </trkpt>
      <trkpt lat="54.511025995016098" lon="13.6275730188936">
        <ele>33.299999999999997</ele>
        <time>2024-09-15T10:58:02Z</time>
      </trkpt>
      <trkpt lat="54.510959023609757" lon="13.627585005015135">
        <ele>33.299999999999997</ele>
        <time>2024-09-15T10:58:03Z</time>
      </trkpt>
      <trkpt lat="54.510875036939979" lon="13.627586010843515">
        <ele>32.82</ele>
        <time>2024-09-15T10:58:04Z</time>
      </trkpt>
      <trkpt lat="54.510801024734974" lon="13.6275539919734">
        <ele>32.340000000000003</ele>
        <time>2024-09-15T10:58:05Z</time>
      </trkpt>
      <trkpt lat="54.510726006701589" lon="13.62750998698175">
        <ele>31.859999999999999</ele>
        <time>2024-09-15T10:58:06Z</time>
      </trkpt>
      <trkpt lat="54.510657023638487" lon="13.62744796089828">
        <ele>31.379999999999999</ele>
        <time>2024-09-15T10:58:07Z</time>
      </trkpt>
      <trkpt lat="54.509794022887945" lon="13.626682022586465">
        <ele>27.530000000000001</ele>
        <time>2024-09-15T10:58:19Z</time>
      </trkpt>
      <trkpt lat="54.509384986013174" lon="13.626302992925048">
        <ele>26.57</ele>
        <time>2024-09-15T10:58:25Z</time>
      </trkpt>
      <trkpt lat="54.509248025715351" lon="13.626169972121716">
        <ele>26.09</ele>
        <time>2024-09-15T10:58:27Z</time>
      </trkpt>
      <trkpt lat="54.509181976318359" lon="13.626105012372136">
        <ele>25.609999999999999</ele>
        <time>2024-09-15T10:58:28Z</time>
      </trkpt>
      <trkpt lat="54.509111987426877" lon="13.626037035137415">
        <ele>25.129999999999999</ele>
        <time>2024-09-15T10:58:29Z</time>
      </trkpt>
      <trkpt lat="54.509045016020536" lon="13.625970985740423">
        <ele>24.170000000000002</ele>
        <time>2024-09-15T10:58:30Z</time>
      </trkpt>
      <trkpt lat="54.508978966623545" lon="13.625907031819224">
        <ele>23.690000000000001</ele>
        <time>2024-09-15T10:58:31Z</time>
      </trkpt>
      <trkpt lat="54.508868996053934" lon="13.625798989087343">
        <ele>22.73</ele>
        <time>2024-09-15T10:58:33Z</time>
      </trkpt>
      <trkpt lat="54.508820967748761" lon="13.625751966610551">
        <ele>22.25</ele>
        <time>2024-09-15T10:58:34Z</time>
      </trkpt>
      <trkpt lat="54.508702028542757" lon="13.62576998770237">
        <ele>21.77</ele>
        <time>2024-09-15T10:58:35Z</time>
      </trkpt>
      <trkpt lat="54.508659029379487" lon="13.625838970765471">
        <ele>21.289999999999999</ele>
        <time>2024-09-15T10:58:36Z</time>
      </trkpt>
      <trkpt lat="54.508611001074314" lon="13.625917006283998">
        <ele>20.809999999999999</ele>
        <time>2024-09-15T10:58:37Z</time>
      </trkpt>
      <trkpt lat="54.508561966940761" lon="13.625997975468636">
        <ele>20.32</ele>
        <time>2024-09-15T10:58:38Z</time>
      </trkpt>
      <trkpt lat="54.508509999141097" lon="13.626081962138414">
        <ele>19.84</ele>
        <time>2024-09-15T10:58:39Z</time>
      </trkpt>
      <trkpt lat="54.508387958630919" lon="13.626280026510358">
        <ele>18.879999999999999</ele>
        <time>2024-09-15T10:58:41Z</time>
      </trkpt>
      <trkpt lat="54.508317969739437" lon="13.626394020393491">
        <ele>18.399999999999999</ele>
        <time>2024-09-15T10:58:42Z</time>
      </trkpt>
      <trkpt lat="54.508100040256977" lon="13.626747988164425">
        <ele>15.52</ele>
        <time>2024-09-15T10:58:45Z</time>
      </trkpt>
      <trkpt lat="54.507502997294068" lon="13.627928998321295">
        <ele>6.39</ele>
        <time>2024-09-15T10:58:54Z</time>
      </trkpt>
      <trkpt lat="54.50744197703898" lon="13.628051038831472">
        <ele>5.42</ele>
        <time>2024-09-15T10:58:55Z</time>
      </trkpt>
      <trkpt lat="54.507348015904427" lon="13.628329988569021">
        <ele>3.02</ele>
        <time>2024-09-15T10:58:57Z</time>
      </trkpt>
      <trkpt lat="54.507251037284732" lon="13.62879803404212">
        <ele>-0.34</ele>
        <time>2024-09-15T10:59:00Z</time>
      </trkpt>
      <trkpt lat="54.507251037284732" lon="13.629226014018059">
        <ele>-3.23</ele>
        <time>2024-09-15T10:59:03Z</time>
      </trkpt>
      <trkpt lat="54.507268974557519" lon="13.629398010671139">
        <ele>-3.71</ele>
        <time>2024-09-15T10:59:04Z</time>
      </trkpt>
      <trkpt lat="54.507466033101082" lon="13.630127990618348">
        <ele>-6.11</ele>
        <time>2024-09-15T10:59:09Z</time>
      </trkpt>
      <trkpt lat="54.507509032264352" lon="13.630329994484782">
        <ele>-6.59</ele>
        <time>2024-09-15T10:59:10Z</time>
      </trkpt>
      <trkpt lat="54.507509032264352" lon="13.630507020279765">
        <ele>-6.59</ele>
        <time>2024-09-15T10:59:11Z</time>
      </trkpt>
      <trkpt lat="54.507509032264352" lon="13.631029967218637">
        <ele>-6.59</ele>
        <time>2024-09-15T10:59:14Z</time>
      </trkpt>
      <trkpt lat="54.507509032264352" lon="13.631221996620297">
        <ele>-6.59</ele>
        <time>2024-09-15T10:59:15Z</time>
      </trkpt>
      <trkpt lat="54.507551025599241" lon="13.631347976624966">
        <ele>-6.59</ele>
        <time>2024-09-15T10:59:16Z</time>
      </trkpt>
      <trkpt lat="54.507606010884047" lon="13.631497006863356">
        <ele>-6.11</ele>
        <time>2024-09-15T10:59:17Z</time>
      </trkpt>
      <trkpt lat="54.50767801143229" lon="13.631606977432966">
        <ele>-6.11</ele>
        <time>2024-09-15T10:59:18Z</time>
      </trkpt>
      <trkpt lat="54.507753029465675" lon="13.631720971316099">
        <ele>-5.63</ele>
        <time>2024-09-15T10:59:19Z</time>
      </trkpt>
      <trkpt lat="54.507830981165171" lon="13.631838988512754">
        <ele>-6.11</ele>
        <time>2024-09-15T10:59:20Z</time>
      </trkpt>
      <trkpt lat="54.508763970807195" lon="13.633256033062935">
        <ele>-7.55</ele>
        <time>2024-09-15T10:59:33Z</time>
      </trkpt>
      <trkpt lat="54.50959000736475" lon="13.634677017107606">
        <ele>-7.07</ele>
        <time>2024-09-15T10:59:45Z</time>
      </trkpt>
      <trkpt lat="54.510818039998412" lon="13.637048006057739">
        <ele>-5.15</ele>
        <time>2024-09-15T11:00:03Z</time>
      </trkpt>
      <trkpt lat="54.511440983042121" lon="13.63825298845768">
        <ele>-3.71</ele>
        <time>2024-09-15T11:00:12Z</time>
      </trkpt>
      <trkpt lat="54.511483982205391" lon="13.638394977897406">
        <ele>-3.71</ele>
        <time>2024-09-15T11:00:13Z</time>
      </trkpt>
      <trkpt lat="54.511495968326926" lon="13.638534033671021">
        <ele>-3.71</ele>
        <time>2024-09-15T11:00:14Z</time>
      </trkpt>
      <trkpt lat="54.511508038267493" lon="13.638680968433619">
        <ele>-3.71</ele>
        <time>2024-09-15T11:00:15Z</time>
      </trkpt>
      <trkpt lat="54.511520024389029" lon="13.638823041692376">
        <ele>-3.23</ele>
        <time>2024-09-15T11:00:16Z</time>
      </trkpt>
      <trkpt lat="54.511555982753634" lon="13.638943992555141">
        <ele>-3.23</ele>
        <time>2024-09-15T11:00:17Z</time>
      </trkpt>
      <trkpt lat="54.511596970260143" lon="13.639065027236938">
        <ele>-2.75</ele>
        <time>2024-09-15T11:00:18Z</time>
      </trkpt>
      <trkpt lat="54.511657990515232" lon="13.639158988371491">
        <ele>-2.75</ele>
        <time>2024-09-15T11:00:19Z</time>
      </trkpt>
      <trkpt lat="54.511735020205379" lon="13.639250015839934">
        <ele>-2.75</ele>
        <time>2024-09-15T11:00:20Z</time>
      </trkpt>
      <trkpt lat="54.511814983561635" lon="13.639345988631248">
        <ele>-2.75</ele>
        <time>2024-09-15T11:00:21Z</time>
      </trkpt>
      <trkpt lat="54.511896958574653" lon="13.639443973079324">
        <ele>-2.75</ele>
        <time>2024-09-15T11:00:22Z</time>
      </trkpt>
      <trkpt lat="54.512494001537561" lon="13.640375034883618">
        <ele>-3.71</ele>
        <time>2024-09-15T11:00:31Z</time>
      </trkpt>
      <trkpt lat="54.512943020090461" lon="13.641156982630491">
        <ele>-2.75</ele>
        <time>2024-09-15T11:00:39Z</time>
      </trkpt>
      <trkpt lat="54.513575015589595" lon="13.642581989988685">
        <ele>-1.3</ele>
        <time>2024-09-15T11:00:50Z</time>
      </trkpt>
      <trkpt lat="54.513710970059037" lon="13.643004018813372">
        <ele>-1.79</ele>
        <time>2024-09-15T11:00:53Z</time>
      </trkpt>
      <trkpt lat="54.514160994440317" lon="13.64439700730145">
        <ele>-4.19</ele>
        <time>2024-09-15T11:01:03Z</time>
      </trkpt>
      <trkpt lat="54.514486966654658" lon="13.645888986065984">
        <ele>-3.23</ele>
        <time>2024-09-15T11:01:14Z</time>
      </trkpt>
      <trkpt lat="54.514602972194552" lon="13.646420985460281">
        <ele>-3.71</ele>
        <time>2024-09-15T11:01:18Z</time>
      </trkpt>
      <trkpt lat="54.514656029641628" lon="13.646671017631888">
        <ele>-3.71</ele>
        <time>2024-09-15T11:01:20Z</time>
      </trkpt>
      <trkpt lat="54.514683019369841" lon="13.646798003464937">
        <ele>-3.23</ele>
        <time>2024-09-15T11:01:21Z</time>
      </trkpt>
      <trkpt lat="54.514706991612911" lon="13.646917026489973">
        <ele>-3.23</ele>
        <time>2024-09-15T11:01:22Z</time>
      </trkpt>
      <trkpt lat="54.514841018244624" lon="13.64755698479712">
        <ele>-1.3</ele>
        <time>2024-09-15T11:01:31Z</time>
      </trkpt>
      <trkpt lat="54.514889968559146" lon="13.647791007533669">
        <ele>-0.82</ele>
        <time>2024-09-15T11:01:34Z</time>
      </trkpt>
      <trkpt lat="54.514913018792868" lon="13.647899972274899">
        <ele>-0.82</ele>
        <time>2024-09-15T11:01:35Z</time>
      </trkpt>
      <trkpt lat="54.514936991035938" lon="13.648015977814794">
        <ele>-0.34</ele>
        <time>2024-09-15T11:01:36Z</time>
      </trkpt>
      <trkpt lat="54.515119967982173" lon="13.649135967716575">
        <ele>0.14</ele>
        <time>2024-09-15T11:01:47Z</time>
      </trkpt>
      <trkpt lat="54.515225999057293" lon="13.649880029261112">
        <ele>-0.34</ele>
        <time>2024-09-15T11:01:55Z</time>
      </trkpt>
      <trkpt lat="54.515233961865306" lon="13.649933002889156">
        <ele>-0.34</ele>
        <time>2024-09-15T11:01:56Z</time>
      </trkpt>
      <trkpt lat="54.515234967693686" lon="13.650017995387316">
        <ele>-0.34</ele>
        <time>2024-09-15T11:01:57Z</time>
      </trkpt>
      <trkpt lat="54.515237985178828" lon="13.650145987048745">
        <ele>-0.82</ele>
        <time>2024-09-15T11:02:05Z</time>
      </trkpt>
      <trkpt lat="54.515244020149112" lon="13.650428960099816">
        <ele>0.62</ele>
        <time>2024-09-15T11:02:19Z</time>
      </trkpt>
      <trkpt lat="54.515244020149112" lon="13.650460978969932">
        <ele>1.58</ele>
        <time>2024-09-15T11:02:33Z</time>
      </trkpt>
      <trkpt lat="54.515245025977492" lon="13.650503978133202">
        <ele>1.58</ele>
        <time>2024-09-15T11:02:34Z</time>
      </trkpt>
      <trkpt lat="54.515246031805873" lon="13.65054395981133">
        <ele>1.58</ele>
        <time>2024-09-15T11:02:35Z</time>
      </trkpt>
      <trkpt lat="54.515247037634254" lon="13.650601962581277">
        <ele>1.58</ele>
        <time>2024-09-15T11:02:36Z</time>
      </trkpt>
      <trkpt lat="54.515248965471983" lon="13.650667006149888">
        <ele>1.58</ele>
        <time>2024-09-15T11:02:37Z</time>
      </trkpt>
      <trkpt lat="54.515249971300364" lon="13.650730038061738">
        <ele>1.58</ele>
        <time>2024-09-15T11:02:38Z</time>
      </trkpt>
      <trkpt lat="54.515252988785505" lon="13.650879990309477">
        <ele>2.06</ele>
        <time>2024-09-15T11:02:41Z</time>
      </trkpt>
      <trkpt lat="54.515255000442266" lon="13.650985015556216">
        <ele>2.06</ele>
        <time>2024-09-15T11:02:42Z</time>
      </trkpt>
      <trkpt lat="54.515255000442266" lon="13.650985015556216">
        <ele>2.06</ele>
        <time>2024-09-15T11:02:43Z</time>
      </trkpt>
      <trkpt lat="54.515265980735421" lon="13.650989960879087">
        <ele>1.58</ele>
        <time>2024-09-15T11:02:44Z</time>
      </trkpt>
      <trkpt lat="54.515340998768806" lon="13.651028014719486">
        <ele>1.1</ele>
        <time>2024-09-15T11:02:45Z</time>
      </trkpt>
      <trkpt lat="54.515356002375484" lon="13.651013011112809">
        <ele>1.1</ele>
        <time>2024-09-15T11:02:46Z</time>
      </trkpt>
      <trkpt lat="54.515356002375484" lon="13.651013011112809">
        <ele>0.62</ele>
        <time>2024-09-15T11:02:47Z</time>
      </trkpt>
      <trkpt lat="54.515356002375484" lon="13.651013011112809">
        <ele>0.14</ele>
        <time>2024-09-15T11:03:01Z</time>
      </trkpt>
      <trkpt lat="54.515356002375484" lon="13.651013011112809">
        <ele>0.14</ele>
        <time>2024-09-15T11:03:27Z</time>
      </trkpt>
      <trkpt lat="54.515356002375484" lon="13.651013011112809">
        <ele>0.62</ele>
        <time>2024-09-15T11:04:06Z</time>
      </trkpt>
      <trkpt lat="54.515356002375484" lon="13.651013011112809">
        <ele>0.14</ele>
        <time>2024-09-15T11:04:09Z</time>
      </trkpt>
      <trkpt lat="54.515272015705705" lon="13.650992978364229">
        <ele>-0.34</ele>
        <time>2024-09-15T11:04:14Z</time>
      </trkpt>
      <trkpt lat="54.515354996547103" lon="13.651013011112809">
        <ele>-0.82</ele>
        <time>2024-09-15T11:04:15Z</time>
      </trkpt>
      <trkpt lat="54.515252988785505" lon="13.650870015844703">
        <ele>-0.34</ele>
        <time>2024-09-15T11:04:16Z</time>
      </trkpt>
      <trkpt lat="54.515253994613886" lon="13.650919971987605">
        <ele>-0.34</ele>
        <time>2024-09-15T11:04:17Z</time>
      </trkpt>
      <trkpt lat="54.515255000442266" lon="13.650980992242694">
        <ele>0.14</ele>
        <time>2024-09-15T11:04:18Z</time>
      </trkpt>
      <trkpt lat="54.515255000442266" lon="13.650985015556216">
        <ele>0.14</ele>
        <time>2024-09-15T11:04:19Z</time>
      </trkpt>
      <trkpt lat="54.515405036509037" lon="13.650962971150875">
        <ele>0.14</ele>
        <time>2024-09-15T11:04:20Z</time>
      </trkpt>
      <trkpt lat="54.515421967953444" lon="13.650992978364229">
        <ele>0.62</ele>
        <time>2024-09-15T11:04:21Z</time>
      </trkpt>
      <trkpt lat="54.515324989333749" lon="13.651164975017309">
        <ele>0.62</ele>
        <time>2024-09-15T11:04:24Z</time>
      </trkpt>
      <trkpt lat="54.515307974070311" lon="13.651207974180579">
        <ele>0.62</ele>
        <time>2024-09-15T11:04:25Z</time>
      </trkpt>
      <trkpt lat="54.515288025140762" lon="13.651256002485752">
        <ele>1.1</ele>
        <time>2024-09-15T11:04:26Z</time>
      </trkpt>
      <trkpt lat="54.515270004048944" lon="13.651301013305783">
        <ele>1.1</ele>
        <time>2024-09-15T11:04:27Z</time>
      </trkpt>
      <trkpt lat="54.515256006270647" lon="13.65133797749877">
        <ele>1.58</ele>
        <time>2024-09-15T11:04:28Z</time>
      </trkpt>
      <trkpt lat="54.515233961865306" lon="13.651392962783575">
        <ele>1.58</ele>
        <time>2024-09-15T11:04:29Z</time>
      </trkpt>
      <trkpt lat="54.515233961865306" lon="13.651391034945846">
        <ele>2.06</ele>
        <time>2024-09-15T11:04:30Z</time>
      </trkpt>
      <trkpt lat="54.515233961865306" lon="13.651392962783575">
        <ele>2.06</ele>
        <time>2024-09-15T11:04:31Z</time>
      </trkpt>
      <trkpt lat="54.515233961865306" lon="13.651392962783575">
        <ele>2.06</ele>
        <time>2024-09-15T11:04:32Z</time>
      </trkpt>
      <trkpt lat="54.515233961865306" lon="13.651392962783575">
        <ele>1.1</ele>
        <time>2024-09-15T11:04:45Z</time>
      </trkpt>
      <trkpt lat="54.515249971300364" lon="13.651799988001585">
        <ele>-20.530000000000001</ele>
        <time>2024-09-15T13:24:23Z</time>
      </trkpt>
      <trkpt lat="54.515339992940426" lon="13.651602007448673">
        <ele>7.83</ele>
        <time>2024-09-15T13:24:57Z</time>
      </trkpt>
      <trkpt lat="54.515257012099028" lon="13.651565965265036">
        <ele>2.54</ele>
        <time>2024-09-15T13:25:06Z</time>
      </trkpt>
      <trkpt lat="54.51524100266397" lon="13.651443002745509">
        <ele>0.62</ele>
        <time>2024-09-15T13:25:17Z</time>
      </trkpt>
      <trkpt lat="54.515325995162129" lon="13.65140100941062">
        <ele>1.58</ele>
        <time>2024-09-15T13:25:33Z</time>
      </trkpt>
      <trkpt lat="54.515338987112045" lon="13.651330014690757">
        <ele>1.1</ele>
        <time>2024-09-15T13:25:49Z</time>
      </trkpt>
      <trkpt lat="54.515389027073979" lon="13.651178972795606">
        <ele>-0.82</ele>
        <time>2024-09-15T13:26:02Z</time>
      </trkpt>
      <trkpt lat="54.515405036509037" lon="13.650962971150875">
        <ele>-1.79</ele>
        <time>2024-09-15T13:26:17Z</time>
      </trkpt>
      <trkpt lat="54.515403024852276" lon="13.650925001129508">
        <ele>-1.79</ele>
        <time>2024-09-15T13:26:18Z</time>
      </trkpt>
      <trkpt lat="54.515399001538754" lon="13.6508459597826">
        <ele>-1.79</ele>
        <time>2024-09-15T13:26:19Z</time>
      </trkpt>
      <trkpt lat="54.515394978225231" lon="13.650762978941202">
        <ele>-1.79</ele>
        <time>2024-09-15T13:26:20Z</time>
      </trkpt>
      <trkpt lat="54.515391038730741" lon="13.650684021413326">
        <ele>-2.27</ele>
        <time>2024-09-15T13:26:21Z</time>
      </trkpt>
      <trkpt lat="54.515374023467302" lon="13.650354025885463">
        <ele>-2.27</ele>
        <time>2024-09-15T13:26:25Z</time>
      </trkpt>
      <trkpt lat="54.51537000015378" lon="13.650273978710175">
        <ele>-2.27</ele>
        <time>2024-09-15T13:26:26Z</time>
      </trkpt>
      <trkpt lat="54.515362037345767" lon="13.650072980672121">
        <ele>-2.27</ele>
        <time>2024-09-15T13:26:28Z</time>
      </trkpt>
      <trkpt lat="54.515362037345767" lon="13.649976002052426">
        <ele>-2.27</ele>
        <time>2024-09-15T13:26:29Z</time>
      </trkpt>
      <trkpt lat="54.515362037345767" lon="13.649883968755603">
        <ele>-2.27</ele>
        <time>2024-09-15T13:26:30Z</time>
      </trkpt>
      <trkpt lat="54.515362037345767" lon="13.649697974324226">
        <ele>-1.79</ele>
        <time>2024-09-15T13:26:32Z</time>
      </trkpt>
      <trkpt lat="54.515362037345767" lon="13.649605019018054">
        <ele>-1.79</ele>
        <time>2024-09-15T13:26:33Z</time>
      </trkpt>
      <trkpt lat="54.515362037345767" lon="13.649507034569979">
        <ele>-1.79</ele>
        <time>2024-09-15T13:26:34Z</time>
      </trkpt>
      <trkpt lat="54.515362037345767" lon="13.64940402098">
        <ele>-1.79</ele>
        <time>2024-09-15T13:26:35Z</time>
      </trkpt>
      <trkpt lat="54.51534703373909" lon="13.649297989904881">
        <ele>-1.79</ele>
        <time>2024-09-15T13:26:36Z</time>
      </trkpt>
      <trkpt lat="54.515320966020226" lon="13.649207968264818">
        <ele>-1.79</ele>
        <time>2024-09-15T13:26:37Z</time>
      </trkpt>
      <trkpt lat="54.515294982120395" lon="13.649115012958646">
        <ele>-1.79</ele>
        <time>2024-09-15T13:26:38Z</time>
      </trkpt>
      <trkpt lat="54.515210995450616" lon="13.648817036300898">
        <ele>-1.3</ele>
        <time>2024-09-15T13:26:41Z</time>
      </trkpt>
      <trkpt lat="54.515180988237262" lon="13.648708993569016">
        <ele>-0.82</ele>
        <time>2024-09-15T13:26:42Z</time>
      </trkpt>
      <trkpt lat="54.515169002115726" lon="13.648599022999406">
        <ele>-0.34</ele>
        <time>2024-09-15T13:26:43Z</time>
      </trkpt>
      <trkpt lat="54.515169002115726" lon="13.648473965004086">
        <ele>-0.34</ele>
        <time>2024-09-15T13:26:44Z</time>
      </trkpt>
      <trkpt lat="54.515196997672319" lon="13.648409005254507">
        <ele>0.14</ele>
        <time>2024-09-15T13:26:45Z</time>
      </trkpt>
      <trkpt lat="54.515242008492351" lon="13.648323006927967">
        <ele>0.14</ele>
        <time>2024-09-15T13:26:46Z</time>
      </trkpt>
      <trkpt lat="54.515295987948775" lon="13.648312026634812">
        <ele>0.62</ele>
        <time>2024-09-15T13:26:47Z</time>
      </trkpt>
      <trkpt lat="54.515351979061961" lon="13.648300962522626">
        <ele>0.62</ele>
        <time>2024-09-15T13:26:48Z</time>
      </trkpt>
      <trkpt lat="54.515405958518386" lon="13.648289982229471">
        <ele>1.1</ele>
        <time>2024-09-15T13:26:49Z</time>
      </trkpt>
      <trkpt lat="54.515488017350435" lon="13.648356031626463">
        <ele>1.1</ele>
        <time>2024-09-15T13:26:50Z</time>
      </trkpt>
      <trkpt lat="54.515524981543422" lon="13.648423003032804">
        <ele>1.58</ele>
        <time>2024-09-15T13:26:51Z</time>
      </trkpt>
      <trkpt lat="54.515563035383821" lon="13.648493997752666">
        <ele>1.58</ele>
        <time>2024-09-15T13:26:52Z</time>
      </trkpt>
      <trkpt lat="54.515602011233568" lon="13.648602962493896">
        <ele>1.58</ele>
        <time>2024-09-15T13:26:53Z</time>
      </trkpt>
      <trkpt lat="54.515610979869962" lon="13.648698013275862">
        <ele>1.58</ele>
        <time>2024-09-15T13:26:54Z</time>
      </trkpt>
      <trkpt lat="54.515620032325387" lon="13.648795997723937">
        <ele>1.58</ele>
        <time>2024-09-15T13:26:55Z</time>
      </trkpt>
      <trkpt lat="54.515598993748426" lon="13.64890999160707">
        <ele>1.58</ele>
        <time>2024-09-15T13:26:56Z</time>
      </trkpt>
      <trkpt lat="54.515581978484988" lon="13.649003030732274">
        <ele>1.58</ele>
        <time>2024-09-15T13:26:57Z</time>
      </trkpt>
      <trkpt lat="54.51556496322155" lon="13.649091040715575">
        <ele>1.58</ele>
        <time>2024-09-15T13:26:58Z</time>
      </trkpt>
      <trkpt lat="54.515549959614873" lon="13.649172009900212">
        <ele>2.06</ele>
        <time>2024-09-15T13:26:59Z</time>
      </trkpt>
      <trkpt lat="54.515535961836576" lon="13.649250967428088">
        <ele>2.06</ele>
        <time>2024-09-15T13:27:00Z</time>
      </trkpt>
      <trkpt lat="54.515520958229899" lon="13.649330008774996">
        <ele>2.06</ele>
        <time>2024-09-15T13:27:01Z</time>
      </trkpt>
      <trkpt lat="54.515524981543422" lon="13.649441991001368">
        <ele>2.54</ele>
        <time>2024-09-15T13:27:02Z</time>
      </trkpt>
      <trkpt lat="54.515539985150099" lon="13.649525977671146">
        <ele>2.54</ele>
        <time>2024-09-15T13:27:03Z</time>
      </trkpt>
      <trkpt lat="54.515590025112033" lon="13.649635026231408">
        <ele>2.54</ele>
        <time>2024-09-15T13:27:04Z</time>
      </trkpt>
      <trkpt lat="54.515638975426555" lon="13.649666961282492">
        <ele>3.02</ele>
        <time>2024-09-15T13:27:05Z</time>
      </trkpt>
      <trkpt lat="54.515689015388489" lon="13.649699985980988">
        <ele>3.02</ele>
        <time>2024-09-15T13:27:06Z</time>
      </trkpt>
      <trkpt lat="54.515739977359772" lon="13.649734016507864">
        <ele>3.5</ele>
        <time>2024-09-15T13:27:07Z</time>
      </trkpt>
      <trkpt lat="54.51579999178648" lon="13.649689005687833">
        <ele>3.5</ele>
        <time>2024-09-15T13:27:08Z</time>
      </trkpt>
      <trkpt lat="54.515846008434892" lon="13.649642989039421">
        <ele>3.5</ele>
        <time>2024-09-15T13:27:09Z</time>
      </trkpt>
      <trkpt lat="54.515891019254923" lon="13.64959797821939">
        <ele>4.46</ele>
        <time>2024-09-15T13:27:10Z</time>
      </trkpt>
      <trkpt lat="54.515935024246573" lon="13.649553973227739">
        <ele>4.46</ele>
        <time>2024-09-15T13:27:11Z</time>
      </trkpt>
      <trkpt lat="54.515968970954418" lon="13.649520026519895">
        <ele>5.91</ele>
        <time>2024-09-15T13:27:12Z</time>
      </trkpt>
      <trkpt lat="54.516006018966436" lon="13.649482978507876">
        <ele>6.39</ele>
        <time>2024-09-15T13:27:13Z</time>
      </trkpt>
      <trkpt lat="54.516043988987803" lon="13.649445008486509">
        <ele>6.87</ele>
        <time>2024-09-15T13:27:14Z</time>
      </trkpt>
      <trkpt lat="54.516155971214175" lon="13.649333026260138">
        <ele>7.35</ele>
        <time>2024-09-15T13:27:15Z</time>
      </trkpt>
      <trkpt lat="54.516158988699317" lon="13.649333026260138">
        <ele>7.83</ele>
        <time>2024-09-15T13:27:16Z</time>
      </trkpt>
      <trkpt lat="54.516267031431198" lon="13.649408966302872">
        <ele>8.310000000000001</ele>
        <time>2024-09-15T13:27:17Z</time>
      </trkpt>
      <trkpt lat="54.516302989795804" lon="13.649491025134921">
        <ele>8.310000000000001</ele>
        <time>2024-09-15T13:27:18Z</time>
      </trkpt>
      <trkpt lat="54.516340037807822" lon="13.649574005976319">
        <ele>8.789999999999999</ele>
        <time>2024-09-15T13:27:19Z</time>
      </trkpt>
      <trkpt lat="54.516374990344048" lon="13.649652963504195">
        <ele>8.789999999999999</ele>
        <time>2024-09-15T13:27:20Z</time>
      </trkpt>
      <trkpt lat="54.516413966193795" lon="13.649739967659116">
        <ele>9.27</ele>
        <time>2024-09-15T13:27:21Z</time>
      </trkpt>
      <trkpt lat="54.51646601781249" lon="13.649761006236076">
        <ele>9.75</ele>
        <time>2024-09-15T13:27:22Z</time>
      </trkpt>
      <trkpt lat="54.516521003097296" lon="13.649782966822386">
        <ele>10.23</ele>
        <time>2024-09-15T13:27:23Z</time>
      </trkpt>
      <trkpt lat="54.516575988382101" lon="13.649739967659116">
        <ele>10.710000000000001</ele>
        <time>2024-09-15T13:27:24Z</time>
      </trkpt>
      <trkpt lat="54.516615970060229" lon="13.649709038436413">
        <ele>11.67</ele>
        <time>2024-09-15T13:27:25Z</time>
      </trkpt>
      <trkpt lat="54.516665004193783" lon="13.649670984596014">
        <ele>12.15</ele>
        <time>2024-09-15T13:27:26Z</time>
      </trkpt>
      <trkpt lat="54.516718983650208" lon="13.649627985432744">
        <ele>13.119999999999999</ele>
        <time>2024-09-15T13:27:27Z</time>
      </trkpt>
      <trkpt lat="54.517214018851519" lon="13.649228001013398">
        <ele>16.960000000000001</ele>
        <time>2024-09-15T13:27:35Z</time>
      </trkpt>
      <trkpt lat="54.517275961115956" lon="13.649172009900212">
        <ele>16.960000000000001</ele>
        <time>2024-09-15T13:27:36Z</time>
      </trkpt>
      <trkpt lat="54.517879039049149" lon="13.64862903021276">
        <ele>17.440000000000001</ele>
        <time>2024-09-15T13:27:46Z</time>
      </trkpt>
      <trkpt lat="54.51803301461041" lon="13.648489974439144">
        <ele>18.399999999999999</ele>
        <time>2024-09-15T13:27:49Z</time>
      </trkpt>
      <trkpt lat="54.51824801042676" lon="13.648296017199755">
        <ele>21.77</ele>
        <time>2024-09-15T13:27:57Z</time>
      </trkpt>
      <trkpt lat="54.518382037058473" lon="13.648174982517958">
        <ele>25.609999999999999</ele>
        <time>2024-09-15T13:28:04Z</time>
      </trkpt>
      <trkpt lat="54.518401985988021" lon="13.648156961426139">
        <ele>26.09</ele>
        <time>2024-09-15T13:28:05Z</time>
      </trkpt>
      <trkpt lat="54.518425958231091" lon="13.648104993626475">
        <ele>26.57</ele>
        <time>2024-09-15T13:28:06Z</time>
      </trkpt>
      <trkpt lat="54.518408020958304" lon="13.648018995299935">
        <ele>26.57</ele>
        <time>2024-09-15T13:28:07Z</time>
      </trkpt>
      <trkpt lat="54.518388994038105" lon="13.64792101085186">
        <ele>26.57</ele>
        <time>2024-09-15T13:28:08Z</time>
      </trkpt>
      <trkpt lat="54.518367033451796" lon="13.647811962291598">
        <ele>27.050000000000001</ele>
        <time>2024-09-15T13:28:09Z</time>
      </trkpt>
      <trkpt lat="54.518128987401724" lon="13.646919960156083">
        <ele>29.940000000000001</ele>
        <time>2024-09-15T13:28:18Z</time>
      </trkpt>
      <trkpt lat="54.518092023208737" lon="13.646836979314685">
        <ele>29.940000000000001</ele>
        <time>2024-09-15T13:28:19Z</time>
      </trkpt>
      <trkpt lat="54.5179040171206" lon="13.646411010995507">
        <ele>30.420000000000002</ele>
        <time>2024-09-15T13:28:24Z</time>
      </trkpt>
      <trkpt lat="54.517767978832126" lon="13.646103981882334">
        <ele>29.460000000000001</ele>
        <time>2024-09-15T13:28:29Z</time>
      </trkpt>
      <trkpt lat="54.517743000760674" lon="13.646048996597528">
        <ele>29.460000000000001</ele>
        <time>2024-09-15T13:28:30Z</time>
      </trkpt>
      <trkpt lat="54.517718022689223" lon="13.645989987999201">
        <ele>29.460000000000001</ele>
        <time>2024-09-15T13:28:31Z</time>
      </trkpt>
      <trkpt lat="54.517562035471201" lon="13.645663009956479">
        <ele>29.460000000000001</ele>
        <time>2024-09-15T13:28:36Z</time>
      </trkpt>
      <trkpt lat="54.5173030346632" lon="13.645145008340478">
        <ele>29.940000000000001</ele>
        <time>2024-09-15T13:28:42Z</time>
      </trkpt>
      <trkpt lat="54.517258023843169" lon="13.645054986700416">
        <ele>29.940000000000001</ele>
        <time>2024-09-15T13:28:43Z</time>
      </trkpt>
      <trkpt lat="54.517213013023138" lon="13.644965970888734">
        <ele>29.460000000000001</ele>
        <time>2024-09-15T13:28:44Z</time>
      </trkpt>
      <trkpt lat="54.517168002203107" lon="13.644881984218955">
        <ele>29.460000000000001</ele>
        <time>2024-09-15T13:28:45Z</time>
      </trkpt>
      <trkpt lat="54.517117962241173" lon="13.644796991720796">
        <ele>29.460000000000001</ele>
        <time>2024-09-15T13:28:46Z</time>
      </trkpt>
      <trkpt lat="54.51706700026989" lon="13.644709987565875">
        <ele>29.460000000000001</ele>
        <time>2024-09-15T13:28:47Z</time>
      </trkpt>
      <trkpt lat="54.517014026641846" lon="13.644619965925813">
        <ele>29.460000000000001</ele>
        <time>2024-09-15T13:28:48Z</time>
      </trkpt>
      <trkpt lat="54.516615970060229" lon="13.644086960703135">
        <ele>31.379999999999999</ele>
        <time>2024-09-15T13:28:55Z</time>
      </trkpt>
      <trkpt lat="54.515889007598162" lon="13.643276011571288">
        <ele>33.780000000000001</ele>
        <time>2024-09-15T13:29:06Z</time>
      </trkpt>
      <trkpt lat="54.515630006790161" lon="13.642921959981322">
        <ele>35.229999999999997</ele>
        <time>2024-09-15T13:29:13Z</time>
      </trkpt>
      <trkpt lat="54.515602011233568" lon="13.642878038808703">
        <ele>35.229999999999997</ele>
        <time>2024-09-15T13:29:23Z</time>
      </trkpt>
      <trkpt lat="54.515702007338405" lon="13.642830010503531">
        <ele>28.5</ele>
        <time>2024-09-15T13:54:18Z</time>
      </trkpt>
      <trkpt lat="54.515646016225219" lon="13.642860017716885">
        <ele>31.379999999999999</ele>
        <time>2024-09-15T13:54:48Z</time>
      </trkpt>
      <trkpt lat="54.515610979869962" lon="13.642930006608367">
        <ele>22.73</ele>
        <time>2024-09-15T13:55:21Z</time>
      </trkpt>
      <trkpt lat="54.515529004856944" lon="13.642762033268809">
        <ele>21.77</ele>
        <time>2024-09-15T13:55:42Z</time>
      </trkpt>
      <trkpt lat="54.515486005693674" lon="13.642691960558295">
        <ele>22.25</ele>
        <time>2024-09-15T13:55:43Z</time>
      </trkpt>
      <trkpt lat="54.514950988814235" lon="13.641535006463528">
        <ele>23.210000000000001</ele>
        <time>2024-09-15T13:55:54Z</time>
      </trkpt>
      <trkpt lat="54.514569025486708" lon="13.640497997403145">
        <ele>23.210000000000001</ele>
        <time>2024-09-15T13:56:03Z</time>
      </trkpt>
      <trkpt lat="54.514514040201902" lon="13.640243019908667">
        <ele>22.73</ele>
        <time>2024-09-15T13:56:06Z</time>
      </trkpt>
      <trkpt lat="54.514476992189884" lon="13.640071023255587">
        <ele>22.73</ele>
        <time>2024-09-15T13:56:08Z</time>
      </trkpt>
      <trkpt lat="54.514526026323438" lon="13.639890979975462">
        <ele>22.73</ele>
        <time>2024-09-15T13:56:09Z</time>
      </trkpt>
      <trkpt lat="54.514517979696393" lon="13.639838006347418">
        <ele>23.210000000000001</ele>
        <time>2024-09-15T13:56:10Z</time>
      </trkpt>
      <trkpt lat="54.514504987746477" lon="13.639745973050594">
        <ele>23.210000000000001</ele>
        <time>2024-09-15T13:56:11Z</time>
      </trkpt>
      <trkpt lat="54.514442039653659" lon="13.639741027727723">
        <ele>23.210000000000001</ele>
        <time>2024-09-15T13:56:12Z</time>
      </trkpt>
      <trkpt lat="54.514351012185216" lon="13.639652011916041">
        <ele>23.210000000000001</ele>
        <time>2024-09-15T13:56:13Z</time>
      </trkpt>
      <trkpt lat="54.514322010800242" lon="13.639546986669302">
        <ele>23.210000000000001</ele>
        <time>2024-09-15T13:56:14Z</time>
      </trkpt>
      <trkpt lat="54.514288986101747" lon="13.639431986957788">
        <ele>23.210000000000001</ele>
        <time>2024-09-15T13:56:15Z</time>
      </trkpt>
      <trkpt lat="54.514256967231631" lon="13.639315981417894">
        <ele>23.690000000000001</ele>
        <time>2024-09-15T13:56:16Z</time>
      </trkpt>
      <trkpt lat="54.514225032180548" lon="13.639199975878">
        <ele>23.690000000000001</ele>
        <time>2024-09-15T13:56:17Z</time>
      </trkpt>
      <trkpt lat="54.514131993055344" lon="13.638866040855646">
        <ele>24.649999999999999</ele>
        <time>2024-09-15T13:56:20Z</time>
      </trkpt>
      <trkpt lat="54.514099974185228" lon="13.638749029487371">
        <ele>25.129999999999999</ele>
        <time>2024-09-15T13:56:21Z</time>
      </trkpt>
      <trkpt lat="54.513642992824316" lon="13.637089999392629">
        <ele>26.57</ele>
        <time>2024-09-15T13:56:34Z</time>
      </trkpt>
      <trkpt lat="54.513194980099797" lon="13.635385958477855">
        <ele>28.02</ele>
        <time>2024-09-15T13:56:45Z</time>
      </trkpt>
      <trkpt lat="54.512932039797306" lon="13.634352972730994">
        <ele>27.530000000000001</ele>
        <time>2024-09-15T13:56:51Z</time>
      </trkpt>
      <trkpt lat="54.512892980128527" lon="13.634177036583424">
        <ele>27.530000000000001</ele>
        <time>2024-09-15T13:56:52Z</time>
      </trkpt>
      <trkpt lat="54.512442033737898" lon="13.632512977346778">
        <ele>25.129999999999999</ele>
        <time>2024-09-15T13:57:02Z</time>
      </trkpt>
      <trkpt lat="54.51195202767849" lon="13.63073299638927">
        <ele>30.420000000000002</ele>
        <time>2024-09-15T13:57:13Z</time>
      </trkpt>
      <trkpt lat="54.51171800494194" lon="13.629891034215689">
        <ele>31.859999999999999</ele>
        <time>2024-09-15T13:57:18Z</time>
      </trkpt>
      <trkpt lat="54.511173013597727" lon="13.627754990011454">
        <ele>32.82</ele>
        <time>2024-09-15T13:57:29Z</time>
      </trkpt>
      <trkpt lat="54.511120039969683" lon="13.627129029482603">
        <ele>33.780000000000001</ele>
        <time>2024-09-15T13:57:32Z</time>
      </trkpt>
      <trkpt lat="54.511131020262837" lon="13.626926019787788">
        <ele>33.780000000000001</ele>
        <time>2024-09-15T13:57:33Z</time>
      </trkpt>
      <trkpt lat="54.511226993054152" lon="13.626042986288667">
        <ele>36.189999999999998</ele>
        <time>2024-09-15T13:57:38Z</time>
      </trkpt>
      <trkpt lat="54.511257000267506" lon="13.625888004899025">
        <ele>36.670000000000002</ele>
        <time>2024-09-15T13:57:39Z</time>
      </trkpt>
      <trkpt lat="54.511295976117253" lon="13.625736040994525">
        <ele>37.149999999999999</ele>
        <time>2024-09-15T13:57:40Z</time>
      </trkpt>
      <trkpt lat="54.511872986331582" lon="13.62385799176991">
        <ele>42.439999999999998</ele>
        <time>2024-09-15T13:57:52Z</time>
      </trkpt>
      <trkpt lat="54.511925037950277" lon="13.623692030087113">
        <ele>42.439999999999998</ele>
        <time>2024-09-15T13:57:53Z</time>
      </trkpt>
      <trkpt lat="54.512503976002336" lon="13.62183996476233">
        <ele>42.920000000000002</ele>
        <time>2024-09-15T13:58:04Z</time>
      </trkpt>
      <trkpt lat="54.513244014233351" lon="13.619457995519042">
        <ele>48.68</ele>
        <time>2024-09-15T13:58:18Z</time>
      </trkpt>
      <trkpt lat="54.51397399418056" lon="13.617109972983599">
        <ele>53.490000000000002</ele>
        <time>2024-09-15T13:58:31Z</time>
      </trkpt>
      <trkpt lat="54.514571037143469" lon="13.615125976502895">
        <ele>55.890000000000001</ele>
        <time>2024-09-15T13:58:42Z</time>
      </trkpt>
      <trkpt lat="54.514614958316088" lon="13.614959008991718">
        <ele>55.890000000000001</ele>
        <time>2024-09-15T13:58:43Z</time>
      </trkpt>
      <trkpt lat="54.514762982726097" lon="13.614079998806119">
        <ele>57.340000000000003</ele>
        <time>2024-09-15T13:58:48Z</time>
      </trkpt>
      <trkpt lat="54.514772035181522" lon="13.61369401216507">
        <ele>57.82</ele>
        <time>2024-09-15T13:58:50Z</time>
      </trkpt>
      <trkpt lat="54.514855016022921" lon="13.61115999519825">
        <ele>63.100000000000001</ele>
        <time>2024-09-15T13:59:03Z</time>
      </trkpt>
      <trkpt lat="54.514932967722416" lon="13.608285002410412">
        <ele>68.390000000000001</ele>
        <time>2024-09-15T13:59:18Z</time>
      </trkpt>
      <trkpt lat="54.514985019341111" lon="13.606890002265573">
        <ele>70.790000000000006</ele>
        <time>2024-09-15T13:59:27Z</time>
      </trkpt>
      <trkpt lat="54.514988958835602" lon="13.606809033080935">
        <ele>70.790000000000006</ele>
        <time>2024-09-15T13:59:28Z</time>
      </trkpt>
      <trkpt lat="54.515003962442279" lon="13.606480965390801">
        <ele>71.760000000000005</ele>
        <time>2024-09-15T13:59:34Z</time>
      </trkpt>
      <trkpt lat="54.515013014897704" lon="13.606422962620854">
        <ele>71.760000000000005</ele>
        <time>2024-09-15T13:59:36Z</time>
      </trkpt>
      <trkpt lat="54.515126002952456" lon="13.606123980134726">
        <ele>71.760000000000005</ele>
        <time>2024-09-15T13:59:38Z</time>
      </trkpt>
      <trkpt lat="54.51513497158885" lon="13.606128003448248">
        <ele>71.760000000000005</ele>
        <time>2024-09-15T13:59:39Z</time>
      </trkpt>
      <trkpt lat="54.515145029872656" lon="13.60613202676177">
        <ele>72.239999999999995</ele>
        <time>2024-09-15T13:59:40Z</time>
      </trkpt>
      <trkpt lat="54.515152992680669" lon="13.606135966256261">
        <ele>72.239999999999995</ele>
        <time>2024-09-15T13:59:41Z</time>
      </trkpt>
      <trkpt lat="54.515160033479333" lon="13.606138983741403">
        <ele>72.719999999999999</ele>
        <time>2024-09-15T13:59:42Z</time>
      </trkpt>
      <trkpt lat="54.515162967145443" lon="13.606139989569783">
        <ele>73.200000000000003</ele>
        <time>2024-09-15T13:59:43Z</time>
      </trkpt>
      <trkpt lat="54.515162967145443" lon="13.606139989569783">
        <ele>73.200000000000003</ele>
        <time>2024-09-15T13:59:59Z</time>
      </trkpt>
      <trkpt lat="54.515162967145443" lon="13.606139989569783">
        <ele>73.200000000000003</ele>
        <time>2024-09-15T14:00:49Z</time>
      </trkpt>
      <trkpt lat="54.515157015994191" lon="13.606136972084641">
        <ele>73.200000000000003</ele>
        <time>2024-09-15T14:00:55Z</time>
      </trkpt>
      <trkpt lat="54.515049979090691" lon="13.606177037581801">
        <ele>72.719999999999999</ele>
        <time>2024-09-15T14:00:57Z</time>
      </trkpt>
      <trkpt lat="54.515061965212226" lon="13.606094978749752">
        <ele>72.719999999999999</ele>
        <time>2024-09-15T14:00:58Z</time>
      </trkpt>
      <trkpt lat="54.515061965212226" lon="13.606094978749752">
        <ele>72.239999999999995</ele>
        <time>2024-09-15T14:00:59Z</time>
      </trkpt>
      <trkpt lat="54.514949982985854" lon="13.606073018163443">
        <ele>71.760000000000005</ele>
        <time>2024-09-15T14:01:00Z</time>
      </trkpt>
      <trkpt lat="54.514857027679682" lon="13.606054997071624">
        <ele>71.269999999999996</ele>
        <time>2024-09-15T14:01:01Z</time>
      </trkpt>
      <trkpt lat="54.514748984947801" lon="13.606033036485314">
        <ele>71.269999999999996</ele>
        <time>2024-09-15T14:01:02Z</time>
      </trkpt>
      <trkpt lat="54.514620993286371" lon="13.605991965159774">
        <ele>70.790000000000006</ele>
        <time>2024-09-15T14:01:03Z</time>
      </trkpt>
      <trkpt lat="54.514485038816929" lon="13.605921976268291">
        <ele>70.790000000000006</ele>
        <time>2024-09-15T14:01:04Z</time>
      </trkpt>
      <trkpt lat="54.513639975339174" lon="13.605186967179179">
        <ele>69.829999999999998</ele>
        <time>2024-09-15T14:01:11Z</time>
      </trkpt>
      <trkpt lat="54.512951988726854" lon="13.604252971708775">
        <ele>67.909999999999997</ele>
        <time>2024-09-15T14:01:20Z</time>
      </trkpt>
      <trkpt lat="54.51214699074626" lon="13.603216968476772">
        <ele>65.030000000000001</ele>
        <time>2024-09-15T14:01:28Z</time>
      </trkpt>
      <trkpt lat="54.511016020551324" lon="13.601778969168663">
        <ele>63.100000000000001</ele>
        <time>2024-09-15T14:01:38Z</time>
      </trkpt>
      <trkpt lat="54.509583972394466" lon="13.599919024854898">
        <ele>61.659999999999997</ele>
        <time>2024-09-15T14:01:49Z</time>
      </trkpt>
      <trkpt lat="54.508459037169814" lon="13.598147006705403">
        <ele>58.299999999999997</ele>
        <time>2024-09-15T14:01:58Z</time>
      </trkpt>
      <trkpt lat="54.507588995620608" lon="13.595935022458434">
        <ele>55.409999999999997</ele>
        <time>2024-09-15T14:02:07Z</time>
      </trkpt>
      <trkpt lat="54.506727000698447" lon="13.594490988180041">
        <ele>54.450000000000003</ele>
        <time>2024-09-15T14:02:14Z</time>
      </trkpt>
      <trkpt lat="54.505761992186308" lon="13.593024993315339">
        <ele>52.049999999999997</ele>
        <time>2024-09-15T14:02:21Z</time>
      </trkpt>
      <trkpt lat="54.504423988983035" lon="13.591080978512764">
        <ele>48.68</ele>
        <time>2024-09-15T14:02:31Z</time>
      </trkpt>
      <trkpt lat="54.503559982404113" lon="13.589771976694465">
        <ele>45.32</ele>
        <time>2024-09-15T14:02:38Z</time>
      </trkpt>
      <trkpt lat="54.502053000032902" lon="13.587774988263845">
        <ele>42.920000000000002</ele>
        <time>2024-09-15T14:02:49Z</time>
      </trkpt>
      <trkpt lat="54.501035017892718" lon="13.586630020290613">
        <ele>37.149999999999999</ele>
        <time>2024-09-15T14:02:57Z</time>
      </trkpt>
      <trkpt lat="54.50082203373313" lon="13.58638996258378">
        <ele>35.710000000000001</ele>
        <time>2024-09-15T14:03:00Z</time>
      </trkpt>
      <trkpt lat="54.500778028741479" lon="13.586341012269258">
        <ele>35.229999999999997</ele>
        <time>2024-09-15T14:03:01Z</time>
      </trkpt>
      <trkpt lat="54.500770987942815" lon="13.586332965642214">
        <ele>34.740000000000002</ele>
        <time>2024-09-15T14:03:02Z</time>
      </trkpt>
      <trkpt lat="54.500724971294403" lon="13.586405972018838">
        <ele>34.259999999999998</ele>
        <time>2024-09-15T14:03:03Z</time>
      </trkpt>
      <trkpt lat="54.50069596990943" lon="13.58645198866725">
        <ele>33.780000000000001</ele>
        <time>2024-09-15T14:03:04Z</time>
      </trkpt>
      <trkpt lat="54.500664034858346" lon="13.586503034457564">
        <ele>33.299999999999997</ele>
        <time>2024-09-15T14:03:05Z</time>
      </trkpt>
      <trkpt lat="54.500637967139482" lon="13.586544021964073">
        <ele>32.82</ele>
        <time>2024-09-15T14:03:06Z</time>
      </trkpt>
      <trkpt lat="54.500618018209934" lon="13.586576040834188">
        <ele>32.340000000000003</ele>
        <time>2024-09-15T14:03:07Z</time>
      </trkpt>
      <trkpt lat="54.500596979632974" lon="13.586608981713653">
        <ele>31.379999999999999</ele>
        <time>2024-09-15T14:03:08Z</time>
      </trkpt>
      <trkpt lat="54.500578958541155" lon="13.586637983098626">
        <ele>30.899999999999999</ele>
        <time>2024-09-15T14:03:09Z</time>
      </trkpt>
      <trkpt lat="54.500560015439987" lon="13.5866669844836">
        <ele>30.899999999999999</ele>
        <time>2024-09-15T14:03:10Z</time>
      </trkpt>
      <trkpt lat="54.500560015439987" lon="13.5866669844836">
        <ele>30.420000000000002</ele>
        <time>2024-09-15T14:03:11Z</time>
      </trkpt>
      <trkpt lat="54.500560015439987" lon="13.5866669844836">
        <ele>29.940000000000001</ele>
        <time>2024-09-15T14:03:23Z</time>
      </trkpt>
      <trkpt lat="54.500560015439987" lon="13.5866669844836">
        <ele>29.940000000000001</ele>
        <time>2024-09-15T14:04:01Z</time>
      </trkpt>
      <trkpt lat="54.500560015439987" lon="13.5866669844836">
        <ele>30.420000000000002</ele>
        <time>2024-09-15T14:04:46Z</time>
      </trkpt>
      <trkpt lat="54.500560015439987" lon="13.5866669844836">
        <ele>30.899999999999999</ele>
        <time>2024-09-15T14:05:26Z</time>
      </trkpt>
      <trkpt lat="54.500560015439987" lon="13.5866669844836">
        <ele>30.899999999999999</ele>
        <time>2024-09-15T14:05:51Z</time>
      </trkpt>
      <trkpt lat="54.500537971034646" lon="13.586703026667237">
        <ele>32.82</ele>
        <time>2024-09-15T14:06:00Z</time>
      </trkpt>
      <trkpt lat="54.500537971034646" lon="13.586703026667237">
        <ele>34.740000000000002</ele>
        <time>2024-09-15T14:06:11Z</time>
      </trkpt>
      <trkpt lat="54.500537971034646" lon="13.586703026667237">
        <ele>34.740000000000002</ele>
        <time>2024-09-15T14:06:13Z</time>
      </trkpt>
      <trkpt lat="54.500595973804593" lon="13.586610993370414">
        <ele>33.780000000000001</ele>
        <time>2024-09-15T14:06:16Z</time>
      </trkpt>
      <trkpt lat="54.50069303624332" lon="13.586457017809153">
        <ele>32.340000000000003</ele>
        <time>2024-09-15T14:06:20Z</time>
      </trkpt>
      <trkpt lat="54.500708039849997" lon="13.58643296174705">
        <ele>32.340000000000003</ele>
        <time>2024-09-15T14:06:21Z</time>
      </trkpt>
      <trkpt lat="54.500723965466022" lon="13.586255013942719">
        <ele>31.859999999999999</ele>
        <time>2024-09-15T14:06:22Z</time>
      </trkpt>
      <trkpt lat="54.500687001273036" lon="13.58619399368763">
        <ele>31.379999999999999</ele>
        <time>2024-09-15T14:06:23Z</time>
      </trkpt>
      <trkpt lat="54.500634027644992" lon="13.586104977875948">
        <ele>30.899999999999999</ele>
        <time>2024-09-15T14:06:24Z</time>
      </trkpt>
      <trkpt lat="54.50056697241962" lon="13.585994001477957">
        <ele>30.420000000000002</ele>
        <time>2024-09-15T14:06:25Z</time>
      </trkpt>
      <trkpt lat="54.500488014891744" lon="13.585863998159766">
        <ele>29.940000000000001</ele>
        <time>2024-09-15T14:06:26Z</time>
      </trkpt>
      <trkpt lat="54.499687040224671" lon="13.584538986906409">
        <ele>27.050000000000001</ele>
        <time>2024-09-15T14:06:33Z</time>
      </trkpt>
      <trkpt lat="54.498350964859128" lon="13.58232700265944">
        <ele>25.129999999999999</ele>
        <time>2024-09-15T14:06:42Z</time>
      </trkpt>
      <trkpt lat="54.496848005801439" lon="13.57994101010263">
        <ele>24.170000000000002</ele>
        <time>2024-09-15T14:06:53Z</time>
      </trkpt>
      <trkpt lat="54.495717035606503" lon="13.578969966620207">
        <ele>23.690000000000001</ele>
        <time>2024-09-15T14:07:00Z</time>
      </trkpt>
      <trkpt lat="54.49429202824831" lon="13.578506028279662">
        <ele>21.289999999999999</ele>
        <time>2024-09-15T14:07:08Z</time>
      </trkpt>
      <trkpt lat="54.493342023342848" lon="13.578623039647937">
        <ele>16.48</ele>
        <time>2024-09-15T14:07:15Z</time>
      </trkpt>
      <trkpt lat="54.49276702478528" lon="13.578786989673972">
        <ele>12.15</ele>
        <time>2024-09-15T14:07:23Z</time>
      </trkpt>
      <trkpt lat="54.491815008223057" lon="13.579086977988482">
        <ele>12.15</ele>
        <time>2024-09-15T14:07:33Z</time>
      </trkpt>
      <trkpt lat="54.491429021582007" lon="13.579115979373455">
        <ele>12.15</ele>
        <time>2024-09-15T14:07:36Z</time>
      </trkpt>
      <trkpt lat="54.489912986755371" lon="13.578879022970796">
        <ele>11.67</ele>
        <time>2024-09-15T14:07:48Z</time>
      </trkpt>
      <trkpt lat="54.488673973828554" lon="13.578235041350126">
        <ele>11.19</ele>
        <time>2024-09-15T14:07:57Z</time>
      </trkpt>
      <trkpt lat="54.487300012260675" lon="13.5771260317415">
        <ele>10.23</ele>
        <time>2024-09-15T14:08:08Z</time>
      </trkpt>
      <trkpt lat="54.487037993967533" lon="13.577001979574561">
        <ele>9.75</ele>
        <time>2024-09-15T14:08:10Z</time>
      </trkpt>
      <trkpt lat="54.486913019791245" lon="13.576953029260039">
        <ele>9.27</ele>
        <time>2024-09-15T14:08:11Z</time>
      </trkpt>
      <trkpt lat="54.486776981502771" lon="13.576932996511459">
        <ele>9.27</ele>
        <time>2024-09-15T14:08:12Z</time>
      </trkpt>
      <trkpt lat="54.486633986234665" lon="13.57691103592515">
        <ele>8.310000000000001</ele>
        <time>2024-09-15T14:08:13Z</time>
      </trkpt>
      <trkpt lat="54.486490990966558" lon="13.576894020661712">
        <ele>7.83</ele>
        <time>2024-09-15T14:08:14Z</time>
      </trkpt>
      <trkpt lat="54.48634103871882" lon="13.576926961541176">
        <ele>7.35</ele>
        <time>2024-09-15T14:08:15Z</time>
      </trkpt>
      <trkpt lat="54.48619200848043" lon="13.576959986239672">
        <ele>6.39</ele>
        <time>2024-09-15T14:08:16Z</time>
      </trkpt>
      <trkpt lat="54.485596977174282" lon="13.577103987336159">
        <ele>3.5</ele>
        <time>2024-09-15T14:08:20Z</time>
      </trkpt>
      <trkpt lat="54.48434597812593" lon="13.57762198895216">
        <ele>-3.23</ele>
        <time>2024-09-15T14:08:29Z</time>
      </trkpt>
      <trkpt lat="54.483140995725989" lon="13.578425981104374">
        <ele>-4.19</ele>
        <time>2024-09-15T14:08:40Z</time>
      </trkpt>
      <trkpt lat="54.482156960293651" lon="13.57865103520453">
        <ele>-1.3</ele>
        <time>2024-09-15T14:08:49Z</time>
      </trkpt>
      <trkpt lat="54.481398984789848" lon="13.578295977786183">
        <ele>-5.63</ele>
        <time>2024-09-15T14:08:56Z</time>
      </trkpt>
      <trkpt lat="54.480282012373209" lon="13.576979013159871">
        <ele>-7.07</ele>
        <time>2024-09-15T14:09:07Z</time>
      </trkpt>
      <trkpt lat="54.479205021634698" lon="13.575631035491824">
        <ele>-7.55</ele>
        <time>2024-09-15T14:09:18Z</time>
      </trkpt>
      <trkpt lat="54.478246970102191" lon="13.574409037828445">
        <ele>-9</ele>
        <time>2024-09-15T14:09:27Z</time>
      </trkpt>
      <trkpt lat="54.477237034589052" lon="13.572553033009171">
        <ele>-9</ele>
        <time>2024-09-15T14:09:36Z</time>
      </trkpt>
      <trkpt lat="54.476305972784758" lon="13.570221019908786">
        <ele>-9.48</ele>
        <time>2024-09-15T14:09:46Z</time>
      </trkpt>
      <trkpt lat="54.475392010062933" lon="13.568270970135927">
        <ele>-9</ele>
        <time>2024-09-15T14:09:56Z</time>
      </trkpt>
      <trkpt lat="54.474304039031267" lon="13.566917041316628">
        <ele>-7.55</ele>
        <time>2024-09-15T14:10:04Z</time>
      </trkpt>
      <trkpt lat="54.474150985479355" lon="13.566817967221141">
        <ele>-7.55</ele>
        <time>2024-09-15T14:10:05Z</time>
      </trkpt>
      <trkpt lat="54.473268035799265" lon="13.566370038315654">
        <ele>-8.51</ele>
        <time>2024-09-15T14:10:11Z</time>
      </trkpt>
      <trkpt lat="54.47182098403573" lon="13.566029984503984">
        <ele>-9</ele>
        <time>2024-09-15T14:10:20Z</time>
      </trkpt>
      <trkpt lat="54.470459008589387" lon="13.565823035314679">
        <ele>-7.55</ele>
        <time>2024-09-15T14:10:28Z</time>
      </trkpt>
      <trkpt lat="54.468197990208864" lon="13.565645003691316">
        <ele>-7.55</ele>
        <time>2024-09-15T14:10:40Z</time>
      </trkpt>
      <trkpt lat="54.46601701900363" lon="13.565475018694997">
        <ele>-8.029999999999999</ele>
        <time>2024-09-15T14:10:51Z</time>
      </trkpt>
      <trkpt lat="54.464180963113904" lon="13.565349960699677">
        <ele>-8.029999999999999</ele>
        <time>2024-09-15T14:11:01Z</time>
      </trkpt>
      <trkpt lat="54.462520005181432" lon="13.564937990158796">
        <ele>-9</ele>
        <time>2024-09-15T14:11:10Z</time>
      </trkpt>
      <trkpt lat="54.461177978664637" lon="13.564368020743132">
        <ele>-11.880000000000001</ele>
        <time>2024-09-15T14:11:18Z</time>
      </trkpt>
      <trkpt lat="54.459693040698767" lon="13.563642986118793">
        <ele>-12.359999999999999</ele>
        <time>2024-09-15T14:11:27Z</time>
      </trkpt>
      <trkpt lat="54.45836903527379" lon="13.563001016154885">
        <ele>-13.800000000000001</ele>
        <time>2024-09-15T14:11:35Z</time>
      </trkpt>
      <trkpt lat="54.45819603279233" lon="13.562943013384938">
        <ele>-14.279999999999999</ele>
        <time>2024-09-15T14:11:36Z</time>
      </trkpt>
      <trkpt lat="54.458025963976979" lon="13.562887022271752">
        <ele>-14.279999999999999</ele>
        <time>2024-09-15T14:11:37Z</time>
      </trkpt>
      <trkpt lat="54.45785597898066" lon="13.562830025330186">
        <ele>-14.76</ele>
        <time>2024-09-15T14:11:38Z</time>
      </trkpt>
      <trkpt lat="54.457685993984342" lon="13.562773028388619">
        <ele>-14.76</ele>
        <time>2024-09-15T14:11:39Z</time>
      </trkpt>
      <trkpt lat="54.455832000821829" lon="13.562155030667782">
        <ele>-14.279999999999999</ele>
        <time>2024-09-15T14:11:50Z</time>
      </trkpt>
      <trkpt lat="54.454169031232595" lon="13.561589000746608">
        <ele>-13.800000000000001</ele>
        <time>2024-09-15T14:12:00Z</time>
      </trkpt>
      <trkpt lat="54.452946027740836" lon="13.560588033869863">
        <ele>-12.84</ele>
        <time>2024-09-15T14:12:07Z</time>
      </trkpt>
      <trkpt lat="54.4517080206424" lon="13.559646997600794">
        <ele>-16.210000000000001</ele>
        <time>2024-09-15T14:12:15Z</time>
      </trkpt>
      <trkpt lat="54.451369978487492" lon="13.55955395847559">
        <ele>-17.170000000000002</ele>
        <time>2024-09-15T14:12:17Z</time>
      </trkpt>
      <trkpt lat="54.451187001541257" lon="13.55955102480948">
        <ele>-17.649999999999999</ele>
        <time>2024-09-15T14:12:18Z</time>
      </trkpt>
      <trkpt lat="54.451015004888177" lon="13.559581032022834">
        <ele>-17.649999999999999</ele>
        <time>2024-09-15T14:12:19Z</time>
      </trkpt>
      <trkpt lat="54.450848959386349" lon="13.559611039236188">
        <ele>-18.129999999999999</ele>
        <time>2024-09-15T14:12:20Z</time>
      </trkpt>
      <trkpt lat="54.450685009360313" lon="13.559641968458891">
        <ele>-18.129999999999999</ele>
        <time>2024-09-15T14:12:21Z</time>
      </trkpt>
      <trkpt lat="54.450524998828769" lon="13.559721009805799">
        <ele>-17.649999999999999</ele>
        <time>2024-09-15T14:12:22Z</time>
      </trkpt>
      <trkpt lat="54.450360964983702" lon="13.559803990647197">
        <ele>-17.649999999999999</ele>
        <time>2024-09-15T14:12:23Z</time>
      </trkpt>
      <trkpt lat="54.450173964723945" lon="13.559897029772401">
        <ele>-17.170000000000002</ele>
        <time>2024-09-15T14:12:24Z</time>
      </trkpt>
      <trkpt lat="54.449992999434471" lon="13.560082018375397">
        <ele>-17.649999999999999</ele>
        <time>2024-09-15T14:12:25Z</time>
      </trkpt>
      <trkpt lat="54.449803987517953" lon="13.560273963958025">
        <ele>-18.129999999999999</ele>
        <time>2024-09-15T14:12:26Z</time>
      </trkpt>
      <trkpt lat="54.448868986219168" lon="13.5612060315907">
        <ele>-20.530000000000001</ele>
        <time>2024-09-15T14:12:32Z</time>
      </trkpt>
      <trkpt lat="54.447397040203214" lon="13.562382012605667">
        <ele>-19.57</ele>
        <time>2024-09-15T14:12:42Z</time>
      </trkpt>
      <trkpt lat="54.446152998134494" lon="13.563080979511142">
        <ele>-15.720000000000001</ele>
        <time>2024-09-15T14:12:50Z</time>
      </trkpt>
      <trkpt lat="54.444508971646428" lon="13.563930988311768">
        <ele>-10.44</ele>
        <time>2024-09-15T14:13:01Z</time>
      </trkpt>
      <trkpt lat="54.443221008405089" lon="13.564566001296043">
        <ele>-5.15</ele>
        <time>2024-09-15T14:13:11Z</time>
      </trkpt>
      <trkpt lat="54.442593036219478" lon="13.564874036237597">
        <ele>-2.75</ele>
        <time>2024-09-15T14:13:18Z</time>
      </trkpt>
      <trkpt lat="54.442539978772402" lon="13.56490203179419">
        <ele>-2.27</ele>
        <time>2024-09-15T14:13:19Z</time>
      </trkpt>
      <trkpt lat="54.442501002922654" lon="13.564921980723739">
        <ele>-1.79</ele>
        <time>2024-09-15T14:13:20Z</time>
      </trkpt>
      <trkpt lat="54.442453980445862" lon="13.565079979598522">
        <ele>-1.3</ele>
        <time>2024-09-15T14:13:21Z</time>
      </trkpt>
      <trkpt lat="54.442475019022822" lon="13.565173018723726">
        <ele>-0.82</ele>
        <time>2024-09-15T14:13:22Z</time>
      </trkpt>
      <trkpt lat="54.442498991265893" lon="13.565280977636576">
        <ele>-0.34</ele>
        <time>2024-09-15T14:13:23Z</time>
      </trkpt>
      <trkpt lat="54.442659001797438" lon="13.565979022532701">
        <ele>0.62</ele>
        <time>2024-09-15T14:13:29Z</time>
      </trkpt>
      <trkpt lat="54.442678028717637" lon="13.566068960353732">
        <ele>0.62</ele>
        <time>2024-09-15T14:13:30Z</time>
      </trkpt>
      <trkpt lat="54.442613990977407" lon="13.566265013068914">
        <ele>0.62</ele>
        <time>2024-09-15T14:13:31Z</time>
      </trkpt>
      <trkpt lat="54.442551964893937" lon="13.566304994747043">
        <ele>0.62</ele>
        <time>2024-09-15T14:13:32Z</time>
      </trkpt>
      <trkpt lat="54.442473007366061" lon="13.566355034708977">
        <ele>0.62</ele>
        <time>2024-09-15T14:13:33Z</time>
      </trkpt>
      <trkpt lat="54.44238499738276" lon="13.566412031650543">
        <ele>1.1</ele>
        <time>2024-09-15T14:13:34Z</time>
      </trkpt>
      <trkpt lat="54.442297993227839" lon="13.566467016935349">
        <ele>1.1</ele>
        <time>2024-09-15T14:13:35Z</time>
      </trkpt>
      <trkpt lat="54.442215012386441" lon="13.566519990563393">
        <ele>1.58</ele>
        <time>2024-09-15T14:13:36Z</time>
      </trkpt>
      <trkpt lat="54.441870013251901" lon="13.566742027178407">
        <ele>2.54</ele>
        <time>2024-09-15T14:13:42Z</time>
      </trkpt>
      <trkpt lat="54.441888034343719" lon="13.566844034940004">
        <ele>2.54</ele>
        <time>2024-09-15T14:13:45Z</time>
      </trkpt>
      <trkpt lat="54.441903959959745" lon="13.566936990246177">
        <ele>2.54</ele>
        <time>2024-09-15T14:13:46Z</time>
      </trkpt>
      <trkpt lat="54.441924998536706" lon="13.567052995786071">
        <ele>2.06</ele>
        <time>2024-09-15T14:13:47Z</time>
      </trkpt>
      <trkpt lat="54.442138988524675" lon="13.56827599927783">
        <ele>3.02</ele>
        <time>2024-09-15T14:13:54Z</time>
      </trkpt>
      <trkpt lat="54.442605022341013" lon="13.570757964625955">
        <ele>2.54</ele>
        <time>2024-09-15T14:14:09Z</time>
      </trkpt>
      <trkpt lat="54.442721027880907" lon="13.571403035894036">
        <ele>1.58</ele>
        <time>2024-09-15T14:14:15Z</time>
      </trkpt>
      <trkpt lat="54.442734019830823" lon="13.571476964280009">
        <ele>1.58</ele>
        <time>2024-09-15T14:14:16Z</time>
      </trkpt>
      <trkpt lat="54.442751035094261" lon="13.571570003405213">
        <ele>0.62</ele>
        <time>2024-09-15T14:14:24Z</time>
      </trkpt>
      <trkpt lat="54.442834015935659" lon="13.5720369592309">
        <ele>0.62</ele>
        <time>2024-09-15T14:14:30Z</time>
      </trkpt>
      <trkpt lat="54.442914985120296" lon="13.572490001097322">
        <ele>1.58</ele>
        <time>2024-09-15T14:14:35Z</time>
      </trkpt>
      <trkpt lat="54.44292102009058" lon="13.572522019967437">
        <ele>2.06</ele>
        <time>2024-09-15T14:14:36Z</time>
      </trkpt>
      <trkpt lat="54.442967036738992" lon="13.572631990537047">
        <ele>2.06</ele>
        <time>2024-09-15T14:14:37Z</time>
      </trkpt>
      <trkpt lat="54.442996960133314" lon="13.572617992758751">
        <ele>2.06</ele>
        <time>2024-09-15T14:14:38Z</time>
      </trkpt>
      <trkpt lat="54.443036019802094" lon="13.572599971666932">
        <ele>2.06</ele>
        <time>2024-09-15T14:14:39Z</time>
      </trkpt>
      <trkpt lat="54.443085975944996" lon="13.572577005252242">
        <ele>2.06</ele>
        <time>2024-09-15T14:14:40Z</time>
      </trkpt>
      <trkpt lat="54.443141967058182" lon="13.57255102135241">
        <ele>2.06</ele>
        <time>2024-09-15T14:14:41Z</time>
      </trkpt>
      <trkpt lat="54.443292003124952" lon="13.572482038289309">
        <ele>1.58</ele>
        <time>2024-09-15T14:14:44Z</time>
      </trkpt>
      <trkpt lat="54.443352017551661" lon="13.572453958913684">
        <ele>1.58</ele>
        <time>2024-09-15T14:14:46Z</time>
      </trkpt>
      <trkpt lat="54.443371966481209" lon="13.57244499027729">
        <ele>1.58</ele>
        <time>2024-09-15T14:14:47Z</time>
      </trkpt>
      <trkpt lat="54.443371966481209" lon="13.57244499027729">
        <ele>2.06</ele>
        <time>2024-09-15T14:14:57Z</time>
      </trkpt>
      <trkpt lat="54.443371966481209" lon="13.57244499027729">
        <ele>2.06</ele>
        <time>2024-09-15T14:15:38Z</time>
      </trkpt>
      <trkpt lat="54.443371966481209" lon="13.57244499027729">
        <ele>2.06</ele>
        <time>2024-09-15T14:16:07Z</time>
      </trkpt>
      <trkpt lat="54.443403985351324" lon="13.572429986670613">
        <ele>2.54</ele>
        <time>2024-09-15T14:16:08Z</time>
      </trkpt>
      <trkpt lat="54.443425023928285" lon="13.57242101803422">
        <ele>2.54</ele>
        <time>2024-09-15T14:16:09Z</time>
      </trkpt>
      <trkpt lat="54.443419994786382" lon="13.572423029690981">
        <ele>2.54</ele>
        <time>2024-09-15T14:16:11Z</time>
      </trkpt>
      <trkpt lat="54.443390993401408" lon="13.572436021640897">
        <ele>2.54</ele>
        <time>2024-09-15T14:16:12Z</time>
      </trkpt>
      <trkpt lat="54.443350005894899" lon="13.572454964742064">
        <ele>2.54</ele>
        <time>2024-09-15T14:16:13Z</time>
      </trkpt>
      <trkpt lat="54.443299965932965" lon="13.572478014975786">
        <ele>2.54</ele>
        <time>2024-09-15T14:16:14Z</time>
      </trkpt>
      <trkpt lat="54.443251015618443" lon="13.572500981390476">
        <ele>2.54</ele>
        <time>2024-09-15T14:16:15Z</time>
      </trkpt>
      <trkpt lat="54.443156970664859" lon="13.572543980553746">
        <ele>2.06</ele>
        <time>2024-09-15T14:16:17Z</time>
      </trkpt>
      <trkpt lat="54.442945998162031" lon="13.57265898026526">
        <ele>-1.3</ele>
        <time>2024-09-15T14:16:23Z</time>
      </trkpt>
      <trkpt lat="54.442953038960695" lon="13.572698039934039">
        <ele>-1.79</ele>
        <time>2024-09-15T14:16:24Z</time>
      </trkpt>
      <trkpt lat="54.442961001768708" lon="13.572742966935039">
        <ele>-2.27</ele>
        <time>2024-09-15T14:16:25Z</time>
      </trkpt>
      <trkpt lat="54.442969970405102" lon="13.572794012725353">
        <ele>-3.23</ele>
        <time>2024-09-15T14:16:26Z</time>
      </trkpt>
      <trkpt lat="54.443025039508939" lon="13.572857966646552">
        <ele>-3.71</ele>
        <time>2024-09-15T14:16:27Z</time>
      </trkpt>
      <trkpt lat="54.443062003701925" lon="13.572837011888623">
        <ele>-4.19</ele>
        <time>2024-09-15T14:16:28Z</time>
      </trkpt>
      <trkpt lat="54.443099973723292" lon="13.572815973311663">
        <ele>-4.67</ele>
        <time>2024-09-15T14:16:29Z</time>
      </trkpt>
      <trkpt lat="54.443139033392072" lon="13.572795018553734">
        <ele>-5.15</ele>
        <time>2024-09-15T14:16:30Z</time>
      </trkpt>
      <trkpt lat="54.443183960393071" lon="13.572770962491632">
        <ele>-5.63</ele>
        <time>2024-09-15T14:16:31Z</time>
      </trkpt>
      <trkpt lat="54.443237017840147" lon="13.572742966935039">
        <ele>-6.11</ele>
        <time>2024-09-15T14:16:32Z</time>
      </trkpt>
      <trkpt lat="54.443685030564666" lon="13.572510033845901">
        <ele>-8.029999999999999</ele>
        <time>2024-09-15T14:16:39Z</time>
      </trkpt>
      <trkpt lat="54.443733980879188" lon="13.572484971955419">
        <ele>-8.51</ele>
        <time>2024-09-15T14:16:40Z</time>
      </trkpt>
      <trkpt lat="54.443795001134276" lon="13.572391010820866">
        <ele>-8.029999999999999</ele>
        <time>2024-09-15T14:16:41Z</time>
      </trkpt>
      <trkpt lat="54.443785026669502" lon="13.572306018322706">
        <ele>-8.029999999999999</ele>
        <time>2024-09-15T14:16:42Z</time>
      </trkpt>
      <trkpt lat="54.443776980042458" lon="13.572227982804179">
        <ele>-8.029999999999999</ele>
        <time>2024-09-15T14:16:43Z</time>
      </trkpt>
      <trkpt lat="54.443771028891206" lon="13.572156988084316">
        <ele>-7.55</ele>
        <time>2024-09-15T14:16:44Z</time>
      </trkpt>
      <trkpt lat="54.443764993920922" lon="13.57209999114275">
        <ele>-7.55</ele>
        <time>2024-09-15T14:16:45Z</time>
      </trkpt>
      <trkpt lat="54.443625016137958" lon="13.571405969560146">
        <ele>-5.63</ele>
        <time>2024-09-15T14:16:53Z</time>
      </trkpt>
      <trkpt lat="54.443534994497895" lon="13.570957034826279">
        <ele>-5.15</ele>
        <time>2024-09-15T14:16:57Z</time>
      </trkpt>
      <trkpt lat="54.443242968991399" lon="13.569430019706488">
        <ele>-2.75</ele>
        <time>2024-09-15T14:17:07Z</time>
      </trkpt>
      <trkpt lat="54.443130986765027" lon="13.568846974521875">
        <ele>-0.34</ele>
        <time>2024-09-15T14:17:12Z</time>
      </trkpt>
      <trkpt lat="54.443099973723292" lon="13.568766005337238">
        <ele>0.14</ele>
        <time>2024-09-15T14:17:13Z</time>
      </trkpt>
      <trkpt lat="54.443053035065532" lon="13.568789977580309">
        <ele>0.14</ele>
        <time>2024-09-15T14:17:14Z</time>
      </trkpt>
      <trkpt lat="54.442991008982062" lon="13.568823002278805">
        <ele>0.14</ele>
        <time>2024-09-15T14:17:15Z</time>
      </trkpt>
      <trkpt lat="54.442912973463535" lon="13.568861978128552">
        <ele>0.14</ele>
        <time>2024-09-15T14:17:16Z</time>
      </trkpt>
      <trkpt lat="54.442829992622137" lon="13.568904977291822">
        <ele>0.62</ele>
        <time>2024-09-15T14:17:17Z</time>
      </trkpt>
      <trkpt lat="54.442746005952358" lon="13.568947976455092">
        <ele>0.62</ele>
        <time>2024-09-15T14:17:18Z</time>
      </trkpt>
      <trkpt lat="54.442378962412477" lon="13.56913598254323">
        <ele>0.62</ele>
        <time>2024-09-15T14:17:23Z</time>
      </trkpt>
      <trkpt lat="54.442320959642529" lon="13.569166995584965">
        <ele>0.62</ele>
        <time>2024-09-15T14:17:24Z</time>
      </trkpt>
      <trkpt lat="54.442300004884601" lon="13.569063981994987">
        <ele>0.62</ele>
        <time>2024-09-15T14:17:25Z</time>
      </trkpt>
      <trkpt lat="54.442286007106304" lon="13.568994998931885">
        <ele>0.62</ele>
        <time>2024-09-15T14:17:26Z</time>
      </trkpt>
      <trkpt lat="54.442266980186105" lon="13.568901037797332">
        <ele>0.62</ele>
        <time>2024-09-15T14:17:27Z</time>
      </trkpt>
      <trkpt lat="54.442243007943034" lon="13.568784026429057">
        <ele>0.62</ele>
        <time>2024-09-15T14:17:28Z</time>
      </trkpt>
      <trkpt lat="54.441979983821511" lon="13.567365976050496">
        <ele>2.54</ele>
        <time>2024-09-15T14:17:37Z</time>
      </trkpt>
      <trkpt lat="54.441905971616507" lon="13.566947970539331">
        <ele>3.98</ele>
        <time>2024-09-15T14:17:43Z</time>
      </trkpt>
      <trkpt lat="54.441885016858578" lon="13.566828025504947">
        <ele>4.94</ele>
        <time>2024-09-15T14:17:52Z</time>
      </trkpt>
      <trkpt lat="54.441881999373436" lon="13.566808998584747">
        <ele>4.94</ele>
        <time>2024-09-15T14:17:53Z</time>
      </trkpt>
      <trkpt lat="54.441821984946728" lon="13.566777985543013">
        <ele>5.42</ele>
        <time>2024-09-15T14:17:54Z</time>
      </trkpt>
      <trkpt lat="54.441763982176781" lon="13.566817967221141">
        <ele>5.42</ele>
        <time>2024-09-15T14:17:55Z</time>
      </trkpt>
      <trkpt lat="54.441693993285298" lon="13.56685702688992">
        <ele>5.42</ele>
        <time>2024-09-15T14:17:56Z</time>
      </trkpt>
      <trkpt lat="54.441612018272281" lon="13.5669029597193">
        <ele>5.42</ele>
        <time>2024-09-15T14:17:57Z</time>
      </trkpt>
      <trkpt lat="54.441124023869634" lon="13.567160032689571">
        <ele>4.46</ele>
        <time>2024-09-15T14:18:02Z</time>
      </trkpt>
      <trkpt lat="54.44090198725462" lon="13.567276960238814">
        <ele>3.98</ele>
        <time>2024-09-15T14:18:04Z</time>
      </trkpt>
      <trkpt lat="54.439553003758192" lon="13.56799797154963">
        <ele>2.54</ele>
        <time>2024-09-15T14:18:16Z</time>
      </trkpt>
      <trkpt lat="54.43802397698164" lon="13.568833982571959">
        <ele>4.46</ele>
        <time>2024-09-15T14:18:29Z</time>
      </trkpt>
      <trkpt lat="54.437149995937943" lon="13.569390960037708">
        <ele>8.310000000000001</ele>
        <time>2024-09-15T14:18:37Z</time>
      </trkpt>
      <trkpt lat="54.437042037025094" lon="13.569470001384616">
        <ele>8.789999999999999</ele>
        <time>2024-09-15T14:18:38Z</time>
      </trkpt>
      <trkpt lat="54.436430996283889" lon="13.569988003000617">
        <ele>11.19</ele>
        <time>2024-09-15T14:18:44Z</time>
      </trkpt>
      <trkpt lat="54.436377016827464" lon="13.570047011598945">
        <ele>11.67</ele>
        <time>2024-09-15T14:18:45Z</time>
      </trkpt>
      <trkpt lat="54.436323959380388" lon="13.570232000201941">
        <ele>11.67</ele>
        <time>2024-09-15T14:18:46Z</time>
      </trkpt>
      <trkpt lat="54.436291018500924" lon="13.570346999913454">
        <ele>11.19</ele>
        <time>2024-09-15T14:18:47Z</time>
      </trkpt>
      <trkpt lat="54.436274003237486" lon="13.570558978244662">
        <ele>11.19</ele>
        <time>2024-09-15T14:18:48Z</time>
      </trkpt>
      <trkpt lat="54.436257993802428" lon="13.570758970454335">
        <ele>10.710000000000001</ele>
        <time>2024-09-15T14:18:49Z</time>
      </trkpt>
      <trkpt lat="54.436194961890578" lon="13.57096298597753">
        <ele>10.710000000000001</ele>
        <time>2024-09-15T14:18:50Z</time>
      </trkpt>
      <trkpt lat="54.436108963564038" lon="13.571045966818929">
        <ele>11.19</ele>
        <time>2024-09-15T14:18:51Z</time>
      </trkpt>
      <trkpt lat="54.436018019914627" lon="13.571103969588876">
        <ele>11.67</ele>
        <time>2024-09-15T14:18:52Z</time>
      </trkpt>
      <trkpt lat="54.435050999745727" lon="13.571739988401532">
        <ele>13.119999999999999</ele>
        <time>2024-09-15T14:19:01Z</time>
      </trkpt>
      <trkpt lat="54.434227980673313" lon="13.57233602553606">
        <ele>12.630000000000001</ele>
        <time>2024-09-15T14:19:09Z</time>
      </trkpt>
      <trkpt lat="54.434126978740096" lon="13.572410037741065">
        <ele>12.15</ele>
        <time>2024-09-15T14:19:10Z</time>
      </trkpt>
      <trkpt lat="54.434028994292021" lon="13.572482038289309">
        <ele>12.15</ele>
        <time>2024-09-15T14:19:11Z</time>
      </trkpt>
      <trkpt lat="54.433443015441298" lon="13.572918986901641">
        <ele>12.15</ele>
        <time>2024-09-15T14:19:17Z</time>
      </trkpt>
      <trkpt lat="54.433337990194559" lon="13.572997022420168">
        <ele>11.67</ele>
        <time>2024-09-15T14:19:18Z</time>
      </trkpt>
      <trkpt lat="54.432292012497783" lon="13.573785005137324">
        <ele>11.19</ele>
        <time>2024-09-15T14:19:27Z</time>
      </trkpt>
      <trkpt lat="54.430846972391009" lon="13.57487197034061">
        <ele>12.630000000000001</ele>
        <time>2024-09-15T14:19:39Z</time>
      </trkpt>
      <trkpt lat="54.429187020286918" lon="13.576188012957573">
        <ele>10.710000000000001</ele>
        <time>2024-09-15T14:19:53Z</time>
      </trkpt>
      <trkpt lat="54.427789002656937" lon="13.577444041147828">
        <ele>10.23</ele>
        <time>2024-09-15T14:20:05Z</time>
      </trkpt>
      <trkpt lat="54.426322001963854" lon="13.578873993828893">
        <ele>9.75</ele>
        <time>2024-09-15T14:20:16Z</time>
      </trkpt>
      <trkpt lat="54.424764979630709" lon="13.580467980355024">
        <ele>10.23</ele>
        <time>2024-09-15T14:20:28Z</time>
      </trkpt>
      <trkpt lat="54.423195971176028" lon="13.582123992964625">
        <ele>10.710000000000001</ele>
        <time>2024-09-15T14:20:39Z</time>
      </trkpt>
      <trkpt lat="54.42111399024725" lon="13.584319967776537">
        <ele>9.27</ele>
        <time>2024-09-15T14:20:53Z</time>
      </trkpt>
      <trkpt lat="54.419075008481741" lon="13.58636699616909">
        <ele>9.27</ele>
        <time>2024-09-15T14:21:07Z</time>
      </trkpt>
      <trkpt lat="54.418932013213634" lon="13.586483001708984">
        <ele>9.27</ele>
        <time>2024-09-15T14:21:08Z</time>
      </trkpt>
      <trkpt lat="54.418606963008642" lon="13.586560031399131">
        <ele>9.27</ele>
        <time>2024-09-15T14:21:10Z</time>
      </trkpt>
      <trkpt lat="54.418433960527182" lon="13.586635971441865">
        <ele>9.27</ele>
        <time>2024-09-15T14:21:11Z</time>
      </trkpt>
      <trkpt lat="54.418283002451062" lon="13.586783995851874">
        <ele>8.789999999999999</ele>
        <time>2024-09-15T14:21:12Z</time>
      </trkpt>
      <trkpt lat="54.418133972212672" lon="13.586930008605123">
        <ele>8.789999999999999</ele>
        <time>2024-09-15T14:21:13Z</time>
      </trkpt>
      <trkpt lat="54.417989971116185" lon="13.587070992216468">
        <ele>8.310000000000001</ele>
        <time>2024-09-15T14:21:14Z</time>
      </trkpt>
      <trkpt lat="54.417076008394361" lon="13.587990989908576">
        <ele>7.83</ele>
        <time>2024-09-15T14:21:22Z</time>
      </trkpt>
      <trkpt lat="54.41668801009655" lon="13.588430033996701">
        <ele>7.35</ele>
        <time>2024-09-15T14:21:28Z</time>
      </trkpt>
      <trkpt lat="54.416649034246802" lon="13.588473033159971">
        <ele>6.87</ele>
        <time>2024-09-15T14:21:29Z</time>
      </trkpt>
      <trkpt lat="54.416608968749642" lon="13.588517960160971">
        <ele>6.87</ele>
        <time>2024-09-15T14:21:30Z</time>
      </trkpt>
      <trkpt lat="54.416126003488898" lon="13.589031016454101">
        <ele>5.91</ele>
        <time>2024-09-15T14:21:39Z</time>
      </trkpt>
      <trkpt lat="54.415687965229154" lon="13.589494032785296">
        <ele>6.39</ele>
        <time>2024-09-15T14:21:46Z</time>
      </trkpt>
      <trkpt lat="54.415628034621477" lon="13.589558992534876">
        <ele>6.87</ele>
        <time>2024-09-15T14:21:47Z</time>
      </trkpt>
      <trkpt lat="54.415200976654887" lon="13.590013962239027">
        <ele>7.35</ele>
        <time>2024-09-15T14:21:54Z</time>
      </trkpt>
      <trkpt lat="54.415153032168746" lon="13.590064002200961">
        <ele>7.83</ele>
        <time>2024-09-15T14:21:55Z</time>
      </trkpt>
      <trkpt lat="54.415091006085277" lon="13.590130973607302">
        <ele>7.83</ele>
        <time>2024-09-15T14:21:56Z</time>
      </trkpt>
      <trkpt lat="54.415044989436865" lon="13.589984960854053">
        <ele>7.83</ele>
        <time>2024-09-15T14:21:57Z</time>
      </trkpt>
      <trkpt lat="54.415027974173427" lon="13.589929975569248">
        <ele>7.83</ele>
        <time>2024-09-15T14:21:58Z</time>
      </trkpt>
      <trkpt lat="54.415011964738369" lon="13.589878007769585">
        <ele>7.35</ele>
        <time>2024-09-15T14:21:59Z</time>
      </trkpt>
      <trkpt lat="54.414982963353395" lon="13.589787986129522">
        <ele>7.35</ele>
        <time>2024-09-15T14:22:00Z</time>
      </trkpt>
      <trkpt lat="54.414972988888621" lon="13.589757978916168">
        <ele>7.83</ele>
        <time>2024-09-15T14:22:01Z</time>
      </trkpt>
      <trkpt lat="54.414923032745719" lon="13.589614983648062">
        <ele>8.310000000000001</ele>
        <time>2024-09-15T14:22:10Z</time>
      </trkpt>
      <trkpt lat="54.414826976135373" lon="13.589453967288136">
        <ele>8.789999999999999</ele>
        <time>2024-09-15T14:22:12Z</time>
      </trkpt>
      <trkpt lat="54.414779031649232" lon="13.589509958401322">
        <ele>8.789999999999999</ele>
        <time>2024-09-15T14:22:13Z</time>
      </trkpt>
      <trkpt lat="54.414704013615847" lon="13.589596962556243">
        <ele>8.789999999999999</ele>
        <time>2024-09-15T14:22:14Z</time>
      </trkpt>
      <trkpt lat="54.414614997804165" lon="13.589698970317841">
        <ele>8.789999999999999</ele>
        <time>2024-09-15T14:22:15Z</time>
      </trkpt>
      <trkpt lat="54.41451801918447" lon="13.589807013049722">
        <ele>8.310000000000001</ele>
        <time>2024-09-15T14:22:16Z</time>
      </trkpt>
      <trkpt lat="54.414412993937731" lon="13.589920001104474">
        <ele>8.310000000000001</ele>
        <time>2024-09-15T14:22:17Z</time>
      </trkpt>
      <trkpt lat="54.413237012922764" lon="13.59120100736618">
        <ele>6.39</ele>
        <time>2024-09-15T14:22:26Z</time>
      </trkpt>
      <trkpt lat="54.411953995004296" lon="13.592542028054595">
        <ele>6.39</ele>
        <time>2024-09-15T14:22:35Z</time>
      </trkpt>
      <trkpt lat="54.410615991801023" lon="13.593939039856195">
        <ele>6.39</ele>
        <time>2024-09-15T14:22:44Z</time>
      </trkpt>
      <trkpt lat="54.409286035224795" lon="13.595344014465809">
        <ele>5.91</ele>
        <time>2024-09-15T14:22:53Z</time>
      </trkpt>
      <trkpt lat="54.408168978989124" lon="13.59642100520432">
        <ele>7.83</ele>
        <time>2024-09-15T14:23:00Z</time>
      </trkpt>
      <trkpt lat="54.406756963580847" lon="13.597724977880716">
        <ele>10.23</ele>
        <time>2024-09-15T14:23:09Z</time>
      </trkpt>
      <trkpt lat="54.405574025586247" lon="13.598957033827901">
        <ele>9.75</ele>
        <time>2024-09-15T14:23:18Z</time>
      </trkpt>
      <trkpt lat="54.405114026740193" lon="13.599442010745406">
        <ele>9.27</ele>
        <time>2024-09-15T14:23:23Z</time>
      </trkpt>
      <trkpt lat="54.40495602786541" lon="13.59960000962019">
        <ele>9.27</ele>
        <time>2024-09-15T14:23:25Z</time>
      </trkpt>
      <trkpt lat="54.404877992346883" lon="13.599678967148066">
        <ele>9.27</ele>
        <time>2024-09-15T14:23:26Z</time>
      </trkpt>
      <trkpt lat="54.404800040647388" lon="13.599763037636876">
        <ele>8.789999999999999</ele>
        <time>2024-09-15T14:23:27Z</time>
      </trkpt>
      <trkpt lat="54.40424800850451" lon="13.600345999002457">
        <ele>8.789999999999999</ele>
        <time>2024-09-15T14:23:33Z</time>
      </trkpt>
      <trkpt lat="54.403567984700203" lon="13.601116966456175">
        <ele>7.35</ele>
        <time>2024-09-15T14:23:40Z</time>
      </trkpt>
      <trkpt lat="54.402969013899565" lon="13.602203009650111">
        <ele>6.39</ele>
        <time>2024-09-15T14:23:49Z</time>
      </trkpt>
      <trkpt lat="54.402860971167684" lon="13.602443989366293">
        <ele>6.39</ele>
        <time>2024-09-15T14:23:51Z</time>
      </trkpt>
      <trkpt lat="54.402825012803078" lon="13.602563012391329">
        <ele>6.39</ele>
        <time>2024-09-15T14:23:52Z</time>
      </trkpt>
      <trkpt lat="54.402344981208444" lon="13.604014003649354">
        <ele>4.46</ele>
        <time>2024-09-15T14:24:03Z</time>
      </trkpt>
      <trkpt lat="54.402088997885585" lon="13.604880021885037">
        <ele>4.46</ele>
        <time>2024-09-15T14:24:11Z</time>
      </trkpt>
      <trkpt lat="54.402072988450527" lon="13.604967026039958">
        <ele>4.46</ele>
        <time>2024-09-15T14:24:12Z</time>
      </trkpt>
      <trkpt lat="54.40205798484385" lon="13.605052018538117">
        <ele>4.46</ele>
        <time>2024-09-15T14:24:13Z</time>
      </trkpt>
      <trkpt lat="54.402043987065554" lon="13.605129970237613">
        <ele>4.46</ele>
        <time>2024-09-15T14:24:14Z</time>
      </trkpt>
      <trkpt lat="54.401980033144355" lon="13.60518503934145">
        <ele>4.46</ele>
        <time>2024-09-15T14:24:15Z</time>
      </trkpt>
      <trkpt lat="54.401880959048867" lon="13.605325017124414">
        <ele>4.46</ele>
        <time>2024-09-15T14:24:17Z</time>
      </trkpt>
      <trkpt lat="54.401872996240854" lon="13.605366004630923">
        <ele>4.46</ele>
        <time>2024-09-15T14:24:18Z</time>
      </trkpt>
      <trkpt lat="54.401914989575744" lon="13.605507994070649">
        <ele>4.46</ele>
        <time>2024-09-15T14:24:19Z</time>
      </trkpt>
      <trkpt lat="54.401895962655544" lon="13.605653000995517">
        <ele>4.46</ele>
        <time>2024-09-15T14:24:20Z</time>
      </trkpt>
      <trkpt lat="54.401858998462558" lon="13.605717960745096">
        <ele>3.98</ele>
        <time>2024-09-15T14:24:21Z</time>
      </trkpt>
      <trkpt lat="54.401814993470907" lon="13.605793984606862">
        <ele>3.98</ele>
        <time>2024-09-15T14:24:22Z</time>
      </trkpt>
      <trkpt lat="54.401766965165734" lon="13.605877971276641">
        <ele>3.98</ele>
        <time>2024-09-15T14:24:23Z</time>
      </trkpt>
      <trkpt lat="54.401719020679593" lon="13.605962041765451">
        <ele>3.98</ele>
        <time>2024-09-15T14:24:24Z</time>
      </trkpt>
      <trkpt lat="54.401400005444884" lon="13.606551038101315">
        <ele>3.5</ele>
        <time>2024-09-15T14:24:31Z</time>
      </trkpt>
      <trkpt lat="54.401358012109995" lon="13.606632007285953">
        <ele>3.5</ele>
        <time>2024-09-15T14:24:32Z</time>
      </trkpt>
      <trkpt lat="54.401194984093308" lon="13.607008019462228">
        <ele>3.98</ele>
        <time>2024-09-15T14:24:36Z</time>
      </trkpt>
      <trkpt lat="54.401158019900322" lon="13.607093011960387">
        <ele>3.98</ele>
        <time>2024-09-15T14:24:37Z</time>
      </trkpt>
      <trkpt lat="54.400951992720366" lon="13.60757396556437">
        <ele>3.5</ele>
        <time>2024-09-15T14:24:44Z</time>
      </trkpt>
      <trkpt lat="54.400662984699011" lon="13.608266981318593">
        <ele>2.06</ele>
        <time>2024-09-15T14:24:53Z</time>
      </trkpt>
      <trkpt lat="54.400592995807528" lon="13.608434032648802">
        <ele>1.58</ele>
        <time>2024-09-15T14:24:55Z</time>
      </trkpt>
      <trkpt lat="54.400491993874311" lon="13.608679035678506">
        <ele>2.06</ele>
        <time>2024-09-15T14:24:58Z</time>
      </trkpt>
      <trkpt lat="54.400327960029244" lon="13.609088994562626">
        <ele>1.58</ele>
        <time>2024-09-15T14:25:03Z</time>
      </trkpt>
      <trkpt lat="54.400292001664639" lon="13.609178010374308">
        <ele>1.58</ele>
        <time>2024-09-15T14:25:04Z</time>
      </trkpt>
      <trkpt lat="54.400132996961474" lon="13.609531978145242">
        <ele>1.58</ele>
        <time>2024-09-15T14:25:08Z</time>
      </trkpt>
      <trkpt lat="54.400063008069992" lon="13.609672039747238">
        <ele>1.58</ele>
        <time>2024-09-15T14:25:10Z</time>
      </trkpt>
      <trkpt lat="54.400027971714735" lon="13.609743034467101">
        <ele>1.58</ele>
        <time>2024-09-15T14:25:11Z</time>
      </trkpt>
      <trkpt lat="54.399980027228594" lon="13.609830960631371">
        <ele>1.58</ele>
        <time>2024-09-15T14:25:12Z</time>
      </trkpt>
      <trkpt lat="54.399922024458647" lon="13.609851999208331">
        <ele>2.06</ele>
        <time>2024-09-15T14:25:13Z</time>
      </trkpt>
      <trkpt lat="54.399861004203558" lon="13.609874965623021">
        <ele>2.54</ele>
        <time>2024-09-15T14:25:14Z</time>
      </trkpt>
      <trkpt lat="54.399799983948469" lon="13.609897010028362">
        <ele>2.54</ele>
        <time>2024-09-15T14:25:15Z</time>
      </trkpt>
      <trkpt lat="54.399594040587544" lon="13.609974039718509">
        <ele>3.02</ele>
        <time>2024-09-15T14:25:19Z</time>
      </trkpt>
      <trkpt lat="54.399541988968849" lon="13.609992982819676">
        <ele>3.5</ele>
        <time>2024-09-15T14:25:20Z</time>
      </trkpt>
      <trkpt lat="54.399495972320437" lon="13.610009998083115">
        <ele>3.5</ele>
        <time>2024-09-15T14:25:21Z</time>
      </trkpt>
      <trkpt lat="54.399451967328787" lon="13.610026007518172">
        <ele>3.98</ele>
        <time>2024-09-15T14:25:22Z</time>
      </trkpt>
      <trkpt lat="54.399405028671026" lon="13.610044028609991">
        <ele>3.98</ele>
        <time>2024-09-15T14:25:23Z</time>
      </trkpt>
      <trkpt lat="54.399360017850995" lon="13.610063977539539">
        <ele>3.98</ele>
        <time>2024-09-15T14:25:24Z</time>
      </trkpt>
      <trkpt lat="54.399314001202583" lon="13.61008602194488">
        <ele>3.98</ele>
        <time>2024-09-15T14:25:25Z</time>
      </trkpt>
      <trkpt lat="54.39926496706903" lon="13.61010798253119">
        <ele>3.5</ele>
        <time>2024-09-15T14:25:26Z</time>
      </trkpt>
      <trkpt lat="54.399162959307432" lon="13.610155005007982">
        <ele>3.02</ele>
        <time>2024-09-15T14:25:28Z</time>
      </trkpt>
      <trkpt lat="54.399108979851007" lon="13.61017202027142">
        <ele>2.54</ele>
        <time>2024-09-15T14:25:29Z</time>
      </trkpt>
      <trkpt lat="54.399058017879725" lon="13.61017202027142">
        <ele>2.54</ele>
        <time>2024-09-15T14:25:30Z</time>
      </trkpt>
      <trkpt lat="54.399008983746171" lon="13.61017202027142">
        <ele>2.06</ele>
        <time>2024-09-15T14:25:31Z</time>
      </trkpt>
      <trkpt lat="54.398975959047675" lon="13.61017202027142">
        <ele>2.06</ele>
        <time>2024-09-15T14:25:32Z</time>
      </trkpt>
      <trkpt lat="54.398927008733153" lon="13.610142013058066">
        <ele>2.06</ele>
        <time>2024-09-15T14:25:33Z</time>
      </trkpt>
      <trkpt lat="54.398895995691419" lon="13.610122986137867">
        <ele>1.58</ele>
        <time>2024-09-15T14:25:34Z</time>
      </trkpt>
      <trkpt lat="54.398873029276729" lon="13.61010798253119">
        <ele>1.58</ele>
        <time>2024-09-15T14:25:35Z</time>
      </trkpt>
      <trkpt lat="54.398857019841671" lon="13.610098008066416">
        <ele>1.58</ele>
        <time>2024-09-15T14:25:36Z</time>
      </trkpt>
      <trkpt lat="54.398808991536498" lon="13.610204039141536">
        <ele>1.58</ele>
        <time>2024-09-15T14:25:43Z</time>
      </trkpt>
      <trkpt lat="54.398811003193259" lon="13.610271010547876">
        <ele>1.58</ele>
        <time>2024-09-15T14:25:44Z</time>
      </trkpt>
      <trkpt lat="54.398814020678401" lon="13.610348040238023">
        <ele>1.58</ele>
        <time>2024-09-15T14:25:45Z</time>
      </trkpt>
      <trkpt lat="54.398841010406613" lon="13.611147003248334">
        <ele>1.1</ele>
        <time>2024-09-15T14:25:54Z</time>
      </trkpt>
      <trkpt lat="54.398844027891755" lon="13.611236019060016">
        <ele>0.62</ele>
        <time>2024-09-15T14:25:55Z</time>
      </trkpt>
      <trkpt lat="54.398852996528149" lon="13.611507005989552">
        <ele>0.62</ele>
        <time>2024-09-15T14:25:58Z</time>
      </trkpt>
      <trkpt lat="54.39885601401329" lon="13.611596021801233">
        <ele>0.62</ele>
        <time>2024-09-15T14:25:59Z</time>
      </trkpt>
      <trkpt lat="54.39887898042798" lon="13.612272022292018">
        <ele>0.14</ele>
        <time>2024-09-15T14:26:06Z</time>
      </trkpt>
      <trkpt lat="54.398914016783237" lon="13.61328698694706">
        <ele>3.02</ele>
        <time>2024-09-15T14:26:17Z</time>
      </trkpt>
      <trkpt lat="54.398917034268379" lon="13.613381031900644">
        <ele>3.02</ele>
        <time>2024-09-15T14:26:18Z</time>
      </trkpt>
      <trkpt lat="54.398919967934489" lon="13.613470969721675">
        <ele>3.5</ele>
        <time>2024-09-15T14:26:19Z</time>
      </trkpt>
      <trkpt lat="54.398922985419631" lon="13.613557973876595">
        <ele>3.5</ele>
        <time>2024-09-15T14:26:20Z</time>
      </trkpt>
      <trkpt lat="54.398926002904773" lon="13.613650007173419">
        <ele>3.02</ele>
        <time>2024-09-15T14:26:21Z</time>
      </trkpt>
      <trkpt lat="54.398929020389915" lon="13.613744974136353">
        <ele>3.02</ele>
        <time>2024-09-15T14:26:22Z</time>
      </trkpt>
      <trkpt lat="54.39894201233983" lon="13.614128027111292">
        <ele>1.58</ele>
        <time>2024-09-15T14:26:26Z</time>
      </trkpt>
      <trkpt lat="54.398945029824972" lon="13.614217964932323">
        <ele>1.58</ele>
        <time>2024-09-15T14:26:27Z</time>
      </trkpt>
      <trkpt lat="54.398948969319463" lon="13.614315027371049">
        <ele>0.62</ele>
        <time>2024-09-15T14:26:28Z</time>
      </trkpt>
      <trkpt lat="54.398951986804605" lon="13.614406976848841">
        <ele>0.14</ele>
        <time>2024-09-15T14:26:29Z</time>
      </trkpt>
      <trkpt lat="54.398955004289746" lon="13.614485012367368">
        <ele>-0.34</ele>
        <time>2024-09-15T14:26:30Z</time>
      </trkpt>
      <trkpt lat="54.398923991248012" lon="13.614750970155001">
        <ele>-1.3</ele>
        <time>2024-09-15T14:26:33Z</time>
      </trkpt>
      <trkpt lat="54.398914016783237" lon="13.614841997623444">
        <ele>-1.79</ele>
        <time>2024-09-15T14:26:34Z</time>
      </trkpt>
      <trkpt lat="54.39887898042798" lon="13.615151960402727">
        <ele>-3.71</ele>
        <time>2024-09-15T14:26:38Z</time>
      </trkpt>
      <trkpt lat="54.398870011791587" lon="13.615229995921254">
        <ele>-4.19</ele>
        <time>2024-09-15T14:26:39Z</time>
      </trkpt>
      <trkpt lat="54.398774039000273" lon="13.616075981408358">
        <ele>-6.11</ele>
        <time>2024-09-15T14:26:49Z</time>
      </trkpt>
      <trkpt lat="54.39874998293817" lon="13.616287959739566">
        <ele>-6.11</ele>
        <time>2024-09-15T14:26:52Z</time>
      </trkpt>
      <trkpt lat="54.398743025958538" lon="13.616350991651416">
        <ele>-6.59</ele>
        <time>2024-09-15T14:26:53Z</time>
      </trkpt>
      <trkpt lat="54.398735985159874" lon="13.616408994421363">
        <ele>-6.59</ele>
        <time>2024-09-15T14:26:54Z</time>
      </trkpt>
      <trkpt lat="54.398730034008622" lon="13.61646699719131">
        <ele>-6.59</ele>
        <time>2024-09-15T14:26:55Z</time>
      </trkpt>
      <trkpt lat="54.398718969896436" lon="13.616566993296146">
        <ele>-6.59</ele>
        <time>2024-09-15T14:26:56Z</time>
      </trkpt>
      <trkpt lat="54.398715030401945" lon="13.616614015772939">
        <ele>-6.59</ele>
        <time>2024-09-15T14:26:57Z</time>
      </trkpt>
      <trkpt lat="54.398710001260042" lon="13.616677969694138">
        <ele>-6.59</ele>
        <time>2024-09-15T14:26:58Z</time>
      </trkpt>
      <trkpt lat="54.398698015138507" lon="13.616845021024346">
        <ele>-6.59</ele>
        <time>2024-09-15T14:27:01Z</time>
      </trkpt>
      <trkpt lat="54.398691980168223" lon="13.616921966895461">
        <ele>-6.59</ele>
        <time>2024-09-15T14:27:02Z</time>
      </trkpt>
      <trkpt lat="54.398686029016972" lon="13.617001008242369">
        <ele>-6.11</ele>
        <time>2024-09-15T14:27:03Z</time>
      </trkpt>
      <trkpt lat="54.398686029016972" lon="13.617309965193272">
        <ele>-5.63</ele>
        <time>2024-09-15T14:27:07Z</time>
      </trkpt>
      <trkpt lat="54.398700026795268" lon="13.617534013465047">
        <ele>-5.63</ele>
        <time>2024-09-15T14:27:10Z</time>
      </trkpt>
      <trkpt lat="54.398703966289759" lon="13.61760601401329">
        <ele>-5.63</ele>
        <time>2024-09-15T14:27:11Z</time>
      </trkpt>
      <trkpt lat="54.398708995431662" lon="13.617678014561534">
        <ele>-5.63</ele>
        <time>2024-09-15T14:27:12Z</time>
      </trkpt>
      <trkpt lat="54.398718969896436" lon="13.617832995951176">
        <ele>-5.63</ele>
        <time>2024-09-15T14:27:14Z</time>
      </trkpt>
      <trkpt lat="54.398887027055025" lon="13.618396008387208">
        <ele>-6.59</ele>
        <time>2024-09-15T14:27:26Z</time>
      </trkpt>
      <trkpt lat="54.398897001519799" lon="13.618429033085704">
        <ele>-6.59</ele>
        <time>2024-09-15T14:27:27Z</time>
      </trkpt>
      <trkpt lat="54.398912005126476" lon="13.618476977571845">
        <ele>-7.07</ele>
        <time>2024-09-15T14:27:28Z</time>
      </trkpt>
      <trkpt lat="54.398929020389915" lon="13.618454011157155">
        <ele>-7.55</ele>
        <time>2024-09-15T14:27:29Z</time>
      </trkpt>
      <trkpt lat="54.39896103926003" lon="13.618412017822266">
        <ele>-8.029999999999999</ele>
        <time>2024-09-15T14:27:30Z</time>
      </trkpt>
      <trkpt lat="54.399001020938158" lon="13.61835896037519">
        <ele>-8.029999999999999</ele>
        <time>2024-09-15T14:27:31Z</time>
      </trkpt>
      <trkpt lat="54.399039996787906" lon="13.618309004232287">
        <ele>-8.029999999999999</ele>
        <time>2024-09-15T14:27:32Z</time>
      </trkpt>
      <trkpt lat="54.399154996499419" lon="13.618157962337136">
        <ele>-8.51</ele>
        <time>2024-09-15T14:27:35Z</time>
      </trkpt>
      <trkpt lat="54.399187015369534" lon="13.618115969002247">
        <ele>-8.51</ele>
        <time>2024-09-15T14:27:36Z</time>
      </trkpt>
      <trkpt lat="54.399220962077379" lon="13.618071964010596">
        <ele>-9</ele>
        <time>2024-09-15T14:27:37Z</time>
      </trkpt>
      <trkpt lat="54.399258010089397" lon="13.618024019524455">
        <ele>-9</ele>
        <time>2024-09-15T14:27:38Z</time>
      </trkpt>
      <trkpt lat="54.399292962625623" lon="13.617978002876043">
        <ele>-9.48</ele>
        <time>2024-09-15T14:27:39Z</time>
      </trkpt>
      <trkpt lat="54.399331016466022" lon="13.617927962914109">
        <ele>-9.48</ele>
        <time>2024-09-15T14:27:40Z</time>
      </trkpt>
      <trkpt lat="54.39937099814415" lon="13.617875995114446">
        <ele>-9.960000000000001</ele>
        <time>2024-09-15T14:27:41Z</time>
      </trkpt>
      <trkpt lat="54.399411985650659" lon="13.617822015658021">
        <ele>-9.960000000000001</ele>
        <time>2024-09-15T14:27:42Z</time>
      </trkpt>
      <trkpt lat="54.399469988420606" lon="13.617746997624636">
        <ele>-10.44</ele>
        <time>2024-09-15T14:27:43Z</time>
      </trkpt>
      <trkpt lat="54.399488009512424" lon="13.617712967097759">
        <ele>-10.44</ele>
        <time>2024-09-15T14:27:44Z</time>
      </trkpt>
      <trkpt lat="54.399546012282372" lon="13.617610037326813">
        <ele>-10.44</ele>
        <time>2024-09-15T14:27:46Z</time>
      </trkpt>
      <trkpt lat="54.399608038365841" lon="13.617497971281409">
        <ele>-10.44</ele>
        <time>2024-09-15T14:27:48Z</time>
      </trkpt>
      <trkpt lat="54.399670986458659" lon="13.617383977398276">
        <ele>-10.44</ele>
        <time>2024-09-15T14:27:50Z</time>
      </trkpt>
      <trkpt lat="54.399699987843633" lon="13.617331003770232">
        <ele>-10.44</ele>
        <time>2024-09-15T14:27:51Z</time>
      </trkpt>
      <trkpt lat="54.399732006713748" lon="13.617275012657046">
        <ele>-10.44</ele>
        <time>2024-09-15T14:27:52Z</time>
      </trkpt>
      <trkpt lat="54.399766037240624" lon="13.617212986573577">
        <ele>-10.44</ele>
        <time>2024-09-15T14:27:53Z</time>
      </trkpt>
      <trkpt lat="54.399795038625598" lon="13.617161018773913">
        <ele>-10.44</ele>
        <time>2024-09-15T14:27:54Z</time>
      </trkpt>
      <trkpt lat="54.399819010868669" lon="13.617118019610643">
        <ele>-10.92</ele>
        <time>2024-09-15T14:27:55Z</time>
      </trkpt>
      <trkpt lat="54.39984398894012" lon="13.616888020187616">
        <ele>-10.92</ele>
        <time>2024-09-15T14:27:56Z</time>
      </trkpt>
      <trkpt lat="54.399811970070004" lon="13.616837980225682">
        <ele>-10.92</ele>
        <time>2024-09-15T14:27:57Z</time>
      </trkpt>
      <trkpt lat="54.39977802336216" lon="13.616786012426019">
        <ele>-11.4</ele>
        <time>2024-09-15T14:27:58Z</time>
      </trkpt>
      <trkpt lat="54.399748016148806" lon="13.616737984120846">
        <ele>-11.4</ele>
        <time>2024-09-15T14:27:59Z</time>
      </trkpt>
      <trkpt lat="54.399634022265673" lon="13.616384016349912">
        <ele>-12.359999999999999</ele>
        <time>2024-09-15T14:28:04Z</time>
      </trkpt>
      <trkpt lat="54.399613989517093" lon="13.616319978609681">
        <ele>-12.359999999999999</ele>
        <time>2024-09-15T14:28:05Z</time>
      </trkpt>
      <trkpt lat="54.399594040587544" lon="13.616258958354592">
        <ele>-12.84</ele>
        <time>2024-09-15T14:28:06Z</time>
      </trkpt>
      <trkpt lat="54.399576019495726" lon="13.616201961413026">
        <ele>-12.84</ele>
        <time>2024-09-15T14:28:07Z</time>
      </trkpt>
      <trkpt lat="54.399594040587544" lon="13.616103976964951">
        <ele>-12.84</ele>
        <time>2024-09-15T14:28:08Z</time>
      </trkpt>
      <trkpt lat="54.399706022813916" lon="13.616009010002017">
        <ele>-12.84</ele>
        <time>2024-09-15T14:28:09Z</time>
      </trkpt>
      <trkpt lat="54.399746004492044" lon="13.615765012800694">
        <ele>-12.84</ele>
        <time>2024-09-15T14:28:13Z</time>
      </trkpt>
      <trkpt lat="54.399770982563496" lon="13.615616988390684">
        <ele>-11.880000000000001</ele>
        <time>2024-09-15T14:28:15Z</time>
      </trkpt>
      <trkpt lat="54.399799983948469" lon="13.615443985909224">
        <ele>-10.92</ele>
        <time>2024-09-15T14:28:17Z</time>
      </trkpt>
      <trkpt lat="54.399899980053306" lon="13.614863958209753">
        <ele>-8.029999999999999</ele>
        <time>2024-09-15T14:28:22Z</time>
      </trkpt>
      <trkpt lat="54.399957982823253" lon="13.614528011530638">
        <ele>-6.59</ele>
        <time>2024-09-15T14:28:25Z</time>
      </trkpt>
      <trkpt lat="54.400025038048625" lon="13.614330030977726">
        <ele>-6.11</ele>
        <time>2024-09-15T14:28:27Z</time>
      </trkpt>
      <trkpt lat="54.400074994191527" lon="13.614271022379398">
        <ele>-5.63</ele>
        <time>2024-09-15T14:28:28Z</time>
      </trkpt>
      <trkpt lat="54.400124028325081" lon="13.614213019609451">
        <ele>-5.15</ele>
        <time>2024-09-15T14:28:29Z</time>
      </trkpt>
      <trkpt lat="54.400171972811222" lon="13.614156022667885">
        <ele>-4.67</ele>
        <time>2024-09-15T14:28:30Z</time>
      </trkpt>
      <trkpt lat="54.400220001116395" lon="13.614098019897938">
        <ele>-4.19</ele>
        <time>2024-09-15T14:28:31Z</time>
      </trkpt>
      <trkpt lat="54.400391997769475" lon="13.613885035738349">
        <ele>-3.23</ele>
        <time>2024-09-15T14:28:35Z</time>
      </trkpt>
      <trkpt lat="54.400520995259285" lon="13.613713039085269">
        <ele>-2.75</ele>
        <time>2024-09-15T14:28:38Z</time>
      </trkpt>
      <trkpt lat="54.400801034644246" lon="13.613334009423852">
        <ele>-1.3</ele>
        <time>2024-09-15T14:28:48Z</time>
      </trkpt>
      <trkpt lat="54.400963978841901" lon="13.61307199113071">
        <ele>-0.34</ele>
        <time>2024-09-15T14:28:58Z</time>
      </trkpt>
      <trkpt lat="54.401363041251898" lon="13.612326001748443">
        <ele>-0.82</ele>
        <time>2024-09-15T14:29:13Z</time>
      </trkpt>
      <trkpt lat="54.40158499404788" lon="13.61191101372242">
        <ele>0.14</ele>
        <time>2024-09-15T14:29:21Z</time>
      </trkpt>
      <trkpt lat="54.401615001261234" lon="13.611855022609234">
        <ele>0.14</ele>
        <time>2024-09-15T14:29:22Z</time>
      </trkpt>
      <trkpt lat="54.401721032336354" lon="13.61165695823729">
        <ele>0.14</ele>
        <time>2024-09-15T14:29:26Z</time>
      </trkpt>
      <trkpt lat="54.401743998751044" lon="13.61161395907402">
        <ele>-0.34</ele>
        <time>2024-09-15T14:29:27Z</time>
      </trkpt>
      <trkpt lat="54.401822034269571" lon="13.611469035968184">
        <ele>-0.34</ele>
        <time>2024-09-15T14:29:30Z</time>
      </trkpt>
      <trkpt lat="54.401850029826164" lon="13.611414972692728">
        <ele>-0.34</ele>
        <time>2024-09-15T14:29:31Z</time>
      </trkpt>
      <trkpt lat="54.402022026479244" lon="13.61109402962029">
        <ele>-1.3</ele>
        <time>2024-09-15T14:29:37Z</time>
      </trkpt>
      <trkpt lat="54.402050022035837" lon="13.611040972173214">
        <ele>-1.3</ele>
        <time>2024-09-15T14:29:38Z</time>
      </trkpt>
      <trkpt lat="54.402079023420811" lon="13.61098799854517">
        <ele>-1.3</ele>
        <time>2024-09-15T14:29:39Z</time>
      </trkpt>
      <trkpt lat="54.402108024805784" lon="13.610932007431984">
        <ele>-1.3</ele>
        <time>2024-09-15T14:29:40Z</time>
      </trkpt>
      <trkpt lat="54.402139037847519" lon="13.610875010490417">
        <ele>-1.3</ele>
        <time>2024-09-15T14:29:41Z</time>
      </trkpt>
      <trkpt lat="54.402289995923638" lon="13.610517019405961">
        <ele>-0.34</ele>
        <time>2024-09-15T14:29:47Z</time>
      </trkpt>
      <trkpt lat="54.402316985651851" lon="13.610440995544195">
        <ele>-0.34</ele>
        <time>2024-09-15T14:29:48Z</time>
      </trkpt>
      <trkpt lat="54.402389992028475" lon="13.610230023041368">
        <ele>0.14</ele>
        <time>2024-09-15T14:29:51Z</time>
      </trkpt>
      <trkpt lat="54.402440031990409" lon="13.61008602194488">
        <ele>0.62</ele>
        <time>2024-09-15T14:29:53Z</time>
      </trkpt>
      <trkpt lat="54.402466015890241" lon="13.610011003911495">
        <ele>0.62</ele>
        <time>2024-09-15T14:29:54Z</time>
      </trkpt>
      <trkpt lat="54.402539022266865" lon="13.609801037237048">
        <ele>1.1</ele>
        <time>2024-09-15T14:29:57Z</time>
      </trkpt>
      <trkpt lat="54.402561988681555" lon="13.609736999496818">
        <ele>1.1</ele>
        <time>2024-09-15T14:29:58Z</time>
      </trkpt>
      <trkpt lat="54.402632983401418" lon="13.609530972316861">
        <ele>1.1</ele>
        <time>2024-09-15T14:30:02Z</time>
      </trkpt>
      <trkpt lat="54.402647987008095" lon="13.609488978981972">
        <ele>1.1</ele>
        <time>2024-09-15T14:30:03Z</time>
      </trkpt>
      <trkpt lat="54.402661984786391" lon="13.609446985647082">
        <ele>1.58</ele>
        <time>2024-09-15T14:30:04Z</time>
      </trkpt>
      <trkpt lat="54.402677994221449" lon="13.609402980655432">
        <ele>1.58</ele>
        <time>2024-09-15T14:30:05Z</time>
      </trkpt>
      <trkpt lat="54.402691991999745" lon="13.609361993148923">
        <ele>2.06</ele>
        <time>2024-09-15T14:30:06Z</time>
      </trkpt>
      <trkpt lat="54.4027029722929" lon="13.609328968450427">
        <ele>1.58</ele>
        <time>2024-09-15T14:30:07Z</time>
      </trkpt>
      <trkpt lat="54.402720993384719" lon="13.609280018135905">
        <ele>2.54</ele>
        <time>2024-09-15T14:30:13Z</time>
      </trkpt>
      <trkpt lat="54.402717975899577" lon="13.609232995659113">
        <ele>3.02</ele>
        <time>2024-09-15T14:30:14Z</time>
      </trkpt>
      <trkpt lat="54.402687968686223" lon="13.609197037294507">
        <ele>3.02</ele>
        <time>2024-09-15T14:30:15Z</time>
      </trkpt>
      <trkpt lat="54.402653016149998" lon="13.609154960140586">
        <ele>3.5</ele>
        <time>2024-09-15T14:30:16Z</time>
      </trkpt>
      <trkpt lat="54.402618985623121" lon="13.609111960977316">
        <ele>3.5</ele>
        <time>2024-09-15T14:30:17Z</time>
      </trkpt>
      <trkpt lat="54.402515972033143" lon="13.608991010114551">
        <ele>3.02</ele>
        <time>2024-09-15T14:30:20Z</time>
      </trkpt>
      <trkpt lat="54.402430979534984" lon="13.60890400595963">
        <ele>3.02</ele>
        <time>2024-09-15T14:30:22Z</time>
      </trkpt>
      <trkpt lat="54.402384040877223" lon="13.608854971826077">
        <ele>2.54</ele>
        <time>2024-09-15T14:30:23Z</time>
      </trkpt>
      <trkpt lat="54.402332995086908" lon="13.608803004026413">
        <ele>2.54</ele>
        <time>2024-09-15T14:30:24Z</time>
      </trkpt>
      <trkpt lat="54.402278009802103" lon="13.608747012913227">
        <ele>2.06</ele>
        <time>2024-09-15T14:30:25Z</time>
      </trkpt>
      <trkpt lat="54.402221012860537" lon="13.608688004314899">
        <ele>2.06</ele>
        <time>2024-09-15T14:30:26Z</time>
      </trkpt>
      <trkpt lat="54.401550041511655" lon="13.607992976903915">
        <ele>3.02</ele>
        <time>2024-09-15T14:30:38Z</time>
      </trkpt>
      <trkpt lat="54.401338985189795" lon="13.607770018279552">
        <ele>4.46</ele>
        <time>2024-09-15T14:30:42Z</time>
      </trkpt>
      <trkpt lat="54.401287017390132" lon="13.607715032994747">
        <ele>4.94</ele>
        <time>2024-09-15T14:30:43Z</time>
      </trkpt>
      <trkpt lat="54.401236977428198" lon="13.607661975547671">
        <ele>4.94</ele>
        <time>2024-09-15T14:30:44Z</time>
      </trkpt>
      <trkpt lat="54.401192972436547" lon="13.60761595889926">
        <ele>5.42</ele>
        <time>2024-09-15T14:30:45Z</time>
      </trkpt>
      <trkpt lat="54.401158019900322" lon="13.607577988877892">
        <ele>5.91</ele>
        <time>2024-09-15T14:30:46Z</time>
      </trkpt>
      <trkpt lat="54.401126001030207" lon="13.607543958351016">
        <ele>5.91</ele>
        <time>2024-09-15T14:30:47Z</time>
      </trkpt>
      <trkpt lat="54.401083001866937" lon="13.607499031350017">
        <ele>6.87</ele>
        <time>2024-09-15T14:30:49Z</time>
      </trkpt>
      <trkpt lat="54.401070009917021" lon="13.60748503357172">
        <ele>6.87</ele>
        <time>2024-09-15T14:30:50Z</time>
      </trkpt>
      <trkpt lat="54.40098199993372" lon="13.607397023588419">
        <ele>8.310000000000001</ele>
        <time>2024-09-15T14:31:00Z</time>
      </trkpt>
      <trkpt lat="54.400995997712016" lon="13.607469024136662">
        <ele>7.83</ele>
        <time>2024-09-15T14:31:01Z</time>
      </trkpt>
      <trkpt lat="54.400971019640565" lon="13.6075309664011">
        <ele>7.83</ele>
        <time>2024-09-15T14:31:02Z</time>
      </trkpt>
      <trkpt lat="54.40093900077045" lon="13.607605984434485">
        <ele>7.83</ele>
        <time>2024-09-15T14:31:03Z</time>
      </trkpt>
      <trkpt lat="54.400902036577463" lon="13.607693994417787">
        <ele>7.83</ele>
        <time>2024-09-15T14:31:04Z</time>
      </trkpt>
      <trkpt lat="54.400820983573794" lon="13.607887029647827">
        <ele>7.35</ele>
        <time>2024-09-15T14:31:06Z</time>
      </trkpt>
      <trkpt lat="54.400779996067286" lon="13.607987025752664">
        <ele>7.35</ele>
        <time>2024-09-15T14:31:07Z</time>
      </trkpt>
      <trkpt lat="54.400738002732396" lon="13.608086016029119">
        <ele>6.39</ele>
        <time>2024-09-15T14:31:08Z</time>
      </trkpt>
      <trkpt lat="54.400693997740746" lon="13.608191963285208">
        <ele>5.91</ele>
        <time>2024-09-15T14:31:09Z</time>
      </trkpt>
      <trkpt lat="54.400647981092334" lon="13.608303023502231">
        <ele>5.91</ele>
        <time>2024-09-15T14:31:10Z</time>
      </trkpt>
      <trkpt lat="54.400599030777812" lon="13.608420034870505">
        <ele>5.91</ele>
        <time>2024-09-15T14:31:11Z</time>
      </trkpt>
      <trkpt lat="54.400310022756457" lon="13.609131993725896">
        <ele>8.789999999999999</ele>
        <time>2024-09-15T14:31:17Z</time>
      </trkpt>
      <trkpt lat="54.400109024718404" lon="13.609580006450415">
        <ele>9.75</ele>
        <time>2024-09-15T14:31:22Z</time>
      </trkpt>
      <trkpt lat="54.400043981149793" lon="13.609710009768605">
        <ele>10.23</ele>
        <time>2024-09-15T14:31:24Z</time>
      </trkpt>
      <trkpt lat="54.39997399225831" lon="13.609832972288132">
        <ele>10.23</ele>
        <time>2024-09-15T14:31:25Z</time>
      </trkpt>
      <trkpt lat="54.399847006425261" lon="13.609879994764924">
        <ele>10.710000000000001</ele>
        <time>2024-09-15T14:31:27Z</time>
      </trkpt>
      <trkpt lat="54.399787997826934" lon="13.609902039170265">
        <ele>10.710000000000001</ele>
        <time>2024-09-15T14:31:28Z</time>
      </trkpt>
      <trkpt lat="54.399738041684031" lon="13.609919976443052">
        <ele>10.710000000000001</ele>
        <time>2024-09-15T14:31:29Z</time>
      </trkpt>
      <trkpt lat="54.399335961788893" lon="13.610075963661075">
        <ele>10.23</ele>
        <time>2024-09-15T14:31:37Z</time>
      </trkpt>
      <trkpt lat="54.399277959018946" lon="13.610103037208319">
        <ele>10.23</ele>
        <time>2024-09-15T14:31:38Z</time>
      </trkpt>
      <trkpt lat="54.399224985390902" lon="13.610127009451389">
        <ele>10.23</ele>
        <time>2024-09-15T14:31:39Z</time>
      </trkpt>
      <trkpt lat="54.39917997457087" lon="13.610147964209318">
        <ele>10.23</ele>
        <time>2024-09-15T14:31:40Z</time>
      </trkpt>
      <trkpt lat="54.39913596957922" lon="13.610167996957898">
        <ele>10.23</ele>
        <time>2024-09-15T14:31:41Z</time>
      </trkpt>
      <trkpt lat="54.399084001779556" lon="13.61017202027142">
        <ele>9.75</ele>
        <time>2024-09-15T14:31:42Z</time>
      </trkpt>
      <trkpt lat="54.399036979302764" lon="13.61017202027142">
        <ele>9.27</ele>
        <time>2024-09-15T14:31:43Z</time>
      </trkpt>
      <trkpt lat="54.398981994017959" lon="13.61017202027142">
        <ele>9.27</ele>
        <time>2024-09-15T14:31:44Z</time>
      </trkpt>
      <trkpt lat="54.398931032046676" lon="13.610145030543208">
        <ele>8.789999999999999</ele>
        <time>2024-09-15T14:31:45Z</time>
      </trkpt>
      <trkpt lat="54.398879986256361" lon="13.610113011673093">
        <ele>8.789999999999999</ele>
        <time>2024-09-15T14:31:46Z</time>
      </trkpt>
      <trkpt lat="54.398833969607949" lon="13.610083004459739">
        <ele>8.789999999999999</ele>
        <time>2024-09-15T14:31:47Z</time>
      </trkpt>
      <trkpt lat="54.398803962394595" lon="13.61006498336792">
        <ele>8.789999999999999</ele>
        <time>2024-09-15T14:31:48Z</time>
      </trkpt>
      <trkpt lat="54.398774039000273" lon="13.610029025003314">
        <ele>8.310000000000001</ele>
        <time>2024-09-15T14:31:49Z</time>
      </trkpt>
      <trkpt lat="54.398745037615299" lon="13.609992982819676">
        <ele>8.310000000000001</ele>
        <time>2024-09-15T14:31:50Z</time>
      </trkpt>
      <trkpt lat="54.39864101819694" lon="13.609868008643389">
        <ele>8.310000000000001</ele>
        <time>2024-09-15T14:31:53Z</time>
      </trkpt>
      <trkpt lat="54.398601036518812" lon="13.609818974509835">
        <ele>8.310000000000001</ele>
        <time>2024-09-15T14:31:54Z</time>
      </trkpt>
      <trkpt lat="54.398560971021652" lon="13.609770024195313">
        <ele>8.310000000000001</ele>
        <time>2024-09-15T14:31:55Z</time>
      </trkpt>
      <trkpt lat="54.398445971310139" lon="13.609630968421698">
        <ele>7.83</ele>
        <time>2024-09-15T14:31:58Z</time>
      </trkpt>
      <trkpt lat="54.398411018773913" lon="13.609588975086808">
        <ele>7.83</ele>
        <time>2024-09-15T14:31:59Z</time>
      </trkpt>
      <trkpt lat="54.398397020995617" lon="13.60957195982337">
        <ele>7.83</ele>
        <time>2024-09-15T14:32:00Z</time>
      </trkpt>
      <trkpt lat="54.398348992690444" lon="13.609493002295494">
        <ele>7.83</ele>
        <time>2024-09-15T14:32:01Z</time>
      </trkpt>
      <trkpt lat="54.398314962163568" lon="13.609438017010689">
        <ele>7.83</ele>
        <time>2024-09-15T14:32:02Z</time>
      </trkpt>
      <trkpt lat="54.398281015455723" lon="13.609383031725883">
        <ele>7.83</ele>
        <time>2024-09-15T14:32:03Z</time>
      </trkpt>
      <trkpt lat="54.398245979100466" lon="13.609326034784317">
        <ele>7.83</ele>
        <time>2024-09-15T14:32:04Z</time>
      </trkpt>
      <trkpt lat="54.39817096106708" lon="13.609203994274139">
        <ele>7.83</ele>
        <time>2024-09-15T14:32:06Z</time>
      </trkpt>
      <trkpt lat="54.398139026015997" lon="13.609152026474476">
        <ele>7.83</ele>
        <time>2024-09-15T14:32:07Z</time>
      </trkpt>
      <trkpt lat="54.398109018802643" lon="13.609100980684161">
        <ele>7.83</ele>
        <time>2024-09-15T14:32:08Z</time>
      </trkpt>
      <trkpt lat="54.398073982447386" lon="13.609044989570975">
        <ele>8.310000000000001</ele>
        <time>2024-09-15T14:32:09Z</time>
      </trkpt>
      <trkpt lat="54.398040035739541" lon="13.60899000428617">
        <ele>8.310000000000001</ele>
        <time>2024-09-15T14:32:10Z</time>
      </trkpt>
      <trkpt lat="54.398002987727523" lon="13.608928984031081">
        <ele>8.789999999999999</ele>
        <time>2024-09-15T14:32:11Z</time>
      </trkpt>
      <trkpt lat="54.397964011877775" lon="13.608865030109882">
        <ele>8.789999999999999</ele>
        <time>2024-09-15T14:32:12Z</time>
      </trkpt>
      <trkpt lat="54.397926963865757" lon="13.608805015683174">
        <ele>9.27</ele>
        <time>2024-09-15T14:32:13Z</time>
      </trkpt>
      <trkpt lat="54.397796038538218" lon="13.608590019866824">
        <ele>11.19</ele>
        <time>2024-09-15T14:32:20Z</time>
      </trkpt>
      <trkpt lat="54.397453973069787" lon="13.608024995774031">
        <ele>13.119999999999999</ele>
        <time>2024-09-15T14:32:28Z</time>
      </trkpt>
      <trkpt lat="54.396933959797025" lon="13.607192002236843">
        <ele>6.87</ele>
        <time>2024-09-15T14:32:37Z</time>
      </trkpt>
      <trkpt lat="54.396853996440768" lon="13.607117990031838">
        <ele>7.35</ele>
        <time>2024-09-15T14:32:38Z</time>
      </trkpt>
      <trkpt lat="54.396774033084512" lon="13.607044983655214">
        <ele>6.87</ele>
        <time>2024-09-15T14:32:39Z</time>
      </trkpt>
      <trkpt lat="54.396687028929591" lon="13.607012964785099">
        <ele>6.87</ele>
        <time>2024-09-15T14:32:40Z</time>
      </trkpt>
      <trkpt lat="54.396601030603051" lon="13.607006007805467">
        <ele>6.39</ele>
        <time>2024-09-15T14:32:41Z</time>
      </trkpt>
      <trkpt lat="54.396516960114241" lon="13.606998967006803">
        <ele>6.39</ele>
        <time>2024-09-15T14:32:42Z</time>
      </trkpt>
      <trkpt lat="54.395573996007442" lon="13.607069961726665">
        <ele>10.710000000000001</ele>
        <time>2024-09-15T14:32:53Z</time>
      </trkpt>
      <trkpt lat="54.394806968048215" lon="13.60729300417006">
        <ele>13.6</ele>
        <time>2024-09-15T14:33:02Z</time>
      </trkpt>
      <trkpt lat="54.394714012742043" lon="13.607328040525317">
        <ele>13.6</ele>
        <time>2024-09-15T14:33:03Z</time>
      </trkpt>
      <trkpt lat="54.394632037729025" lon="13.607405992224813">
        <ele>13.6</ele>
        <time>2024-09-15T14:33:04Z</time>
      </trkpt>
      <trkpt lat="54.394549978896976" lon="13.60750799998641">
        <ele>13.6</ele>
        <time>2024-09-15T14:33:05Z</time>
      </trkpt>
      <trkpt lat="54.394478984177113" lon="13.60761696472764">
        <ele>13.6</ele>
        <time>2024-09-15T14:33:06Z</time>
      </trkpt>
      <trkpt lat="54.394411006942391" lon="13.607741016894579">
        <ele>13.6</ele>
        <time>2024-09-15T14:33:07Z</time>
      </trkpt>
      <trkpt lat="54.394341018050909" lon="13.60787102021277">
        <ele>13.6</ele>
        <time>2024-09-15T14:33:08Z</time>
      </trkpt>
      <trkpt lat="54.394270023331046" lon="13.60800102353096">
        <ele>13.6</ele>
        <time>2024-09-15T14:33:09Z</time>
      </trkpt>
      <trkpt lat="54.393589999526739" lon="13.609250010922551">
        <ele>12.15</ele>
        <time>2024-09-15T14:33:18Z</time>
      </trkpt>
      <trkpt lat="54.392619039863348" lon="13.61101197078824">
        <ele>13.119999999999999</ele>
        <time>2024-09-15T14:33:30Z</time>
      </trkpt>
      <trkpt lat="54.391930969431996" lon="13.612310998141766">
        <ele>15.039999999999999</ele>
        <time>2024-09-15T14:33:39Z</time>
      </trkpt>
      <trkpt lat="54.391254968941212" lon="13.613684959709644">
        <ele>17.920000000000002</ele>
        <time>2024-09-15T14:33:48Z</time>
      </trkpt>
      <trkpt lat="54.390672007575631" lon="13.614915004000068">
        <ele>21.289999999999999</ele>
        <time>2024-09-15T14:33:56Z</time>
      </trkpt>
      <trkpt lat="54.390599001199007" lon="13.615065040066838">
        <ele>21.77</ele>
        <time>2024-09-15T14:33:57Z</time>
      </trkpt>
      <trkpt lat="54.390420969575644" lon="13.615429988130927">
        <ele>23.210000000000001</ele>
        <time>2024-09-15T14:34:00Z</time>
      </trkpt>
      <trkpt lat="54.390373025089502" lon="13.615528978407383">
        <ele>24.170000000000002</ele>
        <time>2024-09-15T14:34:01Z</time>
      </trkpt>
      <trkpt lat="54.390329020097852" lon="13.615621011704206">
        <ele>25.609999999999999</ele>
        <time>2024-09-15T14:34:02Z</time>
      </trkpt>
      <trkpt lat="54.390188958495855" lon="13.615918988361955">
        <ele>28.02</ele>
        <time>2024-09-15T14:34:05Z</time>
      </trkpt>
      <trkpt lat="54.390101032331586" lon="13.616052009165287">
        <ele>28.98</ele>
        <time>2024-09-15T14:34:06Z</time>
      </trkpt>
      <trkpt lat="54.389983015134931" lon="13.616159968078136">
        <ele>29.460000000000001</ele>
        <time>2024-09-15T14:34:07Z</time>
      </trkpt>
      <trkpt lat="54.388979030773044" lon="13.616464985534549">
        <ele>34.259999999999998</ele>
        <time>2024-09-15T14:34:14Z</time>
      </trkpt>
      <trkpt lat="54.387752003967762" lon="13.616556013002992">
        <ele>36.670000000000002</ele>
        <time>2024-09-15T14:34:23Z</time>
      </trkpt>
      <trkpt lat="54.387341039255261" lon="13.616354009136558">
        <ele>35.710000000000001</ele>
        <time>2024-09-15T14:34:26Z</time>
      </trkpt>
      <trkpt lat="54.387205000966787" lon="13.61625200137496">
        <ele>35.229999999999997</ele>
        <time>2024-09-15T14:34:27Z</time>
      </trkpt>
      <trkpt lat="54.387066029012203" lon="13.616147981956601">
        <ele>34.740000000000002</ele>
        <time>2024-09-15T14:34:28Z</time>
      </trkpt>
      <trkpt lat="54.386938037350774" lon="13.616052009165287">
        <ele>34.740000000000002</ele>
        <time>2024-09-15T14:34:29Z</time>
      </trkpt>
      <trkpt lat="54.386790012940764" lon="13.615929968655109">
        <ele>34.259999999999998</ele>
        <time>2024-09-15T14:34:30Z</time>
      </trkpt>
      <trkpt lat="54.385305996984243" lon="13.614481994882226">
        <ele>32.82</ele>
        <time>2024-09-15T14:34:41Z</time>
      </trkpt>
      <trkpt lat="54.383582007139921" lon="13.612789018079638">
        <ele>34.259999999999998</ele>
        <time>2024-09-15T14:34:53Z</time>
      </trkpt>
      <trkpt lat="54.382003024220467" lon="13.611283963546157">
        <ele>38.109999999999999</ele>
        <time>2024-09-15T14:35:03Z</time>
      </trkpt>
      <trkpt lat="54.380609029904008" lon="13.609889969229698">
        <ele>42.439999999999998</ele>
        <time>2024-09-15T14:35:11Z</time>
      </trkpt>
      <trkpt lat="54.380452958866954" lon="13.609660975635052">
        <ele>42.920000000000002</ele>
        <time>2024-09-15T14:35:12Z</time>
      </trkpt>
      <trkpt lat="54.380323961377144" lon="13.609384037554264">
        <ele>42.920000000000002</ele>
        <time>2024-09-15T14:35:13Z</time>
      </trkpt>
      <trkpt lat="54.38005699776113" lon="13.608798980712891">
        <ele>41.950000000000003</ele>
        <time>2024-09-15T14:35:15Z</time>
      </trkpt>
      <trkpt lat="54.379951972514391" lon="13.608492035418749">
        <ele>41.469999999999999</ele>
        <time>2024-09-15T14:35:16Z</time>
      </trkpt>
      <trkpt lat="54.379035998135805" lon="13.605792978778481">
        <ele>38.590000000000003</ele>
        <time>2024-09-15T14:35:25Z</time>
      </trkpt>
      <trkpt lat="54.378236029297113" lon="13.60338200815022">
        <ele>35.710000000000001</ele>
        <time>2024-09-15T14:35:33Z</time>
      </trkpt>
      <trkpt lat="54.377562962472439" lon="13.601402034983039">
        <ele>33.780000000000001</ele>
        <time>2024-09-15T14:35:40Z</time>
      </trkpt>
      <trkpt lat="54.377206983044744" lon="13.599169012159109">
        <ele>30.420000000000002</ele>
        <time>2024-09-15T14:35:47Z</time>
      </trkpt>
      <trkpt lat="54.377188039943576" lon="13.598841028288007">
        <ele>30.420000000000002</ele>
        <time>2024-09-15T14:35:48Z</time>
      </trkpt>
      <trkpt lat="54.377173958346248" lon="13.598529975861311">
        <ele>29.940000000000001</ele>
        <time>2024-09-15T14:35:49Z</time>
      </trkpt>
      <trkpt lat="54.377141017466784" lon="13.596219001337886">
        <ele>29.460000000000001</ele>
        <time>2024-09-15T14:35:56Z</time>
      </trkpt>
      <trkpt lat="54.377062981948256" lon="13.59343403019011">
        <ele>24.649999999999999</ele>
        <time>2024-09-15T14:36:04Z</time>
      </trkpt>
      <trkpt lat="54.377039009705186" lon="13.593097999691963">
        <ele>23.690000000000001</ele>
        <time>2024-09-15T14:36:05Z</time>
      </trkpt>
      <trkpt lat="54.377015037462115" lon="13.592762975022197">
        <ele>22.73</ele>
        <time>2024-09-15T14:36:06Z</time>
      </trkpt>
      <trkpt lat="54.376578005030751" lon="13.590525006875396">
        <ele>22.25</ele>
        <time>2024-09-15T14:36:13Z</time>
      </trkpt>
      <trkpt lat="54.376206016167998" lon="13.588206991553307">
        <ele>21.77</ele>
        <time>2024-09-15T14:36:21Z</time>
      </trkpt>
      <trkpt lat="54.376149019226432" lon="13.587703993543983">
        <ele>21.289999999999999</ele>
        <time>2024-09-15T14:36:23Z</time>
      </trkpt>
      <trkpt lat="54.376037959009409" lon="13.586848033592105">
        <ele>19.84</ele>
        <time>2024-09-15T14:36:28Z</time>
      </trkpt>
      <trkpt lat="54.376027984544635" lon="13.586749965324998">
        <ele>19.84</ele>
        <time>2024-09-15T14:36:29Z</time>
      </trkpt>
      <trkpt lat="54.376002000644803" lon="13.586510997265577">
        <ele>19.359999999999999</ele>
        <time>2024-09-15T14:36:31Z</time>
      </trkpt>
      <trkpt lat="54.375988002866507" lon="13.586395997554064">
        <ele>18.879999999999999</ele>
        <time>2024-09-15T14:36:32Z</time>
      </trkpt>
      <trkpt lat="54.375976016744971" lon="13.586304970085621">
        <ele>18.879999999999999</ele>
        <time>2024-09-15T14:36:33Z</time>
      </trkpt>
      <trkpt lat="54.37597299925983" lon="13.586289966478944">
        <ele>18.879999999999999</ele>
        <time>2024-09-15T14:36:38Z</time>
      </trkpt>
      <trkpt lat="54.376048017293215" lon="13.586046975106001">
        <ele>18.879999999999999</ele>
        <time>2024-09-15T14:36:40Z</time>
      </trkpt>
      <trkpt lat="54.376028990373015" lon="13.58595997095108">
        <ele>18.879999999999999</ele>
        <time>2024-09-15T14:36:41Z</time>
      </trkpt>
      <trkpt lat="54.3760159984231" lon="13.585903979837894">
        <ele>18.879999999999999</ele>
        <time>2024-09-15T14:36:42Z</time>
      </trkpt>
      <trkpt lat="54.37593000009656" lon="13.585860980674624">
        <ele>18.879999999999999</ele>
        <time>2024-09-15T14:36:43Z</time>
      </trkpt>
      <trkpt lat="54.375862022861838" lon="13.585895011201501">
        <ele>18.879999999999999</ele>
        <time>2024-09-15T14:36:44Z</time>
      </trkpt>
      <trkpt lat="54.3758450075984" lon="13.585903979837894">
        <ele>18.399999999999999</ele>
        <time>2024-09-15T14:36:45Z</time>
      </trkpt>
      <trkpt lat="54.375744005665183" lon="13.586165998131037">
        <ele>17.920000000000002</ele>
        <time>2024-09-15T14:36:46Z</time>
      </trkpt>
      <trkpt lat="54.375646021217108" lon="13.586210003122687">
        <ele>17.440000000000001</ele>
        <time>2024-09-15T14:36:47Z</time>
      </trkpt>
      <trkpt lat="54.37468302436173" lon="13.586659021675587">
        <ele>14.08</ele>
        <time>2024-09-15T14:36:54Z</time>
      </trkpt>
      <trkpt lat="54.37337301671505" lon="13.587852017953992">
        <ele>12.630000000000001</ele>
        <time>2024-09-15T14:37:02Z</time>
      </trkpt>
      <trkpt lat="54.372339025139809" lon="13.589317006990314">
        <ele>16</ele>
        <time>2024-09-15T14:37:09Z</time>
      </trkpt>
      <trkpt lat="54.372008023783565" lon="13.590055033564568">
        <ele>17.920000000000002</ele>
        <time>2024-09-15T14:37:12Z</time>
      </trkpt>
      <trkpt lat="54.371905010193586" lon="13.590285032987595">
        <ele>18.399999999999999</ele>
        <time>2024-09-15T14:37:13Z</time>
      </trkpt>
      <trkpt lat="54.371177963912487" lon="13.591905003413558">
        <ele>23.210000000000001</ele>
        <time>2024-09-15T14:37:21Z</time>
      </trkpt>
      <trkpt lat="54.370461981743574" lon="13.59349898993969">
        <ele>28.5</ele>
        <time>2024-09-15T14:37:29Z</time>
      </trkpt>
      <trkpt lat="54.369753040373325" lon="13.595044026151299">
        <ele>30.899999999999999</ele>
        <time>2024-09-15T14:37:38Z</time>
      </trkpt>
      <trkpt lat="54.369402006268501" lon="13.595840977504849">
        <ele>31.859999999999999</ele>
        <time>2024-09-15T14:37:43Z</time>
      </trkpt>
      <trkpt lat="54.369364036247134" lon="13.595933010801673">
        <ele>32.340000000000003</ele>
        <time>2024-09-15T14:37:44Z</time>
      </trkpt>
      <trkpt lat="54.36933402903378" lon="13.596004005521536">
        <ele>32.82</ele>
        <time>2024-09-15T14:37:45Z</time>
      </trkpt>
      <trkpt lat="54.369196984916925" lon="13.59594801440835">
        <ele>32.82</ele>
        <time>2024-09-15T14:37:46Z</time>
      </trkpt>
      <trkpt lat="54.369149962440133" lon="13.595838965848088">
        <ele>33.299999999999997</ele>
        <time>2024-09-15T14:37:47Z</time>
      </trkpt>
      <trkpt lat="54.369101012125611" lon="13.595741987228394">
        <ele>33.780000000000001</ele>
        <time>2024-09-15T14:37:48Z</time>
      </trkpt>
      <trkpt lat="54.369022976607084" lon="13.595578959211707">
        <ele>34.259999999999998</ele>
        <time>2024-09-15T14:37:49Z</time>
      </trkpt>
      <trkpt lat="54.368254020810127" lon="13.593853963539004">
        <ele>38.109999999999999</ele>
        <time>2024-09-15T14:37:59Z</time>
      </trkpt>
      <trkpt lat="54.367289012297988" lon="13.592328038066626">
        <ele>34.740000000000002</ele>
        <time>2024-09-15T14:38:09Z</time>
      </trkpt>
      <trkpt lat="54.366647964343429" lon="13.591383984312415">
        <ele>33.299999999999997</ele>
        <time>2024-09-15T14:38:16Z</time>
      </trkpt>
      <trkpt lat="54.365839026868343" lon="13.590185958892107">
        <ele>31.859999999999999</ele>
        <time>2024-09-15T14:38:25Z</time>
      </trkpt>
      <trkpt lat="54.365056995302439" lon="13.589004026725888">
        <ele>28.98</ele>
        <time>2024-09-15T14:38:34Z</time>
      </trkpt>
      <trkpt lat="54.364821966737509" lon="13.588653998449445">
        <ele>28.02</ele>
        <time>2024-09-15T14:38:37Z</time>
      </trkpt>
      <trkpt lat="54.364746026694775" lon="13.588544027879834">
        <ele>28.02</ele>
        <time>2024-09-15T14:38:38Z</time>
      </trkpt>
      <trkpt lat="54.364523990079761" lon="13.588219983503222">
        <ele>27.050000000000001</ele>
        <time>2024-09-15T14:38:41Z</time>
      </trkpt>
      <trkpt lat="54.364298013970256" lon="13.58789099380374">
        <ele>26.09</ele>
        <time>2024-09-15T14:38:44Z</time>
      </trkpt>
      <trkpt lat="54.363972041755915" lon="13.587409034371376">
        <ele>24.649999999999999</ele>
        <time>2024-09-15T14:38:48Z</time>
      </trkpt>
      <trkpt lat="54.36389802955091" lon="13.587298979982734">
        <ele>24.170000000000002</ele>
        <time>2024-09-15T14:38:49Z</time>
      </trkpt>
      <trkpt lat="54.363488992676139" lon="13.586690034717321">
        <ele>21.289999999999999</ele>
        <time>2024-09-15T14:38:54Z</time>
      </trkpt>
      <trkpt lat="54.363398971036077" lon="13.586556008085608">
        <ele>20.809999999999999</ele>
        <time>2024-09-15T14:38:55Z</time>
      </trkpt>
      <trkpt lat="54.362835958600044" lon="13.585707005113363">
        <ele>14.08</ele>
        <time>2024-09-15T14:39:01Z</time>
      </trkpt>
      <trkpt lat="54.362539993599057" lon="13.58527097851038">
        <ele>8.789999999999999</ele>
        <time>2024-09-15T14:39:04Z</time>
      </trkpt>
      <trkpt lat="54.362300019711256" lon="13.584870994091034">
        <ele>3.5</ele>
        <time>2024-09-15T14:39:07Z</time>
      </trkpt>
      <trkpt lat="54.362246040254831" lon="13.584703020751476">
        <ele>2.54</ele>
        <time>2024-09-15T14:39:08Z</time>
      </trkpt>
      <trkpt lat="54.362215027213097" lon="13.584536975249648">
        <ele>3.5</ele>
        <time>2024-09-15T14:39:09Z</time>
      </trkpt>
      <trkpt lat="54.362183008342981" lon="13.584361039102077">
        <ele>3.98</ele>
        <time>2024-09-15T14:39:10Z</time>
      </trkpt>
      <trkpt lat="54.362151995301247" lon="13.584177978336811">
        <ele>4.46</ele>
        <time>2024-09-15T14:39:11Z</time>
      </trkpt>
      <trkpt lat="54.362056022509933" lon="13.583328975364566">
        <ele>4.94</ele>
        <time>2024-09-15T14:39:15Z</time>
      </trkpt>
      <trkpt lat="54.361990978941321" lon="13.583106016740203">
        <ele>4.94</ele>
        <time>2024-09-15T14:39:16Z</time>
      </trkpt>
      <trkpt lat="54.361917972564697" lon="13.582897977903485">
        <ele>4.94</ele>
        <time>2024-09-15T14:39:17Z</time>
      </trkpt>
      <trkpt lat="54.361188998445868" lon="13.580925967544317">
        <ele>6.39</ele>
        <time>2024-09-15T14:39:25Z</time>
      </trkpt>
      <trkpt lat="54.360967967659235" lon="13.580075036734343">
        <ele>4.46</ele>
        <time>2024-09-15T14:39:28Z</time>
      </trkpt>
      <trkpt lat="54.36061299405992" lon="13.578164968639612">
        <ele>0.62</ele>
        <time>2024-09-15T14:39:34Z</time>
      </trkpt>
      <trkpt lat="54.360434962436557" lon="13.576514991000295">
        <ele>-1.3</ele>
        <time>2024-09-15T14:39:39Z</time>
      </trkpt>
      <trkpt lat="54.360320968553424" lon="13.574529988691211">
        <ele>-4.19</ele>
        <time>2024-09-15T14:39:46Z</time>
      </trkpt>
      <trkpt lat="54.360305964946747" lon="13.57424802146852">
        <ele>-4.19</ele>
        <time>2024-09-15T14:39:47Z</time>
      </trkpt>
      <trkpt lat="54.360188031569123" lon="13.572131004184484">
        <ele>3.02</ele>
        <time>2024-09-15T14:39:54Z</time>
      </trkpt>
      <trkpt lat="54.360133968293667" lon="13.571237996220589">
        <ele>5.91</ele>
        <time>2024-09-15T14:39:57Z</time>
      </trkpt>
      <trkpt lat="54.360115025192499" lon="13.570943037047982">
        <ele>6.87</ele>
        <time>2024-09-15T14:39:58Z</time>
      </trkpt>
      <trkpt lat="54.36003397218883" lon="13.569620959460735">
        <ele>10.23</ele>
        <time>2024-09-15T14:40:03Z</time>
      </trkpt>
      <trkpt lat="54.360017962753773" lon="13.569361036643386">
        <ele>11.19</ele>
        <time>2024-09-15T14:40:04Z</time>
      </trkpt>
      <trkpt lat="54.360001031309366" lon="13.569096000865102">
        <ele>12.15</ele>
        <time>2024-09-15T14:40:05Z</time>
      </trkpt>
      <trkpt lat="54.359984016045928" lon="13.56883498840034">
        <ele>12.630000000000001</ele>
        <time>2024-09-15T14:40:06Z</time>
      </trkpt>
      <trkpt lat="54.359965994954109" lon="13.568561989814043">
        <ele>13.119999999999999</ele>
        <time>2024-09-15T14:40:07Z</time>
      </trkpt>
      <trkpt lat="54.359945962205529" lon="13.568269964307547">
        <ele>13.119999999999999</ele>
        <time>2024-09-15T14:40:08Z</time>
      </trkpt>
      <trkpt lat="54.359927019104362" lon="13.567979028448462">
        <ele>13.119999999999999</ele>
        <time>2024-09-15T14:40:09Z</time>
      </trkpt>
      <trkpt lat="54.359907992184162" lon="13.567694965749979">
        <ele>13.6</ele>
        <time>2024-09-15T14:40:10Z</time>
      </trkpt>
      <trkpt lat="54.359756028279662" lon="13.565321965143085">
        <ele>14.56</ele>
        <time>2024-09-15T14:40:18Z</time>
      </trkpt>
      <trkpt lat="54.359569028019905" lon="13.562402967363596">
        <ele>12.15</ele>
        <time>2024-09-15T14:40:26Z</time>
      </trkpt>
      <trkpt lat="54.35943198390305" lon="13.560268012806773">
        <ele>11.19</ele>
        <time>2024-09-15T14:40:33Z</time>
      </trkpt>
      <trkpt lat="54.359415974467993" lon="13.560027033090591">
        <ele>11.67</ele>
        <time>2024-09-15T14:40:34Z</time>
      </trkpt>
      <trkpt lat="54.359400970861316" lon="13.559795022010803">
        <ele>11.67</ele>
        <time>2024-09-15T14:40:35Z</time>
      </trkpt>
      <trkpt lat="54.359340034425259" lon="13.559075016528368">
        <ele>12.630000000000001</ele>
        <time>2024-09-15T14:40:38Z</time>
      </trkpt>
      <trkpt lat="54.359031999483705" lon="13.557164026424289">
        <ele>14.56</ele>
        <time>2024-09-15T14:40:45Z</time>
      </trkpt>
      <trkpt lat="54.358675014227629" lon="13.554951036348939">
        <ele>11.67</ele>
        <time>2024-09-15T14:40:51Z</time>
      </trkpt>
      <trkpt lat="54.358257008716464" lon="13.552353987470269">
        <ele>10.23</ele>
        <time>2024-09-15T14:40:59Z</time>
      </trkpt>
      <trkpt lat="54.357913015410304" lon="13.550220038741827">
        <ele>11.19</ele>
        <time>2024-09-15T14:41:07Z</time>
      </trkpt>
      <trkpt lat="54.357779994606972" lon="13.549625007435679">
        <ele>11.67</ele>
        <time>2024-09-15T14:41:10Z</time>
      </trkpt>
      <trkpt lat="54.357743030413985" lon="13.549466002732515">
        <ele>11.67</ele>
        <time>2024-09-15T14:41:11Z</time>
      </trkpt>
      <trkpt lat="54.357706988230348" lon="13.549308003857732">
        <ele>11.67</ele>
        <time>2024-09-15T14:41:12Z</time>
      </trkpt>
      <trkpt lat="54.357670024037361" lon="13.549146987497807">
        <ele>11.67</ele>
        <time>2024-09-15T14:41:13Z</time>
      </trkpt>
      <trkpt lat="54.357601962983608" lon="13.54902402497828">
        <ele>11.67</ele>
        <time>2024-09-15T14:41:14Z</time>
      </trkpt>
      <trkpt lat="54.357527028769255" lon="13.548886980861425">
        <ele>12.15</ele>
        <time>2024-09-15T14:41:15Z</time>
      </trkpt>
      <trkpt lat="54.35683099552989" lon="13.547749975696206">
        <ele>13.119999999999999</ele>
        <time>2024-09-15T14:41:23Z</time>
      </trkpt>
      <trkpt lat="54.356695041060448" lon="13.547426015138626">
        <ele>12.630000000000001</ele>
        <time>2024-09-15T14:41:25Z</time>
      </trkpt>
      <trkpt lat="54.356240993365645" lon="13.54550396092236">
        <ele>9.27</ele>
        <time>2024-09-15T14:41:35Z</time>
      </trkpt>
      <trkpt lat="54.356090035289526" lon="13.544718995690346">
        <ele>9.27</ele>
        <time>2024-09-15T14:41:39Z</time>
      </trkpt>
      <trkpt lat="54.356054998934269" lon="13.544516991823912">
        <ele>9.27</ele>
        <time>2024-09-15T14:41:40Z</time>
      </trkpt>
      <trkpt lat="54.35595097951591" lon="13.543916009366512">
        <ele>9.27</ele>
        <time>2024-09-15T14:41:43Z</time>
      </trkpt>
      <trkpt lat="54.355915021151304" lon="13.543703025206923">
        <ele>9.75</ele>
        <time>2024-09-15T14:41:44Z</time>
      </trkpt>
      <trkpt lat="54.355879984796047" lon="13.543500015512109">
        <ele>9.75</ele>
        <time>2024-09-15T14:41:45Z</time>
      </trkpt>
      <trkpt lat="54.355845032259822" lon="13.543300023302436">
        <ele>9.75</ele>
        <time>2024-09-15T14:41:46Z</time>
      </trkpt>
      <trkpt lat="54.355811001732945" lon="13.543100031092763">
        <ele>10.23</ele>
        <time>2024-09-15T14:41:47Z</time>
      </trkpt>
      <trkpt lat="54.355668006464839" lon="13.542311964556575">
        <ele>9.75</ele>
        <time>2024-09-15T14:41:51Z</time>
      </trkpt>
      <trkpt lat="54.355346979573369" lon="13.540716972202063">
        <ele>7.83</ele>
        <time>2024-09-15T14:41:58Z</time>
      </trkpt>
      <trkpt lat="54.35487499460578" lon="13.538416977971792">
        <ele>4.94</ele>
        <time>2024-09-15T14:42:06Z</time>
      </trkpt>
      <trkpt lat="54.35440200380981" lon="13.536085970699787">
        <ele>1.58</ele>
        <time>2024-09-15T14:42:15Z</time>
      </trkpt>
      <trkpt lat="54.354369984939694" lon="13.535819007083774">
        <ele>0.62</ele>
        <time>2024-09-15T14:42:16Z</time>
      </trkpt>
      <trkpt lat="54.354383982717991" lon="13.535555982962251">
        <ele>0.14</ele>
        <time>2024-09-15T14:42:17Z</time>
      </trkpt>
      <trkpt lat="54.354461012408137" lon="13.534098034724593">
        <ele>-0.82</ele>
        <time>2024-09-15T14:42:22Z</time>
      </trkpt>
      <trkpt lat="54.354477021843195" lon="13.533805003389716">
        <ele>-0.82</ele>
        <time>2024-09-15T14:42:23Z</time>
      </trkpt>
      <trkpt lat="54.354671984910965" lon="13.531024977564812">
        <ele>-0.34</ele>
        <time>2024-09-15T14:42:32Z</time>
      </trkpt>
      <trkpt lat="54.354844987392426" lon="13.528545023873448">
        <ele>0.62</ele>
        <time>2024-09-15T14:42:40Z</time>
      </trkpt>
      <trkpt lat="54.355030981823802" lon="13.525881003588438">
        <ele>7.35</ele>
        <time>2024-09-15T14:42:49Z</time>
      </trkpt>
      <trkpt lat="54.355190992355347" lon="13.524056011810899">
        <ele>11.19</ele>
        <time>2024-09-15T14:42:55Z</time>
      </trkpt>
      <trkpt lat="54.355365000665188" lon="13.523236010223627">
        <ele>11.67</ele>
        <time>2024-09-15T14:42:58Z</time>
      </trkpt>
      <trkpt lat="54.355730032548308" lon="13.521515037864447">
        <ele>15.039999999999999</ele>
        <time>2024-09-15T14:43:05Z</time>
      </trkpt>
      <trkpt lat="54.355789963155985" lon="13.521129973232746">
        <ele>16</ele>
        <time>2024-09-15T14:43:07Z</time>
      </trkpt>
      <trkpt lat="54.355801027268171" lon="13.520948002114892">
        <ele>16</ele>
        <time>2024-09-15T14:43:08Z</time>
      </trkpt>
      <trkpt lat="54.355867998674512" lon="13.519447976723313">
        <ele>14.08</ele>
        <time>2024-09-15T14:43:16Z</time>
      </trkpt>
      <trkpt lat="54.355879984796047" lon="13.519306993111968">
        <ele>13.6</ele>
        <time>2024-09-15T14:43:17Z</time>
      </trkpt>
      <trkpt lat="54.355895994231105" lon="13.519152011722326">
        <ele>13.119999999999999</ele>
        <time>2024-09-15T14:43:18Z</time>
      </trkpt>
      <trkpt lat="54.355937987565994" lon="13.51903298869729">
        <ele>13.119999999999999</ele>
        <time>2024-09-15T14:43:19Z</time>
      </trkpt>
      <trkpt lat="54.355978975072503" lon="13.518917988985777">
        <ele>12.630000000000001</ele>
        <time>2024-09-15T14:43:20Z</time>
      </trkpt>
      <trkpt lat="54.356047036126256" lon="13.518801983445883">
        <ele>12.15</ele>
        <time>2024-09-15T14:43:21Z</time>
      </trkpt>
      <trkpt lat="54.356117025017738" lon="13.518707016482949">
        <ele>12.15</ele>
        <time>2024-09-15T14:43:22Z</time>
      </trkpt>
      <trkpt lat="54.356189025565982" lon="13.518609032034874">
        <ele>11.67</ele>
        <time>2024-09-15T14:43:23Z</time>
      </trkpt>
      <trkpt lat="54.356667967513204" lon="13.517958009615541">
        <ele>10.710000000000001</ele>
        <time>2024-09-15T14:43:29Z</time>
      </trkpt>
      <trkpt lat="54.356752038002014" lon="13.517844015732408">
        <ele>10.710000000000001</ele>
        <time>2024-09-15T14:43:30Z</time>
      </trkpt>
      <trkpt lat="54.356829989701509" lon="13.517738990485668">
        <ele>11.19</ele>
        <time>2024-09-15T14:43:31Z</time>
      </trkpt>
      <trkpt lat="54.356909031048417" lon="13.517620973289013">
        <ele>11.19</ele>
        <time>2024-09-15T14:43:32Z</time>
      </trkpt>
      <trkpt lat="54.356971979141235" lon="13.517468003556132">
        <ele>11.19</ele>
        <time>2024-09-15T14:43:33Z</time>
      </trkpt>
      <trkpt lat="54.357039034366608" lon="13.517306987196207">
        <ele>11.19</ele>
        <time>2024-09-15T14:43:34Z</time>
      </trkpt>
      <trkpt lat="54.357111034914851" lon="13.517133984714746">
        <ele>11.19</ele>
        <time>2024-09-15T14:43:35Z</time>
      </trkpt>
      <trkpt lat="54.357184963300824" lon="13.516957964748144">
        <ele>11.67</ele>
        <time>2024-09-15T14:43:36Z</time>
      </trkpt>
      <trkpt lat="54.357256963849068" lon="13.51677599363029">
        <ele>11.67</ele>
        <time>2024-09-15T14:43:37Z</time>
      </trkpt>
      <trkpt lat="54.357454022392631" lon="13.516180962324142">
        <ele>12.15</ele>
        <time>2024-09-15T14:43:40Z</time>
      </trkpt>
      <trkpt lat="54.357514958828688" lon="13.515961021184921">
        <ele>12.630000000000001</ele>
        <time>2024-09-15T14:43:41Z</time>
      </trkpt>
      <trkpt lat="54.357914021238685" lon="13.514165030792356">
        <ele>12.15</ele>
        <time>2024-09-15T14:43:48Z</time>
      </trkpt>
      <trkpt lat="54.358072020113468" lon="13.511073030531406">
        <ele>10.710000000000001</ele>
        <time>2024-09-15T14:43:58Z</time>
      </trkpt>
      <trkpt lat="54.358201017603278" lon="13.508242964744568">
        <ele>13.119999999999999</ele>
        <time>2024-09-15T14:44:07Z</time>
      </trkpt>
      <trkpt lat="54.35831299982965" lon="13.505267975851893">
        <ele>14.56</ele>
        <time>2024-09-15T14:44:16Z</time>
      </trkpt>
      <trkpt lat="54.358500000089407" lon="13.502762960270047">
        <ele>15.039999999999999</ele>
        <time>2024-09-15T14:44:24Z</time>
      </trkpt>
      <trkpt lat="54.358513997867703" lon="13.502479987218976">
        <ele>15.52</ele>
        <time>2024-09-15T14:44:25Z</time>
      </trkpt>
      <trkpt lat="54.358522966504097" lon="13.502196008339524">
        <ele>16</ele>
        <time>2024-09-15T14:44:26Z</time>
      </trkpt>
      <trkpt lat="54.358507040888071" lon="13.501897025853395">
        <ele>16</ele>
        <time>2024-09-15T14:44:27Z</time>
      </trkpt>
      <trkpt lat="54.35846203006804" lon="13.501583961769938">
        <ele>16</ele>
        <time>2024-09-15T14:44:28Z</time>
      </trkpt>
      <trkpt lat="54.358406960964203" lon="13.501277016475797">
        <ele>15.52</ele>
        <time>2024-09-15T14:44:29Z</time>
      </trkpt>
      <trkpt lat="54.358343007043004" lon="13.500975016504526">
        <ele>15.039999999999999</ele>
        <time>2024-09-15T14:44:30Z</time>
      </trkpt>
      <trkpt lat="54.358280980959535" lon="13.500677961856127">
        <ele>14.56</ele>
        <time>2024-09-15T14:44:31Z</time>
      </trkpt>
      <trkpt lat="54.358181990683079" lon="13.500408986583352">
        <ele>14.08</ele>
        <time>2024-09-15T14:44:32Z</time>
      </trkpt>
      <trkpt lat="54.358074031770229" lon="13.5001440346241">
        <ele>13.6</ele>
        <time>2024-09-15T14:44:33Z</time>
      </trkpt>
      <trkpt lat="54.357962971553206" lon="13.499878998845816">
        <ele>12.630000000000001</ele>
        <time>2024-09-15T14:44:34Z</time>
      </trkpt>
      <trkpt lat="54.357382021844387" lon="13.498154003173113">
        <ele>10.710000000000001</ele>
        <time>2024-09-15T14:44:40Z</time>
      </trkpt>
      <trkpt lat="54.357327036559582" lon="13.497842028737068">
        <ele>10.23</ele>
        <time>2024-09-15T14:44:41Z</time>
      </trkpt>
      <trkpt lat="54.357304992154241" lon="13.497513961046934">
        <ele>10.23</ele>
        <time>2024-09-15T14:44:42Z</time>
      </trkpt>
      <trkpt lat="54.357284037396312" lon="13.497197963297367">
        <ele>10.23</ele>
        <time>2024-09-15T14:44:43Z</time>
      </trkpt>
      <trkpt lat="54.357279008254409" lon="13.496862016618252">
        <ele>10.23</ele>
        <time>2024-09-15T14:44:44Z</time>
      </trkpt>
      <trkpt lat="54.357168031856418" lon="13.494918001815677">
        <ele>11.67</ele>
        <time>2024-09-15T14:44:50Z</time>
      </trkpt>
      <trkpt lat="54.357122015208006" lon="13.494605021551251">
        <ele>11.67</ele>
        <time>2024-09-15T14:44:51Z</time>
      </trkpt>
      <trkpt lat="54.357069041579962" lon="13.494304027408361">
        <ele>12.15</ele>
        <time>2024-09-15T14:44:52Z</time>
      </trkpt>
      <trkpt lat="54.356606025248766" lon="13.491582004353404">
        <ele>16.960000000000001</ele>
        <time>2024-09-15T14:45:01Z</time>
      </trkpt>
      <trkpt lat="54.356172010302544" lon="13.48899501375854">
        <ele>22.73</ele>
        <time>2024-09-15T14:45:10Z</time>
      </trkpt>
      <trkpt lat="54.355838997289538" lon="13.487005988135934">
        <ele>23.210000000000001</ele>
        <time>2024-09-15T14:45:18Z</time>
      </trkpt>
      <trkpt lat="54.355602962896228" lon="13.485591039061546">
        <ele>24.649999999999999</ele>
        <time>2024-09-15T14:45:26Z</time>
      </trkpt>
      <trkpt lat="54.355310015380383" lon="13.483798988163471">
        <ele>26.57</ele>
        <time>2024-09-15T14:45:35Z</time>
      </trkpt>
      <trkpt lat="54.355212030932307" lon="13.483199011534452">
        <ele>27.050000000000001</ele>
        <time>2024-09-15T14:45:38Z</time>
      </trkpt>
      <trkpt lat="54.35489603318274" lon="13.481258014217019">
        <ele>28.02</ele>
        <time>2024-09-15T14:45:48Z</time>
      </trkpt>
      <trkpt lat="54.354870971292257" lon="13.481098003685474">
        <ele>28.02</ele>
        <time>2024-09-15T14:45:49Z</time>
      </trkpt>
      <trkpt lat="54.354762006551027" lon="13.480211030691862">
        <ele>28.5</ele>
        <time>2024-09-15T14:45:56Z</time>
      </trkpt>
      <trkpt lat="54.354694029316306" lon="13.480067029595375">
        <ele>28.5</ele>
        <time>2024-09-15T14:45:57Z</time>
      </trkpt>
      <trkpt lat="54.354625968262553" lon="13.48005797713995">
        <ele>28.5</ele>
        <time>2024-09-15T14:45:58Z</time>
      </trkpt>
      <trkpt lat="54.354541981592774" lon="13.480046996846795">
        <ele>29.460000000000001</ele>
        <time>2024-09-15T14:45:59Z</time>
      </trkpt>
      <trkpt lat="54.354451037943363" lon="13.48003501072526">
        <ele>29.940000000000001</ele>
        <time>2024-09-15T14:46:00Z</time>
      </trkpt>
      <trkpt lat="54.354354981333017" lon="13.480022018775344">
        <ele>30.420000000000002</ele>
        <time>2024-09-15T14:46:01Z</time>
      </trkpt>
      <trkpt lat="54.354258002713323" lon="13.480010032653809">
        <ele>30.899999999999999</ele>
        <time>2024-09-15T14:46:02Z</time>
      </trkpt>
      <trkpt lat="54.353989027440548" lon="13.479973990470171">
        <ele>32.340000000000003</ele>
        <time>2024-09-15T14:46:05Z</time>
      </trkpt>
      <trkpt lat="54.353935969993472" lon="13.479967033490539">
        <ele>32.82</ele>
        <time>2024-09-15T14:46:06Z</time>
      </trkpt>
      <trkpt lat="54.353836979717016" lon="13.479880029335618">
        <ele>32.82</ele>
        <time>2024-09-15T14:46:07Z</time>
      </trkpt>
      <trkpt lat="54.353760033845901" lon="13.479808028787374">
        <ele>33.299999999999997</ele>
        <time>2024-09-15T14:46:08Z</time>
      </trkpt>
      <trkpt lat="54.35369499027729" lon="13.479678025469184">
        <ele>33.780000000000001</ele>
        <time>2024-09-15T14:46:09Z</time>
      </trkpt>
      <trkpt lat="54.353614021092653" lon="13.479517009109259">
        <ele>34.259999999999998</ele>
        <time>2024-09-15T14:46:10Z</time>
      </trkpt>
      <trkpt lat="54.353229040279984" lon="13.478576978668571">
        <ele>36.189999999999998</ele>
        <time>2024-09-15T14:46:16Z</time>
      </trkpt>
      <trkpt lat="54.353018989786506" lon="13.477911958470941">
        <ele>37.149999999999999</ele>
        <time>2024-09-15T14:46:20Z</time>
      </trkpt>
      <trkpt lat="54.352970961481333" lon="13.477594032883644">
        <ele>38.109999999999999</ele>
        <time>2024-09-15T14:46:22Z</time>
      </trkpt>
      <trkpt lat="54.352923016995192" lon="13.477276023477316">
        <ele>38.109999999999999</ele>
        <time>2024-09-15T14:46:24Z</time>
      </trkpt>
      <trkpt lat="54.352884963154793" lon="13.47696497105062">
        <ele>38.590000000000003</ele>
        <time>2024-09-15T14:46:26Z</time>
      </trkpt>
      <trkpt lat="54.352884963154793" lon="13.476458033546805">
        <ele>39.07</ele>
        <time>2024-09-15T14:46:29Z</time>
      </trkpt>
      <trkpt lat="54.352884963154793" lon="13.476291988044977">
        <ele>39.549999999999997</ele>
        <time>2024-09-15T14:46:30Z</time>
      </trkpt>
      <trkpt lat="54.352902984246612" lon="13.475648006424308">
        <ele>40.509999999999998</ele>
        <time>2024-09-15T14:46:34Z</time>
      </trkpt>
      <trkpt lat="54.352992000058293" lon="13.47539696842432">
        <ele>40.509999999999998</ele>
        <time>2024-09-15T14:46:36Z</time>
      </trkpt>
      <trkpt lat="54.353060983121395" lon="13.475289009511471">
        <ele>40.990000000000002</ele>
        <time>2024-09-15T14:46:37Z</time>
      </trkpt>
      <trkpt lat="54.353274973109365" lon="13.474976029247046">
        <ele>41.950000000000003</ele>
        <time>2024-09-15T14:46:40Z</time>
      </trkpt>
      <trkpt lat="54.353357031941414" lon="13.474860023707151">
        <ele>42.920000000000002</ele>
        <time>2024-09-15T14:46:41Z</time>
      </trkpt>
      <trkpt lat="54.353389972820878" lon="13.474749969318509">
        <ele>43.399999999999999</ele>
        <time>2024-09-15T14:46:42Z</time>
      </trkpt>
      <trkpt lat="54.353431966155767" lon="13.474612003192306">
        <ele>43.399999999999999</ele>
        <time>2024-09-15T14:46:43Z</time>
      </trkpt>
      <trkpt lat="54.353471025824547" lon="13.474480994045734">
        <ele>43.880000000000003</ele>
        <time>2024-09-15T14:46:44Z</time>
      </trkpt>
      <trkpt lat="54.353488963097334" lon="13.474343027919531">
        <ele>44.359999999999999</ele>
        <time>2024-09-15T14:46:45Z</time>
      </trkpt>
      <trkpt lat="54.353494998067617" lon="13.474202966317534">
        <ele>44.359999999999999</ele>
        <time>2024-09-15T14:46:46Z</time>
      </trkpt>
      <trkpt lat="54.353501033037901" lon="13.474053014069796">
        <ele>44.840000000000003</ele>
        <time>2024-09-15T14:46:47Z</time>
      </trkpt>
      <trkpt lat="54.353504972532392" lon="13.473883029073477">
        <ele>45.32</ele>
        <time>2024-09-15T14:46:48Z</time>
      </trkpt>
      <trkpt lat="54.353471025824547" lon="13.473723018541932">
        <ele>45.32</ele>
        <time>2024-09-15T14:46:49Z</time>
      </trkpt>
      <trkpt lat="54.35343699529767" lon="13.473558984696865">
        <ele>45.799999999999997</ele>
        <time>2024-09-15T14:46:50Z</time>
      </trkpt>
      <trkpt lat="54.353402964770794" lon="13.47339897416532">
        <ele>46.759999999999998</ele>
        <time>2024-09-15T14:46:51Z</time>
      </trkpt>
      <trkpt lat="54.353368012234569" lon="13.473235024139285">
        <ele>47.719999999999999</ele>
        <time>2024-09-15T14:46:52Z</time>
      </trkpt>
      <trkpt lat="54.353331970050931" lon="13.473061015829444">
        <ele>48.200000000000003</ele>
        <time>2024-09-15T14:46:53Z</time>
      </trkpt>
      <trkpt lat="54.353065006434917" lon="13.471788978204131">
        <ele>51.57</ele>
        <time>2024-09-15T14:47:01Z</time>
      </trkpt>
      <trkpt lat="54.353034999221563" lon="13.471649000421166">
        <ele>52.049999999999997</ele>
        <time>2024-09-15T14:47:02Z</time>
      </trkpt>
      <trkpt lat="54.352765018120408" lon="13.470364976674318">
        <ele>53.009999999999998</ele>
        <time>2024-09-15T14:47:12Z</time>
      </trkpt>
      <trkpt lat="54.352708021178842" lon="13.470082003623247">
        <ele>53.009999999999998</ele>
        <time>2024-09-15T14:47:15Z</time>
      </trkpt>
      <trkpt lat="54.352693017572165" lon="13.469988964498043">
        <ele>53.009999999999998</ele>
        <time>2024-09-15T14:47:16Z</time>
      </trkpt>
      <trkpt lat="54.352679019793868" lon="13.469901960343122">
        <ele>53.009999999999998</ele>
        <time>2024-09-15T14:47:17Z</time>
      </trkpt>
      <trkpt lat="54.352665022015572" lon="13.469815040007234">
        <ele>53.009999999999998</ele>
        <time>2024-09-15T14:47:18Z</time>
      </trkpt>
      <trkpt lat="54.352651024237275" lon="13.46972200088203">
        <ele>53.009999999999998</ele>
        <time>2024-09-15T14:47:19Z</time>
      </trkpt>
      <trkpt lat="54.352548010647297" lon="13.469282034784555">
        <ele>51.090000000000003</ele>
        <time>2024-09-15T14:47:23Z</time>
      </trkpt>
      <trkpt lat="54.352214997634292" lon="13.467759964987636">
        <ele>48.68</ele>
        <time>2024-09-15T14:47:34Z</time>
      </trkpt>
      <trkpt lat="54.351811995729804" lon="13.465876970440149">
        <ele>50.609999999999999</ele>
        <time>2024-09-15T14:47:45Z</time>
      </trkpt>
      <trkpt lat="54.351401031017303" lon="13.463915018364787">
        <ele>53.009999999999998</ele>
        <time>2024-09-15T14:47:57Z</time>
      </trkpt>
      <trkpt lat="54.351360965520144" lon="13.463734975084662">
        <ele>53.009999999999998</ele>
        <time>2024-09-15T14:47:58Z</time>
      </trkpt>
      <trkpt lat="54.351320983842015" lon="13.463549986481667">
        <ele>53.490000000000002</ele>
        <time>2024-09-15T14:47:59Z</time>
      </trkpt>
      <trkpt lat="54.351124009117484" lon="13.462666030973196">
        <ele>54.450000000000003</ele>
        <time>2024-09-15T14:48:04Z</time>
      </trkpt>
      <trkpt lat="54.351083021610975" lon="13.46248003654182">
        <ele>55.409999999999997</ele>
        <time>2024-09-15T14:48:05Z</time>
      </trkpt>
      <trkpt lat="54.350649006664753" lon="13.460467038676143">
        <ele>59.740000000000002</ele>
        <time>2024-09-15T14:48:16Z</time>
      </trkpt>
      <trkpt lat="54.350609024986625" lon="13.460284983739257">
        <ele>59.740000000000002</ele>
        <time>2024-09-15T14:48:17Z</time>
      </trkpt>
      <trkpt lat="54.350160006433725" lon="13.458186993375421">
        <ele>57.340000000000003</ele>
        <time>2024-09-15T14:48:27Z</time>
      </trkpt>
      <trkpt lat="54.350001001730561" lon="13.457446033135056">
        <ele>56.859999999999999</ele>
        <time>2024-09-15T14:48:30Z</time>
      </trkpt>
      <trkpt lat="54.349576039239764" lon="13.455490032210946">
        <ele>57.82</ele>
        <time>2024-09-15T14:48:37Z</time>
      </trkpt>
      <trkpt lat="54.349120985716581" lon="13.453358011320233">
        <ele>58.780000000000001</ele>
        <time>2024-09-15T14:48:44Z</time>
      </trkpt>
      <trkpt lat="54.348672972992063" lon="13.451351970434189">
        <ele>57.82</ele>
        <time>2024-09-15T14:48:51Z</time>
      </trkpt>
      <trkpt lat="54.348479015752673" lon="13.449525972828269">
        <ele>55.890000000000001</ele>
        <time>2024-09-15T14:48:57Z</time>
      </trkpt>
      <trkpt lat="54.34836502186954" lon="13.447740040719509">
        <ele>53.009999999999998</ele>
        <time>2024-09-15T14:49:03Z</time>
      </trkpt>
      <trkpt lat="54.348348006606102" lon="13.447456983849406">
        <ele>53.009999999999998</ele>
        <time>2024-09-15T14:49:04Z</time>
      </trkpt>
      <trkpt lat="54.348330991342664" lon="13.44716596417129">
        <ele>52.530000000000001</ele>
        <time>2024-09-15T14:49:05Z</time>
      </trkpt>
      <trkpt lat="54.348313976079226" lon="13.446877961978316">
        <ele>52.530000000000001</ele>
        <time>2024-09-15T14:49:06Z</time>
      </trkpt>
      <trkpt lat="54.348297966644168" lon="13.44660404138267">
        <ele>52.049999999999997</ele>
        <time>2024-09-15T14:49:07Z</time>
      </trkpt>
      <trkpt lat="54.348282041028142" lon="13.446329031139612">
        <ele>51.090000000000003</ele>
        <time>2024-09-15T14:49:08Z</time>
      </trkpt>
      <trkpt lat="54.348264019936323" lon="13.446039017289877">
        <ele>50.609999999999999</ele>
        <time>2024-09-15T14:49:09Z</time>
      </trkpt>
      <trkpt lat="54.348133010789752" lon="13.443805994465947">
        <ele>46.280000000000001</ele>
        <time>2024-09-15T14:49:16Z</time>
      </trkpt>
      <trkpt lat="54.348112978041172" lon="13.443465018644929">
        <ele>45.32</ele>
        <time>2024-09-15T14:49:17Z</time>
      </trkpt>
      <trkpt lat="54.347904017195106" lon="13.440274028107524">
        <ele>40.990000000000002</ele>
        <time>2024-09-15T14:49:26Z</time>
      </trkpt>
      <trkpt lat="54.347697990015149" lon="13.437175992876291">
        <ele>36.670000000000002</ele>
        <time>2024-09-15T14:49:35Z</time>
      </trkpt>
      <trkpt lat="54.34763596393168" lon="13.43625096604228">
        <ele>36.189999999999998</ele>
        <time>2024-09-15T14:49:38Z</time>
      </trkpt>
      <trkpt lat="54.347615009173751" lon="13.435941003262997">
        <ele>36.670000000000002</ele>
        <time>2024-09-15T14:49:39Z</time>
      </trkpt>
      <trkpt lat="54.347465978935361" lon="13.433687025681138">
        <ele>38.590000000000003</ele>
        <time>2024-09-15T14:49:46Z</time>
      </trkpt>
      <trkpt lat="54.347360031679273" lon="13.432481959462166">
        <ele>38.109999999999999</ele>
        <time>2024-09-15T14:49:50Z</time>
      </trkpt>
      <trkpt lat="54.347299011424184" lon="13.432194041088223">
        <ele>38.590000000000003</ele>
        <time>2024-09-15T14:49:51Z</time>
      </trkpt>
      <trkpt lat="54.347242014482617" lon="13.431923976168036">
        <ele>39.07</ele>
        <time>2024-09-15T14:49:52Z</time>
      </trkpt>
      <trkpt lat="54.347128020599484" lon="13.431647038087249">
        <ele>40.030000000000001</ele>
        <time>2024-09-15T14:49:53Z</time>
      </trkpt>
      <trkpt lat="54.347004974260926" lon="13.431413015350699">
        <ele>40.509999999999998</ele>
        <time>2024-09-15T14:49:54Z</time>
      </trkpt>
      <trkpt lat="54.346864996477962" lon="13.431175975129008">
        <ele>40.509999999999998</ele>
        <time>2024-09-15T14:49:55Z</time>
      </trkpt>
      <trkpt lat="54.346722001209855" lon="13.430933989584446">
        <ele>40.990000000000002</ele>
        <time>2024-09-15T14:49:56Z</time>
      </trkpt>
      <trkpt lat="54.345851959660649" lon="13.429414015263319">
        <ele>43.399999999999999</ele>
        <time>2024-09-15T14:50:03Z</time>
      </trkpt>
      <trkpt lat="54.345012009143829" lon="13.428013985976577">
        <ele>41.469999999999999</ele>
        <time>2024-09-15T14:50:11Z</time>
      </trkpt>
      <trkpt lat="54.34436802752316" lon="13.426913022994995">
        <ele>39.07</ele>
        <time>2024-09-15T14:50:20Z</time>
      </trkpt>
      <trkpt lat="54.343752963468432" lon="13.425854975357652">
        <ele>34.259999999999998</ele>
        <time>2024-09-15T14:50:28Z</time>
      </trkpt>
      <trkpt lat="54.34273598715663" lon="13.42410902492702">
        <ele>26.57</ele>
        <time>2024-09-15T14:50:40Z</time>
      </trkpt>
      <trkpt lat="54.341826969757676" lon="13.42247799038887">
        <ele>18.879999999999999</ele>
        <time>2024-09-15T14:50:51Z</time>
      </trkpt>
      <trkpt lat="54.341351967304945" lon="13.421026999130845">
        <ele>18.399999999999999</ele>
        <time>2024-09-15T14:50:59Z</time>
      </trkpt>
      <trkpt lat="54.341290025040507" lon="13.420837987214327">
        <ele>19.359999999999999</ele>
        <time>2024-09-15T14:51:00Z</time>
      </trkpt>
      <trkpt lat="54.34123101644218" lon="13.420656016096473">
        <ele>19.84</ele>
        <time>2024-09-15T14:51:01Z</time>
      </trkpt>
      <trkpt lat="54.340686025097966" lon="13.419068986549973">
        <ele>21.289999999999999</ele>
        <time>2024-09-15T14:51:10Z</time>
      </trkpt>
      <trkpt lat="54.340603966265917" lon="13.418934037908912">
        <ele>21.77</ele>
        <time>2024-09-15T14:51:11Z</time>
      </trkpt>
      <trkpt lat="54.340514028444886" lon="13.418839992955327">
        <ele>21.77</ele>
        <time>2024-09-15T14:51:12Z</time>
      </trkpt>
      <trkpt lat="54.340426018461585" lon="13.418748965486884">
        <ele>22.25</ele>
        <time>2024-09-15T14:51:13Z</time>
      </trkpt>
      <trkpt lat="54.340339014306664" lon="13.418658021837473">
        <ele>22.25</ele>
        <time>2024-09-15T14:51:14Z</time>
      </trkpt>
      <trkpt lat="54.340090993791819" lon="13.418401032686234">
        <ele>23.210000000000001</ele>
        <time>2024-09-15T14:51:17Z</time>
      </trkpt>
      <trkpt lat="54.340023016557097" lon="13.418297013267875">
        <ele>23.210000000000001</ele>
        <time>2024-09-15T14:51:18Z</time>
      </trkpt>
      <trkpt lat="54.339967025443912" lon="13.418177990242839">
        <ele>23.210000000000001</ele>
        <time>2024-09-15T14:51:19Z</time>
      </trkpt>
      <trkpt lat="54.339902987703681" lon="13.418040024116635">
        <ele>23.210000000000001</ele>
        <time>2024-09-15T14:51:20Z</time>
      </trkpt>
      <trkpt lat="54.339874992147088" lon="13.417895017191768">
        <ele>23.690000000000001</ele>
        <time>2024-09-15T14:51:21Z</time>
      </trkpt>
      <trkpt lat="54.339844984933734" lon="13.417741041630507">
        <ele>23.690000000000001</ele>
        <time>2024-09-15T14:51:22Z</time>
      </trkpt>
      <trkpt lat="54.339699978008866" lon="13.417067974805832">
        <ele>24.170000000000002</ele>
        <time>2024-09-15T14:51:27Z</time>
      </trkpt>
      <trkpt lat="54.339652033522725" lon="13.416988011449575">
        <ele>23.690000000000001</ele>
        <time>2024-09-15T14:51:28Z</time>
      </trkpt>
      <trkpt lat="54.339581038802862" lon="13.416903018951416">
        <ele>24.170000000000002</ele>
        <time>2024-09-15T14:51:29Z</time>
      </trkpt>
      <trkpt lat="54.339129002764821" lon="13.416574029251933">
        <ele>26.09</ele>
        <time>2024-09-15T14:51:34Z</time>
      </trkpt>
      <trkpt lat="54.339036969467998" lon="13.416471015661955">
        <ele>26.57</ele>
        <time>2024-09-15T14:51:35Z</time>
      </trkpt>
      <trkpt lat="54.338940996676683" lon="13.416343024000525">
        <ele>26.57</ele>
        <time>2024-09-15T14:51:36Z</time>
      </trkpt>
      <trkpt lat="54.338843012228608" lon="13.416200028732419">
        <ele>27.050000000000001</ele>
        <time>2024-09-15T14:51:37Z</time>
      </trkpt>
      <trkpt lat="54.338743016123772" lon="13.416023002937436">
        <ele>27.050000000000001</ele>
        <time>2024-09-15T14:51:38Z</time>
      </trkpt>
      <trkpt lat="54.338663974776864" lon="13.415801972150803">
        <ele>27.050000000000001</ele>
        <time>2024-09-15T14:51:39Z</time>
      </trkpt>
      <trkpt lat="54.338227026164532" lon="13.414324996992946">
        <ele>26.57</ele>
        <time>2024-09-15T14:51:45Z</time>
      </trkpt>
      <trkpt lat="54.337617997080088" lon="13.412259025499225">
        <ele>26.09</ele>
        <time>2024-09-15T14:51:52Z</time>
      </trkpt>
      <trkpt lat="54.336851974949241" lon="13.409661976620555">
        <ele>28.98</ele>
        <time>2024-09-15T14:52:01Z</time>
      </trkpt>
      <trkpt lat="54.33618301525712" lon="13.407372962683439">
        <ele>31.859999999999999</ele>
        <time>2024-09-15T14:52:09Z</time>
      </trkpt>
      <trkpt lat="54.335637018084526" lon="13.405531039461493">
        <ele>32.82</ele>
        <time>2024-09-15T14:52:16Z</time>
      </trkpt>
      <trkpt lat="54.335549008101225" lon="13.405232978984714">
        <ele>32.340000000000003</ele>
        <time>2024-09-15T14:52:17Z</time>
      </trkpt>
      <trkpt lat="54.334845012053847" lon="13.402844974771142">
        <ele>31.379999999999999</ele>
        <time>2024-09-15T14:52:25Z</time>
      </trkpt>
      <trkpt lat="54.334259033203125" lon="13.40084102936089">
        <ele>30.420000000000002</ele>
        <time>2024-09-15T14:52:32Z</time>
      </trkpt>
      <trkpt lat="54.333524024114013" lon="13.398330984637141">
        <ele>28.5</ele>
        <time>2024-09-15T14:52:40Z</time>
      </trkpt>
      <trkpt lat="54.332719026133418" lon="13.395581971853971">
        <ele>26.57</ele>
        <time>2024-09-15T14:52:49Z</time>
      </trkpt>
      <trkpt lat="54.331919979304075" lon="13.39284997433424">
        <ele>23.690000000000001</ele>
        <time>2024-09-15T14:52:58Z</time>
      </trkpt>
      <trkpt lat="54.331288989633322" lon="13.390695992857218">
        <ele>24.170000000000002</ele>
        <time>2024-09-15T14:53:05Z</time>
      </trkpt>
      <trkpt lat="54.330473011359572" lon="13.3879080042243">
        <ele>27.050000000000001</ele>
        <time>2024-09-15T14:53:14Z</time>
      </trkpt>
      <trkpt lat="54.330288022756577" lon="13.387278020381927">
        <ele>28.02</ele>
        <time>2024-09-15T14:53:16Z</time>
      </trkpt>
      <trkpt lat="54.330194983631372" lon="13.38696202263236">
        <ele>28.02</ele>
        <time>2024-09-15T14:53:17Z</time>
      </trkpt>
      <trkpt lat="54.330103034153581" lon="13.386648958548903">
        <ele>28.5</ele>
        <time>2024-09-15T14:53:18Z</time>
      </trkpt>
      <trkpt lat="54.330013012513518" lon="13.386344024911523">
        <ele>28.5</ele>
        <time>2024-09-15T14:53:19Z</time>
      </trkpt>
      <trkpt lat="54.329928020015359" lon="13.386056022718549">
        <ele>28.5</ele>
        <time>2024-09-15T14:53:20Z</time>
      </trkpt>
      <trkpt lat="54.329367019236088" lon="13.384165987372398">
        <ele>26.57</ele>
        <time>2024-09-15T14:53:27Z</time>
      </trkpt>
      <trkpt lat="54.329209020361304" lon="13.38363197632134">
        <ele>26.09</ele>
        <time>2024-09-15T14:53:29Z</time>
      </trkpt>
      <trkpt lat="54.329127967357635" lon="13.383356966078281">
        <ele>25.609999999999999</ele>
        <time>2024-09-15T14:53:30Z</time>
      </trkpt>
      <trkpt lat="54.328508041799068" lon="13.381231985986233">
        <ele>24.649999999999999</ele>
        <time>2024-09-15T14:53:37Z</time>
      </trkpt>
      <trkpt lat="54.327807985246181" lon="13.378850016742945">
        <ele>23.210000000000001</ele>
        <time>2024-09-15T14:53:45Z</time>
      </trkpt>
      <trkpt lat="54.327195016667247" lon="13.376745991408825">
        <ele>21.289999999999999</ele>
        <time>2024-09-15T14:53:52Z</time>
      </trkpt>
      <trkpt lat="54.326503006741405" lon="13.374353041872382">
        <ele>19.359999999999999</ele>
        <time>2024-09-15T14:54:00Z</time>
      </trkpt>
      <trkpt lat="54.325820971280336" lon="13.372038966044784">
        <ele>18.399999999999999</ele>
        <time>2024-09-15T14:54:08Z</time>
      </trkpt>
      <trkpt lat="54.325044974684715" lon="13.369422974064946">
        <ele>16</ele>
        <time>2024-09-15T14:54:17Z</time>
      </trkpt>
      <trkpt lat="54.324460001662374" lon="13.367448030039668">
        <ele>15.039999999999999</ele>
        <time>2024-09-15T14:54:24Z</time>
      </trkpt>
      <trkpt lat="54.323834963142872" lon="13.365329001098871">
        <ele>14.08</ele>
        <time>2024-09-15T14:54:31Z</time>
      </trkpt>
      <trkpt lat="54.32320699095726" lon="13.363206032663584">
        <ele>11.67</ele>
        <time>2024-09-15T14:54:38Z</time>
      </trkpt>
      <trkpt lat="54.32234600186348" lon="13.360294997692108">
        <ele>12.630000000000001</ele>
        <time>2024-09-15T14:54:48Z</time>
      </trkpt>
      <trkpt lat="54.321846021339297" lon="13.358556004241109">
        <ele>12.630000000000001</ele>
        <time>2024-09-15T14:54:56Z</time>
      </trkpt>
      <trkpt lat="54.321785001084208" lon="13.358349977061152">
        <ele>12.630000000000001</ele>
        <time>2024-09-15T14:54:57Z</time>
      </trkpt>
      <trkpt lat="54.321726998314261" lon="13.358153002336621">
        <ele>12.15</ele>
        <time>2024-09-15T14:54:58Z</time>
      </trkpt>
      <trkpt lat="54.321457017213106" lon="13.357263011857867">
        <ele>13.119999999999999</ele>
        <time>2024-09-15T14:55:03Z</time>
      </trkpt>
      <trkpt lat="54.321393985301256" lon="13.357089003548026">
        <ele>13.119999999999999</ele>
        <time>2024-09-15T14:55:04Z</time>
      </trkpt>
      <trkpt lat="54.321331037208438" lon="13.356917006894946">
        <ele>13.119999999999999</ele>
        <time>2024-09-15T14:55:05Z</time>
      </trkpt>
      <trkpt lat="54.320879001170397" lon="13.355692997574806">
        <ele>12.15</ele>
        <time>2024-09-15T14:55:12Z</time>
      </trkpt>
      <trkpt lat="54.320816975086927" lon="13.35552804172039">
        <ele>11.67</ele>
        <time>2024-09-15T14:55:13Z</time>
      </trkpt>
      <trkpt lat="54.320459989830852" lon="13.354547023773193">
        <ele>9.75</ele>
        <time>2024-09-15T14:55:19Z</time>
      </trkpt>
      <trkpt lat="54.320000996813178" lon="13.353284038603306">
        <ele>7.83</ele>
        <time>2024-09-15T14:55:28Z</time>
      </trkpt>
      <trkpt lat="54.319943999871612" lon="13.353126961737871">
        <ele>7.83</ele>
        <time>2024-09-15T14:55:29Z</time>
      </trkpt>
      <trkpt lat="54.319887002930045" lon="13.352969968691468">
        <ele>7.35</ele>
        <time>2024-09-15T14:55:30Z</time>
      </trkpt>
      <trkpt lat="54.319662032648921" lon="13.352223979309201">
        <ele>7.35</ele>
        <time>2024-09-15T14:55:35Z</time>
      </trkpt>
      <trkpt lat="54.319582991302013" lon="13.351907981559634">
        <ele>8.310000000000001</ele>
        <time>2024-09-15T14:55:38Z</time>
      </trkpt>
      <trkpt lat="54.319579973816872" lon="13.351880991831422">
        <ele>8.789999999999999</ele>
        <time>2024-09-15T14:55:39Z</time>
      </trkpt>
      <trkpt lat="54.31957402266562" lon="13.35183396935463">
        <ele>9.75</ele>
        <time>2024-09-15T14:55:40Z</time>
      </trkpt>
      <trkpt lat="54.319569999352098" lon="13.351801028475165">
        <ele>9.75</ele>
        <time>2024-09-15T14:55:41Z</time>
      </trkpt>
      <trkpt lat="54.319565976038575" lon="13.351765992119908">
        <ele>9.75</ele>
        <time>2024-09-15T14:55:42Z</time>
      </trkpt>
      <trkpt lat="54.319561030715704" lon="13.351728022098541">
        <ele>9.75</ele>
        <time>2024-09-15T14:55:43Z</time>
      </trkpt>
      <trkpt lat="54.31955499574542" lon="13.351675970479846">
        <ele>10.23</ele>
        <time>2024-09-15T14:55:44Z</time>
      </trkpt>
      <trkpt lat="54.319548960775137" lon="13.351617967709899">
        <ele>10.23</ele>
        <time>2024-09-15T14:55:45Z</time>
      </trkpt>
      <trkpt lat="54.319496992975473" lon="13.351552002131939">
        <ele>10.710000000000001</ele>
        <time>2024-09-15T14:55:46Z</time>
      </trkpt>
      <trkpt lat="54.319432033225894" lon="13.351565999910235">
        <ele>10.710000000000001</ele>
        <time>2024-09-15T14:55:47Z</time>
      </trkpt>
      <trkpt lat="54.31935902684927" lon="13.351581003516912">
        <ele>10.710000000000001</ele>
        <time>2024-09-15T14:55:48Z</time>
      </trkpt>
      <trkpt lat="54.319278979673982" lon="13.351598018780351">
        <ele>10.710000000000001</ele>
        <time>2024-09-15T14:55:49Z</time>
      </trkpt>
      <trkpt lat="54.319192981347442" lon="13.351616039872169">
        <ele>10.23</ele>
        <time>2024-09-15T14:55:50Z</time>
      </trkpt>
      <trkpt lat="54.31830701418221" lon="13.351766997948289">
        <ele>12.15</ele>
        <time>2024-09-15T14:55:59Z</time>
      </trkpt>
      <trkpt lat="54.317270005121827" lon="13.352021975442767">
        <ele>16</ele>
        <time>2024-09-15T14:56:08Z</time>
      </trkpt>
      <trkpt lat="54.3168880417943" lon="13.352177962660789">
        <ele>16.48</ele>
        <time>2024-09-15T14:56:13Z</time>
      </trkpt>
      <trkpt lat="54.316833978518844" lon="13.352200007066131">
        <ele>16.960000000000001</ele>
        <time>2024-09-15T14:56:14Z</time>
      </trkpt>
      <trkpt lat="54.31676097214222" lon="13.352036979049444">
        <ele>16.960000000000001</ele>
        <time>2024-09-15T14:56:15Z</time>
      </trkpt>
      <trkpt lat="54.316729037091136" lon="13.351932037621737">
        <ele>17.440000000000001</ele>
        <time>2024-09-15T14:56:16Z</time>
      </trkpt>
      <trkpt lat="54.316692994907498" lon="13.351815026253462">
        <ele>17.440000000000001</ele>
        <time>2024-09-15T14:56:17Z</time>
      </trkpt>
      <trkpt lat="54.31665301322937" lon="13.351688040420413">
        <ele>17.440000000000001</ele>
        <time>2024-09-15T14:56:18Z</time>
      </trkpt>
      <trkpt lat="54.316541031002998" lon="13.35108102299273">
        <ele>18.399999999999999</ele>
        <time>2024-09-15T14:56:22Z</time>
      </trkpt>
      <trkpt lat="54.316527033224702" lon="13.350926041603088">
        <ele>18.399999999999999</ele>
        <time>2024-09-15T14:56:23Z</time>
      </trkpt>
      <trkpt lat="54.316514041274786" lon="13.35060702636838">
        <ele>18.399999999999999</ele>
        <time>2024-09-15T14:56:25Z</time>
      </trkpt>
      <trkpt lat="54.316529966890812" lon="13.348746998235583">
        <ele>16</ele>
        <time>2024-09-15T14:56:35Z</time>
      </trkpt>
      <trkpt lat="54.316531978547573" lon="13.348176022991538">
        <ele>16</ele>
        <time>2024-09-15T14:56:38Z</time>
      </trkpt>
      <trkpt lat="54.316470036283135" lon="13.346343990415335">
        <ele>14.08</ele>
        <time>2024-09-15T14:56:48Z</time>
      </trkpt>
      <trkpt lat="54.316462995484471" lon="13.346198983490467">
        <ele>14.08</ele>
        <time>2024-09-15T14:56:49Z</time>
      </trkpt>
      <trkpt lat="54.316456960514188" lon="13.346063029021025">
        <ele>14.08</ele>
        <time>2024-09-15T14:56:50Z</time>
      </trkpt>
      <trkpt lat="54.316579001024365" lon="13.345814002677798">
        <ele>13.6</ele>
        <time>2024-09-15T14:56:51Z</time>
      </trkpt>
      <trkpt lat="54.31658604182303" lon="13.345803022384644">
        <ele>13.6</ele>
        <time>2024-09-15T14:56:52Z</time>
      </trkpt>
      <trkpt lat="54.316659970209002" lon="13.345695985481143">
        <ele>13.119999999999999</ele>
        <time>2024-09-15T14:56:53Z</time>
      </trkpt>
      <trkpt lat="54.31673800572753" lon="13.345584003254771">
        <ele>13.119999999999999</ele>
        <time>2024-09-15T14:56:54Z</time>
      </trkpt>
      <trkpt lat="54.316785028204322" lon="13.345423992723227">
        <ele>12.630000000000001</ele>
        <time>2024-09-15T14:56:55Z</time>
      </trkpt>
      <trkpt lat="54.316806988790631" lon="13.345250990241766">
        <ele>11.67</ele>
        <time>2024-09-15T14:56:56Z</time>
      </trkpt>
      <trkpt lat="54.316830039024353" lon="13.345072036609054">
        <ele>11.67</ele>
        <time>2024-09-15T14:56:57Z</time>
      </trkpt>
      <trkpt lat="54.316853005439043" lon="13.344886964187026">
        <ele>11.19</ele>
        <time>2024-09-15T14:56:58Z</time>
      </trkpt>
      <trkpt lat="54.316878989338875" lon="13.344676997512579">
        <ele>10.710000000000001</ele>
        <time>2024-09-15T14:56:59Z</time>
      </trkpt>
      <trkpt lat="54.316921988502145" lon="13.343663038685918">
        <ele>9.75</ele>
        <time>2024-09-15T14:57:04Z</time>
      </trkpt>
      <trkpt lat="54.317029025405645" lon="13.342166030779481">
        <ele>10.710000000000001</ele>
        <time>2024-09-15T14:57:11Z</time>
      </trkpt>
      <trkpt lat="54.317103959619999" lon="13.341792030259967">
        <ele>11.19</ele>
        <time>2024-09-15T14:57:13Z</time>
      </trkpt>
      <trkpt lat="54.317113012075424" lon="13.341526994481683">
        <ele>11.19</ele>
        <time>2024-09-15T14:57:14Z</time>
      </trkpt>
      <trkpt lat="54.317070012912154" lon="13.341330019757152">
        <ele>11.19</ele>
        <time>2024-09-15T14:57:15Z</time>
      </trkpt>
      <trkpt lat="54.316949984058738" lon="13.339043017476797">
        <ele>10.710000000000001</ele>
        <time>2024-09-15T14:57:23Z</time>
      </trkpt>
      <trkpt lat="54.316859040409327" lon="13.337946999818087">
        <ele>10.710000000000001</ele>
        <time>2024-09-15T14:57:27Z</time>
      </trkpt>
      <trkpt lat="54.316835990175605" lon="13.337680958211422">
        <ele>10.710000000000001</ele>
        <time>2024-09-15T14:57:28Z</time>
      </trkpt>
      <trkpt lat="54.31678201071918" lon="13.337537040933967">
        <ele>10.710000000000001</ele>
        <time>2024-09-15T14:57:29Z</time>
      </trkpt>
      <trkpt lat="54.316670028492808" lon="13.337382981553674">
        <ele>11.19</ele>
        <time>2024-09-15T14:57:30Z</time>
      </trkpt>
      <trkpt lat="54.31654597632587" lon="13.337228000164032">
        <ele>11.19</ele>
        <time>2024-09-15T14:57:31Z</time>
      </trkpt>
      <trkpt lat="54.31639501824975" lon="13.337075030431151">
        <ele>11.67</ele>
        <time>2024-09-15T14:57:32Z</time>
      </trkpt>
      <trkpt lat="54.316217992454767" lon="13.336906973272562">
        <ele>12.15</ele>
        <time>2024-09-15T14:57:33Z</time>
      </trkpt>
      <trkpt lat="54.315099008381367" lon="13.335841968655586">
        <ele>13.119999999999999</ele>
        <time>2024-09-15T14:57:39Z</time>
      </trkpt>
      <trkpt lat="54.314631968736649" lon="13.335466040298343">
        <ele>13.6</ele>
        <time>2024-09-15T14:57:42Z</time>
      </trkpt>
      <trkpt lat="54.31446198374033" lon="13.335399990901351">
        <ele>14.08</ele>
        <time>2024-09-15T14:57:43Z</time>
      </trkpt>
      <trkpt lat="54.312967993319035" lon="13.334809988737106">
        <ele>13.6</ele>
        <time>2024-09-15T14:57:52Z</time>
      </trkpt>
      <trkpt lat="54.312098035588861" lon="13.334358958527446">
        <ele>10.23</ele>
        <time>2024-09-15T14:57:58Z</time>
      </trkpt>
      <trkpt lat="54.311985969543457" lon="13.334221998229623">
        <ele>10.23</ele>
        <time>2024-09-15T14:57:59Z</time>
      </trkpt>
      <trkpt lat="54.311903994530439" lon="13.33404497243464">
        <ele>9.75</ele>
        <time>2024-09-15T14:58:00Z</time>
      </trkpt>
      <trkpt lat="54.311345005407929" lon="13.332590041682124">
        <ele>10.710000000000001</ele>
        <time>2024-09-15T14:58:06Z</time>
      </trkpt>
      <trkpt lat="54.310932029038668" lon="13.331404002383351">
        <ele>9.75</ele>
        <time>2024-09-15T14:58:11Z</time>
      </trkpt>
      <trkpt lat="54.310872014611959" lon="13.331165034323931">
        <ele>9.75</ele>
        <time>2024-09-15T14:58:12Z</time>
      </trkpt>
      <trkpt lat="54.310836978256702" lon="13.330901004374027">
        <ele>9.75</ele>
        <time>2024-09-15T14:58:13Z</time>
      </trkpt>
      <trkpt lat="54.310478987172246" lon="13.328176969662309">
        <ele>12.15</ele>
        <time>2024-09-15T14:58:22Z</time>
      </trkpt>
      <trkpt lat="54.310130970552564" lon="13.326305039227009">
        <ele>14.56</ele>
        <time>2024-09-15T14:58:29Z</time>
      </trkpt>
      <trkpt lat="54.309552032500505" lon="13.324626982212067">
        <ele>12.15</ele>
        <time>2024-09-15T14:58:34Z</time>
      </trkpt>
      <trkpt lat="54.308678973466158" lon="13.322147028520703">
        <ele>6.87</ele>
        <time>2024-09-15T14:58:41Z</time>
      </trkpt>
      <trkpt lat="54.307710025459528" lon="13.31939198076725">
        <ele>4.46</ele>
        <time>2024-09-15T14:58:50Z</time>
      </trkpt>
      <trkpt lat="54.30683696642518" lon="13.316910015419126">
        <ele>6.87</ele>
        <time>2024-09-15T14:58:59Z</time>
      </trkpt>
      <trkpt lat="54.306358024477959" lon="13.31556698307395">
        <ele>10.710000000000001</ele>
        <time>2024-09-15T14:59:07Z</time>
      </trkpt>
      <trkpt lat="54.306063987314701" lon="13.314742958173156">
        <ele>11.19</ele>
        <time>2024-09-15T14:59:12Z</time>
      </trkpt>
      <trkpt lat="54.305742038413882" lon="13.313863025978208">
        <ele>9.27</ele>
        <time>2024-09-15T14:59:17Z</time>
      </trkpt>
      <trkpt lat="54.305700967088342" lon="13.313717013224959">
        <ele>8.310000000000001</ele>
        <time>2024-09-15T14:59:18Z</time>
      </trkpt>
      <trkpt lat="54.305595019832253" lon="13.313348041847348">
        <ele>6.87</ele>
        <time>2024-09-15T14:59:20Z</time>
      </trkpt>
      <trkpt lat="54.305381029844284" lon="13.312442963942885">
        <ele>3.5</ele>
        <time>2024-09-15T14:59:25Z</time>
      </trkpt>
      <trkpt lat="54.305340964347124" lon="13.312271973118186">
        <ele>3.5</ele>
        <time>2024-09-15T14:59:26Z</time>
      </trkpt>
      <trkpt lat="54.305006023496389" lon="13.311047041788697">
        <ele>3.98</ele>
        <time>2024-09-15T14:59:33Z</time>
      </trkpt>
      <trkpt lat="54.304947014898062" lon="13.310876972973347">
        <ele>4.46</ele>
        <time>2024-09-15T14:59:34Z</time>
      </trkpt>
      <trkpt lat="54.304884988814592" lon="13.310701036825776">
        <ele>5.42</ele>
        <time>2024-09-15T14:59:35Z</time>
      </trkpt>
      <trkpt lat="54.304819023236632" lon="13.310512024909258">
        <ele>5.91</ele>
        <time>2024-09-15T14:59:36Z</time>
      </trkpt>
      <trkpt lat="54.304734030738473" lon="13.310313960537314">
        <ele>6.39</ele>
        <time>2024-09-15T14:59:37Z</time>
      </trkpt>
      <trkpt lat="54.303997009992599" lon="13.30873598344624">
        <ele>10.23</ele>
        <time>2024-09-15T14:59:44Z</time>
      </trkpt>
      <trkpt lat="54.302943991497159" lon="13.306976035237312">
        <ele>12.630000000000001</ele>
        <time>2024-09-15T14:59:51Z</time>
      </trkpt>
      <trkpt lat="54.301586961373687" lon="13.305527977645397">
        <ele>13.6</ele>
        <time>2024-09-15T14:59:58Z</time>
      </trkpt>
      <trkpt lat="54.299510009586811" lon="13.303848998621106">
        <ele>15.52</ele>
        <time>2024-09-15T15:00:08Z</time>
      </trkpt>
      <trkpt lat="54.297635983675718" lon="13.302337992936373">
        <ele>15.52</ele>
        <time>2024-09-15T15:00:18Z</time>
      </trkpt>
      <trkpt lat="54.29714497178793" lon="13.301890986040235">
        <ele>15.52</ele>
        <time>2024-09-15T15:00:21Z</time>
      </trkpt>
      <trkpt lat="54.296998037025332" lon="13.301712032407522">
        <ele>15.52</ele>
        <time>2024-09-15T15:00:22Z</time>
      </trkpt>
      <trkpt lat="54.296850012615323" lon="13.301517991349101">
        <ele>15.039999999999999</ele>
        <time>2024-09-15T15:00:23Z</time>
      </trkpt>
      <trkpt lat="54.295477978885174" lon="13.299019010737538">
        <ele>15.52</ele>
        <time>2024-09-15T15:00:34Z</time>
      </trkpt>
      <trkpt lat="54.294991996139288" lon="13.297985019162297">
        <ele>13.6</ele>
        <time>2024-09-15T15:00:40Z</time>
      </trkpt>
      <trkpt lat="54.294991996139288" lon="13.297709003090858">
        <ele>13.6</ele>
        <time>2024-09-15T15:00:41Z</time>
      </trkpt>
      <trkpt lat="54.294991996139288" lon="13.297471040859818">
        <ele>13.119999999999999</ele>
        <time>2024-09-15T15:00:42Z</time>
      </trkpt>
      <trkpt lat="54.295042958110571" lon="13.295687036588788">
        <ele>13.119999999999999</ele>
        <time>2024-09-15T15:00:48Z</time>
      </trkpt>
      <trkpt lat="54.295151000842452" lon="13.292720010504127">
        <ele>15.039999999999999</ele>
        <time>2024-09-15T15:00:57Z</time>
      </trkpt>
      <trkpt lat="54.295161981135607" lon="13.292398983612657">
        <ele>15.52</ele>
        <time>2024-09-15T15:00:58Z</time>
      </trkpt>
      <trkpt lat="54.295214032754302" lon="13.291129041463137">
        <ele>16.960000000000001</ele>
        <time>2024-09-15T15:01:02Z</time>
      </trkpt>
      <trkpt lat="54.295377982780337" lon="13.289563972502947">
        <ele>18.879999999999999</ele>
        <time>2024-09-15T15:01:08Z</time>
      </trkpt>
      <trkpt lat="54.295374965295196" lon="13.289305977523327">
        <ele>19.359999999999999</ele>
        <time>2024-09-15T15:01:09Z</time>
      </trkpt>
      <trkpt lat="54.295342024415731" lon="13.289045970886946">
        <ele>19.84</ele>
        <time>2024-09-15T15:01:10Z</time>
      </trkpt>
      <trkpt lat="54.295291984453797" lon="13.288781018927693">
        <ele>19.84</ele>
        <time>2024-09-15T15:01:11Z</time>
      </trkpt>
      <trkpt lat="54.295238004997373" lon="13.288508020341396">
        <ele>19.84</ele>
        <time>2024-09-15T15:01:12Z</time>
      </trkpt>
      <trkpt lat="54.294796027243137" lon="13.286316990852356">
        <ele>18.399999999999999</ele>
        <time>2024-09-15T15:01:19Z</time>
      </trkpt>
      <trkpt lat="54.294735006988049" lon="13.286010967567563">
        <ele>17.920000000000002</ele>
        <time>2024-09-15T15:01:20Z</time>
      </trkpt>
      <trkpt lat="54.294711034744978" lon="13.285736963152885">
        <ele>17.440000000000001</ele>
        <time>2024-09-15T15:01:21Z</time>
      </trkpt>
      <trkpt lat="54.294700976461172" lon="13.285442003980279">
        <ele>17.440000000000001</ele>
        <time>2024-09-15T15:01:22Z</time>
      </trkpt>
      <trkpt lat="54.294739030301571" lon="13.285151990130544">
        <ele>17.920000000000002</ele>
        <time>2024-09-15T15:01:23Z</time>
      </trkpt>
      <trkpt lat="54.294782029464841" lon="13.284829035401344">
        <ele>17.920000000000002</ele>
        <time>2024-09-15T15:01:24Z</time>
      </trkpt>
      <trkpt lat="54.294847995042801" lon="13.284505996853113">
        <ele>17.920000000000002</ele>
        <time>2024-09-15T15:01:25Z</time>
      </trkpt>
      <trkpt lat="54.295338001102209" lon="13.282130984589458">
        <ele>17.440000000000001</ele>
        <time>2024-09-15T15:01:32Z</time>
      </trkpt>
      <trkpt lat="54.295474961400032" lon="13.281373009085655">
        <ele>17.920000000000002</ele>
        <time>2024-09-15T15:01:35Z</time>
      </trkpt>
      <trkpt lat="54.295723987743258" lon="13.280141036957502">
        <ele>19.359999999999999</ele>
        <time>2024-09-15T15:01:42Z</time>
      </trkpt>
      <trkpt lat="54.296062029898167" lon="13.278660038486123">
        <ele>18.879999999999999</ele>
        <time>2024-09-15T15:01:50Z</time>
      </trkpt>
      <trkpt lat="54.296259004622698" lon="13.277553040534258">
        <ele>19.359999999999999</ele>
        <time>2024-09-15T15:01:56Z</time>
      </trkpt>
      <trkpt lat="54.296313989907503" lon="13.277378026396036">
        <ele>19.359999999999999</ele>
        <time>2024-09-15T15:01:57Z</time>
      </trkpt>
      <trkpt lat="54.296375010162592" lon="13.277202006429434">
        <ele>19.359999999999999</ele>
        <time>2024-09-15T15:01:58Z</time>
      </trkpt>
      <trkpt lat="54.296462014317513" lon="13.277093041688204">
        <ele>19.84</ele>
        <time>2024-09-15T15:01:59Z</time>
      </trkpt>
      <trkpt lat="54.296553963795304" lon="13.276977958157659">
        <ele>19.84</ele>
        <time>2024-09-15T15:02:00Z</time>
      </trkpt>
      <trkpt lat="54.29665002040565" lon="13.276859018951654">
        <ele>20.32</ele>
        <time>2024-09-15T15:02:01Z</time>
      </trkpt>
      <trkpt lat="54.297110019251704" lon="13.276250995695591">
        <ele>21.77</ele>
        <time>2024-09-15T15:02:06Z</time>
      </trkpt>
      <trkpt lat="54.297189982607961" lon="13.27614395879209">
        <ele>22.25</ele>
        <time>2024-09-15T15:02:07Z</time>
      </trkpt>
      <trkpt lat="54.297396009787917" lon="13.275780016556382">
        <ele>24.649999999999999</ele>
        <time>2024-09-15T15:02:10Z</time>
      </trkpt>
      <trkpt lat="54.298083996400237" lon="13.274448970332742">
        <ele>24.649999999999999</ele>
        <time>2024-09-15T15:02:20Z</time>
      </trkpt>
      <trkpt lat="54.298292035236955" lon="13.274047980085015">
        <ele>23.690000000000001</ele>
        <time>2024-09-15T15:02:23Z</time>
      </trkpt>
      <trkpt lat="54.298339979723096" lon="13.273883024230599">
        <ele>23.210000000000001</ele>
        <time>2024-09-15T15:02:24Z</time>
      </trkpt>
      <trkpt lat="54.298384990543127" lon="13.273717984557152">
        <ele>22.73</ele>
        <time>2024-09-15T15:02:25Z</time>
      </trkpt>
      <trkpt lat="54.298430001363158" lon="13.273555040359497">
        <ele>22.73</ele>
        <time>2024-09-15T15:02:26Z</time>
      </trkpt>
      <trkpt lat="54.298473000526428" lon="13.273386983200908">
        <ele>22.25</ele>
        <time>2024-09-15T15:02:27Z</time>
      </trkpt>
      <trkpt lat="54.298505019396544" lon="13.273213980719447">
        <ele>21.77</ele>
        <time>2024-09-15T15:02:28Z</time>
      </trkpt>
      <trkpt lat="54.298626976087689" lon="13.272543009370565">
        <ele>21.77</ele>
        <time>2024-09-15T15:02:32Z</time>
      </trkpt>
      <trkpt lat="54.298654971644282" lon="13.272378975525498">
        <ele>21.289999999999999</ele>
        <time>2024-09-15T15:02:33Z</time>
      </trkpt>
      <trkpt lat="54.298884971067309" lon="13.271109033375978">
        <ele>20.809999999999999</ele>
        <time>2024-09-15T15:02:40Z</time>
      </trkpt>
      <trkpt lat="54.298917995765805" lon="13.270927984267473">
        <ele>20.809999999999999</ele>
        <time>2024-09-15T15:02:41Z</time>
      </trkpt>
      <trkpt lat="54.298954959958792" lon="13.269100980833173">
        <ele>24.170000000000002</ele>
        <time>2024-09-15T15:02:50Z</time>
      </trkpt>
      <trkpt lat="54.298810036852956" lon="13.266920009627938">
        <ele>25.609999999999999</ele>
        <time>2024-09-15T15:03:01Z</time>
      </trkpt>
      <trkpt lat="54.298747004941106" lon="13.266269993036985">
        <ele>25.609999999999999</ele>
        <time>2024-09-15T15:03:04Z</time>
      </trkpt>
      <trkpt lat="54.298724960535765" lon="13.266025995835662">
        <ele>25.609999999999999</ele>
        <time>2024-09-15T15:03:05Z</time>
      </trkpt>
      <trkpt lat="54.298702999949455" lon="13.265773029997945">
        <ele>25.609999999999999</ele>
        <time>2024-09-15T15:03:06Z</time>
      </trkpt>
      <trkpt lat="54.298679027706385" lon="13.265510005876422">
        <ele>25.609999999999999</ele>
        <time>2024-09-15T15:03:07Z</time>
      </trkpt>
      <trkpt lat="54.298653965815902" lon="13.265230972319841">
        <ele>25.129999999999999</ele>
        <time>2024-09-15T15:03:08Z</time>
      </trkpt>
      <trkpt lat="54.298601998016238" lon="13.264651028439403">
        <ele>25.129999999999999</ele>
        <time>2024-09-15T15:03:10Z</time>
      </trkpt>
      <trkpt lat="54.298514993861318" lon="13.263539001345634">
        <ele>24.649999999999999</ele>
        <time>2024-09-15T15:03:14Z</time>
      </trkpt>
      <trkpt lat="54.298523962497711" lon="13.263289975002408">
        <ele>24.170000000000002</ele>
        <time>2024-09-15T15:03:15Z</time>
      </trkpt>
      <trkpt lat="54.298542989417911" lon="13.263008007779717">
        <ele>24.170000000000002</ele>
        <time>2024-09-15T15:03:16Z</time>
      </trkpt>
      <trkpt lat="54.298604009672999" lon="13.26275403611362">
        <ele>24.649999999999999</ele>
        <time>2024-09-15T15:03:17Z</time>
      </trkpt>
      <trkpt lat="54.298667041584849" lon="13.262492017820477">
        <ele>24.170000000000002</ele>
        <time>2024-09-15T15:03:18Z</time>
      </trkpt>
      <trkpt lat="54.298796039074659" lon="13.261941997334361">
        <ele>24.170000000000002</ele>
        <time>2024-09-15T15:03:20Z</time>
      </trkpt>
      <trkpt lat="54.299109019339085" lon="13.25938300229609">
        <ele>21.77</ele>
        <time>2024-09-15T15:03:28Z</time>
      </trkpt>
      <trkpt lat="54.299135003238916" lon="13.25787995941937">
        <ele>20.809999999999999</ele>
        <time>2024-09-15T15:03:33Z</time>
      </trkpt>
      <trkpt lat="54.299103990197182" lon="13.257265985012054">
        <ele>20.32</ele>
        <time>2024-09-15T15:03:35Z</time>
      </trkpt>
      <trkpt lat="54.298998964950442" lon="13.25600802898407">
        <ele>18.879999999999999</ele>
        <time>2024-09-15T15:03:39Z</time>
      </trkpt>
      <trkpt lat="54.299023021012545" lon="13.255362035706639">
        <ele>18.399999999999999</ele>
        <time>2024-09-15T15:03:41Z</time>
      </trkpt>
      <trkpt lat="54.299260983243585" lon="13.252819972112775">
        <ele>17.920000000000002</ele>
        <time>2024-09-15T15:03:48Z</time>
      </trkpt>
      <trkpt lat="54.299502968788147" lon="13.250697003677487">
        <ele>16.960000000000001</ele>
        <time>2024-09-15T15:03:54Z</time>
      </trkpt>
      <trkpt lat="54.299542028456926" lon="13.25038100592792">
        <ele>16.48</ele>
        <time>2024-09-15T15:03:55Z</time>
      </trkpt>
      <trkpt lat="54.299690974876285" lon="13.247752021998167">
        <ele>11.67</ele>
        <time>2024-09-15T15:04:03Z</time>
      </trkpt>
      <trkpt lat="54.299864983186126" lon="13.244352992624044">
        <ele>12.630000000000001</ele>
        <time>2024-09-15T15:04:13Z</time>
      </trkpt>
      <trkpt lat="54.29993798956275" lon="13.241634992882609">
        <ele>14.08</ele>
        <time>2024-09-15T15:04:21Z</time>
      </trkpt>
      <trkpt lat="54.299978977069259" lon="13.241290999576449">
        <ele>14.08</ele>
        <time>2024-09-15T15:04:22Z</time>
      </trkpt>
      <trkpt lat="54.30004796013236" lon="13.240953963249922">
        <ele>14.08</ele>
        <time>2024-09-15T15:04:23Z</time>
      </trkpt>
      <trkpt lat="54.301036018878222" lon="13.237159978598356">
        <ele>14.08</ele>
        <time>2024-09-15T15:04:34Z</time>
      </trkpt>
      <trkpt lat="54.302060035988688" lon="13.234032019972801">
        <ele>14.56</ele>
        <time>2024-09-15T15:04:44Z</time>
      </trkpt>
      <trkpt lat="54.30273000150919" lon="13.231985997408628">
        <ele>10.23</ele>
        <time>2024-09-15T15:04:51Z</time>
      </trkpt>
      <trkpt lat="54.302781969308853" lon="13.231697995215654">
        <ele>9.75</ele>
        <time>2024-09-15T15:04:52Z</time>
      </trkpt>
      <trkpt lat="54.302829997614026" lon="13.231406975537539">
        <ele>9.27</ele>
        <time>2024-09-15T15:04:53Z</time>
      </trkpt>
      <trkpt lat="54.302872996777296" lon="13.231110004708171">
        <ele>9.27</ele>
        <time>2024-09-15T15:04:54Z</time>
      </trkpt>
      <trkpt lat="54.302894035354257" lon="13.230810016393661">
        <ele>9.27</ele>
        <time>2024-09-15T15:04:55Z</time>
      </trkpt>
      <trkpt lat="54.302915995940566" lon="13.230512039735913">
        <ele>8.789999999999999</ele>
        <time>2024-09-15T15:04:56Z</time>
      </trkpt>
      <trkpt lat="54.302938040345907" lon="13.230204004794359">
        <ele>8.789999999999999</ele>
        <time>2024-09-15T15:04:57Z</time>
      </trkpt>
      <trkpt lat="54.303034013137221" lon="13.228924004361033">
        <ele>7.35</ele>
        <time>2024-09-15T15:05:01Z</time>
      </trkpt>
      <trkpt lat="54.303193017840385" lon="13.226805981248617">
        <ele>6.39</ele>
        <time>2024-09-15T15:05:08Z</time>
      </trkpt>
      <trkpt lat="54.303162004798651" lon="13.224529959261417">
        <ele>6.39</ele>
        <time>2024-09-15T15:05:15Z</time>
      </trkpt>
      <trkpt lat="54.302897974848747" lon="13.222041958943009">
        <ele>5.42</ele>
        <time>2024-09-15T15:05:22Z</time>
      </trkpt>
      <trkpt lat="54.302856987342238" lon="13.221309967339039">
        <ele>5.91</ele>
        <time>2024-09-15T15:05:24Z</time>
      </trkpt>
      <trkpt lat="54.302719021216035" lon="13.218807969242334">
        <ele>2.06</ele>
        <time>2024-09-15T15:05:31Z</time>
      </trkpt>
      <trkpt lat="54.302653977647424" lon="13.218527007848024">
        <ele>2.06</ele>
        <time>2024-09-15T15:05:32Z</time>
      </trkpt>
      <trkpt lat="54.302591029554605" lon="13.218241017311811">
        <ele>1.58</ele>
        <time>2024-09-15T15:05:33Z</time>
      </trkpt>
      <trkpt lat="54.302527997642756" lon="13.218001965433359">
        <ele>1.58</ele>
        <time>2024-09-15T15:05:34Z</time>
      </trkpt>
      <trkpt lat="54.302469994872808" lon="13.217764003202319">
        <ele>1.58</ele>
        <time>2024-09-15T15:05:35Z</time>
      </trkpt>
      <trkpt lat="54.302432024851441" lon="13.217554958537221">
        <ele>1.1</ele>
        <time>2024-09-15T15:05:36Z</time>
      </trkpt>
      <trkpt lat="54.302411992102861" lon="13.217371981590986">
        <ele>1.1</ele>
        <time>2024-09-15T15:05:37Z</time>
      </trkpt>
      <trkpt lat="54.302354995161295" lon="13.216860014945269">
        <ele>1.58</ele>
        <time>2024-09-15T15:05:40Z</time>
      </trkpt>
      <trkpt lat="54.302333034574986" lon="13.216660022735596">
        <ele>1.1</ele>
        <time>2024-09-15T15:05:41Z</time>
      </trkpt>
      <trkpt lat="54.302130024880171" lon="13.214333038777113">
        <ele>1.58</ele>
        <time>2024-09-15T15:05:53Z</time>
      </trkpt>
      <trkpt lat="54.302116027101874" lon="13.214149978011847">
        <ele>1.58</ele>
        <time>2024-09-15T15:05:54Z</time>
      </trkpt>
      <trkpt lat="54.302032962441444" lon="13.212949018925428">
        <ele>1.58</ele>
        <time>2024-09-15T15:06:00Z</time>
      </trkpt>
      <trkpt lat="54.301915029063821" lon="13.21218098513782">
        <ele>1.58</ele>
        <time>2024-09-15T15:06:04Z</time>
      </trkpt>
      <trkpt lat="54.301885021850467" lon="13.211975963786244">
        <ele>1.1</ele>
        <time>2024-09-15T15:06:05Z</time>
      </trkpt>
      <trkpt lat="54.301857026293874" lon="13.211777983233333">
        <ele>1.1</ele>
        <time>2024-09-15T15:06:06Z</time>
      </trkpt>
      <trkpt lat="54.301657034084201" lon="13.210222972556949">
        <ele>-0.34</ele>
        <time>2024-09-15T15:06:14Z</time>
      </trkpt>
      <trkpt lat="54.301633983850479" lon="13.210038989782333">
        <ele>-0.34</ele>
        <time>2024-09-15T15:06:15Z</time>
      </trkpt>
      <trkpt lat="54.301584027707577" lon="13.209651997312903">
        <ele>-0.34</ele>
        <time>2024-09-15T15:06:17Z</time>
      </trkpt>
      <trkpt lat="54.301556032150984" lon="13.209458040073514">
        <ele>-0.34</ele>
        <time>2024-09-15T15:06:18Z</time>
      </trkpt>
      <trkpt lat="54.301308011636138" lon="13.208152977749705">
        <ele>-1.3</ele>
        <time>2024-09-15T15:06:25Z</time>
      </trkpt>
      <trkpt lat="54.301255960017443" lon="13.207975029945374">
        <ele>-1.79</ele>
        <time>2024-09-15T15:06:26Z</time>
      </trkpt>
      <trkpt lat="54.301199968904257" lon="13.207780988886952">
        <ele>-1.79</ele>
        <time>2024-09-15T15:06:27Z</time>
      </trkpt>
      <trkpt lat="54.300762014463544" lon="13.206125982105732">
        <ele>-3.23</ele>
        <time>2024-09-15T15:06:34Z</time>
      </trkpt>
      <trkpt lat="54.300670986995101" lon="13.204711033031344">
        <ele>-4.19</ele>
        <time>2024-09-15T15:06:39Z</time>
      </trkpt>
      <trkpt lat="54.300784980878234" lon="13.203855995088816">
        <ele>-4.19</ele>
        <time>2024-09-15T15:06:42Z</time>
      </trkpt>
      <trkpt lat="54.300842983648181" lon="13.203563969582319">
        <ele>-4.19</ele>
        <time>2024-09-15T15:06:43Z</time>
      </trkpt>
      <trkpt lat="54.3010129686445" lon="13.20300598628819">
        <ele>-3.23</ele>
        <time>2024-09-15T15:06:45Z</time>
      </trkpt>
      <trkpt lat="54.301874041557312" lon="13.200642038136721">
        <ele>-1.3</ele>
        <time>2024-09-15T15:06:53Z</time>
      </trkpt>
      <trkpt lat="54.301971020177007" lon="13.200326040387154">
        <ele>-1.3</ele>
        <time>2024-09-15T15:06:54Z</time>
      </trkpt>
      <trkpt lat="54.302551969885826" lon="13.197820018976927">
        <ele>-1.79</ele>
        <time>2024-09-15T15:07:01Z</time>
      </trkpt>
      <trkpt lat="54.303511027246714" lon="13.19421797990799">
        <ele>3.02</ele>
        <time>2024-09-15T15:07:11Z</time>
      </trkpt>
      <trkpt lat="54.305100990459323" lon="13.190212016925216">
        <ele>6.39</ele>
        <time>2024-09-15T15:07:23Z</time>
      </trkpt>
      <trkpt lat="54.306843001395464" lon="13.186277970671654">
        <ele>7.35</ele>
        <time>2024-09-15T15:07:35Z</time>
      </trkpt>
      <trkpt lat="54.308454003185034" lon="13.183417981490493">
        <ele>10.23</ele>
        <time>2024-09-15T15:07:45Z</time>
      </trkpt>
      <trkpt lat="54.31022803299129" lon="13.1802539806813">
        <ele>12.630000000000001</ele>
        <time>2024-09-15T15:07:57Z</time>
      </trkpt>
      <trkpt lat="54.312122007831931" lon="13.176697036251426">
        <ele>5.42</ele>
        <time>2024-09-15T15:08:09Z</time>
      </trkpt>
      <trkpt lat="54.312762971967459" lon="13.175590960308909">
        <ele>2.54</ele>
        <time>2024-09-15T15:08:13Z</time>
      </trkpt>
      <trkpt lat="54.312952989712358" lon="13.175394991412759">
        <ele>2.06</ele>
        <time>2024-09-15T15:08:14Z</time>
      </trkpt>
      <trkpt lat="54.313160022720695" lon="13.175232969224453">
        <ele>2.06</ele>
        <time>2024-09-15T15:08:15Z</time>
      </trkpt>
      <trkpt lat="54.313375018537045" lon="13.17509600892663">
        <ele>2.06</ele>
        <time>2024-09-15T15:08:16Z</time>
      </trkpt>
      <trkpt lat="54.313597977161407" lon="13.174976985901594">
        <ele>2.06</ele>
        <time>2024-09-15T15:08:17Z</time>
      </trkpt>
      <trkpt lat="54.314646972343326" lon="13.174372985959053">
        <ele>3.5</ele>
        <time>2024-09-15T15:08:22Z</time>
      </trkpt>
      <trkpt lat="54.314825003966689" lon="13.174204006791115">
        <ele>3.5</ele>
        <time>2024-09-15T15:08:23Z</time>
      </trkpt>
      <trkpt lat="54.315003035590053" lon="13.174013989046216">
        <ele>3.98</ele>
        <time>2024-09-15T15:08:24Z</time>
      </trkpt>
      <trkpt lat="54.315160028636456" lon="13.17376303486526">
        <ele>3.98</ele>
        <time>2024-09-15T15:08:25Z</time>
      </trkpt>
      <trkpt lat="54.315320961177349" lon="13.17350503988564">
        <ele>4.46</ele>
        <time>2024-09-15T15:08:26Z</time>
      </trkpt>
      <trkpt lat="54.317008992657065" lon="13.170732976868749">
        <ele>5.91</ele>
        <time>2024-09-15T15:08:36Z</time>
      </trkpt>
      <trkpt lat="54.318124037235975" lon="13.169112000614405">
        <ele>6.87</ele>
        <time>2024-09-15T15:08:43Z</time>
      </trkpt>
      <trkpt lat="54.319971995428205" lon="13.166775964200497">
        <ele>5.91</ele>
        <time>2024-09-15T15:08:54Z</time>
      </trkpt>
      <trkpt lat="54.320109039545059" lon="13.166532972827554">
        <ele>5.91</ele>
        <time>2024-09-15T15:08:55Z</time>
      </trkpt>
      <trkpt lat="54.320238959044218" lon="13.16626500338316">
        <ele>5.42</ele>
        <time>2024-09-15T15:08:56Z</time>
      </trkpt>
      <trkpt lat="54.320344990119338" lon="13.165963003411889">
        <ele>5.91</ele>
        <time>2024-09-15T15:08:57Z</time>
      </trkpt>
      <trkpt lat="54.320419002324343" lon="13.165634013712406">
        <ele>5.91</ele>
        <time>2024-09-15T15:08:58Z</time>
      </trkpt>
      <trkpt lat="54.320491002872586" lon="13.165296977385879">
        <ele>6.39</ele>
        <time>2024-09-15T15:08:59Z</time>
      </trkpt>
      <trkpt lat="54.320561997592449" lon="13.164948038756847">
        <ele>6.87</ele>
        <time>2024-09-15T15:09:00Z</time>
      </trkpt>
      <trkpt lat="54.321176977828145" lon="13.161051040515304">
        <ele>7.35</ele>
        <time>2024-09-15T15:09:10Z</time>
      </trkpt>
      <trkpt lat="54.321518959477544" lon="13.158275038003922">
        <ele>6.87</ele>
        <time>2024-09-15T15:09:17Z</time>
      </trkpt>
      <trkpt lat="54.321600012481213" lon="13.155956016853452">
        <ele>8.310000000000001</ele>
        <time>2024-09-15T15:09:24Z</time>
      </trkpt>
      <trkpt lat="54.321622978895903" lon="13.155783014371991">
        <ele>8.310000000000001</ele>
        <time>2024-09-15T15:09:25Z</time>
      </trkpt>
      <trkpt lat="54.321673018857837" lon="13.155490988865495">
        <ele>8.310000000000001</ele>
        <time>2024-09-15T15:09:26Z</time>
      </trkpt>
      <trkpt lat="54.322306020185351" lon="13.152533015236259">
        <ele>7.35</ele>
        <time>2024-09-15T15:09:35Z</time>
      </trkpt>
      <trkpt lat="54.322751015424728" lon="13.150886977091432">
        <ele>7.83</ele>
        <time>2024-09-15T15:09:40Z</time>
      </trkpt>
      <trkpt lat="54.323698002845049" lon="13.148459997028112">
        <ele>8.789999999999999</ele>
        <time>2024-09-15T15:09:48Z</time>
      </trkpt>
      <trkpt lat="54.323964966461062" lon="13.147619962692261">
        <ele>9.27</ele>
        <time>2024-09-15T15:09:51Z</time>
      </trkpt>
      <trkpt lat="54.324027998372912" lon="13.147328021004796">
        <ele>9.27</ele>
        <time>2024-09-15T15:09:52Z</time>
      </trkpt>
      <trkpt lat="54.324115002527833" lon="13.14671597443521">
        <ele>9.75</ele>
        <time>2024-09-15T15:09:54Z</time>
      </trkpt>
      <trkpt lat="54.3241529725492" lon="13.146410034969449">
        <ele>9.27</ele>
        <time>2024-09-15T15:09:55Z</time>
      </trkpt>
      <trkpt lat="54.3241529725492" lon="13.14609101973474">
        <ele>9.27</ele>
        <time>2024-09-15T15:09:56Z</time>
      </trkpt>
      <trkpt lat="54.324125982820988" lon="13.145787008106709">
        <ele>8.789999999999999</ele>
        <time>2024-09-15T15:09:57Z</time>
      </trkpt>
      <trkpt lat="54.324092958122492" lon="13.145496994256973">
        <ele>8.789999999999999</ele>
        <time>2024-09-15T15:09:58Z</time>
      </trkpt>
      <trkpt lat="54.323997991159558" lon="13.145262971520424">
        <ele>8.789999999999999</ele>
        <time>2024-09-15T15:09:59Z</time>
      </trkpt>
      <trkpt lat="54.323891038075089" lon="13.145028026774526">
        <ele>8.789999999999999</ele>
        <time>2024-09-15T15:10:00Z</time>
      </trkpt>
      <trkpt lat="54.322957964614034" lon="13.143190965056419">
        <ele>9.75</ele>
        <time>2024-09-15T15:10:07Z</time>
      </trkpt>
      <trkpt lat="54.322351031005383" lon="13.141880035400391">
        <ele>9.75</ele>
        <time>2024-09-15T15:10:12Z</time>
      </trkpt>
      <trkpt lat="54.322337033227086" lon="13.141647018492222">
        <ele>9.75</ele>
        <time>2024-09-15T15:10:13Z</time>
      </trkpt>
      <trkpt lat="54.322338039055467" lon="13.141446020454168">
        <ele>9.27</ele>
        <time>2024-09-15T15:10:14Z</time>
      </trkpt>
      <trkpt lat="54.322364022955298" lon="13.141248961910605">
        <ele>8.789999999999999</ele>
        <time>2024-09-15T15:10:15Z</time>
      </trkpt>
      <trkpt lat="54.32238900102675" lon="13.141059027984738">
        <ele>8.789999999999999</ele>
        <time>2024-09-15T15:10:16Z</time>
      </trkpt>
      <trkpt lat="54.322445997968316" lon="13.140930030494928">
        <ele>8.310000000000001</ele>
        <time>2024-09-15T15:10:17Z</time>
      </trkpt>
      <trkpt lat="54.322529984638095" lon="13.140785023570061">
        <ele>8.310000000000001</ele>
        <time>2024-09-15T15:10:18Z</time>
      </trkpt>
      <trkpt lat="54.322616988793015" lon="13.140632975846529">
        <ele>8.310000000000001</ele>
        <time>2024-09-15T15:10:19Z</time>
      </trkpt>
      <trkpt lat="54.322701981291175" lon="13.140485035255551">
        <ele>8.310000000000001</ele>
        <time>2024-09-15T15:10:20Z</time>
      </trkpt>
      <trkpt lat="54.322800971567631" lon="13.14031396061182">
        <ele>8.310000000000001</ele>
        <time>2024-09-15T15:10:21Z</time>
      </trkpt>
      <trkpt lat="54.322845982387662" lon="13.140240032225847">
        <ele>8.310000000000001</ele>
        <time>2024-09-15T15:10:22Z</time>
      </trkpt>
      <trkpt lat="54.323015967383981" lon="13.139958987012506">
        <ele>8.789999999999999</ele>
        <time>2024-09-15T15:10:28Z</time>
      </trkpt>
      <trkpt lat="54.323080005124211" lon="13.139855973422527">
        <ele>8.789999999999999</ele>
        <time>2024-09-15T15:10:35Z</time>
      </trkpt>
      <trkpt lat="54.323101965710521" lon="13.139820015057921">
        <ele>8.310000000000001</ele>
        <time>2024-09-15T15:10:36Z</time>
      </trkpt>
      <trkpt lat="54.323052009567618" lon="13.139743991196156">
        <ele>8.310000000000001</ele>
        <time>2024-09-15T15:10:37Z</time>
      </trkpt>
      <trkpt lat="54.322979003190994" lon="13.139632008969784">
        <ele>8.310000000000001</ele>
        <time>2024-09-15T15:10:38Z</time>
      </trkpt>
      <trkpt lat="54.322888981550932" lon="13.139492031186819">
        <ele>8.310000000000001</ele>
        <time>2024-09-15T15:10:39Z</time>
      </trkpt>
      <trkpt lat="54.322786973789334" lon="13.139354987069964">
        <ele>8.310000000000001</ele>
        <time>2024-09-15T15:10:40Z</time>
      </trkpt>
      <trkpt lat="54.32264800183475" lon="13.139218026772141">
        <ele>7.83</ele>
        <time>2024-09-15T15:10:41Z</time>
      </trkpt>
      <trkpt lat="54.321432961151004" lon="13.137867031618953">
        <ele>6.87</ele>
        <time>2024-09-15T15:10:49Z</time>
      </trkpt>
      <trkpt lat="54.320077020674944" lon="13.135471986606717">
        <ele>9.75</ele>
        <time>2024-09-15T15:10:59Z</time>
      </trkpt>
      <trkpt lat="54.318661987781525" lon="13.132852977141738">
        <ele>13.119999999999999</ele>
        <time>2024-09-15T15:11:10Z</time>
      </trkpt>
      <trkpt lat="54.317031959071755" lon="13.129819985479116">
        <ele>14.08</ele>
        <time>2024-09-15T15:11:23Z</time>
      </trkpt>
      <trkpt lat="54.315813984721899" lon="13.127554021775723">
        <ele>14.08</ele>
        <time>2024-09-15T15:11:33Z</time>
      </trkpt>
      <trkpt lat="54.31523697450757" lon="13.12647401355207">
        <ele>14.08</ele>
        <time>2024-09-15T15:11:39Z</time>
      </trkpt>
      <trkpt lat="54.314284035935998" lon="13.124683974310756">
        <ele>11.67</ele>
        <time>2024-09-15T15:11:50Z</time>
      </trkpt>
      <trkpt lat="54.313576016575098" lon="13.123372038826346">
        <ele>10.23</ele>
        <time>2024-09-15T15:11:59Z</time>
      </trkpt>
      <trkpt lat="54.31265601888299" lon="13.121669003739953">
        <ele>9.75</ele>
        <time>2024-09-15T15:12:10Z</time>
      </trkpt>
      <trkpt lat="54.311483977362514" lon="13.119497001171112">
        <ele>10.23</ele>
        <time>2024-09-15T15:12:24Z</time>
      </trkpt>
      <trkpt lat="54.310592981055379" lon="13.117854986339808">
        <ele>9.75</ele>
        <time>2024-09-15T15:12:35Z</time>
      </trkpt>
      <trkpt lat="54.310191990807652" lon="13.117119977250695">
        <ele>8.789999999999999</ele>
        <time>2024-09-15T15:12:40Z</time>
      </trkpt>
      <trkpt lat="54.30943300947547" lon="13.115659011527896">
        <ele>5.91</ele>
        <time>2024-09-15T15:12:51Z</time>
      </trkpt>
      <trkpt lat="54.308652989566326" lon="13.114112969487906">
        <ele>4.94</ele>
        <time>2024-09-15T15:13:01Z</time>
      </trkpt>
      <trkpt lat="54.307953016832471" lon="13.112589977681637">
        <ele>6.87</ele>
        <time>2024-09-15T15:13:11Z</time>
      </trkpt>
      <trkpt lat="54.307551020756364" lon="13.111645001918077">
        <ele>8.789999999999999</ele>
        <time>2024-09-15T15:13:21Z</time>
      </trkpt>
      <trkpt lat="54.307511961087584" lon="13.111552968621254">
        <ele>8.789999999999999</ele>
        <time>2024-09-15T15:13:22Z</time>
      </trkpt>
      <trkpt lat="54.307474996894598" lon="13.111465964466333">
        <ele>8.310000000000001</ele>
        <time>2024-09-15T15:13:23Z</time>
      </trkpt>
      <trkpt lat="54.307434009388089" lon="13.111369991675019">
        <ele>8.789999999999999</ele>
        <time>2024-09-15T15:13:24Z</time>
      </trkpt>
      <trkpt lat="54.306969987228513" lon="13.110274979844689">
        <ele>10.710000000000001</ele>
        <time>2024-09-15T15:13:32Z</time>
      </trkpt>
      <trkpt lat="54.306337991729379" lon="13.108536992222071">
        <ele>10.23</ele>
        <time>2024-09-15T15:13:43Z</time>
      </trkpt>
      <trkpt lat="54.305871035903692" lon="13.106861030682921">
        <ele>8.789999999999999</ele>
        <time>2024-09-15T15:13:54Z</time>
      </trkpt>
      <trkpt lat="54.305645981803536" lon="13.106120992451906">
        <ele>8.310000000000001</ele>
        <time>2024-09-15T15:14:00Z</time>
      </trkpt>
      <trkpt lat="54.305613962933421" lon="13.106025019660592">
        <ele>7.83</ele>
        <time>2024-09-15T15:14:01Z</time>
      </trkpt>
      <trkpt lat="54.30558898486197" lon="13.105950001627207">
        <ele>7.83</ele>
        <time>2024-09-15T15:14:02Z</time>
      </trkpt>
      <trkpt lat="54.305669032037258" lon="13.105842964723706">
        <ele>7.35</ele>
        <time>2024-09-15T15:14:03Z</time>
      </trkpt>
      <trkpt lat="54.305731980130076" lon="13.105810023844242">
        <ele>6.87</ele>
        <time>2024-09-15T15:14:04Z</time>
      </trkpt>
      <trkpt lat="54.305814960971475" lon="13.105766018852592">
        <ele>6.39</ele>
        <time>2024-09-15T15:14:05Z</time>
      </trkpt>
      <trkpt lat="54.305908000096679" lon="13.105711033567786">
        <ele>5.42</ele>
        <time>2024-09-15T15:14:06Z</time>
      </trkpt>
      <trkpt lat="54.306160965934396" lon="13.105487991124392">
        <ele>3.98</ele>
        <time>2024-09-15T15:14:09Z</time>
      </trkpt>
      <trkpt lat="54.306257022544742" lon="13.105401992797852">
        <ele>3.5</ele>
        <time>2024-09-15T15:14:10Z</time>
      </trkpt>
      <trkpt lat="54.3069429975003" lon="13.104662960395217">
        <ele>1.1</ele>
        <time>2024-09-15T15:14:18Z</time>
      </trkpt>
      <trkpt lat="54.307059003040195" lon="13.104637982323766">
        <ele>0.62</ele>
        <time>2024-09-15T15:14:19Z</time>
      </trkpt>
      <trkpt lat="54.308144962415099" lon="13.103848993778229">
        <ele>-0.82</ele>
        <time>2024-09-15T15:14:30Z</time>
      </trkpt>
      <trkpt lat="54.309017015621066" lon="13.103032009676099">
        <ele>-1.79</ele>
        <time>2024-09-15T15:14:39Z</time>
      </trkpt>
      <trkpt lat="54.309850009158254" lon="13.102479977533221">
        <ele>-2.27</ele>
        <time>2024-09-15T15:14:47Z</time>
      </trkpt>
      <trkpt lat="54.309930978342891" lon="13.102366989478469">
        <ele>-2.27</ele>
        <time>2024-09-15T15:14:48Z</time>
      </trkpt>
      <trkpt lat="54.310080008581281" lon="13.102092985063791">
        <ele>-2.27</ele>
        <time>2024-09-15T15:14:50Z</time>
      </trkpt>
      <trkpt lat="54.310171036049724" lon="13.101968010887504">
        <ele>-2.27</ele>
        <time>2024-09-15T15:14:51Z</time>
      </trkpt>
      <trkpt lat="54.31027002632618" lon="13.101840019226074">
        <ele>-2.27</ele>
        <time>2024-09-15T15:14:52Z</time>
      </trkpt>
      <trkpt lat="54.31037999689579" lon="13.101770030334592">
        <ele>-2.27</ele>
        <time>2024-09-15T15:14:53Z</time>
      </trkpt>
      <trkpt lat="54.310494996607304" lon="13.101696018129587">
        <ele>-1.79</ele>
        <time>2024-09-15T15:14:54Z</time>
      </trkpt>
      <trkpt lat="54.311563018709421" lon="13.101011971011758">
        <ele>0.14</ele>
        <time>2024-09-15T15:15:04Z</time>
      </trkpt>
      <trkpt lat="54.311659997329116" lon="13.100938964635134">
        <ele>0.14</ele>
        <time>2024-09-15T15:15:05Z</time>
      </trkpt>
      <trkpt lat="54.311745995655656" lon="13.100824970752001">
        <ele>0.14</ele>
        <time>2024-09-15T15:15:06Z</time>
      </trkpt>
      <trkpt lat="54.312068028375506" lon="13.100278973579407">
        <ele>-0.34</ele>
        <time>2024-09-15T15:15:10Z</time>
      </trkpt>
      <trkpt lat="54.31214002892375" lon="13.100158022716641">
        <ele>-0.82</ele>
        <time>2024-09-15T15:15:11Z</time>
      </trkpt>
      <trkpt lat="54.31235603056848" lon="13.099799025803804">
        <ele>-2.75</ele>
        <time>2024-09-15T15:15:14Z</time>
      </trkpt>
      <trkpt lat="54.312424007803202" lon="13.099690983071923">
        <ele>-3.23</ele>
        <time>2024-09-15T15:15:15Z</time>
      </trkpt>
      <trkpt lat="54.312495002523065" lon="13.099579000845551">
        <ele>-3.71</ele>
        <time>2024-09-15T15:15:16Z</time>
      </trkpt>
      <trkpt lat="54.312651995569468" lon="13.099329974502325">
        <ele>-6.11</ele>
        <time>2024-09-15T15:15:18Z</time>
      </trkpt>
      <trkpt lat="54.313171003013849" lon="13.09891096316278">
        <ele>-10.92</ele>
        <time>2024-09-15T15:15:25Z</time>
      </trkpt>
      <trkpt lat="54.313224982470274" lon="13.098866958171129">
        <ele>-11.880000000000001</ele>
        <time>2024-09-15T15:15:26Z</time>
      </trkpt>
      <trkpt lat="54.313317015767097" lon="13.098793029785156">
        <ele>-12.84</ele>
        <time>2024-09-15T15:15:28Z</time>
      </trkpt>
      <trkpt lat="54.313317015767097" lon="13.098793029785156">
        <ele>-13.800000000000001</ele>
        <time>2024-09-15T15:15:29Z</time>
      </trkpt>
      <trkpt lat="54.313423968851566" lon="13.098642993718386">
        <ele>-15.24</ele>
        <time>2024-09-15T15:15:31Z</time>
      </trkpt>
      <trkpt lat="54.313423968851566" lon="13.098642993718386">
        <ele>-15.720000000000001</ele>
        <time>2024-09-15T15:15:32Z</time>
      </trkpt>
      <trkpt lat="54.313436960801482" lon="13.098584990948439">
        <ele>-16.210000000000001</ele>
        <time>2024-09-15T15:15:33Z</time>
      </trkpt>
      <trkpt lat="54.313512984663248" lon="13.09824300929904">
        <ele>-17.649999999999999</ele>
        <time>2024-09-15T15:15:37Z</time>
      </trkpt>
      <trkpt lat="54.313590014353395" lon="13.097978979349136">
        <ele>-19.09</ele>
        <time>2024-09-15T15:15:40Z</time>
      </trkpt>
      <trkpt lat="54.313719011843204" lon="13.097645966336131">
        <ele>-19.57</ele>
        <time>2024-09-15T15:15:45Z</time>
      </trkpt>
      <trkpt lat="54.313707025721669" lon="13.097571032121778">
        <ele>-19.57</ele>
        <time>2024-09-15T15:15:46Z</time>
      </trkpt>
      <trkpt lat="54.313671989366412" lon="13.097408004105091">
        <ele>-19.09</ele>
        <time>2024-09-15T15:15:48Z</time>
      </trkpt>
      <trkpt lat="54.313635025173426" lon="13.097241958603263">
        <ele>-18.129999999999999</ele>
        <time>2024-09-15T15:15:56Z</time>
      </trkpt>
      <trkpt lat="54.313545003533363" lon="13.096843985840678">
        <ele>-18.129999999999999</ele>
        <time>2024-09-15T15:16:03Z</time>
      </trkpt>
      <trkpt lat="54.31353603489697" lon="13.096802998334169">
        <ele>-18.129999999999999</ele>
        <time>2024-09-15T15:16:04Z</time>
      </trkpt>
      <trkpt lat="54.313574004918337" lon="13.096733009442687">
        <ele>-18.609999999999999</ele>
        <time>2024-09-15T15:16:05Z</time>
      </trkpt>
      <trkpt lat="54.313576016575098" lon="13.096733009442687">
        <ele>-19.09</ele>
        <time>2024-09-15T15:16:06Z</time>
      </trkpt>
      <trkpt lat="54.313608035445213" lon="13.096717000007629">
        <ele>-19.09</ele>
        <time>2024-09-15T15:16:07Z</time>
      </trkpt>
      <trkpt lat="54.313653968274593" lon="13.096694033592939">
        <ele>-19.09</ele>
        <time>2024-09-15T15:16:08Z</time>
      </trkpt>
      <trkpt lat="54.313699984923005" lon="13.096670983359218">
        <ele>-19.09</ele>
        <time>2024-09-15T15:16:09Z</time>
      </trkpt>
      <trkpt lat="54.313742984086275" lon="13.096649022772908">
        <ele>-19.57</ele>
        <time>2024-09-15T15:16:10Z</time>
      </trkpt>
      <trkpt lat="54.313784977421165" lon="13.096627984195948">
        <ele>-19.57</ele>
        <time>2024-09-15T15:16:11Z</time>
      </trkpt>
      <trkpt lat="54.313824037089944" lon="13.096608035266399">
        <ele>-19.57</ele>
        <time>2024-09-15T15:16:12Z</time>
      </trkpt>
      <trkpt lat="54.314371040090919" lon="13.096372000873089">
        <ele>-17.649999999999999</ele>
        <time>2024-09-15T15:16:23Z</time>
      </trkpt>
      <trkpt lat="54.314675973728299" lon="13.096249960362911">
        <ele>-16.690000000000001</ele>
        <time>2024-09-15T15:16:29Z</time>
      </trkpt>
      <trkpt lat="54.314730959013104" lon="13.096227999776602">
        <ele>-16.690000000000001</ele>
        <time>2024-09-15T15:16:30Z</time>
      </trkpt>
      <trkpt lat="54.314843025058508" lon="13.096167985349894">
        <ele>-16.210000000000001</ele>
        <time>2024-09-15T15:16:32Z</time>
      </trkpt>
      <trkpt lat="54.31489197537303" lon="13.096139989793301">
        <ele>-16.210000000000001</ele>
        <time>2024-09-15T15:16:33Z</time>
      </trkpt>
      <trkpt lat="54.314940003678203" lon="13.096111994236708">
        <ele>-16.210000000000001</ele>
        <time>2024-09-15T15:16:34Z</time>
      </trkpt>
      <trkpt lat="54.314988031983376" lon="13.096085004508495">
        <ele>-15.720000000000001</ele>
        <time>2024-09-15T15:16:35Z</time>
      </trkpt>
      <trkpt lat="54.315037988126278" lon="13.096057008951902">
        <ele>-15.720000000000001</ele>
        <time>2024-09-15T15:16:36Z</time>
      </trkpt>
      <trkpt lat="54.315082998946309" lon="13.096031025052071">
        <ele>-15.720000000000001</ele>
        <time>2024-09-15T15:16:37Z</time>
      </trkpt>
      <trkpt lat="54.315122980624437" lon="13.096007974818349">
        <ele>-16.210000000000001</ele>
        <time>2024-09-15T15:16:38Z</time>
      </trkpt>
      <trkpt lat="54.315167991444468" lon="13.095981990918517">
        <ele>-16.210000000000001</ele>
        <time>2024-09-15T15:16:39Z</time>
      </trkpt>
      <trkpt lat="54.315568981692195" lon="13.095670016482472">
        <ele>-17.170000000000002</ele>
        <time>2024-09-15T15:16:47Z</time>
      </trkpt>
      <trkpt lat="54.315611980855465" lon="13.095634980127215">
        <ele>-17.170000000000002</ele>
        <time>2024-09-15T15:16:48Z</time>
      </trkpt>
      <trkpt lat="54.315657997503877" lon="13.095599021762609">
        <ele>-16.690000000000001</ele>
        <time>2024-09-15T15:16:49Z</time>
      </trkpt>
      <trkpt lat="54.31575195863843" lon="13.095568008720875">
        <ele>-15.720000000000001</ele>
        <time>2024-09-15T15:16:50Z</time>
      </trkpt>
      <trkpt lat="54.315774003043771" lon="13.095641015097499">
        <ele>-14.76</ele>
        <time>2024-09-15T15:16:51Z</time>
      </trkpt>
      <trkpt lat="54.315798981115222" lon="13.0957290250808">
        <ele>-14.279999999999999</ele>
        <time>2024-09-15T15:16:52Z</time>
      </trkpt>
      <trkpt lat="54.315821025520563" lon="13.095803959295154">
        <ele>-13.32</ele>
        <time>2024-09-15T15:16:53Z</time>
      </trkpt>
      <trkpt lat="54.315841980278492" lon="13.095875959843397">
        <ele>-12.84</ele>
        <time>2024-09-15T15:16:54Z</time>
      </trkpt>
      <trkpt lat="54.315860001370311" lon="13.095938991755247">
        <ele>-12.359999999999999</ele>
        <time>2024-09-15T15:16:55Z</time>
      </trkpt>
      <trkpt lat="54.315873999148607" lon="13.095985008403659">
        <ele>-11.880000000000001</ele>
        <time>2024-09-15T15:16:56Z</time>
      </trkpt>
      <trkpt lat="54.315870981663465" lon="13.096065977588296">
        <ele>-11.4</ele>
        <time>2024-09-15T15:16:57Z</time>
      </trkpt>
      <trkpt lat="54.315839968621731" lon="13.09609598480165">
        <ele>-11.4</ele>
        <time>2024-09-15T15:16:58Z</time>
      </trkpt>
      <trkpt lat="54.315803004428744" lon="13.096131021156907">
        <ele>-11.4</ele>
        <time>2024-09-15T15:16:59Z</time>
      </trkpt>
      <trkpt lat="54.315764028578997" lon="13.096168991178274">
        <ele>-10.92</ele>
        <time>2024-09-15T15:17:00Z</time>
      </trkpt>
      <trkpt lat="54.315717006102204" lon="13.096212996169925">
        <ele>-10.92</ele>
        <time>2024-09-15T15:17:01Z</time>
      </trkpt>
      <trkpt lat="54.315673001110554" lon="13.096254989504814">
        <ele>-10.44</ele>
        <time>2024-09-15T15:17:02Z</time>
      </trkpt>
      <trkpt lat="54.315627990290523" lon="13.096297988668084">
        <ele>-10.44</ele>
        <time>2024-09-15T15:17:03Z</time>
      </trkpt>
      <trkpt lat="54.315538974478841" lon="13.096382981166244">
        <ele>-10.44</ele>
        <time>2024-09-15T15:17:05Z</time>
      </trkpt>
      <trkpt lat="54.315496981143951" lon="13.096422962844372">
        <ele>-9.960000000000001</ele>
        <time>2024-09-15T15:17:06Z</time>
      </trkpt>
      <trkpt lat="54.315219037234783" lon="13.096687998622656">
        <ele>-8.029999999999999</ele>
        <time>2024-09-15T15:17:13Z</time>
      </trkpt>
      <trkpt lat="54.315186012536287" lon="13.096720017492771">
        <ele>-7.55</ele>
        <time>2024-09-15T15:17:14Z</time>
      </trkpt>
      <trkpt lat="54.314961964264512" lon="13.097001984715462">
        <ele>-4.67</ele>
        <time>2024-09-15T15:17:24Z</time>
      </trkpt>
      <trkpt lat="54.314937992021441" lon="13.097272971644998">
        <ele>-2.75</ele>
        <time>2024-09-15T15:17:31Z</time>
      </trkpt>
      <trkpt lat="54.3149349745363" lon="13.097304990515113">
        <ele>-2.27</ele>
        <time>2024-09-15T15:17:32Z</time>
      </trkpt>
      <trkpt lat="54.31493204087019" lon="13.09734002687037">
        <ele>-1.3</ele>
        <time>2024-09-15T15:17:33Z</time>
      </trkpt>
      <trkpt lat="54.314929023385048" lon="13.097365004941821">
        <ele>-0.82</ele>
        <time>2024-09-15T15:17:34Z</time>
      </trkpt>
      <trkpt lat="54.314927011728287" lon="13.097386965528131">
        <ele>-0.82</ele>
        <time>2024-09-15T15:17:35Z</time>
      </trkpt>
      <trkpt lat="54.314926005899906" lon="13.097398029640317">
        <ele>-0.34</ele>
        <time>2024-09-15T15:17:36Z</time>
      </trkpt>
      <trkpt lat="54.314926005899906" lon="13.097398029640317">
        <ele>0.14</ele>
        <time>2024-09-15T15:17:37Z</time>
      </trkpt>
      <trkpt lat="54.314926005899906" lon="13.097398029640317">
        <ele>0.14</ele>
        <time>2024-09-15T15:17:38Z</time>
      </trkpt>
      <trkpt lat="54.314926005899906" lon="13.097398029640317">
        <ele>0.14</ele>
        <time>2024-09-15T15:17:49Z</time>
      </trkpt>
      <trkpt lat="54.314926005899906" lon="13.097398029640317">
        <ele>1.1</ele>
        <time>2024-09-15T15:18:03Z</time>
      </trkpt>
    </trkseg>
  </trk>

</gpx>